<?xml version="1.0"?>
<gpx
 version="1.1"
 creator="Satmap Active 20"
 xmlns:xsi="http://www.w3.org/2001/XMLSchema-instance"
 xmlns="http://www.topografix.com/GPX/1/1"
 xmlns:satmap="http://www.satmap.com/updates/xmlschemas/GpxExtensions/v2/GpxExtensions_v2.xsd"
 xsi:schemaLocation="http://www.topografix.com/GPX/1/1 http://www.topografix.com/GPX/1/1/gpx.xsd">
<metadata>
<time>2020-09-24T08:55:23Z</time>
<extensions>
<satmap:platform>43</satmap:platform>
<satmap:software version="3.12.831">SM15.exe</satmap:software>
<satmap:username>Jim Grant</satmap:username>
<satmap:network_ids>
<satmap:network_id type="wifi">00-23-A7-EC-D5-78</satmap:network_id>
<satmap:network_id type="bluetooth">80-BB-EB-D7-5B-7C</satmap:network_id>
</satmap:network_ids>
<satmap:snap_type>simple</satmap:snap_type>
</extensions>
</metadata>
<trk>
<name>2020-09-24_0855</name>
<desc>Track 1</desc>
<number>1</number>
<trkseg>
<trkpt lat="53.536288" lon="-1.974462"><ele>282</ele><time>2020-09-24T08:55:23Z</time><name>PT1</name></trkpt>
<trkpt lat="53.536289" lon="-1.974461"><ele>282</ele><time>2020-09-24T08:55:38Z</time><name>PT2</name></trkpt>
<trkpt lat="53.536287" lon="-1.974455"><ele>282</ele><time>2020-09-24T08:55:39Z</time><name>PT3</name></trkpt>
<trkpt lat="53.536286" lon="-1.974443"><ele>282</ele><time>2020-09-24T08:55:40Z</time><name>PT4</name></trkpt>
<trkpt lat="53.536289" lon="-1.974446"><ele>282</ele><time>2020-09-24T08:55:41Z</time><name>PT5</name></trkpt>
<trkpt lat="53.536296" lon="-1.974448"><ele>282</ele><time>2020-09-24T08:55:42Z</time><name>PT6</name></trkpt>
<trkpt lat="53.536299" lon="-1.974448"><ele>282</ele><time>2020-09-24T08:55:43Z</time><name>PT7</name></trkpt>
<trkpt lat="53.536297" lon="-1.974435"><ele>282</ele><time>2020-09-24T08:55:44Z</time><name>PT8</name></trkpt>
<trkpt lat="53.536292" lon="-1.974434"><ele>281</ele><time>2020-09-24T08:55:45Z</time><name>PT9</name></trkpt>
<trkpt lat="53.536290" lon="-1.974436"><ele>281</ele><time>2020-09-24T08:55:46Z</time><name>PT10</name></trkpt>
<trkpt lat="53.536288" lon="-1.974433"><ele>280</ele><time>2020-09-24T08:56:07Z</time><name>PT11</name></trkpt>
<trkpt lat="53.536281" lon="-1.974420"><ele>280</ele><time>2020-09-24T08:56:08Z</time><name>PT12</name></trkpt>
<trkpt lat="53.536281" lon="-1.974411"><ele>281</ele><time>2020-09-24T08:56:49Z</time><name>PT13</name></trkpt>
<trkpt lat="53.536281" lon="-1.974398"><ele>281</ele><time>2020-09-24T08:56:50Z</time><name>PT14</name></trkpt>
<trkpt lat="53.536281" lon="-1.974397"><ele>281</ele><time>2020-09-24T08:56:51Z</time><name>PT15</name></trkpt>
<trkpt lat="53.536281" lon="-1.974392"><ele>282</ele><time>2020-09-24T09:01:16Z</time><name>PT16</name></trkpt>
<trkpt lat="53.536297" lon="-1.974404"><ele>282</ele><time>2020-09-24T09:01:20Z</time><name>PT17</name></trkpt>
<trkpt lat="53.536299" lon="-1.974405"><ele>282</ele><time>2020-09-24T09:01:24Z</time><name>PT18</name></trkpt>
<trkpt lat="53.536303" lon="-1.974408"><ele>282</ele><time>2020-09-24T09:02:35Z</time><name>PT19</name></trkpt>
<trkpt lat="53.536286" lon="-1.974465"><ele>283</ele><time>2020-09-24T09:03:49Z</time><name>PT20</name></trkpt>
<trkpt lat="53.536268" lon="-1.974565"><ele>282</ele><time>2020-09-24T09:03:53Z</time><name>PT21</name></trkpt>
<trkpt lat="53.536251" lon="-1.974572"><ele>281</ele><time>2020-09-24T09:03:56Z</time><name>PT22</name></trkpt>
<trkpt lat="53.536221" lon="-1.974563"><ele>281</ele><time>2020-09-24T09:03:59Z</time><name>PT23</name></trkpt>
<trkpt lat="53.536184" lon="-1.974560"><ele>284</ele><time>2020-09-24T09:04:03Z</time><name>PT24</name></trkpt>
<trkpt lat="53.536163" lon="-1.974560"><ele>283</ele><time>2020-09-24T09:04:07Z</time><name>PT25</name></trkpt>
<trkpt lat="53.536130" lon="-1.974565"><ele>282</ele><time>2020-09-24T09:04:11Z</time><name>PT26</name></trkpt>
<trkpt lat="53.536110" lon="-1.974549"><ele>281</ele><time>2020-09-24T09:04:15Z</time><name>PT27</name></trkpt>
<trkpt lat="53.536082" lon="-1.974527"><ele>278</ele><time>2020-09-24T09:04:19Z</time><name>PT28</name></trkpt>
<trkpt lat="53.536068" lon="-1.974505"><ele>276</ele><time>2020-09-24T09:04:23Z</time><name>PT29</name></trkpt>
<trkpt lat="53.536054" lon="-1.974489"><ele>273</ele><time>2020-09-24T09:04:27Z</time><name>PT30</name></trkpt>
<trkpt lat="53.536049" lon="-1.974469"><ele>275</ele><time>2020-09-24T09:04:31Z</time><name>PT31</name></trkpt>
<trkpt lat="53.536035" lon="-1.974471"><ele>274</ele><time>2020-09-24T09:04:34Z</time><name>PT32</name></trkpt>
<trkpt lat="53.536009" lon="-1.974480"><ele>273</ele><time>2020-09-24T09:04:38Z</time><name>PT33</name></trkpt>
<trkpt lat="53.535993" lon="-1.974466"><ele>273</ele><time>2020-09-24T09:04:41Z</time><name>PT34</name></trkpt>
<trkpt lat="53.535951" lon="-1.974469"><ele>274</ele><time>2020-09-24T09:04:45Z</time><name>PT35</name></trkpt>
<trkpt lat="53.535911" lon="-1.974478"><ele>274</ele><time>2020-09-24T09:04:49Z</time><name>PT36</name></trkpt>
<trkpt lat="53.535878" lon="-1.974472"><ele>273</ele><time>2020-09-24T09:04:53Z</time><name>PT37</name></trkpt>
<trkpt lat="53.535855" lon="-1.974454"><ele>274</ele><time>2020-09-24T09:04:56Z</time><name>PT38</name></trkpt>
<trkpt lat="53.535824" lon="-1.974444"><ele>276</ele><time>2020-09-24T09:05:00Z</time><name>PT39</name></trkpt>
<trkpt lat="53.535802" lon="-1.974455"><ele>274</ele><time>2020-09-24T09:05:04Z</time><name>PT40</name></trkpt>
<trkpt lat="53.535791" lon="-1.974458"><ele>273</ele><time>2020-09-24T09:05:08Z</time><name>PT41</name></trkpt>
<trkpt lat="53.535769" lon="-1.974469"><ele>274</ele><time>2020-09-24T09:05:12Z</time><name>PT42</name></trkpt>
<trkpt lat="53.535769" lon="-1.974498"><ele>269</ele><time>2020-09-24T09:05:16Z</time><name>PT43</name></trkpt>
<trkpt lat="53.535749" lon="-1.974568"><ele>264</ele><time>2020-09-24T09:05:20Z</time><name>PT44</name></trkpt>
<trkpt lat="53.535709" lon="-1.974683"><ele>263</ele><time>2020-09-24T09:05:24Z</time><name>PT45</name></trkpt>
<trkpt lat="53.535671" lon="-1.974712"><ele>263</ele><time>2020-09-24T09:05:28Z</time><name>PT46</name></trkpt>
<trkpt lat="53.535639" lon="-1.974733"><ele>264</ele><time>2020-09-24T09:05:32Z</time><name>PT47</name></trkpt>
<trkpt lat="53.535605" lon="-1.974758"><ele>263</ele><time>2020-09-24T09:05:36Z</time><name>PT48</name></trkpt>
<trkpt lat="53.535573" lon="-1.974787"><ele>265</ele><time>2020-09-24T09:05:40Z</time><name>PT49</name></trkpt>
<trkpt lat="53.535551" lon="-1.974804"><ele>268</ele><time>2020-09-24T09:05:44Z</time><name>PT50</name></trkpt>
<trkpt lat="53.535538" lon="-1.974814"><ele>270</ele><time>2020-09-24T09:05:48Z</time><name>PT51</name></trkpt>
<trkpt lat="53.535494" lon="-1.974890"><ele>266</ele><time>2020-09-24T09:05:52Z</time><name>PT52</name></trkpt>
<trkpt lat="53.535452" lon="-1.974910"><ele>266</ele><time>2020-09-24T09:05:56Z</time><name>PT53</name></trkpt>
<trkpt lat="53.535430" lon="-1.974938"><ele>266</ele><time>2020-09-24T09:06:00Z</time><name>PT54</name></trkpt>
<trkpt lat="53.535382" lon="-1.974954"><ele>264</ele><time>2020-09-24T09:06:04Z</time><name>PT55</name></trkpt>
<trkpt lat="53.535354" lon="-1.974917"><ele>263</ele><time>2020-09-24T09:06:08Z</time><name>PT56</name></trkpt>
<trkpt lat="53.535327" lon="-1.974891"><ele>264</ele><time>2020-09-24T09:06:12Z</time><name>PT57</name></trkpt>
<trkpt lat="53.535323" lon="-1.974898"><ele>264</ele><time>2020-09-24T09:06:16Z</time><name>PT58</name></trkpt>
<trkpt lat="53.535331" lon="-1.974883"><ele>264</ele><time>2020-09-24T09:06:24Z</time><name>PT59</name></trkpt>
<trkpt lat="53.535329" lon="-1.974890"><ele>264</ele><time>2020-09-24T09:06:28Z</time><name>PT60</name></trkpt>
<trkpt lat="53.535343" lon="-1.974791"><ele>263</ele><time>2020-09-24T09:06:32Z</time><name>PT61</name></trkpt>
<trkpt lat="53.535323" lon="-1.974703"><ele>262</ele><time>2020-09-24T09:06:36Z</time><name>PT62</name></trkpt>
<trkpt lat="53.535329" lon="-1.974644"><ele>261</ele><time>2020-09-24T09:06:40Z</time><name>PT63</name></trkpt>
<trkpt lat="53.535332" lon="-1.974586"><ele>261</ele><time>2020-09-24T09:06:44Z</time><name>PT64</name></trkpt>
<trkpt lat="53.535342" lon="-1.974527"><ele>260</ele><time>2020-09-24T09:06:48Z</time><name>PT65</name></trkpt>
<trkpt lat="53.535356" lon="-1.974475"><ele>258</ele><time>2020-09-24T09:06:52Z</time><name>PT66</name></trkpt>
<trkpt lat="53.535372" lon="-1.974441"><ele>257</ele><time>2020-09-24T09:06:56Z</time><name>PT67</name></trkpt>
<trkpt lat="53.535385" lon="-1.974398"><ele>255</ele><time>2020-09-24T09:07:00Z</time><name>PT68</name></trkpt>
<trkpt lat="53.535404" lon="-1.974325"><ele>254</ele><time>2020-09-24T09:07:04Z</time><name>PT69</name></trkpt>
<trkpt lat="53.535430" lon="-1.974272"><ele>253</ele><time>2020-09-24T09:07:08Z</time><name>PT70</name></trkpt>
<trkpt lat="53.535468" lon="-1.974168"><ele>255</ele><time>2020-09-24T09:07:12Z</time><name>PT71</name></trkpt>
<trkpt lat="53.535491" lon="-1.974093"><ele>255</ele><time>2020-09-24T09:07:16Z</time><name>PT72</name></trkpt>
<trkpt lat="53.535513" lon="-1.974038"><ele>254</ele><time>2020-09-24T09:07:20Z</time><name>PT73</name></trkpt>
<trkpt lat="53.535539" lon="-1.973982"><ele>253</ele><time>2020-09-24T09:07:24Z</time><name>PT74</name></trkpt>
<trkpt lat="53.535563" lon="-1.973908"><ele>252</ele><time>2020-09-24T09:07:28Z</time><name>PT75</name></trkpt>
<trkpt lat="53.535593" lon="-1.973844"><ele>251</ele><time>2020-09-24T09:07:32Z</time><name>PT76</name></trkpt>
<trkpt lat="53.535624" lon="-1.973792"><ele>250</ele><time>2020-09-24T09:07:36Z</time><name>PT77</name></trkpt>
<trkpt lat="53.535653" lon="-1.973720"><ele>249</ele><time>2020-09-24T09:07:40Z</time><name>PT78</name></trkpt>
<trkpt lat="53.535692" lon="-1.973670"><ele>249</ele><time>2020-09-24T09:07:44Z</time><name>PT79</name></trkpt>
<trkpt lat="53.535716" lon="-1.973590"><ele>250</ele><time>2020-09-24T09:07:48Z</time><name>PT80</name></trkpt>
<trkpt lat="53.535743" lon="-1.973511"><ele>249</ele><time>2020-09-24T09:07:52Z</time><name>PT81</name></trkpt>
<trkpt lat="53.535772" lon="-1.973453"><ele>249</ele><time>2020-09-24T09:07:56Z</time><name>PT82</name></trkpt>
<trkpt lat="53.535803" lon="-1.973354"><ele>252</ele><time>2020-09-24T09:08:00Z</time><name>PT83</name></trkpt>
<trkpt lat="53.535819" lon="-1.973296"><ele>252</ele><time>2020-09-24T09:08:04Z</time><name>PT84</name></trkpt>
<trkpt lat="53.535855" lon="-1.973220"><ele>253</ele><time>2020-09-24T09:08:08Z</time><name>PT85</name></trkpt>
<trkpt lat="53.535884" lon="-1.973152"><ele>253</ele><time>2020-09-24T09:08:12Z</time><name>PT86</name></trkpt>
<trkpt lat="53.535910" lon="-1.973084"><ele>251</ele><time>2020-09-24T09:08:16Z</time><name>PT87</name></trkpt>
<trkpt lat="53.535932" lon="-1.973044"><ele>251</ele><time>2020-09-24T09:08:20Z</time><name>PT88</name></trkpt>
<trkpt lat="53.535950" lon="-1.972983"><ele>252</ele><time>2020-09-24T09:08:24Z</time><name>PT89</name></trkpt>
<trkpt lat="53.535979" lon="-1.972952"><ele>250</ele><time>2020-09-24T09:08:28Z</time><name>PT90</name></trkpt>
<trkpt lat="53.536005" lon="-1.972900"><ele>250</ele><time>2020-09-24T09:08:32Z</time><name>PT91</name></trkpt>
<trkpt lat="53.536038" lon="-1.972840"><ele>248</ele><time>2020-09-24T09:08:36Z</time><name>PT92</name></trkpt>
<trkpt lat="53.536082" lon="-1.972770"><ele>248</ele><time>2020-09-24T09:08:40Z</time><name>PT93</name></trkpt>
<trkpt lat="53.536117" lon="-1.972712"><ele>247</ele><time>2020-09-24T09:08:44Z</time><name>PT94</name></trkpt>
<trkpt lat="53.536149" lon="-1.972652"><ele>247</ele><time>2020-09-24T09:08:48Z</time><name>PT95</name></trkpt>
<trkpt lat="53.536191" lon="-1.972590"><ele>247</ele><time>2020-09-24T09:08:52Z</time><name>PT96</name></trkpt>
<trkpt lat="53.536244" lon="-1.972540"><ele>248</ele><time>2020-09-24T09:08:56Z</time><name>PT97</name></trkpt>
<trkpt lat="53.536289" lon="-1.972477"><ele>248</ele><time>2020-09-24T09:09:00Z</time><name>PT98</name></trkpt>
<trkpt lat="53.536326" lon="-1.972423"><ele>246</ele><time>2020-09-24T09:09:04Z</time><name>PT99</name></trkpt>
<trkpt lat="53.536372" lon="-1.972380"><ele>247</ele><time>2020-09-24T09:09:08Z</time><name>PT100</name></trkpt>
<trkpt lat="53.536399" lon="-1.972359"><ele>248</ele><time>2020-09-24T09:09:12Z</time><name>PT101</name></trkpt>
<trkpt lat="53.536417" lon="-1.972332"><ele>247</ele><time>2020-09-24T09:09:16Z</time><name>PT102</name></trkpt>
<trkpt lat="53.536445" lon="-1.972273"><ele>248</ele><time>2020-09-24T09:09:20Z</time><name>PT103</name></trkpt>
<trkpt lat="53.536475" lon="-1.972214"><ele>247</ele><time>2020-09-24T09:09:24Z</time><name>PT104</name></trkpt>
<trkpt lat="53.536515" lon="-1.972172"><ele>246</ele><time>2020-09-24T09:09:28Z</time><name>PT105</name></trkpt>
<trkpt lat="53.536562" lon="-1.972137"><ele>246</ele><time>2020-09-24T09:09:32Z</time><name>PT106</name></trkpt>
<trkpt lat="53.536600" lon="-1.972095"><ele>246</ele><time>2020-09-24T09:09:36Z</time><name>PT107</name></trkpt>
<trkpt lat="53.536638" lon="-1.972049"><ele>246</ele><time>2020-09-24T09:09:40Z</time><name>PT108</name></trkpt>
<trkpt lat="53.536678" lon="-1.971988"><ele>245</ele><time>2020-09-24T09:09:44Z</time><name>PT109</name></trkpt>
<trkpt lat="53.536725" lon="-1.971943"><ele>244</ele><time>2020-09-24T09:09:48Z</time><name>PT110</name></trkpt>
<trkpt lat="53.536764" lon="-1.971894"><ele>243</ele><time>2020-09-24T09:09:52Z</time><name>PT111</name></trkpt>
<trkpt lat="53.536807" lon="-1.971856"><ele>243</ele><time>2020-09-24T09:09:56Z</time><name>PT112</name></trkpt>
<trkpt lat="53.536838" lon="-1.971818"><ele>242</ele><time>2020-09-24T09:09:59Z</time><name>PT113</name></trkpt>
<trkpt lat="53.536869" lon="-1.971774"><ele>239</ele><time>2020-09-24T09:10:03Z</time><name>PT114</name></trkpt>
<trkpt lat="53.536903" lon="-1.971724"><ele>236</ele><time>2020-09-24T09:10:07Z</time><name>PT115</name></trkpt>
<trkpt lat="53.536943" lon="-1.971686"><ele>236</ele><time>2020-09-24T09:10:10Z</time><name>PT116</name></trkpt>
<trkpt lat="53.536993" lon="-1.971650"><ele>233</ele><time>2020-09-24T09:10:14Z</time><name>PT117</name></trkpt>
<trkpt lat="53.537037" lon="-1.971599"><ele>232</ele><time>2020-09-24T09:10:18Z</time><name>PT118</name></trkpt>
<trkpt lat="53.537083" lon="-1.971538"><ele>234</ele><time>2020-09-24T09:10:22Z</time><name>PT119</name></trkpt>
<trkpt lat="53.537134" lon="-1.971479"><ele>235</ele><time>2020-09-24T09:10:26Z</time><name>PT120</name></trkpt>
<trkpt lat="53.537175" lon="-1.971402"><ele>236</ele><time>2020-09-24T09:10:30Z</time><name>PT121</name></trkpt>
<trkpt lat="53.537229" lon="-1.971337"><ele>238</ele><time>2020-09-24T09:10:34Z</time><name>PT122</name></trkpt>
<trkpt lat="53.537279" lon="-1.971297"><ele>239</ele><time>2020-09-24T09:10:38Z</time><name>PT123</name></trkpt>
<trkpt lat="53.537329" lon="-1.971288"><ele>239</ele><time>2020-09-24T09:10:42Z</time><name>PT124</name></trkpt>
<trkpt lat="53.537380" lon="-1.971277"><ele>239</ele><time>2020-09-24T09:10:46Z</time><name>PT125</name></trkpt>
<trkpt lat="53.537438" lon="-1.971262"><ele>239</ele><time>2020-09-24T09:10:50Z</time><name>PT126</name></trkpt>
<trkpt lat="53.537494" lon="-1.971256"><ele>239</ele><time>2020-09-24T09:10:54Z</time><name>PT127</name></trkpt>
<trkpt lat="53.537546" lon="-1.971248"><ele>240</ele><time>2020-09-24T09:10:58Z</time><name>PT128</name></trkpt>
<trkpt lat="53.537592" lon="-1.971251"><ele>239</ele><time>2020-09-24T09:11:02Z</time><name>PT129</name></trkpt>
<trkpt lat="53.537648" lon="-1.971251"><ele>239</ele><time>2020-09-24T09:11:06Z</time><name>PT130</name></trkpt>
<trkpt lat="53.537701" lon="-1.971261"><ele>238</ele><time>2020-09-24T09:11:10Z</time><name>PT131</name></trkpt>
<trkpt lat="53.537741" lon="-1.971293"><ele>237</ele><time>2020-09-24T09:11:14Z</time><name>PT132</name></trkpt>
<trkpt lat="53.537781" lon="-1.971338"><ele>236</ele><time>2020-09-24T09:11:18Z</time><name>PT133</name></trkpt>
<trkpt lat="53.537827" lon="-1.971385"><ele>236</ele><time>2020-09-24T09:11:22Z</time><name>PT134</name></trkpt>
<trkpt lat="53.537864" lon="-1.971438"><ele>236</ele><time>2020-09-24T09:11:26Z</time><name>PT135</name></trkpt>
<trkpt lat="53.537908" lon="-1.971462"><ele>235</ele><time>2020-09-24T09:11:30Z</time><name>PT136</name></trkpt>
<trkpt lat="53.537952" lon="-1.971489"><ele>235</ele><time>2020-09-24T09:11:34Z</time><name>PT137</name></trkpt>
<trkpt lat="53.538012" lon="-1.971503"><ele>237</ele><time>2020-09-24T09:11:38Z</time><name>PT138</name></trkpt>
<trkpt lat="53.538066" lon="-1.971517"><ele>238</ele><time>2020-09-24T09:11:42Z</time><name>PT139</name></trkpt>
<trkpt lat="53.538111" lon="-1.971522"><ele>238</ele><time>2020-09-24T09:11:46Z</time><name>PT140</name></trkpt>
<trkpt lat="53.538162" lon="-1.971525"><ele>238</ele><time>2020-09-24T09:11:50Z</time><name>PT141</name></trkpt>
<trkpt lat="53.538204" lon="-1.971539"><ele>237</ele><time>2020-09-24T09:11:54Z</time><name>PT142</name></trkpt>
<trkpt lat="53.538256" lon="-1.971537"><ele>236</ele><time>2020-09-24T09:11:58Z</time><name>PT143</name></trkpt>
<trkpt lat="53.538311" lon="-1.971533"><ele>237</ele><time>2020-09-24T09:12:02Z</time><name>PT144</name></trkpt>
<trkpt lat="53.538338" lon="-1.971538"><ele>238</ele><time>2020-09-24T09:12:06Z</time><name>PT145</name></trkpt>
<trkpt lat="53.538336" lon="-1.971540"><ele>238</ele><time>2020-09-24T09:12:10Z</time><name>PT146</name></trkpt>
<trkpt lat="53.538378" lon="-1.971531"><ele>238</ele><time>2020-09-24T09:12:14Z</time><name>PT147</name></trkpt>
<trkpt lat="53.538428" lon="-1.971535"><ele>238</ele><time>2020-09-24T09:12:18Z</time><name>PT148</name></trkpt>
<trkpt lat="53.538474" lon="-1.971532"><ele>237</ele><time>2020-09-24T09:12:22Z</time><name>PT149</name></trkpt>
<trkpt lat="53.538528" lon="-1.971520"><ele>237</ele><time>2020-09-24T09:12:26Z</time><name>PT150</name></trkpt>
<trkpt lat="53.538578" lon="-1.971515"><ele>238</ele><time>2020-09-24T09:12:30Z</time><name>PT151</name></trkpt>
<trkpt lat="53.538627" lon="-1.971510"><ele>237</ele><time>2020-09-24T09:12:34Z</time><name>PT152</name></trkpt>
<trkpt lat="53.538680" lon="-1.971493"><ele>238</ele><time>2020-09-24T09:12:38Z</time><name>PT153</name></trkpt>
<trkpt lat="53.538725" lon="-1.971497"><ele>238</ele><time>2020-09-24T09:12:42Z</time><name>PT154</name></trkpt>
<trkpt lat="53.538777" lon="-1.971492"><ele>238</ele><time>2020-09-24T09:12:46Z</time><name>PT155</name></trkpt>
<trkpt lat="53.538828" lon="-1.971493"><ele>238</ele><time>2020-09-24T09:12:50Z</time><name>PT156</name></trkpt>
<trkpt lat="53.538879" lon="-1.971489"><ele>238</ele><time>2020-09-24T09:12:54Z</time><name>PT157</name></trkpt>
<trkpt lat="53.538934" lon="-1.971478"><ele>238</ele><time>2020-09-24T09:12:58Z</time><name>PT158</name></trkpt>
<trkpt lat="53.538984" lon="-1.971475"><ele>238</ele><time>2020-09-24T09:13:02Z</time><name>PT159</name></trkpt>
<trkpt lat="53.539031" lon="-1.971469"><ele>238</ele><time>2020-09-24T09:13:06Z</time><name>PT160</name></trkpt>
<trkpt lat="53.539067" lon="-1.971451"><ele>239</ele><time>2020-09-24T09:13:10Z</time><name>PT161</name></trkpt>
<trkpt lat="53.539070" lon="-1.971453"><ele>237</ele><time>2020-09-24T09:13:14Z</time><name>PT162</name></trkpt>
<trkpt lat="53.539095" lon="-1.971450"><ele>237</ele><time>2020-09-24T09:13:26Z</time><name>PT163</name></trkpt>
<trkpt lat="53.539166" lon="-1.971438"><ele>237</ele><time>2020-09-24T09:13:30Z</time><name>PT164</name></trkpt>
<trkpt lat="53.539217" lon="-1.971429"><ele>237</ele><time>2020-09-24T09:13:34Z</time><name>PT165</name></trkpt>
<trkpt lat="53.539286" lon="-1.971429"><ele>238</ele><time>2020-09-24T09:13:38Z</time><name>PT166</name></trkpt>
<trkpt lat="53.539341" lon="-1.971411"><ele>239</ele><time>2020-09-24T09:13:42Z</time><name>PT167</name></trkpt>
<trkpt lat="53.539398" lon="-1.971402"><ele>238</ele><time>2020-09-24T09:13:46Z</time><name>PT168</name></trkpt>
<trkpt lat="53.539450" lon="-1.971388"><ele>238</ele><time>2020-09-24T09:13:50Z</time><name>PT169</name></trkpt>
<trkpt lat="53.539503" lon="-1.971375"><ele>238</ele><time>2020-09-24T09:13:54Z</time><name>PT170</name></trkpt>
<trkpt lat="53.539558" lon="-1.971357"><ele>239</ele><time>2020-09-24T09:13:58Z</time><name>PT171</name></trkpt>
<trkpt lat="53.539612" lon="-1.971348"><ele>237</ele><time>2020-09-24T09:14:02Z</time><name>PT172</name></trkpt>
<trkpt lat="53.539662" lon="-1.971298"><ele>239</ele><time>2020-09-24T09:14:06Z</time><name>PT173</name></trkpt>
<trkpt lat="53.539709" lon="-1.971270"><ele>239</ele><time>2020-09-24T09:14:10Z</time><name>PT174</name></trkpt>
<trkpt lat="53.539756" lon="-1.971243"><ele>238</ele><time>2020-09-24T09:14:14Z</time><name>PT175</name></trkpt>
<trkpt lat="53.539809" lon="-1.971219"><ele>239</ele><time>2020-09-24T09:14:18Z</time><name>PT176</name></trkpt>
<trkpt lat="53.539857" lon="-1.971192"><ele>239</ele><time>2020-09-24T09:14:22Z</time><name>PT177</name></trkpt>
<trkpt lat="53.539902" lon="-1.971166"><ele>238</ele><time>2020-09-24T09:14:26Z</time><name>PT178</name></trkpt>
<trkpt lat="53.539954" lon="-1.971142"><ele>239</ele><time>2020-09-24T09:14:30Z</time><name>PT179</name></trkpt>
<trkpt lat="53.539999" lon="-1.971114"><ele>239</ele><time>2020-09-24T09:14:34Z</time><name>PT180</name></trkpt>
<trkpt lat="53.540044" lon="-1.971089"><ele>239</ele><time>2020-09-24T09:14:38Z</time><name>PT181</name></trkpt>
<trkpt lat="53.540092" lon="-1.971066"><ele>240</ele><time>2020-09-24T09:14:42Z</time><name>PT182</name></trkpt>
<trkpt lat="53.540139" lon="-1.971051"><ele>239</ele><time>2020-09-24T09:14:46Z</time><name>PT183</name></trkpt>
<trkpt lat="53.540192" lon="-1.971033"><ele>240</ele><time>2020-09-24T09:14:50Z</time><name>PT184</name></trkpt>
<trkpt lat="53.540246" lon="-1.971013"><ele>241</ele><time>2020-09-24T09:14:54Z</time><name>PT185</name></trkpt>
<trkpt lat="53.540289" lon="-1.971001"><ele>240</ele><time>2020-09-24T09:14:58Z</time><name>PT186</name></trkpt>
<trkpt lat="53.540338" lon="-1.970979"><ele>240</ele><time>2020-09-24T09:15:02Z</time><name>PT187</name></trkpt>
<trkpt lat="53.540393" lon="-1.970961"><ele>240</ele><time>2020-09-24T09:15:06Z</time><name>PT188</name></trkpt>
<trkpt lat="53.540435" lon="-1.970934"><ele>241</ele><time>2020-09-24T09:15:10Z</time><name>PT189</name></trkpt>
<trkpt lat="53.540481" lon="-1.970920"><ele>241</ele><time>2020-09-24T09:15:14Z</time><name>PT190</name></trkpt>
<trkpt lat="53.540522" lon="-1.970879"><ele>241</ele><time>2020-09-24T09:15:18Z</time><name>PT191</name></trkpt>
<trkpt lat="53.540566" lon="-1.970851"><ele>241</ele><time>2020-09-24T09:15:22Z</time><name>PT192</name></trkpt>
<trkpt lat="53.540614" lon="-1.970817"><ele>242</ele><time>2020-09-24T09:15:26Z</time><name>PT193</name></trkpt>
<trkpt lat="53.540661" lon="-1.970793"><ele>241</ele><time>2020-09-24T09:15:30Z</time><name>PT194</name></trkpt>
<trkpt lat="53.540707" lon="-1.970772"><ele>240</ele><time>2020-09-24T09:15:34Z</time><name>PT195</name></trkpt>
<trkpt lat="53.540754" lon="-1.970733"><ele>240</ele><time>2020-09-24T09:15:38Z</time><name>PT196</name></trkpt>
<trkpt lat="53.540800" lon="-1.970706"><ele>239</ele><time>2020-09-24T09:15:42Z</time><name>PT197</name></trkpt>
<trkpt lat="53.540842" lon="-1.970673"><ele>240</ele><time>2020-09-24T09:15:46Z</time><name>PT198</name></trkpt>
<trkpt lat="53.540890" lon="-1.970635"><ele>240</ele><time>2020-09-24T09:15:50Z</time><name>PT199</name></trkpt>
<trkpt lat="53.540931" lon="-1.970592"><ele>240</ele><time>2020-09-24T09:15:54Z</time><name>PT200</name></trkpt>
<trkpt lat="53.540976" lon="-1.970563"><ele>240</ele><time>2020-09-24T09:15:58Z</time><name>PT201</name></trkpt>
<trkpt lat="53.541011" lon="-1.970524"><ele>239</ele><time>2020-09-24T09:16:02Z</time><name>PT202</name></trkpt>
<trkpt lat="53.541053" lon="-1.970483"><ele>239</ele><time>2020-09-24T09:16:06Z</time><name>PT203</name></trkpt>
<trkpt lat="53.541095" lon="-1.970450"><ele>239</ele><time>2020-09-24T09:16:10Z</time><name>PT204</name></trkpt>
<trkpt lat="53.541137" lon="-1.970408"><ele>240</ele><time>2020-09-24T09:16:14Z</time><name>PT205</name></trkpt>
<trkpt lat="53.541180" lon="-1.970363"><ele>240</ele><time>2020-09-24T09:16:18Z</time><name>PT206</name></trkpt>
<trkpt lat="53.541220" lon="-1.970322"><ele>239</ele><time>2020-09-24T09:16:22Z</time><name>PT207</name></trkpt>
<trkpt lat="53.541265" lon="-1.970266"><ele>240</ele><time>2020-09-24T09:16:26Z</time><name>PT208</name></trkpt>
<trkpt lat="53.541308" lon="-1.970225"><ele>240</ele><time>2020-09-24T09:16:30Z</time><name>PT209</name></trkpt>
<trkpt lat="53.541352" lon="-1.970179"><ele>240</ele><time>2020-09-24T09:16:34Z</time><name>PT210</name></trkpt>
<trkpt lat="53.541395" lon="-1.970136"><ele>240</ele><time>2020-09-24T09:16:38Z</time><name>PT211</name></trkpt>
<trkpt lat="53.541439" lon="-1.970093"><ele>241</ele><time>2020-09-24T09:16:42Z</time><name>PT212</name></trkpt>
<trkpt lat="53.541479" lon="-1.970053"><ele>240</ele><time>2020-09-24T09:16:46Z</time><name>PT213</name></trkpt>
<trkpt lat="53.541520" lon="-1.970013"><ele>239</ele><time>2020-09-24T09:16:50Z</time><name>PT214</name></trkpt>
<trkpt lat="53.541564" lon="-1.969974"><ele>239</ele><time>2020-09-24T09:16:54Z</time><name>PT215</name></trkpt>
<trkpt lat="53.541609" lon="-1.969925"><ele>240</ele><time>2020-09-24T09:16:58Z</time><name>PT216</name></trkpt>
<trkpt lat="53.541650" lon="-1.969880"><ele>240</ele><time>2020-09-24T09:17:02Z</time><name>PT217</name></trkpt>
<trkpt lat="53.541694" lon="-1.969828"><ele>240</ele><time>2020-09-24T09:17:06Z</time><name>PT218</name></trkpt>
<trkpt lat="53.541739" lon="-1.969777"><ele>241</ele><time>2020-09-24T09:17:10Z</time><name>PT219</name></trkpt>
<trkpt lat="53.541782" lon="-1.969729"><ele>240</ele><time>2020-09-24T09:17:14Z</time><name>PT220</name></trkpt>
<trkpt lat="53.541824" lon="-1.969690"><ele>240</ele><time>2020-09-24T09:17:18Z</time><name>PT221</name></trkpt>
<trkpt lat="53.541869" lon="-1.969646"><ele>240</ele><time>2020-09-24T09:17:22Z</time><name>PT222</name></trkpt>
<trkpt lat="53.541910" lon="-1.969612"><ele>239</ele><time>2020-09-24T09:17:26Z</time><name>PT223</name></trkpt>
<trkpt lat="53.541951" lon="-1.969565"><ele>238</ele><time>2020-09-24T09:17:30Z</time><name>PT224</name></trkpt>
<trkpt lat="53.541989" lon="-1.969513"><ele>238</ele><time>2020-09-24T09:17:34Z</time><name>PT225</name></trkpt>
<trkpt lat="53.542030" lon="-1.969463"><ele>238</ele><time>2020-09-24T09:17:38Z</time><name>PT226</name></trkpt>
<trkpt lat="53.542068" lon="-1.969415"><ele>238</ele><time>2020-09-24T09:17:42Z</time><name>PT227</name></trkpt>
<trkpt lat="53.542111" lon="-1.969363"><ele>239</ele><time>2020-09-24T09:17:46Z</time><name>PT228</name></trkpt>
<trkpt lat="53.542157" lon="-1.969313"><ele>239</ele><time>2020-09-24T09:17:50Z</time><name>PT229</name></trkpt>
<trkpt lat="53.542200" lon="-1.969250"><ele>240</ele><time>2020-09-24T09:17:54Z</time><name>PT230</name></trkpt>
<trkpt lat="53.542240" lon="-1.969209"><ele>240</ele><time>2020-09-24T09:17:58Z</time><name>PT231</name></trkpt>
<trkpt lat="53.542283" lon="-1.969166"><ele>240</ele><time>2020-09-24T09:18:02Z</time><name>PT232</name></trkpt>
<trkpt lat="53.542323" lon="-1.969128"><ele>239</ele><time>2020-09-24T09:18:06Z</time><name>PT233</name></trkpt>
<trkpt lat="53.542365" lon="-1.969071"><ele>239</ele><time>2020-09-24T09:18:10Z</time><name>PT234</name></trkpt>
<trkpt lat="53.542406" lon="-1.969015"><ele>240</ele><time>2020-09-24T09:18:14Z</time><name>PT235</name></trkpt>
<trkpt lat="53.542451" lon="-1.968954"><ele>241</ele><time>2020-09-24T09:18:18Z</time><name>PT236</name></trkpt>
<trkpt lat="53.542496" lon="-1.968903"><ele>240</ele><time>2020-09-24T09:18:22Z</time><name>PT237</name></trkpt>
<trkpt lat="53.542536" lon="-1.968855"><ele>240</ele><time>2020-09-24T09:18:26Z</time><name>PT238</name></trkpt>
<trkpt lat="53.542576" lon="-1.968806"><ele>239</ele><time>2020-09-24T09:18:30Z</time><name>PT239</name></trkpt>
<trkpt lat="53.542620" lon="-1.968744"><ele>239</ele><time>2020-09-24T09:18:34Z</time><name>PT240</name></trkpt>
<trkpt lat="53.542662" lon="-1.968698"><ele>239</ele><time>2020-09-24T09:18:38Z</time><name>PT241</name></trkpt>
<trkpt lat="53.542703" lon="-1.968650"><ele>238</ele><time>2020-09-24T09:18:42Z</time><name>PT242</name></trkpt>
<trkpt lat="53.542747" lon="-1.968585"><ele>239</ele><time>2020-09-24T09:18:46Z</time><name>PT243</name></trkpt>
<trkpt lat="53.542788" lon="-1.968527"><ele>239</ele><time>2020-09-24T09:18:50Z</time><name>PT244</name></trkpt>
<trkpt lat="53.542826" lon="-1.968474"><ele>239</ele><time>2020-09-24T09:18:54Z</time><name>PT245</name></trkpt>
<trkpt lat="53.542861" lon="-1.968421"><ele>239</ele><time>2020-09-24T09:18:58Z</time><name>PT246</name></trkpt>
<trkpt lat="53.542896" lon="-1.968370"><ele>239</ele><time>2020-09-24T09:19:02Z</time><name>PT247</name></trkpt>
<trkpt lat="53.542937" lon="-1.968321"><ele>239</ele><time>2020-09-24T09:19:06Z</time><name>PT248</name></trkpt>
<trkpt lat="53.542974" lon="-1.968260"><ele>239</ele><time>2020-09-24T09:19:10Z</time><name>PT249</name></trkpt>
<trkpt lat="53.543010" lon="-1.968216"><ele>238</ele><time>2020-09-24T09:19:14Z</time><name>PT250</name></trkpt>
<trkpt lat="53.543053" lon="-1.968157"><ele>239</ele><time>2020-09-24T09:19:18Z</time><name>PT251</name></trkpt>
<trkpt lat="53.543093" lon="-1.968091"><ele>239</ele><time>2020-09-24T09:19:22Z</time><name>PT252</name></trkpt>
<trkpt lat="53.543134" lon="-1.968024"><ele>240</ele><time>2020-09-24T09:19:26Z</time><name>PT253</name></trkpt>
<trkpt lat="53.543174" lon="-1.967967"><ele>240</ele><time>2020-09-24T09:19:30Z</time><name>PT254</name></trkpt>
<trkpt lat="53.543216" lon="-1.967919"><ele>240</ele><time>2020-09-24T09:19:34Z</time><name>PT255</name></trkpt>
<trkpt lat="53.543250" lon="-1.967870"><ele>239</ele><time>2020-09-24T09:19:38Z</time><name>PT256</name></trkpt>
<trkpt lat="53.543287" lon="-1.967818"><ele>238</ele><time>2020-09-24T09:19:42Z</time><name>PT257</name></trkpt>
<trkpt lat="53.543321" lon="-1.967757"><ele>238</ele><time>2020-09-24T09:19:46Z</time><name>PT258</name></trkpt>
<trkpt lat="53.543363" lon="-1.967702"><ele>238</ele><time>2020-09-24T09:19:50Z</time><name>PT259</name></trkpt>
<trkpt lat="53.543405" lon="-1.967645"><ele>239</ele><time>2020-09-24T09:19:54Z</time><name>PT260</name></trkpt>
<trkpt lat="53.543442" lon="-1.967592"><ele>239</ele><time>2020-09-24T09:19:58Z</time><name>PT261</name></trkpt>
<trkpt lat="53.543480" lon="-1.967526"><ele>240</ele><time>2020-09-24T09:20:02Z</time><name>PT262</name></trkpt>
<trkpt lat="53.543522" lon="-1.967460"><ele>241</ele><time>2020-09-24T09:20:06Z</time><name>PT263</name></trkpt>
<trkpt lat="53.543555" lon="-1.967400"><ele>240</ele><time>2020-09-24T09:20:10Z</time><name>PT264</name></trkpt>
<trkpt lat="53.543584" lon="-1.967362"><ele>239</ele><time>2020-09-24T09:20:14Z</time><name>PT265</name></trkpt>
<trkpt lat="53.543623" lon="-1.967329"><ele>239</ele><time>2020-09-24T09:20:18Z</time><name>PT266</name></trkpt>
<trkpt lat="53.543660" lon="-1.967275"><ele>239</ele><time>2020-09-24T09:20:22Z</time><name>PT267</name></trkpt>
<trkpt lat="53.543697" lon="-1.967224"><ele>237</ele><time>2020-09-24T09:20:26Z</time><name>PT268</name></trkpt>
<trkpt lat="53.543732" lon="-1.967189"><ele>236</ele><time>2020-09-24T09:20:30Z</time><name>PT269</name></trkpt>
<trkpt lat="53.543768" lon="-1.967142"><ele>234</ele><time>2020-09-24T09:20:34Z</time><name>PT270</name></trkpt>
<trkpt lat="53.543801" lon="-1.967084"><ele>233</ele><time>2020-09-24T09:20:38Z</time><name>PT271</name></trkpt>
<trkpt lat="53.543834" lon="-1.967032"><ele>231</ele><time>2020-09-24T09:20:42Z</time><name>PT272</name></trkpt>
<trkpt lat="53.543852" lon="-1.966941"><ele>236</ele><time>2020-09-24T09:20:46Z</time><name>PT273</name></trkpt>
<trkpt lat="53.543856" lon="-1.966929"><ele>235</ele><time>2020-09-24T09:20:58Z</time><name>PT274</name></trkpt>
<trkpt lat="53.543863" lon="-1.966868"><ele>233</ele><time>2020-09-24T09:21:01Z</time><name>PT275</name></trkpt>
<trkpt lat="53.543875" lon="-1.966800"><ele>231</ele><time>2020-09-24T09:21:04Z</time><name>PT276</name></trkpt>
<trkpt lat="53.543915" lon="-1.966753"><ele>229</ele><time>2020-09-24T09:21:07Z</time><name>PT277</name></trkpt>
<trkpt lat="53.543933" lon="-1.966711"><ele>226</ele><time>2020-09-24T09:21:10Z</time><name>PT278</name></trkpt>
<trkpt lat="53.543972" lon="-1.966632"><ele>225</ele><time>2020-09-24T09:21:14Z</time><name>PT279</name></trkpt>
<trkpt lat="53.544008" lon="-1.966573"><ele>221</ele><time>2020-09-24T09:21:18Z</time><name>PT280</name></trkpt>
<trkpt lat="53.544042" lon="-1.966511"><ele>221</ele><time>2020-09-24T09:21:22Z</time><name>PT281</name></trkpt>
<trkpt lat="53.544068" lon="-1.966429"><ele>222</ele><time>2020-09-24T09:21:26Z</time><name>PT282</name></trkpt>
<trkpt lat="53.544087" lon="-1.966336"><ele>224</ele><time>2020-09-24T09:21:30Z</time><name>PT283</name></trkpt>
<trkpt lat="53.544112" lon="-1.966237"><ele>224</ele><time>2020-09-24T09:21:34Z</time><name>PT284</name></trkpt>
<trkpt lat="53.544127" lon="-1.966119"><ele>228</ele><time>2020-09-24T09:21:38Z</time><name>PT285</name></trkpt>
<trkpt lat="53.544157" lon="-1.966019"><ele>229</ele><time>2020-09-24T09:21:42Z</time><name>PT286</name></trkpt>
<trkpt lat="53.544189" lon="-1.965936"><ele>230</ele><time>2020-09-24T09:21:46Z</time><name>PT287</name></trkpt>
<trkpt lat="53.544210" lon="-1.965882"><ele>229</ele><time>2020-09-24T09:21:49Z</time><name>PT288</name></trkpt>
<trkpt lat="53.544229" lon="-1.965786"><ele>231</ele><time>2020-09-24T09:21:53Z</time><name>PT289</name></trkpt>
<trkpt lat="53.544248" lon="-1.965702"><ele>233</ele><time>2020-09-24T09:21:56Z</time><name>PT290</name></trkpt>
<trkpt lat="53.544269" lon="-1.965612"><ele>234</ele><time>2020-09-24T09:22:00Z</time><name>PT291</name></trkpt>
<trkpt lat="53.544300" lon="-1.965543"><ele>234</ele><time>2020-09-24T09:22:04Z</time><name>PT292</name></trkpt>
<trkpt lat="53.544328" lon="-1.965462"><ele>236</ele><time>2020-09-24T09:22:08Z</time><name>PT293</name></trkpt>
<trkpt lat="53.544365" lon="-1.965370"><ele>238</ele><time>2020-09-24T09:22:12Z</time><name>PT294</name></trkpt>
<trkpt lat="53.544402" lon="-1.965278"><ele>239</ele><time>2020-09-24T09:22:16Z</time><name>PT295</name></trkpt>
<trkpt lat="53.544434" lon="-1.965218"><ele>239</ele><time>2020-09-24T09:22:20Z</time><name>PT296</name></trkpt>
<trkpt lat="53.544467" lon="-1.965138"><ele>241</ele><time>2020-09-24T09:22:24Z</time><name>PT297</name></trkpt>
<trkpt lat="53.544503" lon="-1.965065"><ele>242</ele><time>2020-09-24T09:22:28Z</time><name>PT298</name></trkpt>
<trkpt lat="53.544539" lon="-1.964976"><ele>242</ele><time>2020-09-24T09:22:32Z</time><name>PT299</name></trkpt>
<trkpt lat="53.544575" lon="-1.964902"><ele>243</ele><time>2020-09-24T09:22:36Z</time><name>PT300</name></trkpt>
<trkpt lat="53.544605" lon="-1.964836"><ele>242</ele><time>2020-09-24T09:22:40Z</time><name>PT301</name></trkpt>
<trkpt lat="53.544631" lon="-1.964771"><ele>241</ele><time>2020-09-24T09:22:44Z</time><name>PT302</name></trkpt>
<trkpt lat="53.544664" lon="-1.964695"><ele>240</ele><time>2020-09-24T09:22:48Z</time><name>PT303</name></trkpt>
<trkpt lat="53.544690" lon="-1.964619"><ele>239</ele><time>2020-09-24T09:22:52Z</time><name>PT304</name></trkpt>
<trkpt lat="53.544717" lon="-1.964528"><ele>239</ele><time>2020-09-24T09:22:56Z</time><name>PT305</name></trkpt>
<trkpt lat="53.544742" lon="-1.964453"><ele>238</ele><time>2020-09-24T09:23:00Z</time><name>PT306</name></trkpt>
<trkpt lat="53.544766" lon="-1.964363"><ele>240</ele><time>2020-09-24T09:23:04Z</time><name>PT307</name></trkpt>
<trkpt lat="53.544780" lon="-1.964290"><ele>240</ele><time>2020-09-24T09:23:08Z</time><name>PT308</name></trkpt>
<trkpt lat="53.544799" lon="-1.964225"><ele>240</ele><time>2020-09-24T09:23:12Z</time><name>PT309</name></trkpt>
<trkpt lat="53.544817" lon="-1.964157"><ele>239</ele><time>2020-09-24T09:23:16Z</time><name>PT310</name></trkpt>
<trkpt lat="53.544832" lon="-1.964107"><ele>239</ele><time>2020-09-24T09:23:19Z</time><name>PT311</name></trkpt>
<trkpt lat="53.544844" lon="-1.964054"><ele>239</ele><time>2020-09-24T09:23:22Z</time><name>PT312</name></trkpt>
<trkpt lat="53.544856" lon="-1.964011"><ele>238</ele><time>2020-09-24T09:23:25Z</time><name>PT313</name></trkpt>
<trkpt lat="53.544881" lon="-1.963957"><ele>237</ele><time>2020-09-24T09:23:29Z</time><name>PT314</name></trkpt>
<trkpt lat="53.544905" lon="-1.963911"><ele>235</ele><time>2020-09-24T09:23:33Z</time><name>PT315</name></trkpt>
<trkpt lat="53.544916" lon="-1.963862"><ele>234</ele><time>2020-09-24T09:23:37Z</time><name>PT316</name></trkpt>
<trkpt lat="53.544928" lon="-1.963799"><ele>235</ele><time>2020-09-24T09:23:41Z</time><name>PT317</name></trkpt>
<trkpt lat="53.544954" lon="-1.963714"><ele>233</ele><time>2020-09-24T09:23:45Z</time><name>PT318</name></trkpt>
<trkpt lat="53.544968" lon="-1.963633"><ele>232</ele><time>2020-09-24T09:23:49Z</time><name>PT319</name></trkpt>
<trkpt lat="53.544980" lon="-1.963553"><ele>233</ele><time>2020-09-24T09:23:53Z</time><name>PT320</name></trkpt>
<trkpt lat="53.544986" lon="-1.963493"><ele>232</ele><time>2020-09-24T09:23:57Z</time><name>PT321</name></trkpt>
<trkpt lat="53.545002" lon="-1.963422"><ele>233</ele><time>2020-09-24T09:24:00Z</time><name>PT322</name></trkpt>
<trkpt lat="53.545008" lon="-1.963349"><ele>233</ele><time>2020-09-24T09:24:03Z</time><name>PT323</name></trkpt>
<trkpt lat="53.545010" lon="-1.963266"><ele>234</ele><time>2020-09-24T09:24:07Z</time><name>PT324</name></trkpt>
<trkpt lat="53.545020" lon="-1.963178"><ele>236</ele><time>2020-09-24T09:24:11Z</time><name>PT325</name></trkpt>
<trkpt lat="53.545027" lon="-1.963077"><ele>238</ele><time>2020-09-24T09:24:15Z</time><name>PT326</name></trkpt>
<trkpt lat="53.545042" lon="-1.962987"><ele>238</ele><time>2020-09-24T09:24:19Z</time><name>PT327</name></trkpt>
<trkpt lat="53.545052" lon="-1.962891"><ele>239</ele><time>2020-09-24T09:24:23Z</time><name>PT328</name></trkpt>
<trkpt lat="53.545064" lon="-1.962794"><ele>240</ele><time>2020-09-24T09:24:27Z</time><name>PT329</name></trkpt>
<trkpt lat="53.545085" lon="-1.962721"><ele>242</ele><time>2020-09-24T09:24:31Z</time><name>PT330</name></trkpt>
<trkpt lat="53.545110" lon="-1.962678"><ele>244</ele><time>2020-09-24T09:24:35Z</time><name>PT331</name></trkpt>
<trkpt lat="53.545135" lon="-1.962643"><ele>247</ele><time>2020-09-24T09:24:39Z</time><name>PT332</name></trkpt>
<trkpt lat="53.545142" lon="-1.962696"><ele>247</ele><time>2020-09-24T09:24:43Z</time><name>PT333</name></trkpt>
<trkpt lat="53.545141" lon="-1.962746"><ele>247</ele><time>2020-09-24T09:24:47Z</time><name>PT334</name></trkpt>
<trkpt lat="53.545148" lon="-1.962797"><ele>248</ele><time>2020-09-24T09:24:51Z</time><name>PT335</name></trkpt>
<trkpt lat="53.545158" lon="-1.962857"><ele>250</ele><time>2020-09-24T09:24:55Z</time><name>PT336</name></trkpt>
<trkpt lat="53.545174" lon="-1.962911"><ele>252</ele><time>2020-09-24T09:24:59Z</time><name>PT337</name></trkpt>
<trkpt lat="53.545182" lon="-1.962965"><ele>254</ele><time>2020-09-24T09:25:03Z</time><name>PT338</name></trkpt>
<trkpt lat="53.545197" lon="-1.963015"><ele>254</ele><time>2020-09-24T09:25:07Z</time><name>PT339</name></trkpt>
<trkpt lat="53.545221" lon="-1.963063"><ele>257</ele><time>2020-09-24T09:25:11Z</time><name>PT340</name></trkpt>
<trkpt lat="53.545248" lon="-1.963109"><ele>258</ele><time>2020-09-24T09:25:15Z</time><name>PT341</name></trkpt>
<trkpt lat="53.545274" lon="-1.963158"><ele>258</ele><time>2020-09-24T09:25:19Z</time><name>PT342</name></trkpt>
<trkpt lat="53.545307" lon="-1.963195"><ele>256</ele><time>2020-09-24T09:25:23Z</time><name>PT343</name></trkpt>
<trkpt lat="53.545346" lon="-1.963243"><ele>257</ele><time>2020-09-24T09:25:27Z</time><name>PT344</name></trkpt>
<trkpt lat="53.545386" lon="-1.963296"><ele>258</ele><time>2020-09-24T09:25:31Z</time><name>PT345</name></trkpt>
<trkpt lat="53.545425" lon="-1.963344"><ele>260</ele><time>2020-09-24T09:25:35Z</time><name>PT346</name></trkpt>
<trkpt lat="53.545457" lon="-1.963385"><ele>260</ele><time>2020-09-24T09:25:39Z</time><name>PT347</name></trkpt>
<trkpt lat="53.545489" lon="-1.963407"><ele>261</ele><time>2020-09-24T09:25:43Z</time><name>PT348</name></trkpt>
<trkpt lat="53.545511" lon="-1.963371"><ele>261</ele><time>2020-09-24T09:25:47Z</time><name>PT349</name></trkpt>
<trkpt lat="53.545530" lon="-1.963304"><ele>262</ele><time>2020-09-24T09:25:51Z</time><name>PT350</name></trkpt>
<trkpt lat="53.545541" lon="-1.963224"><ele>261</ele><time>2020-09-24T09:25:55Z</time><name>PT351</name></trkpt>
<trkpt lat="53.545553" lon="-1.963143"><ele>260</ele><time>2020-09-24T09:25:59Z</time><name>PT352</name></trkpt>
<trkpt lat="53.545558" lon="-1.963069"><ele>260</ele><time>2020-09-24T09:26:03Z</time><name>PT353</name></trkpt>
<trkpt lat="53.545572" lon="-1.963013"><ele>259</ele><time>2020-09-24T09:26:06Z</time><name>PT354</name></trkpt>
<trkpt lat="53.545589" lon="-1.962955"><ele>259</ele><time>2020-09-24T09:26:09Z</time><name>PT355</name></trkpt>
<trkpt lat="53.545612" lon="-1.962910"><ele>259</ele><time>2020-09-24T09:26:12Z</time><name>PT356</name></trkpt>
<trkpt lat="53.545642" lon="-1.962893"><ele>259</ele><time>2020-09-24T09:26:15Z</time><name>PT357</name></trkpt>
<trkpt lat="53.545685" lon="-1.962863"><ele>259</ele><time>2020-09-24T09:26:19Z</time><name>PT358</name></trkpt>
<trkpt lat="53.545721" lon="-1.962814"><ele>261</ele><time>2020-09-24T09:26:23Z</time><name>PT359</name></trkpt>
<trkpt lat="53.545743" lon="-1.962752"><ele>260</ele><time>2020-09-24T09:26:27Z</time><name>PT360</name></trkpt>
<trkpt lat="53.545754" lon="-1.962664"><ele>261</ele><time>2020-09-24T09:26:31Z</time><name>PT361</name></trkpt>
<trkpt lat="53.545760" lon="-1.962595"><ele>262</ele><time>2020-09-24T09:26:35Z</time><name>PT362</name></trkpt>
<trkpt lat="53.545770" lon="-1.962520"><ele>262</ele><time>2020-09-24T09:26:39Z</time><name>PT363</name></trkpt>
<trkpt lat="53.545775" lon="-1.962446"><ele>262</ele><time>2020-09-24T09:26:43Z</time><name>PT364</name></trkpt>
<trkpt lat="53.545779" lon="-1.962382"><ele>262</ele><time>2020-09-24T09:26:47Z</time><name>PT365</name></trkpt>
<trkpt lat="53.545779" lon="-1.962328"><ele>263</ele><time>2020-09-24T09:26:50Z</time><name>PT366</name></trkpt>
<trkpt lat="53.545782" lon="-1.962278"><ele>262</ele><time>2020-09-24T09:26:53Z</time><name>PT367</name></trkpt>
<trkpt lat="53.545787" lon="-1.962209"><ele>263</ele><time>2020-09-24T09:26:57Z</time><name>PT368</name></trkpt>
<trkpt lat="53.545796" lon="-1.962150"><ele>263</ele><time>2020-09-24T09:27:01Z</time><name>PT369</name></trkpt>
<trkpt lat="53.545801" lon="-1.962103"><ele>263</ele><time>2020-09-24T09:27:04Z</time><name>PT370</name></trkpt>
<trkpt lat="53.545807" lon="-1.962055"><ele>263</ele><time>2020-09-24T09:27:07Z</time><name>PT371</name></trkpt>
<trkpt lat="53.545809" lon="-1.962049"><ele>264</ele><time>2020-09-24T09:27:11Z</time><name>PT372</name></trkpt>
<trkpt lat="53.545812" lon="-1.962047"><ele>264</ele><time>2020-09-24T09:27:15Z</time><name>PT373</name></trkpt>
<trkpt lat="53.545811" lon="-1.961951"><ele>266</ele><time>2020-09-24T09:27:31Z</time><name>PT374</name></trkpt>
<trkpt lat="53.545824" lon="-1.961880"><ele>265</ele><time>2020-09-24T09:27:35Z</time><name>PT375</name></trkpt>
<trkpt lat="53.545830" lon="-1.961830"><ele>266</ele><time>2020-09-24T09:27:38Z</time><name>PT376</name></trkpt>
<trkpt lat="53.545839" lon="-1.961764"><ele>268</ele><time>2020-09-24T09:27:42Z</time><name>PT377</name></trkpt>
<trkpt lat="53.545840" lon="-1.961708"><ele>270</ele><time>2020-09-24T09:27:45Z</time><name>PT378</name></trkpt>
<trkpt lat="53.545842" lon="-1.961636"><ele>271</ele><time>2020-09-24T09:27:49Z</time><name>PT379</name></trkpt>
<trkpt lat="53.545841" lon="-1.961579"><ele>272</ele><time>2020-09-24T09:27:52Z</time><name>PT380</name></trkpt>
<trkpt lat="53.545844" lon="-1.961520"><ele>272</ele><time>2020-09-24T09:27:55Z</time><name>PT381</name></trkpt>
<trkpt lat="53.545847" lon="-1.961442"><ele>273</ele><time>2020-09-24T09:27:59Z</time><name>PT382</name></trkpt>
<trkpt lat="53.545852" lon="-1.961365"><ele>273</ele><time>2020-09-24T09:28:03Z</time><name>PT383</name></trkpt>
<trkpt lat="53.545856" lon="-1.961300"><ele>273</ele><time>2020-09-24T09:28:06Z</time><name>PT384</name></trkpt>
<trkpt lat="53.545859" lon="-1.961237"><ele>274</ele><time>2020-09-24T09:28:09Z</time><name>PT385</name></trkpt>
<trkpt lat="53.545861" lon="-1.961178"><ele>273</ele><time>2020-09-24T09:28:12Z</time><name>PT386</name></trkpt>
<trkpt lat="53.545862" lon="-1.961123"><ele>273</ele><time>2020-09-24T09:28:15Z</time><name>PT387</name></trkpt>
<trkpt lat="53.545865" lon="-1.961051"><ele>272</ele><time>2020-09-24T09:28:19Z</time><name>PT388</name></trkpt>
<trkpt lat="53.545867" lon="-1.961000"><ele>271</ele><time>2020-09-24T09:28:22Z</time><name>PT389</name></trkpt>
<trkpt lat="53.545866" lon="-1.960909"><ele>271</ele><time>2020-09-24T09:28:26Z</time><name>PT390</name></trkpt>
<trkpt lat="53.545863" lon="-1.960834"><ele>271</ele><time>2020-09-24T09:28:30Z</time><name>PT391</name></trkpt>
<trkpt lat="53.545867" lon="-1.960757"><ele>270</ele><time>2020-09-24T09:28:34Z</time><name>PT392</name></trkpt>
<trkpt lat="53.545880" lon="-1.960695"><ele>270</ele><time>2020-09-24T09:28:38Z</time><name>PT393</name></trkpt>
<trkpt lat="53.545883" lon="-1.960692"><ele>270</ele><time>2020-09-24T09:28:41Z</time><name>PT394</name></trkpt>
<trkpt lat="53.545896" lon="-1.960621"><ele>270</ele><time>2020-09-24T09:29:00Z</time><name>PT395</name></trkpt>
<trkpt lat="53.545911" lon="-1.960522"><ele>270</ele><time>2020-09-24T09:29:04Z</time><name>PT396</name></trkpt>
<trkpt lat="53.545935" lon="-1.960439"><ele>270</ele><time>2020-09-24T09:29:08Z</time><name>PT397</name></trkpt>
<trkpt lat="53.545956" lon="-1.960351"><ele>270</ele><time>2020-09-24T09:29:12Z</time><name>PT398</name></trkpt>
<trkpt lat="53.545971" lon="-1.960262"><ele>269</ele><time>2020-09-24T09:29:16Z</time><name>PT399</name></trkpt>
<trkpt lat="53.545984" lon="-1.960168"><ele>269</ele><time>2020-09-24T09:29:20Z</time><name>PT400</name></trkpt>
<trkpt lat="53.545992" lon="-1.960063"><ele>269</ele><time>2020-09-24T09:29:24Z</time><name>PT401</name></trkpt>
<trkpt lat="53.545993" lon="-1.959966"><ele>269</ele><time>2020-09-24T09:29:28Z</time><name>PT402</name></trkpt>
<trkpt lat="53.545996" lon="-1.959945"><ele>269</ele><time>2020-09-24T09:29:32Z</time><name>PT403</name></trkpt>
<trkpt lat="53.545997" lon="-1.959886"><ele>269</ele><time>2020-09-24T09:29:51Z</time><name>PT404</name></trkpt>
<trkpt lat="53.545992" lon="-1.959779"><ele>270</ele><time>2020-09-24T09:29:55Z</time><name>PT405</name></trkpt>
<trkpt lat="53.545994" lon="-1.959704"><ele>270</ele><time>2020-09-24T09:29:58Z</time><name>PT406</name></trkpt>
<trkpt lat="53.546001" lon="-1.959609"><ele>270</ele><time>2020-09-24T09:30:02Z</time><name>PT407</name></trkpt>
<trkpt lat="53.545998" lon="-1.959528"><ele>269</ele><time>2020-09-24T09:30:06Z</time><name>PT408</name></trkpt>
<trkpt lat="53.545983" lon="-1.959432"><ele>269</ele><time>2020-09-24T09:30:10Z</time><name>PT409</name></trkpt>
<trkpt lat="53.545981" lon="-1.959344"><ele>270</ele><time>2020-09-24T09:30:13Z</time><name>PT410</name></trkpt>
<trkpt lat="53.545977" lon="-1.959265"><ele>270</ele><time>2020-09-24T09:30:16Z</time><name>PT411</name></trkpt>
<trkpt lat="53.545975" lon="-1.959229"><ele>271</ele><time>2020-09-24T09:30:20Z</time><name>PT412</name></trkpt>
<trkpt lat="53.545964" lon="-1.959157"><ele>271</ele><time>2020-09-24T09:30:28Z</time><name>PT413</name></trkpt>
<trkpt lat="53.545961" lon="-1.959059"><ele>271</ele><time>2020-09-24T09:30:32Z</time><name>PT414</name></trkpt>
<trkpt lat="53.545965" lon="-1.958948"><ele>272</ele><time>2020-09-24T09:30:36Z</time><name>PT415</name></trkpt>
<trkpt lat="53.545969" lon="-1.958851"><ele>271</ele><time>2020-09-24T09:30:40Z</time><name>PT416</name></trkpt>
<trkpt lat="53.545975" lon="-1.958740"><ele>271</ele><time>2020-09-24T09:30:44Z</time><name>PT417</name></trkpt>
<trkpt lat="53.545974" lon="-1.958633"><ele>271</ele><time>2020-09-24T09:30:48Z</time><name>PT418</name></trkpt>
<trkpt lat="53.545980" lon="-1.958539"><ele>271</ele><time>2020-09-24T09:30:52Z</time><name>PT419</name></trkpt>
<trkpt lat="53.545979" lon="-1.958482"><ele>271</ele><time>2020-09-24T09:30:56Z</time><name>PT420</name></trkpt>
<trkpt lat="53.545991" lon="-1.958402"><ele>271</ele><time>2020-09-24T09:31:00Z</time><name>PT421</name></trkpt>
<trkpt lat="53.545997" lon="-1.958319"><ele>272</ele><time>2020-09-24T09:31:04Z</time><name>PT422</name></trkpt>
<trkpt lat="53.545997" lon="-1.958231"><ele>272</ele><time>2020-09-24T09:31:08Z</time><name>PT423</name></trkpt>
<trkpt lat="53.546009" lon="-1.958143"><ele>272</ele><time>2020-09-24T09:31:12Z</time><name>PT424</name></trkpt>
<trkpt lat="53.546016" lon="-1.958056"><ele>271</ele><time>2020-09-24T09:31:16Z</time><name>PT425</name></trkpt>
<trkpt lat="53.546023" lon="-1.957979"><ele>272</ele><time>2020-09-24T09:31:19Z</time><name>PT426</name></trkpt>
<trkpt lat="53.546032" lon="-1.957884"><ele>272</ele><time>2020-09-24T09:31:23Z</time><name>PT427</name></trkpt>
<trkpt lat="53.546036" lon="-1.957816"><ele>273</ele><time>2020-09-24T09:31:26Z</time><name>PT428</name></trkpt>
<trkpt lat="53.546030" lon="-1.957727"><ele>272</ele><time>2020-09-24T09:31:30Z</time><name>PT429</name></trkpt>
<trkpt lat="53.546015" lon="-1.957662"><ele>272</ele><time>2020-09-24T09:31:33Z</time><name>PT430</name></trkpt>
<trkpt lat="53.545997" lon="-1.957572"><ele>273</ele><time>2020-09-24T09:31:37Z</time><name>PT431</name></trkpt>
<trkpt lat="53.545997" lon="-1.957487"><ele>273</ele><time>2020-09-24T09:31:41Z</time><name>PT432</name></trkpt>
<trkpt lat="53.546003" lon="-1.957398"><ele>274</ele><time>2020-09-24T09:31:45Z</time><name>PT433</name></trkpt>
<trkpt lat="53.546012" lon="-1.957320"><ele>273</ele><time>2020-09-24T09:31:49Z</time><name>PT434</name></trkpt>
<trkpt lat="53.546016" lon="-1.957237"><ele>272</ele><time>2020-09-24T09:31:53Z</time><name>PT435</name></trkpt>
<trkpt lat="53.546010" lon="-1.957152"><ele>272</ele><time>2020-09-24T09:31:57Z</time><name>PT436</name></trkpt>
<trkpt lat="53.546000" lon="-1.957064"><ele>270</ele><time>2020-09-24T09:32:01Z</time><name>PT437</name></trkpt>
<trkpt lat="53.545981" lon="-1.956987"><ele>270</ele><time>2020-09-24T09:32:05Z</time><name>PT438</name></trkpt>
<trkpt lat="53.545958" lon="-1.956887"><ele>271</ele><time>2020-09-24T09:32:09Z</time><name>PT439</name></trkpt>
<trkpt lat="53.545928" lon="-1.956800"><ele>272</ele><time>2020-09-24T09:32:13Z</time><name>PT440</name></trkpt>
<trkpt lat="53.545888" lon="-1.956711"><ele>273</ele><time>2020-09-24T09:32:17Z</time><name>PT441</name></trkpt>
<trkpt lat="53.545847" lon="-1.956638"><ele>274</ele><time>2020-09-24T09:32:21Z</time><name>PT442</name></trkpt>
<trkpt lat="53.545803" lon="-1.956560"><ele>276</ele><time>2020-09-24T09:32:25Z</time><name>PT443</name></trkpt>
<trkpt lat="53.545764" lon="-1.956492"><ele>276</ele><time>2020-09-24T09:32:29Z</time><name>PT444</name></trkpt>
<trkpt lat="53.545720" lon="-1.956434"><ele>276</ele><time>2020-09-24T09:32:33Z</time><name>PT445</name></trkpt>
<trkpt lat="53.545678" lon="-1.956370"><ele>275</ele><time>2020-09-24T09:32:37Z</time><name>PT446</name></trkpt>
<trkpt lat="53.545642" lon="-1.956304"><ele>275</ele><time>2020-09-24T09:32:41Z</time><name>PT447</name></trkpt>
<trkpt lat="53.545624" lon="-1.956269"><ele>274</ele><time>2020-09-24T09:32:45Z</time><name>PT448</name></trkpt>
<trkpt lat="53.545625" lon="-1.956268"><ele>274</ele><time>2020-09-24T09:32:49Z</time><name>PT449</name></trkpt>
<trkpt lat="53.545602" lon="-1.956237"><ele>274</ele><time>2020-09-24T09:32:53Z</time><name>PT450</name></trkpt>
<trkpt lat="53.545574" lon="-1.956155"><ele>274</ele><time>2020-09-24T09:32:57Z</time><name>PT451</name></trkpt>
<trkpt lat="53.545549" lon="-1.956064"><ele>275</ele><time>2020-09-24T09:33:01Z</time><name>PT452</name></trkpt>
<trkpt lat="53.545521" lon="-1.955989"><ele>274</ele><time>2020-09-24T09:33:05Z</time><name>PT453</name></trkpt>
<trkpt lat="53.545492" lon="-1.955905"><ele>274</ele><time>2020-09-24T09:33:09Z</time><name>PT454</name></trkpt>
<trkpt lat="53.545465" lon="-1.955827"><ele>273</ele><time>2020-09-24T09:33:13Z</time><name>PT455</name></trkpt>
<trkpt lat="53.545436" lon="-1.955741"><ele>274</ele><time>2020-09-24T09:33:17Z</time><name>PT456</name></trkpt>
<trkpt lat="53.545413" lon="-1.955662"><ele>273</ele><time>2020-09-24T09:33:21Z</time><name>PT457</name></trkpt>
<trkpt lat="53.545385" lon="-1.955576"><ele>274</ele><time>2020-09-24T09:33:25Z</time><name>PT458</name></trkpt>
<trkpt lat="53.545360" lon="-1.955506"><ele>272</ele><time>2020-09-24T09:33:29Z</time><name>PT459</name></trkpt>
<trkpt lat="53.545330" lon="-1.955433"><ele>272</ele><time>2020-09-24T09:33:33Z</time><name>PT460</name></trkpt>
<trkpt lat="53.545296" lon="-1.955355"><ele>273</ele><time>2020-09-24T09:33:37Z</time><name>PT461</name></trkpt>
<trkpt lat="53.545261" lon="-1.955277"><ele>273</ele><time>2020-09-24T09:33:41Z</time><name>PT462</name></trkpt>
<trkpt lat="53.545231" lon="-1.955198"><ele>273</ele><time>2020-09-24T09:33:45Z</time><name>PT463</name></trkpt>
<trkpt lat="53.545195" lon="-1.955122"><ele>273</ele><time>2020-09-24T09:33:49Z</time><name>PT464</name></trkpt>
<trkpt lat="53.545153" lon="-1.955052"><ele>274</ele><time>2020-09-24T09:33:53Z</time><name>PT465</name></trkpt>
<trkpt lat="53.545109" lon="-1.954981"><ele>275</ele><time>2020-09-24T09:33:57Z</time><name>PT466</name></trkpt>
<trkpt lat="53.545065" lon="-1.954908"><ele>276</ele><time>2020-09-24T09:34:01Z</time><name>PT467</name></trkpt>
<trkpt lat="53.545023" lon="-1.954844"><ele>276</ele><time>2020-09-24T09:34:05Z</time><name>PT468</name></trkpt>
<trkpt lat="53.544977" lon="-1.954776"><ele>276</ele><time>2020-09-24T09:34:09Z</time><name>PT469</name></trkpt>
<trkpt lat="53.544933" lon="-1.954707"><ele>277</ele><time>2020-09-24T09:34:13Z</time><name>PT470</name></trkpt>
<trkpt lat="53.544890" lon="-1.954643"><ele>277</ele><time>2020-09-24T09:34:17Z</time><name>PT471</name></trkpt>
<trkpt lat="53.544858" lon="-1.954601"><ele>277</ele><time>2020-09-24T09:34:20Z</time><name>PT472</name></trkpt>
<trkpt lat="53.544827" lon="-1.954557"><ele>276</ele><time>2020-09-24T09:34:23Z</time><name>PT473</name></trkpt>
<trkpt lat="53.544779" lon="-1.954501"><ele>275</ele><time>2020-09-24T09:34:27Z</time><name>PT474</name></trkpt>
<trkpt lat="53.544733" lon="-1.954443"><ele>274</ele><time>2020-09-24T09:34:31Z</time><name>PT475</name></trkpt>
<trkpt lat="53.544685" lon="-1.954391"><ele>274</ele><time>2020-09-24T09:34:35Z</time><name>PT476</name></trkpt>
<trkpt lat="53.544649" lon="-1.954347"><ele>274</ele><time>2020-09-24T09:34:38Z</time><name>PT477</name></trkpt>
<trkpt lat="53.544599" lon="-1.954292"><ele>273</ele><time>2020-09-24T09:34:42Z</time><name>PT478</name></trkpt>
<trkpt lat="53.544551" lon="-1.954237"><ele>274</ele><time>2020-09-24T09:34:46Z</time><name>PT479</name></trkpt>
<trkpt lat="53.544492" lon="-1.954194"><ele>276</ele><time>2020-09-24T09:34:50Z</time><name>PT480</name></trkpt>
<trkpt lat="53.544437" lon="-1.954156"><ele>276</ele><time>2020-09-24T09:34:54Z</time><name>PT481</name></trkpt>
<trkpt lat="53.544383" lon="-1.954128"><ele>275</ele><time>2020-09-24T09:34:58Z</time><name>PT482</name></trkpt>
<trkpt lat="53.544334" lon="-1.954106"><ele>274</ele><time>2020-09-24T09:35:02Z</time><name>PT483</name></trkpt>
<trkpt lat="53.544276" lon="-1.954101"><ele>275</ele><time>2020-09-24T09:35:06Z</time><name>PT484</name></trkpt>
<trkpt lat="53.544226" lon="-1.954093"><ele>274</ele><time>2020-09-24T09:35:10Z</time><name>PT485</name></trkpt>
<trkpt lat="53.544175" lon="-1.954076"><ele>275</ele><time>2020-09-24T09:35:14Z</time><name>PT486</name></trkpt>
<trkpt lat="53.544136" lon="-1.954022"><ele>275</ele><time>2020-09-24T09:35:18Z</time><name>PT487</name></trkpt>
<trkpt lat="53.544134" lon="-1.953957"><ele>274</ele><time>2020-09-24T09:35:21Z</time><name>PT488</name></trkpt>
<trkpt lat="53.544115" lon="-1.953885"><ele>274</ele><time>2020-09-24T09:35:25Z</time><name>PT489</name></trkpt>
<trkpt lat="53.544089" lon="-1.953818"><ele>273</ele><time>2020-09-24T09:35:29Z</time><name>PT490</name></trkpt>
<trkpt lat="53.544055" lon="-1.953759"><ele>276</ele><time>2020-09-24T09:35:33Z</time><name>PT491</name></trkpt>
<trkpt lat="53.544019" lon="-1.953701"><ele>276</ele><time>2020-09-24T09:35:37Z</time><name>PT492</name></trkpt>
<trkpt lat="53.543987" lon="-1.953634"><ele>275</ele><time>2020-09-24T09:35:41Z</time><name>PT493</name></trkpt>
<trkpt lat="53.543947" lon="-1.953577"><ele>275</ele><time>2020-09-24T09:35:45Z</time><name>PT494</name></trkpt>
<trkpt lat="53.543913" lon="-1.953521"><ele>276</ele><time>2020-09-24T09:35:49Z</time><name>PT495</name></trkpt>
<trkpt lat="53.543871" lon="-1.953468"><ele>275</ele><time>2020-09-24T09:35:53Z</time><name>PT496</name></trkpt>
<trkpt lat="53.543826" lon="-1.953419"><ele>275</ele><time>2020-09-24T09:35:57Z</time><name>PT497</name></trkpt>
<trkpt lat="53.543783" lon="-1.953377"><ele>276</ele><time>2020-09-24T09:36:01Z</time><name>PT498</name></trkpt>
<trkpt lat="53.543743" lon="-1.953331"><ele>275</ele><time>2020-09-24T09:36:05Z</time><name>PT499</name></trkpt>
<trkpt lat="53.543706" lon="-1.953288"><ele>275</ele><time>2020-09-24T09:36:09Z</time><name>PT500</name></trkpt>
<trkpt lat="53.543667" lon="-1.953249"><ele>275</ele><time>2020-09-24T09:36:13Z</time><name>PT501</name></trkpt>
<trkpt lat="53.543631" lon="-1.953197"><ele>274</ele><time>2020-09-24T09:36:17Z</time><name>PT502</name></trkpt>
<trkpt lat="53.543591" lon="-1.953141"><ele>275</ele><time>2020-09-24T09:36:21Z</time><name>PT503</name></trkpt>
<trkpt lat="53.543551" lon="-1.953090"><ele>275</ele><time>2020-09-24T09:36:25Z</time><name>PT504</name></trkpt>
<trkpt lat="53.543513" lon="-1.953049"><ele>274</ele><time>2020-09-24T09:36:29Z</time><name>PT505</name></trkpt>
<trkpt lat="53.543475" lon="-1.953009"><ele>272</ele><time>2020-09-24T09:36:33Z</time><name>PT506</name></trkpt>
<trkpt lat="53.543439" lon="-1.952962"><ele>272</ele><time>2020-09-24T09:36:37Z</time><name>PT507</name></trkpt>
<trkpt lat="53.543406" lon="-1.952901"><ele>272</ele><time>2020-09-24T09:36:41Z</time><name>PT508</name></trkpt>
<trkpt lat="53.543376" lon="-1.952843"><ele>272</ele><time>2020-09-24T09:36:45Z</time><name>PT509</name></trkpt>
<trkpt lat="53.543346" lon="-1.952783"><ele>272</ele><time>2020-09-24T09:36:49Z</time><name>PT510</name></trkpt>
<trkpt lat="53.543316" lon="-1.952718"><ele>274</ele><time>2020-09-24T09:36:53Z</time><name>PT511</name></trkpt>
<trkpt lat="53.543291" lon="-1.952658"><ele>274</ele><time>2020-09-24T09:36:57Z</time><name>PT512</name></trkpt>
<trkpt lat="53.543272" lon="-1.952591"><ele>276</ele><time>2020-09-24T09:37:01Z</time><name>PT513</name></trkpt>
<trkpt lat="53.543255" lon="-1.952518"><ele>277</ele><time>2020-09-24T09:37:05Z</time><name>PT514</name></trkpt>
<trkpt lat="53.543234" lon="-1.952449"><ele>277</ele><time>2020-09-24T09:37:09Z</time><name>PT515</name></trkpt>
<trkpt lat="53.543220" lon="-1.952375"><ele>277</ele><time>2020-09-24T09:37:13Z</time><name>PT516</name></trkpt>
<trkpt lat="53.543205" lon="-1.952296"><ele>276</ele><time>2020-09-24T09:37:17Z</time><name>PT517</name></trkpt>
<trkpt lat="53.543184" lon="-1.952232"><ele>276</ele><time>2020-09-24T09:37:21Z</time><name>PT518</name></trkpt>
<trkpt lat="53.543166" lon="-1.952156"><ele>278</ele><time>2020-09-24T09:37:25Z</time><name>PT519</name></trkpt>
<trkpt lat="53.543152" lon="-1.952090"><ele>280</ele><time>2020-09-24T09:37:29Z</time><name>PT520</name></trkpt>
<trkpt lat="53.543156" lon="-1.952029"><ele>280</ele><time>2020-09-24T09:37:33Z</time><name>PT521</name></trkpt>
<trkpt lat="53.543161" lon="-1.951988"><ele>281</ele><time>2020-09-24T09:37:37Z</time><name>PT522</name></trkpt>
<trkpt lat="53.543160" lon="-1.951969"><ele>282</ele><time>2020-09-24T09:37:41Z</time><name>PT523</name></trkpt>
<trkpt lat="53.543162" lon="-1.951967"><ele>282</ele><time>2020-09-24T09:37:45Z</time><name>PT524</name></trkpt>
<trkpt lat="53.543135" lon="-1.951942"><ele>282</ele><time>2020-09-24T09:37:49Z</time><name>PT525</name></trkpt>
<trkpt lat="53.543094" lon="-1.951894"><ele>282</ele><time>2020-09-24T09:37:53Z</time><name>PT526</name></trkpt>
<trkpt lat="53.543062" lon="-1.951834"><ele>283</ele><time>2020-09-24T09:37:57Z</time><name>PT527</name></trkpt>
<trkpt lat="53.543014" lon="-1.951785"><ele>283</ele><time>2020-09-24T09:38:01Z</time><name>PT528</name></trkpt>
<trkpt lat="53.542980" lon="-1.951738"><ele>280</ele><time>2020-09-24T09:38:05Z</time><name>PT529</name></trkpt>
<trkpt lat="53.542950" lon="-1.951675"><ele>280</ele><time>2020-09-24T09:38:09Z</time><name>PT530</name></trkpt>
<trkpt lat="53.542912" lon="-1.951629"><ele>280</ele><time>2020-09-24T09:38:13Z</time><name>PT531</name></trkpt>
<trkpt lat="53.542876" lon="-1.951580"><ele>280</ele><time>2020-09-24T09:38:17Z</time><name>PT532</name></trkpt>
<trkpt lat="53.542845" lon="-1.951526"><ele>280</ele><time>2020-09-24T09:38:21Z</time><name>PT533</name></trkpt>
<trkpt lat="53.542815" lon="-1.951480"><ele>280</ele><time>2020-09-24T09:38:25Z</time><name>PT534</name></trkpt>
<trkpt lat="53.542791" lon="-1.951426"><ele>282</ele><time>2020-09-24T09:38:29Z</time><name>PT535</name></trkpt>
<trkpt lat="53.542769" lon="-1.951366"><ele>281</ele><time>2020-09-24T09:38:33Z</time><name>PT536</name></trkpt>
<trkpt lat="53.542745" lon="-1.951306"><ele>280</ele><time>2020-09-24T09:38:37Z</time><name>PT537</name></trkpt>
<trkpt lat="53.542724" lon="-1.951241"><ele>282</ele><time>2020-09-24T09:38:41Z</time><name>PT538</name></trkpt>
<trkpt lat="53.542702" lon="-1.951190"><ele>282</ele><time>2020-09-24T09:38:45Z</time><name>PT539</name></trkpt>
<trkpt lat="53.542676" lon="-1.951129"><ele>282</ele><time>2020-09-24T09:38:49Z</time><name>PT540</name></trkpt>
<trkpt lat="53.542639" lon="-1.951082"><ele>282</ele><time>2020-09-24T09:38:53Z</time><name>PT541</name></trkpt>
<trkpt lat="53.542607" lon="-1.951037"><ele>283</ele><time>2020-09-24T09:38:57Z</time><name>PT542</name></trkpt>
<trkpt lat="53.542578" lon="-1.950979"><ele>285</ele><time>2020-09-24T09:39:01Z</time><name>PT543</name></trkpt>
<trkpt lat="53.542542" lon="-1.950941"><ele>285</ele><time>2020-09-24T09:39:05Z</time><name>PT544</name></trkpt>
<trkpt lat="53.542504" lon="-1.950907"><ele>285</ele><time>2020-09-24T09:39:09Z</time><name>PT545</name></trkpt>
<trkpt lat="53.542461" lon="-1.950874"><ele>283</ele><time>2020-09-24T09:39:13Z</time><name>PT546</name></trkpt>
<trkpt lat="53.542413" lon="-1.950854"><ele>285</ele><time>2020-09-24T09:39:17Z</time><name>PT547</name></trkpt>
<trkpt lat="53.542368" lon="-1.950820"><ele>285</ele><time>2020-09-24T09:39:21Z</time><name>PT548</name></trkpt>
<trkpt lat="53.542328" lon="-1.950786"><ele>286</ele><time>2020-09-24T09:39:25Z</time><name>PT549</name></trkpt>
<trkpt lat="53.542287" lon="-1.950745"><ele>287</ele><time>2020-09-24T09:39:29Z</time><name>PT550</name></trkpt>
<trkpt lat="53.542256" lon="-1.950686"><ele>286</ele><time>2020-09-24T09:39:33Z</time><name>PT551</name></trkpt>
<trkpt lat="53.542239" lon="-1.950620"><ele>287</ele><time>2020-09-24T09:39:37Z</time><name>PT552</name></trkpt>
<trkpt lat="53.542241" lon="-1.950550"><ele>287</ele><time>2020-09-24T09:39:41Z</time><name>PT553</name></trkpt>
<trkpt lat="53.542235" lon="-1.950476"><ele>289</ele><time>2020-09-24T09:39:45Z</time><name>PT554</name></trkpt>
<trkpt lat="53.542242" lon="-1.950413"><ele>289</ele><time>2020-09-24T09:39:48Z</time><name>PT555</name></trkpt>
<trkpt lat="53.542231" lon="-1.950344"><ele>289</ele><time>2020-09-24T09:39:52Z</time><name>PT556</name></trkpt>
<trkpt lat="53.542210" lon="-1.950269"><ele>290</ele><time>2020-09-24T09:39:56Z</time><name>PT557</name></trkpt>
<trkpt lat="53.542185" lon="-1.950196"><ele>290</ele><time>2020-09-24T09:40:00Z</time><name>PT558</name></trkpt>
<trkpt lat="53.542158" lon="-1.950135"><ele>290</ele><time>2020-09-24T09:40:04Z</time><name>PT559</name></trkpt>
<trkpt lat="53.542125" lon="-1.950080"><ele>290</ele><time>2020-09-24T09:40:08Z</time><name>PT560</name></trkpt>
<trkpt lat="53.542084" lon="-1.950026"><ele>289</ele><time>2020-09-24T09:40:12Z</time><name>PT561</name></trkpt>
<trkpt lat="53.542044" lon="-1.949976"><ele>288</ele><time>2020-09-24T09:40:16Z</time><name>PT562</name></trkpt>
<trkpt lat="53.542020" lon="-1.949900"><ele>289</ele><time>2020-09-24T09:40:20Z</time><name>PT563</name></trkpt>
<trkpt lat="53.542004" lon="-1.949834"><ele>290</ele><time>2020-09-24T09:40:24Z</time><name>PT564</name></trkpt>
<trkpt lat="53.541994" lon="-1.949771"><ele>290</ele><time>2020-09-24T09:40:28Z</time><name>PT565</name></trkpt>
<trkpt lat="53.541977" lon="-1.949701"><ele>290</ele><time>2020-09-24T09:40:32Z</time><name>PT566</name></trkpt>
<trkpt lat="53.541956" lon="-1.949637"><ele>292</ele><time>2020-09-24T09:40:36Z</time><name>PT567</name></trkpt>
<trkpt lat="53.541948" lon="-1.949567"><ele>293</ele><time>2020-09-24T09:40:40Z</time><name>PT568</name></trkpt>
<trkpt lat="53.541936" lon="-1.949506"><ele>294</ele><time>2020-09-24T09:40:44Z</time><name>PT569</name></trkpt>
<trkpt lat="53.541929" lon="-1.949433"><ele>295</ele><time>2020-09-24T09:40:48Z</time><name>PT570</name></trkpt>
<trkpt lat="53.541925" lon="-1.949368"><ele>297</ele><time>2020-09-24T09:40:52Z</time><name>PT571</name></trkpt>
<trkpt lat="53.541922" lon="-1.949303"><ele>298</ele><time>2020-09-24T09:40:56Z</time><name>PT572</name></trkpt>
<trkpt lat="53.541916" lon="-1.949234"><ele>300</ele><time>2020-09-24T09:41:00Z</time><name>PT573</name></trkpt>
<trkpt lat="53.541916" lon="-1.949167"><ele>301</ele><time>2020-09-24T09:41:04Z</time><name>PT574</name></trkpt>
<trkpt lat="53.541918" lon="-1.949096"><ele>301</ele><time>2020-09-24T09:41:08Z</time><name>PT575</name></trkpt>
<trkpt lat="53.541918" lon="-1.949027"><ele>301</ele><time>2020-09-24T09:41:12Z</time><name>PT576</name></trkpt>
<trkpt lat="53.541907" lon="-1.948956"><ele>299</ele><time>2020-09-24T09:41:16Z</time><name>PT577</name></trkpt>
<trkpt lat="53.541901" lon="-1.948871"><ele>301</ele><time>2020-09-24T09:41:20Z</time><name>PT578</name></trkpt>
<trkpt lat="53.541895" lon="-1.948800"><ele>301</ele><time>2020-09-24T09:41:24Z</time><name>PT579</name></trkpt>
<trkpt lat="53.541883" lon="-1.948724"><ele>302</ele><time>2020-09-24T09:41:28Z</time><name>PT580</name></trkpt>
<trkpt lat="53.541879" lon="-1.948648"><ele>304</ele><time>2020-09-24T09:41:32Z</time><name>PT581</name></trkpt>
<trkpt lat="53.541879" lon="-1.948577"><ele>303</ele><time>2020-09-24T09:41:36Z</time><name>PT582</name></trkpt>
<trkpt lat="53.541864" lon="-1.948498"><ele>305</ele><time>2020-09-24T09:41:40Z</time><name>PT583</name></trkpt>
<trkpt lat="53.541860" lon="-1.948441"><ele>304</ele><time>2020-09-24T09:41:44Z</time><name>PT584</name></trkpt>
<trkpt lat="53.541859" lon="-1.948365"><ele>304</ele><time>2020-09-24T09:41:48Z</time><name>PT585</name></trkpt>
<trkpt lat="53.541852" lon="-1.948296"><ele>305</ele><time>2020-09-24T09:41:52Z</time><name>PT586</name></trkpt>
<trkpt lat="53.541838" lon="-1.948227"><ele>303</ele><time>2020-09-24T09:41:56Z</time><name>PT587</name></trkpt>
<trkpt lat="53.541829" lon="-1.948150"><ele>303</ele><time>2020-09-24T09:42:00Z</time><name>PT588</name></trkpt>
<trkpt lat="53.541826" lon="-1.948068"><ele>304</ele><time>2020-09-24T09:42:04Z</time><name>PT589</name></trkpt>
<trkpt lat="53.541821" lon="-1.947999"><ele>305</ele><time>2020-09-24T09:42:08Z</time><name>PT590</name></trkpt>
<trkpt lat="53.541817" lon="-1.947929"><ele>304</ele><time>2020-09-24T09:42:12Z</time><name>PT591</name></trkpt>
<trkpt lat="53.541811" lon="-1.947857"><ele>305</ele><time>2020-09-24T09:42:16Z</time><name>PT592</name></trkpt>
<trkpt lat="53.541802" lon="-1.947791"><ele>307</ele><time>2020-09-24T09:42:20Z</time><name>PT593</name></trkpt>
<trkpt lat="53.541794" lon="-1.947729"><ele>308</ele><time>2020-09-24T09:42:24Z</time><name>PT594</name></trkpt>
<trkpt lat="53.541788" lon="-1.947695"><ele>306</ele><time>2020-09-24T09:42:27Z</time><name>PT595</name></trkpt>
<trkpt lat="53.541780" lon="-1.947629"><ele>306</ele><time>2020-09-24T09:42:31Z</time><name>PT596</name></trkpt>
<trkpt lat="53.541778" lon="-1.947555"><ele>307</ele><time>2020-09-24T09:42:35Z</time><name>PT597</name></trkpt>
<trkpt lat="53.541775" lon="-1.947485"><ele>307</ele><time>2020-09-24T09:42:39Z</time><name>PT598</name></trkpt>
<trkpt lat="53.541757" lon="-1.947409"><ele>308</ele><time>2020-09-24T09:42:43Z</time><name>PT599</name></trkpt>
<trkpt lat="53.541755" lon="-1.947342"><ele>307</ele><time>2020-09-24T09:42:47Z</time><name>PT600</name></trkpt>
<trkpt lat="53.541755" lon="-1.947282"><ele>307</ele><time>2020-09-24T09:42:51Z</time><name>PT601</name></trkpt>
<trkpt lat="53.541752" lon="-1.947215"><ele>308</ele><time>2020-09-24T09:42:55Z</time><name>PT602</name></trkpt>
<trkpt lat="53.541748" lon="-1.947146"><ele>308</ele><time>2020-09-24T09:42:59Z</time><name>PT603</name></trkpt>
<trkpt lat="53.541745" lon="-1.947065"><ele>309</ele><time>2020-09-24T09:43:03Z</time><name>PT604</name></trkpt>
<trkpt lat="53.541740" lon="-1.946996"><ele>310</ele><time>2020-09-24T09:43:07Z</time><name>PT605</name></trkpt>
<trkpt lat="53.541735" lon="-1.946927"><ele>311</ele><time>2020-09-24T09:43:11Z</time><name>PT606</name></trkpt>
<trkpt lat="53.541728" lon="-1.946859"><ele>311</ele><time>2020-09-24T09:43:15Z</time><name>PT607</name></trkpt>
<trkpt lat="53.541722" lon="-1.946796"><ele>312</ele><time>2020-09-24T09:43:19Z</time><name>PT608</name></trkpt>
<trkpt lat="53.541721" lon="-1.946722"><ele>313</ele><time>2020-09-24T09:43:23Z</time><name>PT609</name></trkpt>
<trkpt lat="53.541721" lon="-1.946654"><ele>313</ele><time>2020-09-24T09:43:27Z</time><name>PT610</name></trkpt>
<trkpt lat="53.541722" lon="-1.946569"><ele>314</ele><time>2020-09-24T09:43:31Z</time><name>PT611</name></trkpt>
<trkpt lat="53.541725" lon="-1.946483"><ele>315</ele><time>2020-09-24T09:43:35Z</time><name>PT612</name></trkpt>
<trkpt lat="53.541723" lon="-1.946426"><ele>315</ele><time>2020-09-24T09:43:38Z</time><name>PT613</name></trkpt>
<trkpt lat="53.541723" lon="-1.946358"><ele>316</ele><time>2020-09-24T09:43:41Z</time><name>PT614</name></trkpt>
<trkpt lat="53.541718" lon="-1.946282"><ele>316</ele><time>2020-09-24T09:43:45Z</time><name>PT615</name></trkpt>
<trkpt lat="53.541711" lon="-1.946207"><ele>316</ele><time>2020-09-24T09:43:49Z</time><name>PT616</name></trkpt>
<trkpt lat="53.541705" lon="-1.946136"><ele>317</ele><time>2020-09-24T09:43:53Z</time><name>PT617</name></trkpt>
<trkpt lat="53.541696" lon="-1.946064"><ele>317</ele><time>2020-09-24T09:43:57Z</time><name>PT618</name></trkpt>
<trkpt lat="53.541690" lon="-1.945997"><ele>317</ele><time>2020-09-24T09:44:01Z</time><name>PT619</name></trkpt>
<trkpt lat="53.541675" lon="-1.945929"><ele>318</ele><time>2020-09-24T09:44:05Z</time><name>PT620</name></trkpt>
<trkpt lat="53.541672" lon="-1.945860"><ele>319</ele><time>2020-09-24T09:44:09Z</time><name>PT621</name></trkpt>
<trkpt lat="53.541663" lon="-1.945792"><ele>320</ele><time>2020-09-24T09:44:13Z</time><name>PT622</name></trkpt>
<trkpt lat="53.541652" lon="-1.945720"><ele>321</ele><time>2020-09-24T09:44:17Z</time><name>PT623</name></trkpt>
<trkpt lat="53.541638" lon="-1.945661"><ele>322</ele><time>2020-09-24T09:44:21Z</time><name>PT624</name></trkpt>
<trkpt lat="53.541613" lon="-1.945610"><ele>323</ele><time>2020-09-24T09:44:25Z</time><name>PT625</name></trkpt>
<trkpt lat="53.541593" lon="-1.945559"><ele>324</ele><time>2020-09-24T09:44:29Z</time><name>PT626</name></trkpt>
<trkpt lat="53.541574" lon="-1.945518"><ele>324</ele><time>2020-09-24T09:44:33Z</time><name>PT627</name></trkpt>
<trkpt lat="53.541554" lon="-1.945475"><ele>325</ele><time>2020-09-24T09:44:37Z</time><name>PT628</name></trkpt>
<trkpt lat="53.541531" lon="-1.945436"><ele>326</ele><time>2020-09-24T09:44:41Z</time><name>PT629</name></trkpt>
<trkpt lat="53.541507" lon="-1.945400"><ele>327</ele><time>2020-09-24T09:44:45Z</time><name>PT630</name></trkpt>
<trkpt lat="53.541482" lon="-1.945361"><ele>327</ele><time>2020-09-24T09:44:49Z</time><name>PT631</name></trkpt>
<trkpt lat="53.541456" lon="-1.945319"><ele>328</ele><time>2020-09-24T09:44:53Z</time><name>PT632</name></trkpt>
<trkpt lat="53.541438" lon="-1.945277"><ele>329</ele><time>2020-09-24T09:44:57Z</time><name>PT633</name></trkpt>
<trkpt lat="53.541417" lon="-1.945228"><ele>329</ele><time>2020-09-24T09:45:01Z</time><name>PT634</name></trkpt>
<trkpt lat="53.541406" lon="-1.945172"><ele>330</ele><time>2020-09-24T09:45:05Z</time><name>PT635</name></trkpt>
<trkpt lat="53.541397" lon="-1.945117"><ele>331</ele><time>2020-09-24T09:45:09Z</time><name>PT636</name></trkpt>
<trkpt lat="53.541393" lon="-1.945057"><ele>331</ele><time>2020-09-24T09:45:13Z</time><name>PT637</name></trkpt>
<trkpt lat="53.541385" lon="-1.945006"><ele>332</ele><time>2020-09-24T09:45:17Z</time><name>PT638</name></trkpt>
<trkpt lat="53.541384" lon="-1.944956"><ele>331</ele><time>2020-09-24T09:45:21Z</time><name>PT639</name></trkpt>
<trkpt lat="53.541383" lon="-1.944867"><ele>332</ele><time>2020-09-24T09:45:25Z</time><name>PT640</name></trkpt>
<trkpt lat="53.541381" lon="-1.944790"><ele>333</ele><time>2020-09-24T09:45:29Z</time><name>PT641</name></trkpt>
<trkpt lat="53.541383" lon="-1.944719"><ele>333</ele><time>2020-09-24T09:45:33Z</time><name>PT642</name></trkpt>
<trkpt lat="53.541388" lon="-1.944642"><ele>334</ele><time>2020-09-24T09:45:37Z</time><name>PT643</name></trkpt>
<trkpt lat="53.541395" lon="-1.944565"><ele>334</ele><time>2020-09-24T09:45:41Z</time><name>PT644</name></trkpt>
<trkpt lat="53.541402" lon="-1.944514"><ele>334</ele><time>2020-09-24T09:45:45Z</time><name>PT645</name></trkpt>
<trkpt lat="53.541403" lon="-1.944465"><ele>334</ele><time>2020-09-24T09:45:49Z</time><name>PT646</name></trkpt>
<trkpt lat="53.541400" lon="-1.944447"><ele>332</ele><time>2020-09-24T09:45:53Z</time><name>PT647</name></trkpt>
<trkpt lat="53.541387" lon="-1.944454"><ele>332</ele><time>2020-09-24T09:45:57Z</time><name>PT648</name></trkpt>
<trkpt lat="53.541346" lon="-1.944453"><ele>332</ele><time>2020-09-24T09:46:01Z</time><name>PT649</name></trkpt>
<trkpt lat="53.541327" lon="-1.944446"><ele>333</ele><time>2020-09-24T09:46:05Z</time><name>PT650</name></trkpt>
<trkpt lat="53.541324" lon="-1.944447"><ele>333</ele><time>2020-09-24T09:46:09Z</time><name>PT651</name></trkpt>
<trkpt lat="53.541320" lon="-1.944446"><ele>333</ele><time>2020-09-24T09:46:13Z</time><name>PT652</name></trkpt>
<trkpt lat="53.541288" lon="-1.944435"><ele>333</ele><time>2020-09-24T09:46:17Z</time><name>PT653</name></trkpt>
<trkpt lat="53.541274" lon="-1.944396"><ele>333</ele><time>2020-09-24T09:46:21Z</time><name>PT654</name></trkpt>
<trkpt lat="53.541244" lon="-1.944384"><ele>333</ele><time>2020-09-24T09:46:25Z</time><name>PT655</name></trkpt>
<trkpt lat="53.541223" lon="-1.944366"><ele>335</ele><time>2020-09-24T09:46:29Z</time><name>PT656</name></trkpt>
<trkpt lat="53.541209" lon="-1.944363"><ele>336</ele><time>2020-09-24T09:46:33Z</time><name>PT657</name></trkpt>
<trkpt lat="53.541188" lon="-1.944344"><ele>336</ele><time>2020-09-24T09:46:37Z</time><name>PT658</name></trkpt>
<trkpt lat="53.541145" lon="-1.944322"><ele>337</ele><time>2020-09-24T09:46:41Z</time><name>PT659</name></trkpt>
<trkpt lat="53.541106" lon="-1.944323"><ele>338</ele><time>2020-09-24T09:46:45Z</time><name>PT660</name></trkpt>
<trkpt lat="53.541085" lon="-1.944344"><ele>339</ele><time>2020-09-24T09:46:49Z</time><name>PT661</name></trkpt>
<trkpt lat="53.541063" lon="-1.944348"><ele>338</ele><time>2020-09-24T09:46:53Z</time><name>PT662</name></trkpt>
<trkpt lat="53.541034" lon="-1.944332"><ele>339</ele><time>2020-09-24T09:46:57Z</time><name>PT663</name></trkpt>
<trkpt lat="53.541015" lon="-1.944322"><ele>340</ele><time>2020-09-24T09:47:01Z</time><name>PT664</name></trkpt>
<trkpt lat="53.541012" lon="-1.944321"><ele>340</ele><time>2020-09-24T09:47:05Z</time><name>PT665</name></trkpt>
<trkpt lat="53.540992" lon="-1.944332"><ele>340</ele><time>2020-09-24T09:47:09Z</time><name>PT666</name></trkpt>
<trkpt lat="53.540984" lon="-1.944326"><ele>340</ele><time>2020-09-24T09:47:13Z</time><name>PT667</name></trkpt>
<trkpt lat="53.540969" lon="-1.944303"><ele>338</ele><time>2020-09-24T09:47:21Z</time><name>PT668</name></trkpt>
<trkpt lat="53.540971" lon="-1.944272"><ele>338</ele><time>2020-09-24T09:47:24Z</time><name>PT669</name></trkpt>
<trkpt lat="53.540962" lon="-1.944259"><ele>338</ele><time>2020-09-24T09:47:28Z</time><name>PT670</name></trkpt>
<trkpt lat="53.540947" lon="-1.944241"><ele>338</ele><time>2020-09-24T09:47:32Z</time><name>PT671</name></trkpt>
<trkpt lat="53.540924" lon="-1.944223"><ele>338</ele><time>2020-09-24T09:47:36Z</time><name>PT672</name></trkpt>
<trkpt lat="53.540894" lon="-1.944220"><ele>336</ele><time>2020-09-24T09:47:40Z</time><name>PT673</name></trkpt>
<trkpt lat="53.540878" lon="-1.944182"><ele>336</ele><time>2020-09-24T09:47:44Z</time><name>PT674</name></trkpt>
<trkpt lat="53.540866" lon="-1.944176"><ele>336</ele><time>2020-09-24T09:47:48Z</time><name>PT675</name></trkpt>
<trkpt lat="53.540849" lon="-1.944155"><ele>336</ele><time>2020-09-24T09:47:52Z</time><name>PT676</name></trkpt>
<trkpt lat="53.540827" lon="-1.944141"><ele>336</ele><time>2020-09-24T09:47:56Z</time><name>PT677</name></trkpt>
<trkpt lat="53.540820" lon="-1.944110"><ele>337</ele><time>2020-09-24T09:48:00Z</time><name>PT678</name></trkpt>
<trkpt lat="53.540809" lon="-1.944055"><ele>336</ele><time>2020-09-24T09:48:04Z</time><name>PT679</name></trkpt>
<trkpt lat="53.540789" lon="-1.944005"><ele>337</ele><time>2020-09-24T09:48:08Z</time><name>PT680</name></trkpt>
<trkpt lat="53.540757" lon="-1.943979"><ele>338</ele><time>2020-09-24T09:48:12Z</time><name>PT681</name></trkpt>
<trkpt lat="53.540726" lon="-1.943962"><ele>338</ele><time>2020-09-24T09:48:16Z</time><name>PT682</name></trkpt>
<trkpt lat="53.540703" lon="-1.943949"><ele>340</ele><time>2020-09-24T09:48:20Z</time><name>PT683</name></trkpt>
<trkpt lat="53.540685" lon="-1.943936"><ele>341</ele><time>2020-09-24T09:48:24Z</time><name>PT684</name></trkpt>
<trkpt lat="53.540659" lon="-1.943911"><ele>342</ele><time>2020-09-24T09:48:28Z</time><name>PT685</name></trkpt>
<trkpt lat="53.540638" lon="-1.943897"><ele>342</ele><time>2020-09-24T09:48:32Z</time><name>PT686</name></trkpt>
<trkpt lat="53.540610" lon="-1.943881"><ele>344</ele><time>2020-09-24T09:48:36Z</time><name>PT687</name></trkpt>
<trkpt lat="53.540585" lon="-1.943868"><ele>344</ele><time>2020-09-24T09:48:40Z</time><name>PT688</name></trkpt>
<trkpt lat="53.540572" lon="-1.943849"><ele>345</ele><time>2020-09-24T09:48:44Z</time><name>PT689</name></trkpt>
<trkpt lat="53.540559" lon="-1.943814"><ele>344</ele><time>2020-09-24T09:48:48Z</time><name>PT690</name></trkpt>
<trkpt lat="53.540543" lon="-1.943788"><ele>347</ele><time>2020-09-24T09:48:52Z</time><name>PT691</name></trkpt>
<trkpt lat="53.540533" lon="-1.943790"><ele>348</ele><time>2020-09-24T09:48:56Z</time><name>PT692</name></trkpt>
<trkpt lat="53.540510" lon="-1.943789"><ele>348</ele><time>2020-09-24T09:49:00Z</time><name>PT693</name></trkpt>
<trkpt lat="53.540493" lon="-1.943787"><ele>348</ele><time>2020-09-24T09:49:04Z</time><name>PT694</name></trkpt>
<trkpt lat="53.540470" lon="-1.943774"><ele>349</ele><time>2020-09-24T09:49:08Z</time><name>PT695</name></trkpt>
<trkpt lat="53.540456" lon="-1.943777"><ele>350</ele><time>2020-09-24T09:49:12Z</time><name>PT696</name></trkpt>
<trkpt lat="53.540447" lon="-1.943769"><ele>349</ele><time>2020-09-24T09:49:16Z</time><name>PT697</name></trkpt>
<trkpt lat="53.540433" lon="-1.943773"><ele>349</ele><time>2020-09-24T09:49:20Z</time><name>PT698</name></trkpt>
<trkpt lat="53.540422" lon="-1.943781"><ele>349</ele><time>2020-09-24T09:49:24Z</time><name>PT699</name></trkpt>
<trkpt lat="53.540402" lon="-1.943787"><ele>347</ele><time>2020-09-24T09:49:28Z</time><name>PT700</name></trkpt>
<trkpt lat="53.540389" lon="-1.943783"><ele>347</ele><time>2020-09-24T09:49:32Z</time><name>PT701</name></trkpt>
<trkpt lat="53.540381" lon="-1.943787"><ele>347</ele><time>2020-09-24T09:49:36Z</time><name>PT702</name></trkpt>
<trkpt lat="53.540369" lon="-1.943737"><ele>349</ele><time>2020-09-24T09:49:40Z</time><name>PT703</name></trkpt>
<trkpt lat="53.540369" lon="-1.943699"><ele>350</ele><time>2020-09-24T09:49:44Z</time><name>PT704</name></trkpt>
<trkpt lat="53.540362" lon="-1.943679"><ele>350</ele><time>2020-09-24T09:49:48Z</time><name>PT705</name></trkpt>
<trkpt lat="53.540361" lon="-1.943647"><ele>351</ele><time>2020-09-24T09:49:52Z</time><name>PT706</name></trkpt>
<trkpt lat="53.540362" lon="-1.943637"><ele>350</ele><time>2020-09-24T09:49:56Z</time><name>PT707</name></trkpt>
<trkpt lat="53.540359" lon="-1.943597"><ele>351</ele><time>2020-09-24T09:50:04Z</time><name>PT708</name></trkpt>
<trkpt lat="53.540337" lon="-1.943589"><ele>351</ele><time>2020-09-24T09:50:08Z</time><name>PT709</name></trkpt>
<trkpt lat="53.540337" lon="-1.943571"><ele>351</ele><time>2020-09-24T09:50:12Z</time><name>PT710</name></trkpt>
<trkpt lat="53.540329" lon="-1.943536"><ele>352</ele><time>2020-09-24T09:50:20Z</time><name>PT711</name></trkpt>
<trkpt lat="53.540332" lon="-1.943515"><ele>353</ele><time>2020-09-24T09:50:24Z</time><name>PT712</name></trkpt>
<trkpt lat="53.540334" lon="-1.943513"><ele>353</ele><time>2020-09-24T09:50:28Z</time><name>PT713</name></trkpt>
<trkpt lat="53.540323" lon="-1.943481"><ele>353</ele><time>2020-09-24T09:50:32Z</time><name>PT714</name></trkpt>
<trkpt lat="53.540323" lon="-1.943465"><ele>353</ele><time>2020-09-24T09:50:36Z</time><name>PT715</name></trkpt>
<trkpt lat="53.540319" lon="-1.943469"><ele>354</ele><time>2020-09-24T09:50:40Z</time><name>PT716</name></trkpt>
<trkpt lat="53.540310" lon="-1.943481"><ele>354</ele><time>2020-09-24T09:50:52Z</time><name>PT717</name></trkpt>
<trkpt lat="53.540330" lon="-1.943523"><ele>356</ele><time>2020-09-24T09:51:40Z</time><name>PT718</name></trkpt>
<trkpt lat="53.540339" lon="-1.943525"><ele>356</ele><time>2020-09-24T09:51:44Z</time><name>PT719</name></trkpt>
<trkpt lat="53.540329" lon="-1.943509"><ele>356</ele><time>2020-09-24T09:52:08Z</time><name>PT720</name></trkpt>
<trkpt lat="53.540308" lon="-1.943480"><ele>355</ele><time>2020-09-24T09:52:12Z</time><name>PT721</name></trkpt>
<trkpt lat="53.540327" lon="-1.943441"><ele>357</ele><time>2020-09-24T09:52:16Z</time><name>PT722</name></trkpt>
<trkpt lat="53.540330" lon="-1.943437"><ele>357</ele><time>2020-09-24T09:52:20Z</time><name>PT723</name></trkpt>
<trkpt lat="53.540334" lon="-1.943472"><ele>357</ele><time>2020-09-24T09:52:36Z</time><name>PT724</name></trkpt>
<trkpt lat="53.540329" lon="-1.943494"><ele>358</ele><time>2020-09-24T09:53:56Z</time><name>PT725</name></trkpt>
<trkpt lat="53.540315" lon="-1.943511"><ele>358</ele><time>2020-09-24T09:54:00Z</time><name>PT726</name></trkpt>
<trkpt lat="53.540333" lon="-1.943531"><ele>358</ele><time>2020-09-24T09:54:24Z</time><name>PT727</name></trkpt>
<trkpt lat="53.540340" lon="-1.943544"><ele>360</ele><time>2020-09-24T09:55:40Z</time><name>PT728</name></trkpt>
<trkpt lat="53.540346" lon="-1.943529"><ele>361</ele><time>2020-09-24T09:55:44Z</time><name>PT729</name></trkpt>
<trkpt lat="53.540349" lon="-1.943482"><ele>362</ele><time>2020-09-24T09:56:24Z</time><name>PT730</name></trkpt>
<trkpt lat="53.540352" lon="-1.943485"><ele>361</ele><time>2020-09-24T09:56:28Z</time><name>PT731</name></trkpt>
<trkpt lat="53.540355" lon="-1.943481"><ele>361</ele><time>2020-09-24T09:56:32Z</time><name>PT732</name></trkpt>
<trkpt lat="53.540354" lon="-1.943485"><ele>361</ele><time>2020-09-24T09:56:54Z</time><name>PT733</name></trkpt>
<trkpt lat="53.540352" lon="-1.943472"><ele>362</ele><time>2020-09-24T09:56:58Z</time><name>PT734</name></trkpt>
<trkpt lat="53.540337" lon="-1.943492"><ele>363</ele><time>2020-09-24T09:58:30Z</time><name>PT735</name></trkpt>
<trkpt lat="53.540314" lon="-1.943459"><ele>363</ele><time>2020-09-24T09:58:34Z</time><name>PT736</name></trkpt>
<trkpt lat="53.540314" lon="-1.943466"><ele>363</ele><time>2020-09-24T09:58:50Z</time><name>PT737</name></trkpt>
<trkpt lat="53.540312" lon="-1.943470"><ele>363</ele><time>2020-09-24T09:58:54Z</time><name>PT738</name></trkpt>
<trkpt lat="53.540282" lon="-1.943444"><ele>364</ele><time>2020-09-24T09:58:58Z</time><name>PT739</name></trkpt>
<trkpt lat="53.540255" lon="-1.943410"><ele>365</ele><time>2020-09-24T09:59:02Z</time><name>PT740</name></trkpt>
<trkpt lat="53.540249" lon="-1.943405"><ele>365</ele><time>2020-09-24T09:59:06Z</time><name>PT741</name></trkpt>
<trkpt lat="53.540248" lon="-1.943402"><ele>364</ele><time>2020-09-24T09:59:10Z</time><name>PT742</name></trkpt>
<trkpt lat="53.540241" lon="-1.943429"><ele>364</ele><time>2020-09-24T09:59:14Z</time><name>PT743</name></trkpt>
<trkpt lat="53.540238" lon="-1.943453"><ele>363</ele><time>2020-09-24T09:59:18Z</time><name>PT744</name></trkpt>
<trkpt lat="53.540232" lon="-1.943454"><ele>363</ele><time>2020-09-24T09:59:30Z</time><name>PT745</name></trkpt>
<trkpt lat="53.540208" lon="-1.943421"><ele>366</ele><time>2020-09-24T09:59:34Z</time><name>PT746</name></trkpt>
<trkpt lat="53.540198" lon="-1.943414"><ele>368</ele><time>2020-09-24T09:59:38Z</time><name>PT747</name></trkpt>
<trkpt lat="53.540178" lon="-1.943422"><ele>369</ele><time>2020-09-24T09:59:42Z</time><name>PT748</name></trkpt>
<trkpt lat="53.540179" lon="-1.943401"><ele>367</ele><time>2020-09-24T09:59:46Z</time><name>PT749</name></trkpt>
<trkpt lat="53.540151" lon="-1.943400"><ele>367</ele><time>2020-09-24T09:59:50Z</time><name>PT750</name></trkpt>
<trkpt lat="53.540127" lon="-1.943343"><ele>367</ele><time>2020-09-24T09:59:54Z</time><name>PT751</name></trkpt>
<trkpt lat="53.540122" lon="-1.943322"><ele>368</ele><time>2020-09-24T09:59:58Z</time><name>PT752</name></trkpt>
<trkpt lat="53.540116" lon="-1.943327"><ele>367</ele><time>2020-09-24T10:00:02Z</time><name>PT753</name></trkpt>
<trkpt lat="53.540106" lon="-1.943331"><ele>367</ele><time>2020-09-24T10:00:10Z</time><name>PT754</name></trkpt>
<trkpt lat="53.540095" lon="-1.943321"><ele>367</ele><time>2020-09-24T10:00:14Z</time><name>PT755</name></trkpt>
<trkpt lat="53.540078" lon="-1.943318"><ele>368</ele><time>2020-09-24T10:00:18Z</time><name>PT756</name></trkpt>
<trkpt lat="53.540081" lon="-1.943305"><ele>368</ele><time>2020-09-24T10:00:22Z</time><name>PT757</name></trkpt>
<trkpt lat="53.540075" lon="-1.943305"><ele>368</ele><time>2020-09-24T10:00:30Z</time><name>PT758</name></trkpt>
<trkpt lat="53.540071" lon="-1.943302"><ele>369</ele><time>2020-09-24T10:00:34Z</time><name>PT759</name></trkpt>
<trkpt lat="53.540066" lon="-1.943286"><ele>370</ele><time>2020-09-24T10:00:38Z</time><name>PT760</name></trkpt>
<trkpt lat="53.540061" lon="-1.943281"><ele>371</ele><time>2020-09-24T10:00:42Z</time><name>PT761</name></trkpt>
<trkpt lat="53.540053" lon="-1.943272"><ele>371</ele><time>2020-09-24T10:00:46Z</time><name>PT762</name></trkpt>
<trkpt lat="53.540042" lon="-1.943267"><ele>372</ele><time>2020-09-24T10:00:50Z</time><name>PT763</name></trkpt>
<trkpt lat="53.540044" lon="-1.943264"><ele>371</ele><time>2020-09-24T10:00:54Z</time><name>PT764</name></trkpt>
<trkpt lat="53.540033" lon="-1.943258"><ele>372</ele><time>2020-09-24T10:00:58Z</time><name>PT765</name></trkpt>
<trkpt lat="53.540009" lon="-1.943233"><ele>373</ele><time>2020-09-24T10:01:02Z</time><name>PT766</name></trkpt>
<trkpt lat="53.539976" lon="-1.943226"><ele>373</ele><time>2020-09-24T10:01:06Z</time><name>PT767</name></trkpt>
<trkpt lat="53.539967" lon="-1.943212"><ele>372</ele><time>2020-09-24T10:01:10Z</time><name>PT768</name></trkpt>
<trkpt lat="53.539959" lon="-1.943202"><ele>372</ele><time>2020-09-24T10:01:14Z</time><name>PT769</name></trkpt>
<trkpt lat="53.539956" lon="-1.943210"><ele>372</ele><time>2020-09-24T10:01:22Z</time><name>PT770</name></trkpt>
<trkpt lat="53.539941" lon="-1.943190"><ele>372</ele><time>2020-09-24T10:01:26Z</time><name>PT771</name></trkpt>
<trkpt lat="53.539934" lon="-1.943213"><ele>372</ele><time>2020-09-24T10:01:30Z</time><name>PT772</name></trkpt>
<trkpt lat="53.539922" lon="-1.943228"><ele>372</ele><time>2020-09-24T10:01:34Z</time><name>PT773</name></trkpt>
<trkpt lat="53.539903" lon="-1.943237"><ele>373</ele><time>2020-09-24T10:01:38Z</time><name>PT774</name></trkpt>
<trkpt lat="53.539895" lon="-1.943252"><ele>373</ele><time>2020-09-24T10:01:42Z</time><name>PT775</name></trkpt>
<trkpt lat="53.539868" lon="-1.943250"><ele>374</ele><time>2020-09-24T10:01:46Z</time><name>PT776</name></trkpt>
<trkpt lat="53.539844" lon="-1.943238"><ele>375</ele><time>2020-09-24T10:01:50Z</time><name>PT777</name></trkpt>
<trkpt lat="53.539833" lon="-1.943245"><ele>375</ele><time>2020-09-24T10:01:54Z</time><name>PT778</name></trkpt>
<trkpt lat="53.539830" lon="-1.943245"><ele>375</ele><time>2020-09-24T10:01:58Z</time><name>PT779</name></trkpt>
<trkpt lat="53.539839" lon="-1.943276"><ele>376</ele><time>2020-09-24T10:02:38Z</time><name>PT780</name></trkpt>
<trkpt lat="53.539843" lon="-1.943282"><ele>377</ele><time>2020-09-24T10:02:42Z</time><name>PT781</name></trkpt>
<trkpt lat="53.539842" lon="-1.943279"><ele>376</ele><time>2020-09-24T10:02:46Z</time><name>PT782</name></trkpt>
<trkpt lat="53.539814" lon="-1.943259"><ele>375</ele><time>2020-09-24T10:02:50Z</time><name>PT783</name></trkpt>
<trkpt lat="53.539786" lon="-1.943228"><ele>377</ele><time>2020-09-24T10:02:54Z</time><name>PT784</name></trkpt>
<trkpt lat="53.539776" lon="-1.943205"><ele>378</ele><time>2020-09-24T10:02:58Z</time><name>PT785</name></trkpt>
<trkpt lat="53.539760" lon="-1.943196"><ele>378</ele><time>2020-09-24T10:03:02Z</time><name>PT786</name></trkpt>
<trkpt lat="53.539756" lon="-1.943166"><ele>378</ele><time>2020-09-24T10:03:06Z</time><name>PT787</name></trkpt>
<trkpt lat="53.539759" lon="-1.943147"><ele>378</ele><time>2020-09-24T10:03:10Z</time><name>PT788</name></trkpt>
<trkpt lat="53.539777" lon="-1.943152"><ele>381</ele><time>2020-09-24T10:03:14Z</time><name>PT789</name></trkpt>
<trkpt lat="53.539805" lon="-1.943138"><ele>382</ele><time>2020-09-24T10:03:18Z</time><name>PT790</name></trkpt>
<trkpt lat="53.539808" lon="-1.943129"><ele>383</ele><time>2020-09-24T10:03:22Z</time><name>PT791</name></trkpt>
<trkpt lat="53.539782" lon="-1.943116"><ele>384</ele><time>2020-09-24T10:03:26Z</time><name>PT792</name></trkpt>
<trkpt lat="53.539766" lon="-1.943098"><ele>386</ele><time>2020-09-24T10:03:30Z</time><name>PT793</name></trkpt>
<trkpt lat="53.539764" lon="-1.943073"><ele>387</ele><time>2020-09-24T10:03:34Z</time><name>PT794</name></trkpt>
<trkpt lat="53.539748" lon="-1.943046"><ele>386</ele><time>2020-09-24T10:03:38Z</time><name>PT795</name></trkpt>
<trkpt lat="53.539746" lon="-1.943031"><ele>385</ele><time>2020-09-24T10:03:42Z</time><name>PT796</name></trkpt>
<trkpt lat="53.539697" lon="-1.943043"><ele>382</ele><time>2020-09-24T10:03:46Z</time><name>PT797</name></trkpt>
<trkpt lat="53.539674" lon="-1.943012"><ele>382</ele><time>2020-09-24T10:03:50Z</time><name>PT798</name></trkpt>
<trkpt lat="53.539658" lon="-1.942985"><ele>382</ele><time>2020-09-24T10:03:54Z</time><name>PT799</name></trkpt>
<trkpt lat="53.539658" lon="-1.942982"><ele>382</ele><time>2020-09-24T10:03:58Z</time><name>PT800</name></trkpt>
<trkpt lat="53.539654" lon="-1.942957"><ele>383</ele><time>2020-09-24T10:04:06Z</time><name>PT801</name></trkpt>
<trkpt lat="53.539636" lon="-1.942939"><ele>383</ele><time>2020-09-24T10:04:14Z</time><name>PT802</name></trkpt>
<trkpt lat="53.539607" lon="-1.942926"><ele>383</ele><time>2020-09-24T10:04:18Z</time><name>PT803</name></trkpt>
<trkpt lat="53.539600" lon="-1.942936"><ele>381</ele><time>2020-09-24T10:04:21Z</time><name>PT804</name></trkpt>
<trkpt lat="53.539594" lon="-1.942956"><ele>379</ele><time>2020-09-24T10:05:05Z</time><name>PT805</name></trkpt>
<trkpt lat="53.539591" lon="-1.942956"><ele>380</ele><time>2020-09-24T10:05:21Z</time><name>PT806</name></trkpt>
<trkpt lat="53.539574" lon="-1.942942"><ele>379</ele><time>2020-09-24T10:05:25Z</time><name>PT807</name></trkpt>
<trkpt lat="53.539569" lon="-1.942946"><ele>378</ele><time>2020-09-24T10:05:35Z</time><name>PT808</name></trkpt>
<trkpt lat="53.539557" lon="-1.942957"><ele>379</ele><time>2020-09-24T10:05:39Z</time><name>PT809</name></trkpt>
<trkpt lat="53.539544" lon="-1.942940"><ele>380</ele><time>2020-09-24T10:05:51Z</time><name>PT810</name></trkpt>
<trkpt lat="53.539549" lon="-1.942924"><ele>380</ele><time>2020-09-24T10:05:55Z</time><name>PT811</name></trkpt>
<trkpt lat="53.539529" lon="-1.942922"><ele>381</ele><time>2020-09-24T10:06:10Z</time><name>PT812</name></trkpt>
<trkpt lat="53.539526" lon="-1.942919"><ele>381</ele><time>2020-09-24T10:06:14Z</time><name>PT813</name></trkpt>
<trkpt lat="53.539522" lon="-1.942936"><ele>381</ele><time>2020-09-24T10:06:18Z</time><name>PT814</name></trkpt>
<trkpt lat="53.539527" lon="-1.942920"><ele>382</ele><time>2020-09-24T10:06:22Z</time><name>PT815</name></trkpt>
<trkpt lat="53.539514" lon="-1.942947"><ele>380</ele><time>2020-09-24T10:06:26Z</time><name>PT816</name></trkpt>
<trkpt lat="53.539508" lon="-1.942950"><ele>380</ele><time>2020-09-24T10:06:30Z</time><name>PT817</name></trkpt>
<trkpt lat="53.539490" lon="-1.942945"><ele>379</ele><time>2020-09-24T10:06:34Z</time><name>PT818</name></trkpt>
<trkpt lat="53.539476" lon="-1.942958"><ele>380</ele><time>2020-09-24T10:06:38Z</time><name>PT819</name></trkpt>
<trkpt lat="53.539476" lon="-1.942960"><ele>381</ele><time>2020-09-24T10:06:42Z</time><name>PT820</name></trkpt>
<trkpt lat="53.539470" lon="-1.942918"><ele>382</ele><time>2020-09-24T10:06:46Z</time><name>PT821</name></trkpt>
<trkpt lat="53.539462" lon="-1.942913"><ele>383</ele><time>2020-09-24T10:06:49Z</time><name>PT822</name></trkpt>
<trkpt lat="53.539452" lon="-1.942899"><ele>382</ele><time>2020-09-24T10:06:53Z</time><name>PT823</name></trkpt>
<trkpt lat="53.539443" lon="-1.942902"><ele>382</ele><time>2020-09-24T10:06:57Z</time><name>PT824</name></trkpt>
<trkpt lat="53.539439" lon="-1.942902"><ele>383</ele><time>2020-09-24T10:07:01Z</time><name>PT825</name></trkpt>
<trkpt lat="53.539419" lon="-1.942915"><ele>384</ele><time>2020-09-24T10:07:05Z</time><name>PT826</name></trkpt>
<trkpt lat="53.539415" lon="-1.942916"><ele>384</ele><time>2020-09-24T10:07:09Z</time><name>PT827</name></trkpt>
<trkpt lat="53.539397" lon="-1.942924"><ele>384</ele><time>2020-09-24T10:07:13Z</time><name>PT828</name></trkpt>
<trkpt lat="53.539392" lon="-1.942910"><ele>386</ele><time>2020-09-24T10:07:17Z</time><name>PT829</name></trkpt>
<trkpt lat="53.539396" lon="-1.942886"><ele>385</ele><time>2020-09-24T10:07:21Z</time><name>PT830</name></trkpt>
<trkpt lat="53.539380" lon="-1.942860"><ele>386</ele><time>2020-09-24T10:07:25Z</time><name>PT831</name></trkpt>
<trkpt lat="53.539360" lon="-1.942859"><ele>389</ele><time>2020-09-24T10:07:29Z</time><name>PT832</name></trkpt>
<trkpt lat="53.539360" lon="-1.942859"><ele>390</ele><time>2020-09-24T10:07:33Z</time><name>PT833</name></trkpt>
<trkpt lat="53.539348" lon="-1.942840"><ele>391</ele><time>2020-09-24T10:07:41Z</time><name>PT834</name></trkpt>
<trkpt lat="53.539345" lon="-1.942815"><ele>393</ele><time>2020-09-24T10:07:45Z</time><name>PT835</name></trkpt>
<trkpt lat="53.539340" lon="-1.942797"><ele>392</ele><time>2020-09-24T10:07:49Z</time><name>PT836</name></trkpt>
<trkpt lat="53.539339" lon="-1.942785"><ele>391</ele><time>2020-09-24T10:07:53Z</time><name>PT837</name></trkpt>
<trkpt lat="53.539338" lon="-1.942784"><ele>392</ele><time>2020-09-24T10:07:57Z</time><name>PT838</name></trkpt>
<trkpt lat="53.539326" lon="-1.942786"><ele>392</ele><time>2020-09-24T10:08:01Z</time><name>PT839</name></trkpt>
<trkpt lat="53.539322" lon="-1.942785"><ele>391</ele><time>2020-09-24T10:08:05Z</time><name>PT840</name></trkpt>
<trkpt lat="53.539311" lon="-1.942781"><ele>392</ele><time>2020-09-24T10:08:09Z</time><name>PT841</name></trkpt>
<trkpt lat="53.539310" lon="-1.942782"><ele>392</ele><time>2020-09-24T10:08:13Z</time><name>PT842</name></trkpt>
<trkpt lat="53.539304" lon="-1.942771"><ele>392</ele><time>2020-09-24T10:08:17Z</time><name>PT843</name></trkpt>
<trkpt lat="53.539303" lon="-1.942772"><ele>392</ele><time>2020-09-24T10:08:20Z</time><name>PT844</name></trkpt>
<trkpt lat="53.539297" lon="-1.942743"><ele>393</ele><time>2020-09-24T10:08:44Z</time><name>PT845</name></trkpt>
<trkpt lat="53.539298" lon="-1.942700"><ele>392</ele><time>2020-09-24T10:08:48Z</time><name>PT846</name></trkpt>
<trkpt lat="53.539291" lon="-1.942673"><ele>392</ele><time>2020-09-24T10:08:51Z</time><name>PT847</name></trkpt>
<trkpt lat="53.539275" lon="-1.942654"><ele>393</ele><time>2020-09-24T10:08:55Z</time><name>PT848</name></trkpt>
<trkpt lat="53.539272" lon="-1.942634"><ele>393</ele><time>2020-09-24T10:08:59Z</time><name>PT849</name></trkpt>
<trkpt lat="53.539250" lon="-1.942607"><ele>394</ele><time>2020-09-24T10:09:03Z</time><name>PT850</name></trkpt>
<trkpt lat="53.539225" lon="-1.942598"><ele>395</ele><time>2020-09-24T10:09:07Z</time><name>PT851</name></trkpt>
<trkpt lat="53.539223" lon="-1.942592"><ele>396</ele><time>2020-09-24T10:09:11Z</time><name>PT852</name></trkpt>
<trkpt lat="53.539225" lon="-1.942558"><ele>397</ele><time>2020-09-24T10:09:15Z</time><name>PT853</name></trkpt>
<trkpt lat="53.539211" lon="-1.942558"><ele>398</ele><time>2020-09-24T10:09:23Z</time><name>PT854</name></trkpt>
<trkpt lat="53.539219" lon="-1.942532"><ele>399</ele><time>2020-09-24T10:09:27Z</time><name>PT855</name></trkpt>
<trkpt lat="53.539215" lon="-1.942505"><ele>398</ele><time>2020-09-24T10:09:31Z</time><name>PT856</name></trkpt>
<trkpt lat="53.539198" lon="-1.942494"><ele>398</ele><time>2020-09-24T10:09:35Z</time><name>PT857</name></trkpt>
<trkpt lat="53.539197" lon="-1.942492"><ele>398</ele><time>2020-09-24T10:09:39Z</time><name>PT858</name></trkpt>
<trkpt lat="53.539167" lon="-1.942461"><ele>400</ele><time>2020-09-24T10:09:47Z</time><name>PT859</name></trkpt>
<trkpt lat="53.539139" lon="-1.942421"><ele>402</ele><time>2020-09-24T10:09:51Z</time><name>PT860</name></trkpt>
<trkpt lat="53.539116" lon="-1.942392"><ele>402</ele><time>2020-09-24T10:09:55Z</time><name>PT861</name></trkpt>
<trkpt lat="53.539116" lon="-1.942389"><ele>402</ele><time>2020-09-24T10:09:59Z</time><name>PT862</name></trkpt>
<trkpt lat="53.539116" lon="-1.942389"><ele>402</ele><time>2020-09-24T10:10:03Z</time><name>PT863</name></trkpt>
<trkpt lat="53.539104" lon="-1.942369"><ele>403</ele><time>2020-09-24T10:10:07Z</time><name>PT864</name></trkpt>
<trkpt lat="53.539084" lon="-1.942349"><ele>403</ele><time>2020-09-24T10:10:11Z</time><name>PT865</name></trkpt>
<trkpt lat="53.539072" lon="-1.942332"><ele>402</ele><time>2020-09-24T10:10:15Z</time><name>PT866</name></trkpt>
<trkpt lat="53.539063" lon="-1.942326"><ele>403</ele><time>2020-09-24T10:10:19Z</time><name>PT867</name></trkpt>
<trkpt lat="53.539043" lon="-1.942320"><ele>403</ele><time>2020-09-24T10:10:27Z</time><name>PT868</name></trkpt>
<trkpt lat="53.539028" lon="-1.942314"><ele>403</ele><time>2020-09-24T10:10:31Z</time><name>PT869</name></trkpt>
<trkpt lat="53.539006" lon="-1.942305"><ele>404</ele><time>2020-09-24T10:10:35Z</time><name>PT870</name></trkpt>
<trkpt lat="53.539000" lon="-1.942279"><ele>404</ele><time>2020-09-24T10:10:39Z</time><name>PT871</name></trkpt>
<trkpt lat="53.538991" lon="-1.942274"><ele>406</ele><time>2020-09-24T10:10:43Z</time><name>PT872</name></trkpt>
<trkpt lat="53.538983" lon="-1.942251"><ele>406</ele><time>2020-09-24T10:10:47Z</time><name>PT873</name></trkpt>
<trkpt lat="53.538974" lon="-1.942242"><ele>406</ele><time>2020-09-24T10:10:51Z</time><name>PT874</name></trkpt>
<trkpt lat="53.538957" lon="-1.942220"><ele>406</ele><time>2020-09-24T10:10:55Z</time><name>PT875</name></trkpt>
<trkpt lat="53.538936" lon="-1.942200"><ele>406</ele><time>2020-09-24T10:10:59Z</time><name>PT876</name></trkpt>
<trkpt lat="53.538927" lon="-1.942198"><ele>406</ele><time>2020-09-24T10:11:02Z</time><name>PT877</name></trkpt>
<trkpt lat="53.538915" lon="-1.942172"><ele>406</ele><time>2020-09-24T10:11:10Z</time><name>PT878</name></trkpt>
<trkpt lat="53.538905" lon="-1.942154"><ele>407</ele><time>2020-09-24T10:11:14Z</time><name>PT879</name></trkpt>
<trkpt lat="53.538891" lon="-1.942151"><ele>408</ele><time>2020-09-24T10:11:18Z</time><name>PT880</name></trkpt>
<trkpt lat="53.538887" lon="-1.942142"><ele>407</ele><time>2020-09-24T10:11:22Z</time><name>PT881</name></trkpt>
<trkpt lat="53.538883" lon="-1.942120"><ele>408</ele><time>2020-09-24T10:11:38Z</time><name>PT882</name></trkpt>
<trkpt lat="53.538880" lon="-1.942112"><ele>409</ele><time>2020-09-24T10:11:46Z</time><name>PT883</name></trkpt>
<trkpt lat="53.538863" lon="-1.942078"><ele>410</ele><time>2020-09-24T10:11:50Z</time><name>PT884</name></trkpt>
<trkpt lat="53.538842" lon="-1.942037"><ele>410</ele><time>2020-09-24T10:11:54Z</time><name>PT885</name></trkpt>
<trkpt lat="53.538823" lon="-1.942012"><ele>409</ele><time>2020-09-24T10:11:58Z</time><name>PT886</name></trkpt>
<trkpt lat="53.538801" lon="-1.942001"><ele>410</ele><time>2020-09-24T10:12:02Z</time><name>PT887</name></trkpt>
<trkpt lat="53.538798" lon="-1.942003"><ele>409</ele><time>2020-09-24T10:12:06Z</time><name>PT888</name></trkpt>
<trkpt lat="53.538795" lon="-1.941991"><ele>409</ele><time>2020-09-24T10:12:10Z</time><name>PT889</name></trkpt>
<trkpt lat="53.538768" lon="-1.941978"><ele>410</ele><time>2020-09-24T10:12:14Z</time><name>PT890</name></trkpt>
<trkpt lat="53.538750" lon="-1.941951"><ele>410</ele><time>2020-09-24T10:12:18Z</time><name>PT891</name></trkpt>
<trkpt lat="53.538739" lon="-1.941933"><ele>411</ele><time>2020-09-24T10:12:22Z</time><name>PT892</name></trkpt>
<trkpt lat="53.538717" lon="-1.941923"><ele>410</ele><time>2020-09-24T10:12:26Z</time><name>PT893</name></trkpt>
<trkpt lat="53.538708" lon="-1.941912"><ele>411</ele><time>2020-09-24T10:12:30Z</time><name>PT894</name></trkpt>
<trkpt lat="53.538707" lon="-1.941909"><ele>411</ele><time>2020-09-24T10:12:34Z</time><name>PT895</name></trkpt>
<trkpt lat="53.538696" lon="-1.941909"><ele>411</ele><time>2020-09-24T10:12:42Z</time><name>PT896</name></trkpt>
<trkpt lat="53.538682" lon="-1.941871"><ele>411</ele><time>2020-09-24T10:12:50Z</time><name>PT897</name></trkpt>
<trkpt lat="53.538670" lon="-1.941811"><ele>411</ele><time>2020-09-24T10:12:54Z</time><name>PT898</name></trkpt>
<trkpt lat="53.538671" lon="-1.941790"><ele>410</ele><time>2020-09-24T10:12:58Z</time><name>PT899</name></trkpt>
<trkpt lat="53.538659" lon="-1.941772"><ele>412</ele><time>2020-09-24T10:13:02Z</time><name>PT900</name></trkpt>
<trkpt lat="53.538647" lon="-1.941747"><ele>412</ele><time>2020-09-24T10:13:06Z</time><name>PT901</name></trkpt>
<trkpt lat="53.538623" lon="-1.941702"><ele>412</ele><time>2020-09-24T10:13:10Z</time><name>PT902</name></trkpt>
<trkpt lat="53.538616" lon="-1.941676"><ele>413</ele><time>2020-09-24T10:13:14Z</time><name>PT903</name></trkpt>
<trkpt lat="53.538605" lon="-1.941665"><ele>414</ele><time>2020-09-24T10:13:18Z</time><name>PT904</name></trkpt>
<trkpt lat="53.538588" lon="-1.941646"><ele>416</ele><time>2020-09-24T10:13:22Z</time><name>PT905</name></trkpt>
<trkpt lat="53.538572" lon="-1.941645"><ele>416</ele><time>2020-09-24T10:13:26Z</time><name>PT906</name></trkpt>
<trkpt lat="53.538543" lon="-1.941605"><ele>415</ele><time>2020-09-24T10:13:30Z</time><name>PT907</name></trkpt>
<trkpt lat="53.538527" lon="-1.941577"><ele>415</ele><time>2020-09-24T10:13:34Z</time><name>PT908</name></trkpt>
<trkpt lat="53.538506" lon="-1.941550"><ele>416</ele><time>2020-09-24T10:13:38Z</time><name>PT909</name></trkpt>
<trkpt lat="53.538503" lon="-1.941530"><ele>415</ele><time>2020-09-24T10:13:42Z</time><name>PT910</name></trkpt>
<trkpt lat="53.538504" lon="-1.941523"><ele>415</ele><time>2020-09-24T10:13:50Z</time><name>PT911</name></trkpt>
<trkpt lat="53.538490" lon="-1.941478"><ele>416</ele><time>2020-09-24T10:13:54Z</time><name>PT912</name></trkpt>
<trkpt lat="53.538478" lon="-1.941456"><ele>414</ele><time>2020-09-24T10:13:58Z</time><name>PT913</name></trkpt>
<trkpt lat="53.538464" lon="-1.941438"><ele>415</ele><time>2020-09-24T10:14:02Z</time><name>PT914</name></trkpt>
<trkpt lat="53.538453" lon="-1.941408"><ele>415</ele><time>2020-09-24T10:14:06Z</time><name>PT915</name></trkpt>
<trkpt lat="53.538450" lon="-1.941402"><ele>415</ele><time>2020-09-24T10:14:10Z</time><name>PT916</name></trkpt>
<trkpt lat="53.538446" lon="-1.941400"><ele>415</ele><time>2020-09-24T10:14:14Z</time><name>PT917</name></trkpt>
<trkpt lat="53.538447" lon="-1.941377"><ele>414</ele><time>2020-09-24T10:14:18Z</time><name>PT918</name></trkpt>
<trkpt lat="53.538437" lon="-1.941358"><ele>413</ele><time>2020-09-24T10:14:22Z</time><name>PT919</name></trkpt>
<trkpt lat="53.538427" lon="-1.941350"><ele>415</ele><time>2020-09-24T10:14:26Z</time><name>PT920</name></trkpt>
<trkpt lat="53.538417" lon="-1.941328"><ele>413</ele><time>2020-09-24T10:14:30Z</time><name>PT921</name></trkpt>
<trkpt lat="53.538418" lon="-1.941316"><ele>413</ele><time>2020-09-24T10:14:34Z</time><name>PT922</name></trkpt>
<trkpt lat="53.538399" lon="-1.941294"><ele>414</ele><time>2020-09-24T10:14:38Z</time><name>PT923</name></trkpt>
<trkpt lat="53.538393" lon="-1.941286"><ele>414</ele><time>2020-09-24T10:14:42Z</time><name>PT924</name></trkpt>
<trkpt lat="53.538390" lon="-1.941266"><ele>415</ele><time>2020-09-24T10:14:46Z</time><name>PT925</name></trkpt>
<trkpt lat="53.538378" lon="-1.941249"><ele>415</ele><time>2020-09-24T10:14:50Z</time><name>PT926</name></trkpt>
<trkpt lat="53.538374" lon="-1.941220"><ele>414</ele><time>2020-09-24T10:14:54Z</time><name>PT927</name></trkpt>
<trkpt lat="53.538376" lon="-1.941207"><ele>414</ele><time>2020-09-24T10:14:58Z</time><name>PT928</name></trkpt>
<trkpt lat="53.538358" lon="-1.941172"><ele>413</ele><time>2020-09-24T10:15:02Z</time><name>PT929</name></trkpt>
<trkpt lat="53.538342" lon="-1.941138"><ele>413</ele><time>2020-09-24T10:15:06Z</time><name>PT930</name></trkpt>
<trkpt lat="53.538321" lon="-1.941117"><ele>413</ele><time>2020-09-24T10:15:10Z</time><name>PT931</name></trkpt>
<trkpt lat="53.538320" lon="-1.941112"><ele>412</ele><time>2020-09-24T10:15:14Z</time><name>PT932</name></trkpt>
<trkpt lat="53.538297" lon="-1.941123"><ele>414</ele><time>2020-09-24T10:15:18Z</time><name>PT933</name></trkpt>
<trkpt lat="53.538285" lon="-1.941108"><ele>414</ele><time>2020-09-24T10:15:22Z</time><name>PT934</name></trkpt>
<trkpt lat="53.538265" lon="-1.941084"><ele>415</ele><time>2020-09-24T10:15:30Z</time><name>PT935</name></trkpt>
<trkpt lat="53.538224" lon="-1.941031"><ele>416</ele><time>2020-09-24T10:15:34Z</time><name>PT936</name></trkpt>
<trkpt lat="53.538195" lon="-1.940984"><ele>416</ele><time>2020-09-24T10:15:38Z</time><name>PT937</name></trkpt>
<trkpt lat="53.538180" lon="-1.940980"><ele>416</ele><time>2020-09-24T10:15:42Z</time><name>PT938</name></trkpt>
<trkpt lat="53.538168" lon="-1.940947"><ele>417</ele><time>2020-09-24T10:15:46Z</time><name>PT939</name></trkpt>
<trkpt lat="53.538167" lon="-1.940924"><ele>417</ele><time>2020-09-24T10:15:50Z</time><name>PT940</name></trkpt>
<trkpt lat="53.538147" lon="-1.940921"><ele>418</ele><time>2020-09-24T10:16:06Z</time><name>PT941</name></trkpt>
<trkpt lat="53.538139" lon="-1.940922"><ele>418</ele><time>2020-09-24T10:16:10Z</time><name>PT942</name></trkpt>
<trkpt lat="53.538112" lon="-1.940895"><ele>418</ele><time>2020-09-24T10:16:14Z</time><name>PT943</name></trkpt>
<trkpt lat="53.538088" lon="-1.940876"><ele>417</ele><time>2020-09-24T10:16:18Z</time><name>PT944</name></trkpt>
<trkpt lat="53.538083" lon="-1.940854"><ele>418</ele><time>2020-09-24T10:16:22Z</time><name>PT945</name></trkpt>
<trkpt lat="53.538060" lon="-1.940840"><ele>419</ele><time>2020-09-24T10:16:26Z</time><name>PT946</name></trkpt>
<trkpt lat="53.538046" lon="-1.940832"><ele>419</ele><time>2020-09-24T10:16:30Z</time><name>PT947</name></trkpt>
<trkpt lat="53.538040" lon="-1.940831"><ele>418</ele><time>2020-09-24T10:16:34Z</time><name>PT948</name></trkpt>
<trkpt lat="53.538012" lon="-1.940790"><ele>418</ele><time>2020-09-24T10:16:46Z</time><name>PT949</name></trkpt>
<trkpt lat="53.537979" lon="-1.940798"><ele>421</ele><time>2020-09-24T10:16:49Z</time><name>PT950</name></trkpt>
<trkpt lat="53.537948" lon="-1.940777"><ele>420</ele><time>2020-09-24T10:16:53Z</time><name>PT951</name></trkpt>
<trkpt lat="53.537940" lon="-1.940762"><ele>420</ele><time>2020-09-24T10:16:56Z</time><name>PT952</name></trkpt>
<trkpt lat="53.537937" lon="-1.940776"><ele>420</ele><time>2020-09-24T10:17:04Z</time><name>PT953</name></trkpt>
<trkpt lat="53.537930" lon="-1.940753"><ele>419</ele><time>2020-09-24T10:17:08Z</time><name>PT954</name></trkpt>
<trkpt lat="53.537917" lon="-1.940743"><ele>420</ele><time>2020-09-24T10:17:20Z</time><name>PT955</name></trkpt>
<trkpt lat="53.537906" lon="-1.940737"><ele>421</ele><time>2020-09-24T10:17:24Z</time><name>PT956</name></trkpt>
<trkpt lat="53.537892" lon="-1.940725"><ele>421</ele><time>2020-09-24T10:17:28Z</time><name>PT957</name></trkpt>
<trkpt lat="53.537888" lon="-1.940719"><ele>421</ele><time>2020-09-24T10:17:32Z</time><name>PT958</name></trkpt>
<trkpt lat="53.537882" lon="-1.940708"><ele>421</ele><time>2020-09-24T10:17:36Z</time><name>PT959</name></trkpt>
<trkpt lat="53.537848" lon="-1.940660"><ele>420</ele><time>2020-09-24T10:17:40Z</time><name>PT960</name></trkpt>
<trkpt lat="53.537821" lon="-1.940637"><ele>421</ele><time>2020-09-24T10:17:44Z</time><name>PT961</name></trkpt>
<trkpt lat="53.537807" lon="-1.940615"><ele>421</ele><time>2020-09-24T10:17:48Z</time><name>PT962</name></trkpt>
<trkpt lat="53.537798" lon="-1.940584"><ele>421</ele><time>2020-09-24T10:17:52Z</time><name>PT963</name></trkpt>
<trkpt lat="53.537780" lon="-1.940551"><ele>422</ele><time>2020-09-24T10:17:56Z</time><name>PT964</name></trkpt>
<trkpt lat="53.537789" lon="-1.940551"><ele>421</ele><time>2020-09-24T10:18:00Z</time><name>PT965</name></trkpt>
<trkpt lat="53.537776" lon="-1.940533"><ele>419</ele><time>2020-09-24T10:18:04Z</time><name>PT966</name></trkpt>
<trkpt lat="53.537758" lon="-1.940514"><ele>419</ele><time>2020-09-24T10:18:08Z</time><name>PT967</name></trkpt>
<trkpt lat="53.537753" lon="-1.940506"><ele>419</ele><time>2020-09-24T10:18:12Z</time><name>PT968</name></trkpt>
<trkpt lat="53.537764" lon="-1.940534"><ele>419</ele><time>2020-09-24T10:18:20Z</time><name>PT969</name></trkpt>
<trkpt lat="53.537766" lon="-1.940543"><ele>419</ele><time>2020-09-24T10:18:24Z</time><name>PT970</name></trkpt>
<trkpt lat="53.537794" lon="-1.940575"><ele>420</ele><time>2020-09-24T10:18:28Z</time><name>PT971</name></trkpt>
<trkpt lat="53.537804" lon="-1.940598"><ele>421</ele><time>2020-09-24T10:18:32Z</time><name>PT972</name></trkpt>
<trkpt lat="53.537801" lon="-1.940614"><ele>420</ele><time>2020-09-24T10:18:36Z</time><name>PT973</name></trkpt>
<trkpt lat="53.537802" lon="-1.940623"><ele>421</ele><time>2020-09-24T10:18:40Z</time><name>PT974</name></trkpt>
<trkpt lat="53.537795" lon="-1.940626"><ele>420</ele><time>2020-09-24T10:18:44Z</time><name>PT975</name></trkpt>
<trkpt lat="53.537791" lon="-1.940632"><ele>420</ele><time>2020-09-24T10:18:48Z</time><name>PT976</name></trkpt>
<trkpt lat="53.537794" lon="-1.940626"><ele>420</ele><time>2020-09-24T10:18:52Z</time><name>PT977</name></trkpt>
<trkpt lat="53.537794" lon="-1.940628"><ele>420</ele><time>2020-09-24T10:18:56Z</time><name>PT978</name></trkpt>
<trkpt lat="53.537797" lon="-1.940646"><ele>421</ele><time>2020-09-24T10:19:04Z</time><name>PT979</name></trkpt>
<trkpt lat="53.537764" lon="-1.940673"><ele>421</ele><time>2020-09-24T10:19:08Z</time><name>PT980</name></trkpt>
<trkpt lat="53.537751" lon="-1.940689"><ele>422</ele><time>2020-09-24T10:19:12Z</time><name>PT981</name></trkpt>
<trkpt lat="53.537747" lon="-1.940716"><ele>422</ele><time>2020-09-24T10:19:16Z</time><name>PT982</name></trkpt>
<trkpt lat="53.537733" lon="-1.940747"><ele>422</ele><time>2020-09-24T10:19:20Z</time><name>PT983</name></trkpt>
<trkpt lat="53.537732" lon="-1.940793"><ele>424</ele><time>2020-09-24T10:19:24Z</time><name>PT984</name></trkpt>
<trkpt lat="53.537738" lon="-1.940832"><ele>425</ele><time>2020-09-24T10:19:28Z</time><name>PT985</name></trkpt>
<trkpt lat="53.537749" lon="-1.940861"><ele>425</ele><time>2020-09-24T10:19:32Z</time><name>PT986</name></trkpt>
<trkpt lat="53.537746" lon="-1.940867"><ele>424</ele><time>2020-09-24T10:19:36Z</time><name>PT987</name></trkpt>
<trkpt lat="53.537752" lon="-1.940887"><ele>424</ele><time>2020-09-24T10:19:40Z</time><name>PT988</name></trkpt>
<trkpt lat="53.537757" lon="-1.940898"><ele>425</ele><time>2020-09-24T10:19:44Z</time><name>PT989</name></trkpt>
<trkpt lat="53.537765" lon="-1.940905"><ele>425</ele><time>2020-09-24T10:19:48Z</time><name>PT990</name></trkpt>
<trkpt lat="53.537770" lon="-1.940899"><ele>424</ele><time>2020-09-24T10:19:52Z</time><name>PT991</name></trkpt>
<trkpt lat="53.537755" lon="-1.940903"><ele>425</ele><time>2020-09-24T10:20:04Z</time><name>PT992</name></trkpt>
<trkpt lat="53.537738" lon="-1.940922"><ele>426</ele><time>2020-09-24T10:20:08Z</time><name>PT993</name></trkpt>
<trkpt lat="53.537733" lon="-1.940939"><ele>425</ele><time>2020-09-24T10:20:12Z</time><name>PT994</name></trkpt>
<trkpt lat="53.537736" lon="-1.940944"><ele>424</ele><time>2020-09-24T10:20:16Z</time><name>PT995</name></trkpt>
<trkpt lat="53.537725" lon="-1.940963"><ele>425</ele><time>2020-09-24T10:20:20Z</time><name>PT996</name></trkpt>
<trkpt lat="53.537723" lon="-1.940965"><ele>425</ele><time>2020-09-24T10:20:24Z</time><name>PT997</name></trkpt>
<trkpt lat="53.537714" lon="-1.940967"><ele>425</ele><time>2020-09-24T10:20:28Z</time><name>PT998</name></trkpt>
<trkpt lat="53.537716" lon="-1.940978"><ele>426</ele><time>2020-09-24T10:20:32Z</time><name>PT999</name></trkpt>
<trkpt lat="53.537712" lon="-1.941008"><ele>426</ele><time>2020-09-24T10:20:36Z</time><name>PT1000</name></trkpt>
<trkpt lat="53.537702" lon="-1.941032"><ele>426</ele><time>2020-09-24T10:20:40Z</time><name>PT1001</name></trkpt>
<trkpt lat="53.537695" lon="-1.941039"><ele>427</ele><time>2020-09-24T10:20:44Z</time><name>PT1002</name></trkpt>
<trkpt lat="53.537684" lon="-1.941045"><ele>428</ele><time>2020-09-24T10:20:48Z</time><name>PT1003</name></trkpt>
<trkpt lat="53.537681" lon="-1.941048"><ele>428</ele><time>2020-09-24T10:20:52Z</time><name>PT1004</name></trkpt>
<trkpt lat="53.537672" lon="-1.941064"><ele>429</ele><time>2020-09-24T10:20:56Z</time><name>PT1005</name></trkpt>
<trkpt lat="53.537670" lon="-1.941088"><ele>429</ele><time>2020-09-24T10:21:00Z</time><name>PT1006</name></trkpt>
<trkpt lat="53.537660" lon="-1.941104"><ele>430</ele><time>2020-09-24T10:21:04Z</time><name>PT1007</name></trkpt>
<trkpt lat="53.537660" lon="-1.941104"><ele>430</ele><time>2020-09-24T10:21:10Z</time><name>PT1008</name></trkpt>
<trkpt lat="53.537652" lon="-1.941101"><ele>430</ele><time>2020-09-24T10:21:14Z</time><name>PT1009</name></trkpt>
<trkpt lat="53.537635" lon="-1.941106"><ele>431</ele><time>2020-09-24T10:21:18Z</time><name>PT1010</name></trkpt>
<trkpt lat="53.537631" lon="-1.941121"><ele>432</ele><time>2020-09-24T10:21:22Z</time><name>PT1011</name></trkpt>
<trkpt lat="53.537629" lon="-1.941133"><ele>431</ele><time>2020-09-24T10:21:26Z</time><name>PT1012</name></trkpt>
<trkpt lat="53.537621" lon="-1.941135"><ele>431</ele><time>2020-09-24T10:21:30Z</time><name>PT1013</name></trkpt>
<trkpt lat="53.537606" lon="-1.941176"><ele>432</ele><time>2020-09-24T10:21:34Z</time><name>PT1014</name></trkpt>
<trkpt lat="53.537603" lon="-1.941218"><ele>433</ele><time>2020-09-24T10:21:38Z</time><name>PT1015</name></trkpt>
<trkpt lat="53.537603" lon="-1.941243"><ele>434</ele><time>2020-09-24T10:21:42Z</time><name>PT1016</name></trkpt>
<trkpt lat="53.537601" lon="-1.941260"><ele>435</ele><time>2020-09-24T10:21:46Z</time><name>PT1017</name></trkpt>
<trkpt lat="53.537600" lon="-1.941293"><ele>435</ele><time>2020-09-24T10:21:50Z</time><name>PT1018</name></trkpt>
<trkpt lat="53.537617" lon="-1.941337"><ele>436</ele><time>2020-09-24T10:21:54Z</time><name>PT1019</name></trkpt>
<trkpt lat="53.537633" lon="-1.941356"><ele>437</ele><time>2020-09-24T10:21:56Z</time><name>PT1020</name></trkpt>
<trkpt lat="53.537642" lon="-1.941362"><ele>437</ele><time>2020-09-24T10:21:57Z</time><name>PT1021</name></trkpt>
<trkpt lat="53.537648" lon="-1.941381"><ele>438</ele><time>2020-09-24T10:21:58Z</time><name>PT1022</name></trkpt>
<trkpt lat="53.537652" lon="-1.941396"><ele>439</ele><time>2020-09-24T10:21:59Z</time><name>PT1023</name></trkpt>
<trkpt lat="53.537651" lon="-1.941403"><ele>438</ele><time>2020-09-24T10:22:00Z</time><name>PT1024</name></trkpt>
<trkpt lat="53.537651" lon="-1.941411"><ele>438</ele><time>2020-09-24T10:22:01Z</time><name>PT1025</name></trkpt>
<trkpt lat="53.537655" lon="-1.941417"><ele>438</ele><time>2020-09-24T10:22:02Z</time><name>PT1026</name></trkpt>
<trkpt lat="53.537660" lon="-1.941425"><ele>438</ele><time>2020-09-24T10:22:03Z</time><name>PT1027</name></trkpt>
<trkpt lat="53.537664" lon="-1.941435"><ele>438</ele><time>2020-09-24T10:22:04Z</time><name>PT1028</name></trkpt>
<trkpt lat="53.537668" lon="-1.941447"><ele>438</ele><time>2020-09-24T10:22:05Z</time><name>PT1029</name></trkpt>
<trkpt lat="53.537672" lon="-1.941462"><ele>438</ele><time>2020-09-24T10:22:06Z</time><name>PT1030</name></trkpt>
<trkpt lat="53.537685" lon="-1.941475"><ele>438</ele><time>2020-09-24T10:22:07Z</time><name>PT1031</name></trkpt>
<trkpt lat="53.537698" lon="-1.941491"><ele>438</ele><time>2020-09-24T10:22:08Z</time><name>PT1032</name></trkpt>
<trkpt lat="53.537710" lon="-1.941502"><ele>438</ele><time>2020-09-24T10:22:09Z</time><name>PT1033</name></trkpt>
<trkpt lat="53.537722" lon="-1.941508"><ele>438</ele><time>2020-09-24T10:22:10Z</time><name>PT1034</name></trkpt>
<trkpt lat="53.537731" lon="-1.941517"><ele>438</ele><time>2020-09-24T10:22:11Z</time><name>PT1035</name></trkpt>
<trkpt lat="53.537739" lon="-1.941528"><ele>438</ele><time>2020-09-24T10:22:12Z</time><name>PT1036</name></trkpt>
<trkpt lat="53.537743" lon="-1.941539"><ele>437</ele><time>2020-09-24T10:22:13Z</time><name>PT1037</name></trkpt>
<trkpt lat="53.537748" lon="-1.941552"><ele>438</ele><time>2020-09-24T10:22:14Z</time><name>PT1038</name></trkpt>
<trkpt lat="53.537752" lon="-1.941563"><ele>438</ele><time>2020-09-24T10:22:15Z</time><name>PT1039</name></trkpt>
<trkpt lat="53.537758" lon="-1.941569"><ele>438</ele><time>2020-09-24T10:22:16Z</time><name>PT1040</name></trkpt>
<trkpt lat="53.537763" lon="-1.941574"><ele>439</ele><time>2020-09-24T10:22:17Z</time><name>PT1041</name></trkpt>
<trkpt lat="53.537768" lon="-1.941581"><ele>439</ele><time>2020-09-24T10:22:18Z</time><name>PT1042</name></trkpt>
<trkpt lat="53.537778" lon="-1.941586"><ele>438</ele><time>2020-09-24T10:22:19Z</time><name>PT1043</name></trkpt>
<trkpt lat="53.537793" lon="-1.941596"><ele>438</ele><time>2020-09-24T10:22:20Z</time><name>PT1044</name></trkpt>
<trkpt lat="53.537807" lon="-1.941603"><ele>437</ele><time>2020-09-24T10:22:21Z</time><name>PT1045</name></trkpt>
<trkpt lat="53.537815" lon="-1.941615"><ele>437</ele><time>2020-09-24T10:22:22Z</time><name>PT1046</name></trkpt>
<trkpt lat="53.537823" lon="-1.941626"><ele>437</ele><time>2020-09-24T10:22:23Z</time><name>PT1047</name></trkpt>
<trkpt lat="53.537831" lon="-1.941635"><ele>437</ele><time>2020-09-24T10:22:24Z</time><name>PT1048</name></trkpt>
<trkpt lat="53.537840" lon="-1.941647"><ele>437</ele><time>2020-09-24T10:22:25Z</time><name>PT1049</name></trkpt>
<trkpt lat="53.537848" lon="-1.941656"><ele>437</ele><time>2020-09-24T10:22:26Z</time><name>PT1050</name></trkpt>
<trkpt lat="53.537859" lon="-1.941660"><ele>437</ele><time>2020-09-24T10:22:27Z</time><name>PT1051</name></trkpt>
<trkpt lat="53.537867" lon="-1.941667"><ele>437</ele><time>2020-09-24T10:22:28Z</time><name>PT1052</name></trkpt>
<trkpt lat="53.537875" lon="-1.941673"><ele>437</ele><time>2020-09-24T10:22:29Z</time><name>PT1053</name></trkpt>
<trkpt lat="53.537886" lon="-1.941679"><ele>436</ele><time>2020-09-24T10:22:30Z</time><name>PT1054</name></trkpt>
<trkpt lat="53.537895" lon="-1.941687"><ele>436</ele><time>2020-09-24T10:22:31Z</time><name>PT1055</name></trkpt>
<trkpt lat="53.537903" lon="-1.941695"><ele>436</ele><time>2020-09-24T10:22:32Z</time><name>PT1056</name></trkpt>
<trkpt lat="53.537914" lon="-1.941703"><ele>437</ele><time>2020-09-24T10:22:33Z</time><name>PT1057</name></trkpt>
<trkpt lat="53.537923" lon="-1.941708"><ele>437</ele><time>2020-09-24T10:22:34Z</time><name>PT1058</name></trkpt>
<trkpt lat="53.537926" lon="-1.941715"><ele>436</ele><time>2020-09-24T10:22:35Z</time><name>PT1059</name></trkpt>
<trkpt lat="53.537927" lon="-1.941718"><ele>436</ele><time>2020-09-24T10:22:36Z</time><name>PT1060</name></trkpt>
<trkpt lat="53.537928" lon="-1.941725"><ele>436</ele><time>2020-09-24T10:22:37Z</time><name>PT1061</name></trkpt>
<trkpt lat="53.537929" lon="-1.941733"><ele>436</ele><time>2020-09-24T10:22:38Z</time><name>PT1062</name></trkpt>
<trkpt lat="53.537933" lon="-1.941744"><ele>436</ele><time>2020-09-24T10:22:39Z</time><name>PT1063</name></trkpt>
<trkpt lat="53.537934" lon="-1.941756"><ele>436</ele><time>2020-09-24T10:22:40Z</time><name>PT1064</name></trkpt>
<trkpt lat="53.537936" lon="-1.941767"><ele>436</ele><time>2020-09-24T10:22:41Z</time><name>PT1065</name></trkpt>
<trkpt lat="53.537939" lon="-1.941779"><ele>436</ele><time>2020-09-24T10:22:42Z</time><name>PT1066</name></trkpt>
<trkpt lat="53.537948" lon="-1.941791"><ele>436</ele><time>2020-09-24T10:22:43Z</time><name>PT1067</name></trkpt>
<trkpt lat="53.537956" lon="-1.941797"><ele>436</ele><time>2020-09-24T10:22:44Z</time><name>PT1068</name></trkpt>
<trkpt lat="53.537968" lon="-1.941799"><ele>436</ele><time>2020-09-24T10:22:45Z</time><name>PT1069</name></trkpt>
<trkpt lat="53.537982" lon="-1.941803"><ele>436</ele><time>2020-09-24T10:22:46Z</time><name>PT1070</name></trkpt>
<trkpt lat="53.537995" lon="-1.941810"><ele>436</ele><time>2020-09-24T10:22:47Z</time><name>PT1071</name></trkpt>
<trkpt lat="53.538004" lon="-1.941825"><ele>435</ele><time>2020-09-24T10:22:48Z</time><name>PT1072</name></trkpt>
<trkpt lat="53.538011" lon="-1.941840"><ele>435</ele><time>2020-09-24T10:22:49Z</time><name>PT1073</name></trkpt>
<trkpt lat="53.538016" lon="-1.941852"><ele>435</ele><time>2020-09-24T10:22:50Z</time><name>PT1074</name></trkpt>
<trkpt lat="53.538023" lon="-1.941860"><ele>435</ele><time>2020-09-24T10:22:51Z</time><name>PT1075</name></trkpt>
<trkpt lat="53.538033" lon="-1.941868"><ele>435</ele><time>2020-09-24T10:22:52Z</time><name>PT1076</name></trkpt>
<trkpt lat="53.538041" lon="-1.941879"><ele>434</ele><time>2020-09-24T10:22:53Z</time><name>PT1077</name></trkpt>
<trkpt lat="53.538048" lon="-1.941894"><ele>434</ele><time>2020-09-24T10:22:54Z</time><name>PT1078</name></trkpt>
<trkpt lat="53.538053" lon="-1.941908"><ele>434</ele><time>2020-09-24T10:22:55Z</time><name>PT1079</name></trkpt>
<trkpt lat="53.538057" lon="-1.941922"><ele>435</ele><time>2020-09-24T10:22:56Z</time><name>PT1080</name></trkpt>
<trkpt lat="53.538060" lon="-1.941934"><ele>435</ele><time>2020-09-24T10:22:57Z</time><name>PT1081</name></trkpt>
<trkpt lat="53.538064" lon="-1.941943"><ele>435</ele><time>2020-09-24T10:22:58Z</time><name>PT1082</name></trkpt>
<trkpt lat="53.538067" lon="-1.941956"><ele>434</ele><time>2020-09-24T10:22:59Z</time><name>PT1083</name></trkpt>
<trkpt lat="53.538074" lon="-1.941971"><ele>435</ele><time>2020-09-24T10:23:00Z</time><name>PT1084</name></trkpt>
<trkpt lat="53.538078" lon="-1.941980"><ele>435</ele><time>2020-09-24T10:23:01Z</time><name>PT1085</name></trkpt>
<trkpt lat="53.538081" lon="-1.941991"><ele>436</ele><time>2020-09-24T10:23:02Z</time><name>PT1086</name></trkpt>
<trkpt lat="53.538081" lon="-1.942002"><ele>435</ele><time>2020-09-24T10:23:03Z</time><name>PT1087</name></trkpt>
<trkpt lat="53.538086" lon="-1.942015"><ele>436</ele><time>2020-09-24T10:23:04Z</time><name>PT1088</name></trkpt>
<trkpt lat="53.538087" lon="-1.942032"><ele>436</ele><time>2020-09-24T10:23:05Z</time><name>PT1089</name></trkpt>
<trkpt lat="53.538087" lon="-1.942047"><ele>436</ele><time>2020-09-24T10:23:06Z</time><name>PT1090</name></trkpt>
<trkpt lat="53.538089" lon="-1.942064"><ele>437</ele><time>2020-09-24T10:23:07Z</time><name>PT1091</name></trkpt>
<trkpt lat="53.538090" lon="-1.942073"><ele>437</ele><time>2020-09-24T10:23:08Z</time><name>PT1092</name></trkpt>
<trkpt lat="53.538095" lon="-1.942084"><ele>438</ele><time>2020-09-24T10:23:09Z</time><name>PT1093</name></trkpt>
<trkpt lat="53.538098" lon="-1.942098"><ele>438</ele><time>2020-09-24T10:23:10Z</time><name>PT1094</name></trkpt>
<trkpt lat="53.538104" lon="-1.942110"><ele>438</ele><time>2020-09-24T10:23:11Z</time><name>PT1095</name></trkpt>
<trkpt lat="53.538107" lon="-1.942122"><ele>439</ele><time>2020-09-24T10:23:12Z</time><name>PT1096</name></trkpt>
<trkpt lat="53.538111" lon="-1.942132"><ele>439</ele><time>2020-09-24T10:23:13Z</time><name>PT1097</name></trkpt>
<trkpt lat="53.538117" lon="-1.942141"><ele>439</ele><time>2020-09-24T10:23:14Z</time><name>PT1098</name></trkpt>
<trkpt lat="53.538124" lon="-1.942149"><ele>440</ele><time>2020-09-24T10:23:15Z</time><name>PT1099</name></trkpt>
<trkpt lat="53.538133" lon="-1.942161"><ele>440</ele><time>2020-09-24T10:23:16Z</time><name>PT1100</name></trkpt>
<trkpt lat="53.538136" lon="-1.942175"><ele>440</ele><time>2020-09-24T10:23:17Z</time><name>PT1101</name></trkpt>
<trkpt lat="53.538137" lon="-1.942186"><ele>439</ele><time>2020-09-24T10:23:18Z</time><name>PT1102</name></trkpt>
<trkpt lat="53.538136" lon="-1.942201"><ele>439</ele><time>2020-09-24T10:23:19Z</time><name>PT1103</name></trkpt>
<trkpt lat="53.538138" lon="-1.942214"><ele>440</ele><time>2020-09-24T10:23:20Z</time><name>PT1104</name></trkpt>
<trkpt lat="53.538144" lon="-1.942228"><ele>441</ele><time>2020-09-24T10:23:21Z</time><name>PT1105</name></trkpt>
<trkpt lat="53.538146" lon="-1.942243"><ele>440</ele><time>2020-09-24T10:23:22Z</time><name>PT1106</name></trkpt>
<trkpt lat="53.538149" lon="-1.942256"><ele>441</ele><time>2020-09-24T10:23:23Z</time><name>PT1107</name></trkpt>
<trkpt lat="53.538153" lon="-1.942267"><ele>441</ele><time>2020-09-24T10:23:24Z</time><name>PT1108</name></trkpt>
<trkpt lat="53.538156" lon="-1.942280"><ele>441</ele><time>2020-09-24T10:23:25Z</time><name>PT1109</name></trkpt>
<trkpt lat="53.538162" lon="-1.942292"><ele>441</ele><time>2020-09-24T10:23:26Z</time><name>PT1110</name></trkpt>
<trkpt lat="53.538168" lon="-1.942304"><ele>442</ele><time>2020-09-24T10:23:27Z</time><name>PT1111</name></trkpt>
<trkpt lat="53.538172" lon="-1.942317"><ele>442</ele><time>2020-09-24T10:23:28Z</time><name>PT1112</name></trkpt>
<trkpt lat="53.538177" lon="-1.942330"><ele>442</ele><time>2020-09-24T10:23:29Z</time><name>PT1113</name></trkpt>
<trkpt lat="53.538182" lon="-1.942341"><ele>442</ele><time>2020-09-24T10:23:30Z</time><name>PT1114</name></trkpt>
<trkpt lat="53.538184" lon="-1.942353"><ele>442</ele><time>2020-09-24T10:23:31Z</time><name>PT1115</name></trkpt>
<trkpt lat="53.538189" lon="-1.942367"><ele>442</ele><time>2020-09-24T10:23:32Z</time><name>PT1116</name></trkpt>
<trkpt lat="53.538194" lon="-1.942379"><ele>442</ele><time>2020-09-24T10:23:33Z</time><name>PT1117</name></trkpt>
<trkpt lat="53.538197" lon="-1.942393"><ele>442</ele><time>2020-09-24T10:23:34Z</time><name>PT1118</name></trkpt>
<trkpt lat="53.538199" lon="-1.942405"><ele>442</ele><time>2020-09-24T10:23:35Z</time><name>PT1119</name></trkpt>
<trkpt lat="53.538203" lon="-1.942416"><ele>443</ele><time>2020-09-24T10:23:36Z</time><name>PT1120</name></trkpt>
<trkpt lat="53.538208" lon="-1.942426"><ele>443</ele><time>2020-09-24T10:23:37Z</time><name>PT1121</name></trkpt>
<trkpt lat="53.538210" lon="-1.942437"><ele>443</ele><time>2020-09-24T10:23:38Z</time><name>PT1122</name></trkpt>
<trkpt lat="53.538212" lon="-1.942452"><ele>443</ele><time>2020-09-24T10:23:39Z</time><name>PT1123</name></trkpt>
<trkpt lat="53.538211" lon="-1.942465"><ele>443</ele><time>2020-09-24T10:23:40Z</time><name>PT1124</name></trkpt>
<trkpt lat="53.538209" lon="-1.942476"><ele>442</ele><time>2020-09-24T10:23:41Z</time><name>PT1125</name></trkpt>
<trkpt lat="53.538208" lon="-1.942484"><ele>442</ele><time>2020-09-24T10:23:42Z</time><name>PT1126</name></trkpt>
<trkpt lat="53.538211" lon="-1.942492"><ele>442</ele><time>2020-09-24T10:23:43Z</time><name>PT1127</name></trkpt>
<trkpt lat="53.538215" lon="-1.942501"><ele>443</ele><time>2020-09-24T10:23:44Z</time><name>PT1128</name></trkpt>
<trkpt lat="53.538220" lon="-1.942511"><ele>443</ele><time>2020-09-24T10:23:45Z</time><name>PT1129</name></trkpt>
<trkpt lat="53.538227" lon="-1.942521"><ele>444</ele><time>2020-09-24T10:23:46Z</time><name>PT1130</name></trkpt>
<trkpt lat="53.538235" lon="-1.942525"><ele>444</ele><time>2020-09-24T10:23:47Z</time><name>PT1131</name></trkpt>
<trkpt lat="53.538240" lon="-1.942531"><ele>444</ele><time>2020-09-24T10:23:48Z</time><name>PT1132</name></trkpt>
<trkpt lat="53.538245" lon="-1.942537"><ele>444</ele><time>2020-09-24T10:23:49Z</time><name>PT1133</name></trkpt>
<trkpt lat="53.538252" lon="-1.942543"><ele>444</ele><time>2020-09-24T10:23:50Z</time><name>PT1134</name></trkpt>
<trkpt lat="53.538258" lon="-1.942549"><ele>444</ele><time>2020-09-24T10:23:51Z</time><name>PT1135</name></trkpt>
<trkpt lat="53.538264" lon="-1.942557"><ele>444</ele><time>2020-09-24T10:23:52Z</time><name>PT1136</name></trkpt>
<trkpt lat="53.538273" lon="-1.942565"><ele>445</ele><time>2020-09-24T10:23:53Z</time><name>PT1137</name></trkpt>
<trkpt lat="53.538281" lon="-1.942571"><ele>445</ele><time>2020-09-24T10:23:54Z</time><name>PT1138</name></trkpt>
<trkpt lat="53.538291" lon="-1.942582"><ele>445</ele><time>2020-09-24T10:23:55Z</time><name>PT1139</name></trkpt>
<trkpt lat="53.538298" lon="-1.942593"><ele>445</ele><time>2020-09-24T10:23:56Z</time><name>PT1140</name></trkpt>
<trkpt lat="53.538304" lon="-1.942608"><ele>446</ele><time>2020-09-24T10:23:57Z</time><name>PT1141</name></trkpt>
<trkpt lat="53.538306" lon="-1.942625"><ele>446</ele><time>2020-09-24T10:23:58Z</time><name>PT1142</name></trkpt>
<trkpt lat="53.538308" lon="-1.942640"><ele>446</ele><time>2020-09-24T10:23:59Z</time><name>PT1143</name></trkpt>
<trkpt lat="53.538311" lon="-1.942651"><ele>446</ele><time>2020-09-24T10:24:00Z</time><name>PT1144</name></trkpt>
<trkpt lat="53.538311" lon="-1.942657"><ele>446</ele><time>2020-09-24T10:24:01Z</time><name>PT1145</name></trkpt>
<trkpt lat="53.538312" lon="-1.942666"><ele>445</ele><time>2020-09-24T10:24:02Z</time><name>PT1146</name></trkpt>
<trkpt lat="53.538311" lon="-1.942672"><ele>445</ele><time>2020-09-24T10:24:03Z</time><name>PT1147</name></trkpt>
<trkpt lat="53.538313" lon="-1.942678"><ele>446</ele><time>2020-09-24T10:24:04Z</time><name>PT1148</name></trkpt>
<trkpt lat="53.538314" lon="-1.942683"><ele>445</ele><time>2020-09-24T10:24:05Z</time><name>PT1149</name></trkpt>
<trkpt lat="53.538316" lon="-1.942688"><ele>446</ele><time>2020-09-24T10:24:06Z</time><name>PT1150</name></trkpt>
<trkpt lat="53.538318" lon="-1.942694"><ele>446</ele><time>2020-09-24T10:24:07Z</time><name>PT1151</name></trkpt>
<trkpt lat="53.538332" lon="-1.942710"><ele>445</ele><time>2020-09-24T10:24:09Z</time><name>PT1152</name></trkpt>
<trkpt lat="53.538334" lon="-1.942723"><ele>445</ele><time>2020-09-24T10:24:10Z</time><name>PT1153</name></trkpt>
<trkpt lat="53.538337" lon="-1.942729"><ele>446</ele><time>2020-09-24T10:24:11Z</time><name>PT1154</name></trkpt>
<trkpt lat="53.538337" lon="-1.942736"><ele>446</ele><time>2020-09-24T10:24:12Z</time><name>PT1155</name></trkpt>
<trkpt lat="53.538341" lon="-1.942747"><ele>446</ele><time>2020-09-24T10:24:13Z</time><name>PT1156</name></trkpt>
<trkpt lat="53.538344" lon="-1.942762"><ele>446</ele><time>2020-09-24T10:24:14Z</time><name>PT1157</name></trkpt>
<trkpt lat="53.538348" lon="-1.942775"><ele>446</ele><time>2020-09-24T10:24:15Z</time><name>PT1158</name></trkpt>
<trkpt lat="53.538352" lon="-1.942789"><ele>446</ele><time>2020-09-24T10:24:16Z</time><name>PT1159</name></trkpt>
<trkpt lat="53.538358" lon="-1.942802"><ele>446</ele><time>2020-09-24T10:24:17Z</time><name>PT1160</name></trkpt>
<trkpt lat="53.538362" lon="-1.942816"><ele>445</ele><time>2020-09-24T10:24:18Z</time><name>PT1161</name></trkpt>
<trkpt lat="53.538367" lon="-1.942828"><ele>445</ele><time>2020-09-24T10:24:19Z</time><name>PT1162</name></trkpt>
<trkpt lat="53.538374" lon="-1.942836"><ele>445</ele><time>2020-09-24T10:24:20Z</time><name>PT1163</name></trkpt>
<trkpt lat="53.538385" lon="-1.942842"><ele>445</ele><time>2020-09-24T10:24:21Z</time><name>PT1164</name></trkpt>
<trkpt lat="53.538392" lon="-1.942849"><ele>446</ele><time>2020-09-24T10:24:22Z</time><name>PT1165</name></trkpt>
<trkpt lat="53.538398" lon="-1.942856"><ele>446</ele><time>2020-09-24T10:24:23Z</time><name>PT1166</name></trkpt>
<trkpt lat="53.538405" lon="-1.942866"><ele>446</ele><time>2020-09-24T10:24:24Z</time><name>PT1167</name></trkpt>
<trkpt lat="53.538411" lon="-1.942876"><ele>445</ele><time>2020-09-24T10:24:25Z</time><name>PT1168</name></trkpt>
<trkpt lat="53.538418" lon="-1.942888"><ele>446</ele><time>2020-09-24T10:24:26Z</time><name>PT1169</name></trkpt>
<trkpt lat="53.538419" lon="-1.942898"><ele>446</ele><time>2020-09-24T10:24:27Z</time><name>PT1170</name></trkpt>
<trkpt lat="53.538423" lon="-1.942906"><ele>446</ele><time>2020-09-24T10:24:28Z</time><name>PT1171</name></trkpt>
<trkpt lat="53.538431" lon="-1.942915"><ele>446</ele><time>2020-09-24T10:24:29Z</time><name>PT1172</name></trkpt>
<trkpt lat="53.538438" lon="-1.942919"><ele>445</ele><time>2020-09-24T10:24:30Z</time><name>PT1173</name></trkpt>
<trkpt lat="53.538444" lon="-1.942928"><ele>445</ele><time>2020-09-24T10:24:31Z</time><name>PT1174</name></trkpt>
<trkpt lat="53.538451" lon="-1.942939"><ele>445</ele><time>2020-09-24T10:24:32Z</time><name>PT1175</name></trkpt>
<trkpt lat="53.538461" lon="-1.942950"><ele>445</ele><time>2020-09-24T10:24:33Z</time><name>PT1176</name></trkpt>
<trkpt lat="53.538468" lon="-1.942963"><ele>445</ele><time>2020-09-24T10:24:34Z</time><name>PT1177</name></trkpt>
<trkpt lat="53.538473" lon="-1.942977"><ele>445</ele><time>2020-09-24T10:24:35Z</time><name>PT1178</name></trkpt>
<trkpt lat="53.538476" lon="-1.942990"><ele>445</ele><time>2020-09-24T10:24:36Z</time><name>PT1179</name></trkpt>
<trkpt lat="53.538479" lon="-1.942997"><ele>445</ele><time>2020-09-24T10:24:37Z</time><name>PT1180</name></trkpt>
<trkpt lat="53.538484" lon="-1.943006"><ele>446</ele><time>2020-09-24T10:24:38Z</time><name>PT1181</name></trkpt>
<trkpt lat="53.538491" lon="-1.943017"><ele>446</ele><time>2020-09-24T10:24:39Z</time><name>PT1182</name></trkpt>
<trkpt lat="53.538497" lon="-1.943027"><ele>446</ele><time>2020-09-24T10:24:40Z</time><name>PT1183</name></trkpt>
<trkpt lat="53.538499" lon="-1.943039"><ele>446</ele><time>2020-09-24T10:24:41Z</time><name>PT1184</name></trkpt>
<trkpt lat="53.538498" lon="-1.943048"><ele>445</ele><time>2020-09-24T10:24:42Z</time><name>PT1185</name></trkpt>
<trkpt lat="53.538501" lon="-1.943056"><ele>445</ele><time>2020-09-24T10:24:43Z</time><name>PT1186</name></trkpt>
<trkpt lat="53.538504" lon="-1.943067"><ele>445</ele><time>2020-09-24T10:24:44Z</time><name>PT1187</name></trkpt>
<trkpt lat="53.538503" lon="-1.943082"><ele>445</ele><time>2020-09-24T10:24:45Z</time><name>PT1188</name></trkpt>
<trkpt lat="53.538507" lon="-1.943097"><ele>444</ele><time>2020-09-24T10:24:46Z</time><name>PT1189</name></trkpt>
<trkpt lat="53.538513" lon="-1.943110"><ele>444</ele><time>2020-09-24T10:24:47Z</time><name>PT1190</name></trkpt>
<trkpt lat="53.538515" lon="-1.943123"><ele>444</ele><time>2020-09-24T10:24:48Z</time><name>PT1191</name></trkpt>
<trkpt lat="53.538518" lon="-1.943132"><ele>445</ele><time>2020-09-24T10:24:49Z</time><name>PT1192</name></trkpt>
<trkpt lat="53.538524" lon="-1.943140"><ele>445</ele><time>2020-09-24T10:24:50Z</time><name>PT1193</name></trkpt>
<trkpt lat="53.538530" lon="-1.943148"><ele>445</ele><time>2020-09-24T10:24:51Z</time><name>PT1194</name></trkpt>
<trkpt lat="53.538536" lon="-1.943160"><ele>445</ele><time>2020-09-24T10:24:52Z</time><name>PT1195</name></trkpt>
<trkpt lat="53.538545" lon="-1.943169"><ele>445</ele><time>2020-09-24T10:24:53Z</time><name>PT1196</name></trkpt>
<trkpt lat="53.538551" lon="-1.943179"><ele>444</ele><time>2020-09-24T10:24:54Z</time><name>PT1197</name></trkpt>
<trkpt lat="53.538562" lon="-1.943189"><ele>444</ele><time>2020-09-24T10:24:55Z</time><name>PT1198</name></trkpt>
<trkpt lat="53.538577" lon="-1.943225"><ele>444</ele><time>2020-09-24T10:24:58Z</time><name>PT1199</name></trkpt>
<trkpt lat="53.538599" lon="-1.943275"><ele>443</ele><time>2020-09-24T10:25:02Z</time><name>PT1200</name></trkpt>
<trkpt lat="53.538628" lon="-1.943313"><ele>444</ele><time>2020-09-24T10:25:06Z</time><name>PT1201</name></trkpt>
<trkpt lat="53.538645" lon="-1.943342"><ele>444</ele><time>2020-09-24T10:25:09Z</time><name>PT1202</name></trkpt>
<trkpt lat="53.538661" lon="-1.943382"><ele>444</ele><time>2020-09-24T10:25:13Z</time><name>PT1203</name></trkpt>
<trkpt lat="53.538676" lon="-1.943432"><ele>444</ele><time>2020-09-24T10:25:17Z</time><name>PT1204</name></trkpt>
<trkpt lat="53.538707" lon="-1.943480"><ele>445</ele><time>2020-09-24T10:25:21Z</time><name>PT1205</name></trkpt>
<trkpt lat="53.538723" lon="-1.943513"><ele>444</ele><time>2020-09-24T10:25:25Z</time><name>PT1206</name></trkpt>
<trkpt lat="53.538743" lon="-1.943542"><ele>446</ele><time>2020-09-24T10:25:29Z</time><name>PT1207</name></trkpt>
<trkpt lat="53.538759" lon="-1.943576"><ele>446</ele><time>2020-09-24T10:25:33Z</time><name>PT1208</name></trkpt>
<trkpt lat="53.538776" lon="-1.943606"><ele>448</ele><time>2020-09-24T10:25:37Z</time><name>PT1209</name></trkpt>
<trkpt lat="53.538784" lon="-1.943638"><ele>448</ele><time>2020-09-24T10:25:41Z</time><name>PT1210</name></trkpt>
<trkpt lat="53.538806" lon="-1.943672"><ele>448</ele><time>2020-09-24T10:25:45Z</time><name>PT1211</name></trkpt>
<trkpt lat="53.538808" lon="-1.943701"><ele>448</ele><time>2020-09-24T10:25:49Z</time><name>PT1212</name></trkpt>
<trkpt lat="53.538821" lon="-1.943726"><ele>449</ele><time>2020-09-24T10:25:53Z</time><name>PT1213</name></trkpt>
<trkpt lat="53.538822" lon="-1.943763"><ele>448</ele><time>2020-09-24T10:25:57Z</time><name>PT1214</name></trkpt>
<trkpt lat="53.538844" lon="-1.943806"><ele>450</ele><time>2020-09-24T10:26:01Z</time><name>PT1215</name></trkpt>
<trkpt lat="53.538850" lon="-1.943820"><ele>451</ele><time>2020-09-24T10:26:04Z</time><name>PT1216</name></trkpt>
<trkpt lat="53.538865" lon="-1.943855"><ele>451</ele><time>2020-09-24T10:26:08Z</time><name>PT1217</name></trkpt>
<trkpt lat="53.538888" lon="-1.943901"><ele>450</ele><time>2020-09-24T10:26:12Z</time><name>PT1218</name></trkpt>
<trkpt lat="53.538896" lon="-1.943944"><ele>451</ele><time>2020-09-24T10:26:16Z</time><name>PT1219</name></trkpt>
<trkpt lat="53.538929" lon="-1.943976"><ele>452</ele><time>2020-09-24T10:26:20Z</time><name>PT1220</name></trkpt>
<trkpt lat="53.538963" lon="-1.944003"><ele>452</ele><time>2020-09-24T10:26:24Z</time><name>PT1221</name></trkpt>
<trkpt lat="53.538991" lon="-1.944036"><ele>451</ele><time>2020-09-24T10:26:28Z</time><name>PT1222</name></trkpt>
<trkpt lat="53.539030" lon="-1.944067"><ele>451</ele><time>2020-09-24T10:26:32Z</time><name>PT1223</name></trkpt>
<trkpt lat="53.539061" lon="-1.944093"><ele>452</ele><time>2020-09-24T10:26:36Z</time><name>PT1224</name></trkpt>
<trkpt lat="53.539099" lon="-1.944127"><ele>451</ele><time>2020-09-24T10:26:40Z</time><name>PT1225</name></trkpt>
<trkpt lat="53.539136" lon="-1.944167"><ele>452</ele><time>2020-09-24T10:26:44Z</time><name>PT1226</name></trkpt>
<trkpt lat="53.539165" lon="-1.944206"><ele>452</ele><time>2020-09-24T10:26:48Z</time><name>PT1227</name></trkpt>
<trkpt lat="53.539194" lon="-1.944244"><ele>452</ele><time>2020-09-24T10:26:52Z</time><name>PT1228</name></trkpt>
<trkpt lat="53.539230" lon="-1.944281"><ele>452</ele><time>2020-09-24T10:26:56Z</time><name>PT1229</name></trkpt>
<trkpt lat="53.539253" lon="-1.944306"><ele>452</ele><time>2020-09-24T10:27:00Z</time><name>PT1230</name></trkpt>
<trkpt lat="53.539282" lon="-1.944310"><ele>452</ele><time>2020-09-24T10:27:04Z</time><name>PT1231</name></trkpt>
<trkpt lat="53.539301" lon="-1.944342"><ele>451</ele><time>2020-09-24T10:27:08Z</time><name>PT1232</name></trkpt>
<trkpt lat="53.539331" lon="-1.944361"><ele>451</ele><time>2020-09-24T10:27:12Z</time><name>PT1233</name></trkpt>
<trkpt lat="53.539361" lon="-1.944393"><ele>450</ele><time>2020-09-24T10:27:16Z</time><name>PT1234</name></trkpt>
<trkpt lat="53.539404" lon="-1.944425"><ele>451</ele><time>2020-09-24T10:27:20Z</time><name>PT1235</name></trkpt>
<trkpt lat="53.539439" lon="-1.944454"><ele>451</ele><time>2020-09-24T10:27:24Z</time><name>PT1236</name></trkpt>
<trkpt lat="53.539446" lon="-1.944475"><ele>450</ele><time>2020-09-24T10:27:27Z</time><name>PT1237</name></trkpt>
<trkpt lat="53.539443" lon="-1.944475"><ele>450</ele><time>2020-09-24T10:27:31Z</time><name>PT1238</name></trkpt>
<trkpt lat="53.539444" lon="-1.944496"><ele>450</ele><time>2020-09-24T10:27:35Z</time><name>PT1239</name></trkpt>
<trkpt lat="53.539468" lon="-1.944523"><ele>450</ele><time>2020-09-24T10:27:39Z</time><name>PT1240</name></trkpt>
<trkpt lat="53.539511" lon="-1.944556"><ele>450</ele><time>2020-09-24T10:27:43Z</time><name>PT1241</name></trkpt>
<trkpt lat="53.539546" lon="-1.944571"><ele>450</ele><time>2020-09-24T10:27:47Z</time><name>PT1242</name></trkpt>
<trkpt lat="53.539572" lon="-1.944582"><ele>450</ele><time>2020-09-24T10:27:51Z</time><name>PT1243</name></trkpt>
<trkpt lat="53.539608" lon="-1.944610"><ele>451</ele><time>2020-09-24T10:27:55Z</time><name>PT1244</name></trkpt>
<trkpt lat="53.539632" lon="-1.944640"><ele>451</ele><time>2020-09-24T10:27:59Z</time><name>PT1245</name></trkpt>
<trkpt lat="53.539666" lon="-1.944666"><ele>451</ele><time>2020-09-24T10:28:03Z</time><name>PT1246</name></trkpt>
<trkpt lat="53.539702" lon="-1.944687"><ele>452</ele><time>2020-09-24T10:28:07Z</time><name>PT1247</name></trkpt>
<trkpt lat="53.539729" lon="-1.944702"><ele>452</ele><time>2020-09-24T10:28:11Z</time><name>PT1248</name></trkpt>
<trkpt lat="53.539754" lon="-1.944714"><ele>451</ele><time>2020-09-24T10:28:15Z</time><name>PT1249</name></trkpt>
<trkpt lat="53.539788" lon="-1.944721"><ele>451</ele><time>2020-09-24T10:28:19Z</time><name>PT1250</name></trkpt>
<trkpt lat="53.539802" lon="-1.944728"><ele>451</ele><time>2020-09-24T10:28:23Z</time><name>PT1251</name></trkpt>
<trkpt lat="53.539802" lon="-1.944728"><ele>451</ele><time>2020-09-24T10:28:27Z</time><name>PT1252</name></trkpt>
<trkpt lat="53.539804" lon="-1.944735"><ele>451</ele><time>2020-09-24T10:29:42Z</time><name>PT1253</name></trkpt>
<trkpt lat="53.539819" lon="-1.944787"><ele>451</ele><time>2020-09-24T10:29:46Z</time><name>PT1254</name></trkpt>
<trkpt lat="53.539833" lon="-1.944818"><ele>451</ele><time>2020-09-24T10:29:49Z</time><name>PT1255</name></trkpt>
<trkpt lat="53.539857" lon="-1.944837"><ele>450</ele><time>2020-09-24T10:29:53Z</time><name>PT1256</name></trkpt>
<trkpt lat="53.539881" lon="-1.944856"><ele>449</ele><time>2020-09-24T10:29:57Z</time><name>PT1257</name></trkpt>
<trkpt lat="53.539893" lon="-1.944868"><ele>449</ele><time>2020-09-24T10:30:01Z</time><name>PT1258</name></trkpt>
<trkpt lat="53.539917" lon="-1.944904"><ele>450</ele><time>2020-09-24T10:30:17Z</time><name>PT1259</name></trkpt>
<trkpt lat="53.539945" lon="-1.944945"><ele>449</ele><time>2020-09-24T10:30:21Z</time><name>PT1260</name></trkpt>
<trkpt lat="53.539952" lon="-1.944978"><ele>449</ele><time>2020-09-24T10:30:25Z</time><name>PT1261</name></trkpt>
<trkpt lat="53.539949" lon="-1.945008"><ele>449</ele><time>2020-09-24T10:30:29Z</time><name>PT1262</name></trkpt>
<trkpt lat="53.539962" lon="-1.945022"><ele>449</ele><time>2020-09-24T10:30:33Z</time><name>PT1263</name></trkpt>
<trkpt lat="53.539973" lon="-1.945008"><ele>449</ele><time>2020-09-24T10:30:37Z</time><name>PT1264</name></trkpt>
<trkpt lat="53.539993" lon="-1.944996"><ele>450</ele><time>2020-09-24T10:30:41Z</time><name>PT1265</name></trkpt>
<trkpt lat="53.540006" lon="-1.945003"><ele>451</ele><time>2020-09-24T10:30:45Z</time><name>PT1266</name></trkpt>
<trkpt lat="53.540008" lon="-1.944986"><ele>450</ele><time>2020-09-24T10:30:56Z</time><name>PT1267</name></trkpt>
<trkpt lat="53.540015" lon="-1.944974"><ele>449</ele><time>2020-09-24T10:31:00Z</time><name>PT1268</name></trkpt>
<trkpt lat="53.540013" lon="-1.944975"><ele>449</ele><time>2020-09-24T10:31:04Z</time><name>PT1269</name></trkpt>
<trkpt lat="53.540018" lon="-1.944989"><ele>448</ele><time>2020-09-24T10:31:15Z</time><name>PT1270</name></trkpt>
<trkpt lat="53.540012" lon="-1.944995"><ele>448</ele><time>2020-09-24T10:34:14Z</time><name>PT1271</name></trkpt>
<trkpt lat="53.540008" lon="-1.944998"><ele>448</ele><time>2020-09-24T10:34:18Z</time><name>PT1272</name></trkpt>
<trkpt lat="53.540006" lon="-1.945001"><ele>448</ele><time>2020-09-24T10:34:22Z</time><name>PT1273</name></trkpt>
<trkpt lat="53.539999" lon="-1.945003"><ele>448</ele><time>2020-09-24T10:37:45Z</time><name>PT1274</name></trkpt>
<trkpt lat="53.539995" lon="-1.945006"><ele>448</ele><time>2020-09-24T10:37:57Z</time><name>PT1275</name></trkpt>
<trkpt lat="53.539989" lon="-1.945004"><ele>448</ele><time>2020-09-24T10:38:13Z</time><name>PT1276</name></trkpt>
<trkpt lat="53.539978" lon="-1.945023"><ele>448</ele><time>2020-09-24T10:39:09Z</time><name>PT1277</name></trkpt>
<trkpt lat="53.539985" lon="-1.945009"><ele>448</ele><time>2020-09-24T10:39:12Z</time><name>PT1278</name></trkpt>
<trkpt lat="53.539987" lon="-1.945005"><ele>449</ele><time>2020-09-24T10:39:16Z</time><name>PT1279</name></trkpt>
<trkpt lat="53.539994" lon="-1.945001"><ele>449</ele><time>2020-09-24T10:39:44Z</time><name>PT1280</name></trkpt>
<trkpt lat="53.539999" lon="-1.945010"><ele>449</ele><time>2020-09-24T10:39:48Z</time><name>PT1281</name></trkpt>
<trkpt lat="53.540000" lon="-1.944995"><ele>449</ele><time>2020-09-24T10:39:55Z</time><name>PT1282</name></trkpt>
<trkpt lat="53.540003" lon="-1.944991"><ele>449</ele><time>2020-09-24T10:40:15Z</time><name>PT1283</name></trkpt>
<trkpt lat="53.540004" lon="-1.944991"><ele>449</ele><time>2020-09-24T10:40:19Z</time><name>PT1284</name></trkpt>
<trkpt lat="53.539997" lon="-1.945006"><ele>449</ele><time>2020-09-24T10:40:23Z</time><name>PT1285</name></trkpt>
<trkpt lat="53.539972" lon="-1.945027"><ele>450</ele><time>2020-09-24T10:40:27Z</time><name>PT1286</name></trkpt>
<trkpt lat="53.539972" lon="-1.945060"><ele>449</ele><time>2020-09-24T10:40:31Z</time><name>PT1287</name></trkpt>
<trkpt lat="53.539976" lon="-1.945081"><ele>450</ele><time>2020-09-24T10:40:35Z</time><name>PT1288</name></trkpt>
<trkpt lat="53.539997" lon="-1.945095"><ele>451</ele><time>2020-09-24T10:40:39Z</time><name>PT1289</name></trkpt>
<trkpt lat="53.540003" lon="-1.945103"><ele>450</ele><time>2020-09-24T10:40:43Z</time><name>PT1290</name></trkpt>
<trkpt lat="53.540004" lon="-1.945104"><ele>449</ele><time>2020-09-24T10:40:55Z</time><name>PT1291</name></trkpt>
<trkpt lat="53.540003" lon="-1.945104"><ele>449</ele><time>2020-09-24T10:40:58Z</time><name>PT1292</name></trkpt>
<trkpt lat="53.539995" lon="-1.945100"><ele>450</ele><time>2020-09-24T10:41:06Z</time><name>PT1293</name></trkpt>
<trkpt lat="53.539994" lon="-1.945098"><ele>450</ele><time>2020-09-24T10:41:10Z</time><name>PT1294</name></trkpt>
<trkpt lat="53.539998" lon="-1.945119"><ele>450</ele><time>2020-09-24T10:41:17Z</time><name>PT1295</name></trkpt>
<trkpt lat="53.539996" lon="-1.945126"><ele>450</ele><time>2020-09-24T10:41:20Z</time><name>PT1296</name></trkpt>
<trkpt lat="53.539996" lon="-1.945125"><ele>450</ele><time>2020-09-24T10:41:24Z</time><name>PT1297</name></trkpt>
<trkpt lat="53.539994" lon="-1.945121"><ele>450</ele><time>2020-09-24T10:41:35Z</time><name>PT1298</name></trkpt>
<trkpt lat="53.539978" lon="-1.945101"><ele>451</ele><time>2020-09-24T10:41:39Z</time><name>PT1299</name></trkpt>
<trkpt lat="53.539978" lon="-1.945103"><ele>451</ele><time>2020-09-24T10:41:43Z</time><name>PT1300</name></trkpt>
<trkpt lat="53.539976" lon="-1.945104"><ele>451</ele><time>2020-09-24T10:42:02Z</time><name>PT1301</name></trkpt>
<trkpt lat="53.539976" lon="-1.945103"><ele>451</ele><time>2020-09-24T10:42:06Z</time><name>PT1302</name></trkpt>
<trkpt lat="53.539973" lon="-1.945096"><ele>451</ele><time>2020-09-24T10:42:51Z</time><name>PT1303</name></trkpt>
<trkpt lat="53.539972" lon="-1.945094"><ele>452</ele><time>2020-09-24T10:43:06Z</time><name>PT1304</name></trkpt>
<trkpt lat="53.539952" lon="-1.945207"><ele>453</ele><time>2020-09-24T10:43:35Z</time><name>PT1305</name></trkpt>
<trkpt lat="53.539917" lon="-1.945246"><ele>452</ele><time>2020-09-24T10:43:39Z</time><name>PT1306</name></trkpt>
<trkpt lat="53.539900" lon="-1.945260"><ele>452</ele><time>2020-09-24T10:43:43Z</time><name>PT1307</name></trkpt>
<trkpt lat="53.539896" lon="-1.945278"><ele>452</ele><time>2020-09-24T10:43:47Z</time><name>PT1308</name></trkpt>
<trkpt lat="53.539884" lon="-1.945302"><ele>452</ele><time>2020-09-24T10:43:55Z</time><name>PT1309</name></trkpt>
<trkpt lat="53.539879" lon="-1.945318"><ele>452</ele><time>2020-09-24T10:43:58Z</time><name>PT1310</name></trkpt>
<trkpt lat="53.539867" lon="-1.945328"><ele>453</ele><time>2020-09-24T10:44:21Z</time><name>PT1311</name></trkpt>
<trkpt lat="53.539838" lon="-1.945344"><ele>453</ele><time>2020-09-24T10:44:25Z</time><name>PT1312</name></trkpt>
<trkpt lat="53.539816" lon="-1.945370"><ele>453</ele><time>2020-09-24T10:44:29Z</time><name>PT1313</name></trkpt>
<trkpt lat="53.539803" lon="-1.945381"><ele>453</ele><time>2020-09-24T10:44:33Z</time><name>PT1314</name></trkpt>
<trkpt lat="53.539801" lon="-1.945401"><ele>453</ele><time>2020-09-24T10:44:37Z</time><name>PT1315</name></trkpt>
<trkpt lat="53.539804" lon="-1.945431"><ele>453</ele><time>2020-09-24T10:44:41Z</time><name>PT1316</name></trkpt>
<trkpt lat="53.539807" lon="-1.945434"><ele>453</ele><time>2020-09-24T10:44:45Z</time><name>PT1317</name></trkpt>
<trkpt lat="53.539805" lon="-1.945427"><ele>453</ele><time>2020-09-24T10:44:57Z</time><name>PT1318</name></trkpt>
<trkpt lat="53.539805" lon="-1.945426"><ele>453</ele><time>2020-09-24T10:45:01Z</time><name>PT1319</name></trkpt>
<trkpt lat="53.539802" lon="-1.945415"><ele>453</ele><time>2020-09-24T10:45:12Z</time><name>PT1320</name></trkpt>
<trkpt lat="53.539808" lon="-1.945399"><ele>453</ele><time>2020-09-24T10:45:16Z</time><name>PT1321</name></trkpt>
<trkpt lat="53.539804" lon="-1.945389"><ele>453</ele><time>2020-09-24T10:45:20Z</time><name>PT1322</name></trkpt>
<trkpt lat="53.539805" lon="-1.945390"><ele>454</ele><time>2020-09-24T10:45:48Z</time><name>PT1323</name></trkpt>
<trkpt lat="53.539789" lon="-1.945406"><ele>453</ele><time>2020-09-24T10:46:00Z</time><name>PT1324</name></trkpt>
<trkpt lat="53.539783" lon="-1.945430"><ele>453</ele><time>2020-09-24T10:46:04Z</time><name>PT1325</name></trkpt>
<trkpt lat="53.539799" lon="-1.945442"><ele>454</ele><time>2020-09-24T10:46:08Z</time><name>PT1326</name></trkpt>
<trkpt lat="53.539802" lon="-1.945446"><ele>452</ele><time>2020-09-24T10:46:12Z</time><name>PT1327</name></trkpt>
<trkpt lat="53.539800" lon="-1.945449"><ele>452</ele><time>2020-09-24T10:46:52Z</time><name>PT1328</name></trkpt>
<trkpt lat="53.539788" lon="-1.945480"><ele>452</ele><time>2020-09-24T10:46:55Z</time><name>PT1329</name></trkpt>
<trkpt lat="53.539780" lon="-1.945521"><ele>452</ele><time>2020-09-24T10:46:59Z</time><name>PT1330</name></trkpt>
<trkpt lat="53.539777" lon="-1.945545"><ele>452</ele><time>2020-09-24T10:47:03Z</time><name>PT1331</name></trkpt>
<trkpt lat="53.539774" lon="-1.945578"><ele>453</ele><time>2020-09-24T10:47:07Z</time><name>PT1332</name></trkpt>
<trkpt lat="53.539760" lon="-1.945621"><ele>454</ele><time>2020-09-24T10:47:11Z</time><name>PT1333</name></trkpt>
<trkpt lat="53.539751" lon="-1.945664"><ele>453</ele><time>2020-09-24T10:47:15Z</time><name>PT1334</name></trkpt>
<trkpt lat="53.539745" lon="-1.945704"><ele>452</ele><time>2020-09-24T10:47:19Z</time><name>PT1335</name></trkpt>
<trkpt lat="53.539731" lon="-1.945744"><ele>453</ele><time>2020-09-24T10:47:23Z</time><name>PT1336</name></trkpt>
<trkpt lat="53.539727" lon="-1.945789"><ele>453</ele><time>2020-09-24T10:47:27Z</time><name>PT1337</name></trkpt>
<trkpt lat="53.539722" lon="-1.945826"><ele>453</ele><time>2020-09-24T10:47:31Z</time><name>PT1338</name></trkpt>
<trkpt lat="53.539720" lon="-1.945874"><ele>453</ele><time>2020-09-24T10:47:35Z</time><name>PT1339</name></trkpt>
<trkpt lat="53.539717" lon="-1.945917"><ele>453</ele><time>2020-09-24T10:47:39Z</time><name>PT1340</name></trkpt>
<trkpt lat="53.539720" lon="-1.945968"><ele>454</ele><time>2020-09-24T10:47:43Z</time><name>PT1341</name></trkpt>
<trkpt lat="53.539720" lon="-1.946027"><ele>455</ele><time>2020-09-24T10:47:47Z</time><name>PT1342</name></trkpt>
<trkpt lat="53.539707" lon="-1.946073"><ele>454</ele><time>2020-09-24T10:47:51Z</time><name>PT1343</name></trkpt>
<trkpt lat="53.539699" lon="-1.946109"><ele>455</ele><time>2020-09-24T10:47:55Z</time><name>PT1344</name></trkpt>
<trkpt lat="53.539693" lon="-1.946150"><ele>455</ele><time>2020-09-24T10:47:59Z</time><name>PT1345</name></trkpt>
<trkpt lat="53.539680" lon="-1.946197"><ele>455</ele><time>2020-09-24T10:48:03Z</time><name>PT1346</name></trkpt>
<trkpt lat="53.539677" lon="-1.946231"><ele>456</ele><time>2020-09-24T10:48:06Z</time><name>PT1347</name></trkpt>
<trkpt lat="53.539668" lon="-1.946275"><ele>456</ele><time>2020-09-24T10:48:10Z</time><name>PT1348</name></trkpt>
<trkpt lat="53.539661" lon="-1.946321"><ele>458</ele><time>2020-09-24T10:48:13Z</time><name>PT1349</name></trkpt>
<trkpt lat="53.539670" lon="-1.946377"><ele>458</ele><time>2020-09-24T10:48:17Z</time><name>PT1350</name></trkpt>
<trkpt lat="53.539671" lon="-1.946412"><ele>458</ele><time>2020-09-24T10:48:20Z</time><name>PT1351</name></trkpt>
<trkpt lat="53.539677" lon="-1.946460"><ele>457</ele><time>2020-09-24T10:48:24Z</time><name>PT1352</name></trkpt>
<trkpt lat="53.539670" lon="-1.946512"><ele>457</ele><time>2020-09-24T10:48:28Z</time><name>PT1353</name></trkpt>
<trkpt lat="53.539676" lon="-1.946540"><ele>458</ele><time>2020-09-24T10:48:31Z</time><name>PT1354</name></trkpt>
<trkpt lat="53.539675" lon="-1.946582"><ele>457</ele><time>2020-09-24T10:48:35Z</time><name>PT1355</name></trkpt>
<trkpt lat="53.539661" lon="-1.946620"><ele>458</ele><time>2020-09-24T10:48:39Z</time><name>PT1356</name></trkpt>
<trkpt lat="53.539644" lon="-1.946648"><ele>459</ele><time>2020-09-24T10:48:43Z</time><name>PT1357</name></trkpt>
<trkpt lat="53.539649" lon="-1.946703"><ele>459</ele><time>2020-09-24T10:48:47Z</time><name>PT1358</name></trkpt>
<trkpt lat="53.539656" lon="-1.946742"><ele>459</ele><time>2020-09-24T10:48:51Z</time><name>PT1359</name></trkpt>
<trkpt lat="53.539655" lon="-1.946799"><ele>460</ele><time>2020-09-24T10:48:55Z</time><name>PT1360</name></trkpt>
<trkpt lat="53.539649" lon="-1.946858"><ele>459</ele><time>2020-09-24T10:48:59Z</time><name>PT1361</name></trkpt>
<trkpt lat="53.539644" lon="-1.946905"><ele>459</ele><time>2020-09-24T10:49:03Z</time><name>PT1362</name></trkpt>
<trkpt lat="53.539648" lon="-1.946944"><ele>459</ele><time>2020-09-24T10:49:07Z</time><name>PT1363</name></trkpt>
<trkpt lat="53.539651" lon="-1.946983"><ele>459</ele><time>2020-09-24T10:49:11Z</time><name>PT1364</name></trkpt>
<trkpt lat="53.539663" lon="-1.947048"><ele>460</ele><time>2020-09-24T10:49:15Z</time><name>PT1365</name></trkpt>
<trkpt lat="53.539663" lon="-1.947105"><ele>459</ele><time>2020-09-24T10:49:19Z</time><name>PT1366</name></trkpt>
<trkpt lat="53.539654" lon="-1.947166"><ele>459</ele><time>2020-09-24T10:49:23Z</time><name>PT1367</name></trkpt>
<trkpt lat="53.539647" lon="-1.947223"><ele>460</ele><time>2020-09-24T10:49:27Z</time><name>PT1368</name></trkpt>
<trkpt lat="53.539642" lon="-1.947288"><ele>460</ele><time>2020-09-24T10:49:31Z</time><name>PT1369</name></trkpt>
<trkpt lat="53.539640" lon="-1.947343"><ele>461</ele><time>2020-09-24T10:49:35Z</time><name>PT1370</name></trkpt>
<trkpt lat="53.539642" lon="-1.947377"><ele>461</ele><time>2020-09-24T10:49:38Z</time><name>PT1371</name></trkpt>
<trkpt lat="53.539641" lon="-1.947427"><ele>461</ele><time>2020-09-24T10:49:42Z</time><name>PT1372</name></trkpt>
<trkpt lat="53.539637" lon="-1.947473"><ele>461</ele><time>2020-09-24T10:49:46Z</time><name>PT1373</name></trkpt>
<trkpt lat="53.539640" lon="-1.947506"><ele>460</ele><time>2020-09-24T10:49:50Z</time><name>PT1374</name></trkpt>
<trkpt lat="53.539643" lon="-1.947583"><ele>460</ele><time>2020-09-24T10:49:54Z</time><name>PT1375</name></trkpt>
<trkpt lat="53.539641" lon="-1.947640"><ele>460</ele><time>2020-09-24T10:49:58Z</time><name>PT1376</name></trkpt>
<trkpt lat="53.539634" lon="-1.947699"><ele>461</ele><time>2020-09-24T10:50:02Z</time><name>PT1377</name></trkpt>
<trkpt lat="53.539623" lon="-1.947741"><ele>460</ele><time>2020-09-24T10:50:06Z</time><name>PT1378</name></trkpt>
<trkpt lat="53.539605" lon="-1.947788"><ele>461</ele><time>2020-09-24T10:50:10Z</time><name>PT1379</name></trkpt>
<trkpt lat="53.539585" lon="-1.947827"><ele>461</ele><time>2020-09-24T10:50:14Z</time><name>PT1380</name></trkpt>
<trkpt lat="53.539571" lon="-1.947890"><ele>460</ele><time>2020-09-24T10:50:18Z</time><name>PT1381</name></trkpt>
<trkpt lat="53.539561" lon="-1.947943"><ele>460</ele><time>2020-09-24T10:50:22Z</time><name>PT1382</name></trkpt>
<trkpt lat="53.539556" lon="-1.948008"><ele>461</ele><time>2020-09-24T10:50:26Z</time><name>PT1383</name></trkpt>
<trkpt lat="53.539551" lon="-1.948074"><ele>462</ele><time>2020-09-24T10:50:30Z</time><name>PT1384</name></trkpt>
<trkpt lat="53.539563" lon="-1.948145"><ele>463</ele><time>2020-09-24T10:50:34Z</time><name>PT1385</name></trkpt>
<trkpt lat="53.539577" lon="-1.948210"><ele>463</ele><time>2020-09-24T10:50:38Z</time><name>PT1386</name></trkpt>
<trkpt lat="53.539586" lon="-1.948273"><ele>464</ele><time>2020-09-24T10:50:42Z</time><name>PT1387</name></trkpt>
<trkpt lat="53.539580" lon="-1.948335"><ele>464</ele><time>2020-09-24T10:50:46Z</time><name>PT1388</name></trkpt>
<trkpt lat="53.539583" lon="-1.948391"><ele>464</ele><time>2020-09-24T10:50:50Z</time><name>PT1389</name></trkpt>
<trkpt lat="53.539588" lon="-1.948462"><ele>464</ele><time>2020-09-24T10:50:54Z</time><name>PT1390</name></trkpt>
<trkpt lat="53.539607" lon="-1.948527"><ele>462</ele><time>2020-09-24T10:50:58Z</time><name>PT1391</name></trkpt>
<trkpt lat="53.539620" lon="-1.948595"><ele>462</ele><time>2020-09-24T10:51:02Z</time><name>PT1392</name></trkpt>
<trkpt lat="53.539619" lon="-1.948648"><ele>463</ele><time>2020-09-24T10:51:06Z</time><name>PT1393</name></trkpt>
<trkpt lat="53.539622" lon="-1.948692"><ele>463</ele><time>2020-09-24T10:51:10Z</time><name>PT1394</name></trkpt>
<trkpt lat="53.539620" lon="-1.948747"><ele>463</ele><time>2020-09-24T10:51:14Z</time><name>PT1395</name></trkpt>
<trkpt lat="53.539618" lon="-1.948792"><ele>463</ele><time>2020-09-24T10:51:18Z</time><name>PT1396</name></trkpt>
<trkpt lat="53.539619" lon="-1.948851"><ele>462</ele><time>2020-09-24T10:51:22Z</time><name>PT1397</name></trkpt>
<trkpt lat="53.539624" lon="-1.948884"><ele>462</ele><time>2020-09-24T10:51:26Z</time><name>PT1398</name></trkpt>
<trkpt lat="53.539628" lon="-1.948927"><ele>463</ele><time>2020-09-24T10:51:30Z</time><name>PT1399</name></trkpt>
<trkpt lat="53.539638" lon="-1.948964"><ele>462</ele><time>2020-09-24T10:51:34Z</time><name>PT1400</name></trkpt>
<trkpt lat="53.539649" lon="-1.949005"><ele>462</ele><time>2020-09-24T10:51:38Z</time><name>PT1401</name></trkpt>
<trkpt lat="53.539663" lon="-1.949045"><ele>462</ele><time>2020-09-24T10:51:42Z</time><name>PT1402</name></trkpt>
<trkpt lat="53.539673" lon="-1.949096"><ele>462</ele><time>2020-09-24T10:51:46Z</time><name>PT1403</name></trkpt>
<trkpt lat="53.539670" lon="-1.949149"><ele>463</ele><time>2020-09-24T10:51:50Z</time><name>PT1404</name></trkpt>
<trkpt lat="53.539667" lon="-1.949186"><ele>463</ele><time>2020-09-24T10:51:54Z</time><name>PT1405</name></trkpt>
<trkpt lat="53.539659" lon="-1.949229"><ele>464</ele><time>2020-09-24T10:51:58Z</time><name>PT1406</name></trkpt>
<trkpt lat="53.539661" lon="-1.949275"><ele>463</ele><time>2020-09-24T10:52:02Z</time><name>PT1407</name></trkpt>
<trkpt lat="53.539665" lon="-1.949312"><ele>464</ele><time>2020-09-24T10:52:06Z</time><name>PT1408</name></trkpt>
<trkpt lat="53.539650" lon="-1.949351"><ele>464</ele><time>2020-09-24T10:52:10Z</time><name>PT1409</name></trkpt>
<trkpt lat="53.539635" lon="-1.949397"><ele>464</ele><time>2020-09-24T10:52:14Z</time><name>PT1410</name></trkpt>
<trkpt lat="53.539617" lon="-1.949439"><ele>464</ele><time>2020-09-24T10:52:18Z</time><name>PT1411</name></trkpt>
<trkpt lat="53.539606" lon="-1.949480"><ele>465</ele><time>2020-09-24T10:52:22Z</time><name>PT1412</name></trkpt>
<trkpt lat="53.539597" lon="-1.949528"><ele>464</ele><time>2020-09-24T10:52:26Z</time><name>PT1413</name></trkpt>
<trkpt lat="53.539595" lon="-1.949560"><ele>464</ele><time>2020-09-24T10:52:30Z</time><name>PT1414</name></trkpt>
<trkpt lat="53.539590" lon="-1.949596"><ele>465</ele><time>2020-09-24T10:52:34Z</time><name>PT1415</name></trkpt>
<trkpt lat="53.539594" lon="-1.949646"><ele>464</ele><time>2020-09-24T10:52:38Z</time><name>PT1416</name></trkpt>
<trkpt lat="53.539602" lon="-1.949684"><ele>463</ele><time>2020-09-24T10:52:42Z</time><name>PT1417</name></trkpt>
<trkpt lat="53.539595" lon="-1.949717"><ele>462</ele><time>2020-09-24T10:52:46Z</time><name>PT1418</name></trkpt>
<trkpt lat="53.539594" lon="-1.949741"><ele>462</ele><time>2020-09-24T10:52:50Z</time><name>PT1419</name></trkpt>
<trkpt lat="53.539604" lon="-1.949815"><ele>462</ele><time>2020-09-24T10:52:54Z</time><name>PT1420</name></trkpt>
<trkpt lat="53.539613" lon="-1.949881"><ele>462</ele><time>2020-09-24T10:52:58Z</time><name>PT1421</name></trkpt>
<trkpt lat="53.539612" lon="-1.949946"><ele>463</ele><time>2020-09-24T10:53:02Z</time><name>PT1422</name></trkpt>
<trkpt lat="53.539612" lon="-1.950004"><ele>463</ele><time>2020-09-24T10:53:06Z</time><name>PT1423</name></trkpt>
<trkpt lat="53.539631" lon="-1.950060"><ele>463</ele><time>2020-09-24T10:53:10Z</time><name>PT1424</name></trkpt>
<trkpt lat="53.539639" lon="-1.950114"><ele>462</ele><time>2020-09-24T10:53:14Z</time><name>PT1425</name></trkpt>
<trkpt lat="53.539655" lon="-1.950180"><ele>462</ele><time>2020-09-24T10:53:18Z</time><name>PT1426</name></trkpt>
<trkpt lat="53.539652" lon="-1.950241"><ele>462</ele><time>2020-09-24T10:53:22Z</time><name>PT1427</name></trkpt>
<trkpt lat="53.539664" lon="-1.950304"><ele>462</ele><time>2020-09-24T10:53:26Z</time><name>PT1428</name></trkpt>
<trkpt lat="53.539673" lon="-1.950363"><ele>462</ele><time>2020-09-24T10:53:30Z</time><name>PT1429</name></trkpt>
<trkpt lat="53.539677" lon="-1.950414"><ele>462</ele><time>2020-09-24T10:53:34Z</time><name>PT1430</name></trkpt>
<trkpt lat="53.539665" lon="-1.950454"><ele>463</ele><time>2020-09-24T10:53:38Z</time><name>PT1431</name></trkpt>
<trkpt lat="53.539654" lon="-1.950492"><ele>463</ele><time>2020-09-24T10:53:42Z</time><name>PT1432</name></trkpt>
<trkpt lat="53.539645" lon="-1.950521"><ele>464</ele><time>2020-09-24T10:53:45Z</time><name>PT1433</name></trkpt>
<trkpt lat="53.539641" lon="-1.950574"><ele>464</ele><time>2020-09-24T10:53:49Z</time><name>PT1434</name></trkpt>
<trkpt lat="53.539635" lon="-1.950622"><ele>463</ele><time>2020-09-24T10:53:53Z</time><name>PT1435</name></trkpt>
<trkpt lat="53.539634" lon="-1.950654"><ele>464</ele><time>2020-09-24T10:53:57Z</time><name>PT1436</name></trkpt>
<trkpt lat="53.539632" lon="-1.950656"><ele>463</ele><time>2020-09-24T10:54:01Z</time><name>PT1437</name></trkpt>
<trkpt lat="53.539637" lon="-1.950664"><ele>464</ele><time>2020-09-24T10:54:05Z</time><name>PT1438</name></trkpt>
<trkpt lat="53.539651" lon="-1.950714"><ele>465</ele><time>2020-09-24T10:54:09Z</time><name>PT1439</name></trkpt>
<trkpt lat="53.539671" lon="-1.950755"><ele>464</ele><time>2020-09-24T10:54:13Z</time><name>PT1440</name></trkpt>
<trkpt lat="53.539670" lon="-1.950763"><ele>465</ele><time>2020-09-24T10:54:16Z</time><name>PT1441</name></trkpt>
<trkpt lat="53.539671" lon="-1.950821"><ele>466</ele><time>2020-09-24T10:54:20Z</time><name>PT1442</name></trkpt>
<trkpt lat="53.539683" lon="-1.950857"><ele>465</ele><time>2020-09-24T10:54:24Z</time><name>PT1443</name></trkpt>
<trkpt lat="53.539700" lon="-1.950897"><ele>466</ele><time>2020-09-24T10:54:28Z</time><name>PT1444</name></trkpt>
<trkpt lat="53.539727" lon="-1.950935"><ele>465</ele><time>2020-09-24T10:54:32Z</time><name>PT1445</name></trkpt>
<trkpt lat="53.539742" lon="-1.950990"><ele>465</ele><time>2020-09-24T10:54:36Z</time><name>PT1446</name></trkpt>
<trkpt lat="53.539763" lon="-1.951034"><ele>465</ele><time>2020-09-24T10:54:40Z</time><name>PT1447</name></trkpt>
<trkpt lat="53.539784" lon="-1.951071"><ele>464</ele><time>2020-09-24T10:54:44Z</time><name>PT1448</name></trkpt>
<trkpt lat="53.539812" lon="-1.951111"><ele>464</ele><time>2020-09-24T10:54:48Z</time><name>PT1449</name></trkpt>
<trkpt lat="53.539826" lon="-1.951143"><ele>464</ele><time>2020-09-24T10:54:52Z</time><name>PT1450</name></trkpt>
<trkpt lat="53.539830" lon="-1.951182"><ele>464</ele><time>2020-09-24T10:54:56Z</time><name>PT1451</name></trkpt>
<trkpt lat="53.539843" lon="-1.951245"><ele>464</ele><time>2020-09-24T10:55:00Z</time><name>PT1452</name></trkpt>
<trkpt lat="53.539837" lon="-1.951297"><ele>466</ele><time>2020-09-24T10:55:04Z</time><name>PT1453</name></trkpt>
<trkpt lat="53.539828" lon="-1.951358"><ele>466</ele><time>2020-09-24T10:55:08Z</time><name>PT1454</name></trkpt>
<trkpt lat="53.539820" lon="-1.951397"><ele>466</ele><time>2020-09-24T10:55:12Z</time><name>PT1455</name></trkpt>
<trkpt lat="53.539820" lon="-1.951446"><ele>466</ele><time>2020-09-24T10:55:16Z</time><name>PT1456</name></trkpt>
<trkpt lat="53.539826" lon="-1.951470"><ele>466</ele><time>2020-09-24T10:55:20Z</time><name>PT1457</name></trkpt>
<trkpt lat="53.539832" lon="-1.951514"><ele>465</ele><time>2020-09-24T10:55:24Z</time><name>PT1458</name></trkpt>
<trkpt lat="53.539840" lon="-1.951568"><ele>465</ele><time>2020-09-24T10:55:28Z</time><name>PT1459</name></trkpt>
<trkpt lat="53.539846" lon="-1.951602"><ele>466</ele><time>2020-09-24T10:55:32Z</time><name>PT1460</name></trkpt>
<trkpt lat="53.539880" lon="-1.951656"><ele>466</ele><time>2020-09-24T10:55:36Z</time><name>PT1461</name></trkpt>
<trkpt lat="53.539881" lon="-1.951716"><ele>467</ele><time>2020-09-24T10:55:40Z</time><name>PT1462</name></trkpt>
<trkpt lat="53.539868" lon="-1.951770"><ele>466</ele><time>2020-09-24T10:55:44Z</time><name>PT1463</name></trkpt>
<trkpt lat="53.539860" lon="-1.951820"><ele>466</ele><time>2020-09-24T10:55:48Z</time><name>PT1464</name></trkpt>
<trkpt lat="53.539857" lon="-1.951852"><ele>466</ele><time>2020-09-24T10:55:52Z</time><name>PT1465</name></trkpt>
<trkpt lat="53.539848" lon="-1.951876"><ele>465</ele><time>2020-09-24T10:55:56Z</time><name>PT1466</name></trkpt>
<trkpt lat="53.539848" lon="-1.951882"><ele>465</ele><time>2020-09-24T10:56:00Z</time><name>PT1467</name></trkpt>
<trkpt lat="53.539844" lon="-1.951905"><ele>466</ele><time>2020-09-24T10:56:04Z</time><name>PT1468</name></trkpt>
<trkpt lat="53.539845" lon="-1.952000"><ele>466</ele><time>2020-09-24T10:56:08Z</time><name>PT1469</name></trkpt>
<trkpt lat="53.539866" lon="-1.952067"><ele>465</ele><time>2020-09-24T10:56:12Z</time><name>PT1470</name></trkpt>
<trkpt lat="53.539881" lon="-1.952134"><ele>465</ele><time>2020-09-24T10:56:16Z</time><name>PT1471</name></trkpt>
<trkpt lat="53.539886" lon="-1.952184"><ele>465</ele><time>2020-09-24T10:56:20Z</time><name>PT1472</name></trkpt>
<trkpt lat="53.539875" lon="-1.952208"><ele>465</ele><time>2020-09-24T10:56:24Z</time><name>PT1473</name></trkpt>
<trkpt lat="53.539842" lon="-1.952234"><ele>465</ele><time>2020-09-24T10:56:28Z</time><name>PT1474</name></trkpt>
<trkpt lat="53.539812" lon="-1.952249"><ele>466</ele><time>2020-09-24T10:56:32Z</time><name>PT1475</name></trkpt>
<trkpt lat="53.539817" lon="-1.952293"><ele>466</ele><time>2020-09-24T10:56:36Z</time><name>PT1476</name></trkpt>
<trkpt lat="53.539825" lon="-1.952347"><ele>466</ele><time>2020-09-24T10:56:40Z</time><name>PT1477</name></trkpt>
<trkpt lat="53.539846" lon="-1.952407"><ele>466</ele><time>2020-09-24T10:56:44Z</time><name>PT1478</name></trkpt>
<trkpt lat="53.539864" lon="-1.952456"><ele>466</ele><time>2020-09-24T10:56:48Z</time><name>PT1479</name></trkpt>
<trkpt lat="53.539853" lon="-1.952520"><ele>466</ele><time>2020-09-24T10:56:52Z</time><name>PT1480</name></trkpt>
<trkpt lat="53.539846" lon="-1.952587"><ele>466</ele><time>2020-09-24T10:56:56Z</time><name>PT1481</name></trkpt>
<trkpt lat="53.539844" lon="-1.952665"><ele>466</ele><time>2020-09-24T10:57:00Z</time><name>PT1482</name></trkpt>
<trkpt lat="53.539843" lon="-1.952736"><ele>466</ele><time>2020-09-24T10:57:04Z</time><name>PT1483</name></trkpt>
<trkpt lat="53.539845" lon="-1.952810"><ele>466</ele><time>2020-09-24T10:57:08Z</time><name>PT1484</name></trkpt>
<trkpt lat="53.539864" lon="-1.952876"><ele>465</ele><time>2020-09-24T10:57:12Z</time><name>PT1485</name></trkpt>
<trkpt lat="53.539883" lon="-1.952942"><ele>465</ele><time>2020-09-24T10:57:16Z</time><name>PT1486</name></trkpt>
<trkpt lat="53.539872" lon="-1.953018"><ele>465</ele><time>2020-09-24T10:57:20Z</time><name>PT1487</name></trkpt>
<trkpt lat="53.539858" lon="-1.953097"><ele>464</ele><time>2020-09-24T10:57:24Z</time><name>PT1488</name></trkpt>
<trkpt lat="53.539844" lon="-1.953167"><ele>464</ele><time>2020-09-24T10:57:28Z</time><name>PT1489</name></trkpt>
<trkpt lat="53.539828" lon="-1.953235"><ele>465</ele><time>2020-09-24T10:57:32Z</time><name>PT1490</name></trkpt>
<trkpt lat="53.539816" lon="-1.953317"><ele>465</ele><time>2020-09-24T10:57:36Z</time><name>PT1491</name></trkpt>
<trkpt lat="53.539807" lon="-1.953349"><ele>465</ele><time>2020-09-24T10:57:40Z</time><name>PT1492</name></trkpt>
<trkpt lat="53.539794" lon="-1.953401"><ele>466</ele><time>2020-09-24T10:57:48Z</time><name>PT1493</name></trkpt>
<trkpt lat="53.539783" lon="-1.953470"><ele>466</ele><time>2020-09-24T10:57:52Z</time><name>PT1494</name></trkpt>
<trkpt lat="53.539772" lon="-1.953538"><ele>465</ele><time>2020-09-24T10:57:56Z</time><name>PT1495</name></trkpt>
<trkpt lat="53.539755" lon="-1.953610"><ele>466</ele><time>2020-09-24T10:58:00Z</time><name>PT1496</name></trkpt>
<trkpt lat="53.539732" lon="-1.953678"><ele>466</ele><time>2020-09-24T10:58:04Z</time><name>PT1497</name></trkpt>
<trkpt lat="53.539723" lon="-1.953743"><ele>466</ele><time>2020-09-24T10:58:08Z</time><name>PT1498</name></trkpt>
<trkpt lat="53.539702" lon="-1.953808"><ele>466</ele><time>2020-09-24T10:58:12Z</time><name>PT1499</name></trkpt>
<trkpt lat="53.539676" lon="-1.953858"><ele>466</ele><time>2020-09-24T10:58:16Z</time><name>PT1500</name></trkpt>
<trkpt lat="53.539656" lon="-1.953887"><ele>465</ele><time>2020-09-24T10:58:20Z</time><name>PT1501</name></trkpt>
<trkpt lat="53.539631" lon="-1.953944"><ele>466</ele><time>2020-09-24T10:58:24Z</time><name>PT1502</name></trkpt>
<trkpt lat="53.539608" lon="-1.954012"><ele>466</ele><time>2020-09-24T10:58:28Z</time><name>PT1503</name></trkpt>
<trkpt lat="53.539578" lon="-1.954072"><ele>466</ele><time>2020-09-24T10:58:32Z</time><name>PT1504</name></trkpt>
<trkpt lat="53.539550" lon="-1.954123"><ele>465</ele><time>2020-09-24T10:58:36Z</time><name>PT1505</name></trkpt>
<trkpt lat="53.539523" lon="-1.954175"><ele>466</ele><time>2020-09-24T10:58:40Z</time><name>PT1506</name></trkpt>
<trkpt lat="53.539505" lon="-1.954221"><ele>466</ele><time>2020-09-24T10:58:44Z</time><name>PT1507</name></trkpt>
<trkpt lat="53.539493" lon="-1.954292"><ele>465</ele><time>2020-09-24T10:58:48Z</time><name>PT1508</name></trkpt>
<trkpt lat="53.539478" lon="-1.954364"><ele>465</ele><time>2020-09-24T10:58:52Z</time><name>PT1509</name></trkpt>
<trkpt lat="53.539455" lon="-1.954432"><ele>465</ele><time>2020-09-24T10:58:56Z</time><name>PT1510</name></trkpt>
<trkpt lat="53.539423" lon="-1.954484"><ele>465</ele><time>2020-09-24T10:59:00Z</time><name>PT1511</name></trkpt>
<trkpt lat="53.539398" lon="-1.954535"><ele>466</ele><time>2020-09-24T10:59:04Z</time><name>PT1512</name></trkpt>
<trkpt lat="53.539384" lon="-1.954589"><ele>465</ele><time>2020-09-24T10:59:08Z</time><name>PT1513</name></trkpt>
<trkpt lat="53.539375" lon="-1.954650"><ele>465</ele><time>2020-09-24T10:59:12Z</time><name>PT1514</name></trkpt>
<trkpt lat="53.539356" lon="-1.954709"><ele>464</ele><time>2020-09-24T10:59:16Z</time><name>PT1515</name></trkpt>
<trkpt lat="53.539345" lon="-1.954777"><ele>466</ele><time>2020-09-24T10:59:20Z</time><name>PT1516</name></trkpt>
<trkpt lat="53.539323" lon="-1.954842"><ele>465</ele><time>2020-09-24T10:59:24Z</time><name>PT1517</name></trkpt>
<trkpt lat="53.539299" lon="-1.954889"><ele>465</ele><time>2020-09-24T10:59:28Z</time><name>PT1518</name></trkpt>
<trkpt lat="53.539283" lon="-1.954963"><ele>464</ele><time>2020-09-24T10:59:32Z</time><name>PT1519</name></trkpt>
<trkpt lat="53.539280" lon="-1.954994"><ele>463</ele><time>2020-09-24T10:59:36Z</time><name>PT1520</name></trkpt>
<trkpt lat="53.539272" lon="-1.955065"><ele>464</ele><time>2020-09-24T10:59:40Z</time><name>PT1521</name></trkpt>
<trkpt lat="53.539255" lon="-1.955142"><ele>464</ele><time>2020-09-24T10:59:44Z</time><name>PT1522</name></trkpt>
<trkpt lat="53.539223" lon="-1.955192"><ele>464</ele><time>2020-09-24T10:59:48Z</time><name>PT1523</name></trkpt>
<trkpt lat="53.539192" lon="-1.955226"><ele>464</ele><time>2020-09-24T10:59:52Z</time><name>PT1524</name></trkpt>
<trkpt lat="53.539162" lon="-1.955269"><ele>464</ele><time>2020-09-24T10:59:56Z</time><name>PT1525</name></trkpt>
<trkpt lat="53.539125" lon="-1.955311"><ele>464</ele><time>2020-09-24T11:00:00Z</time><name>PT1526</name></trkpt>
<trkpt lat="53.539099" lon="-1.955365"><ele>464</ele><time>2020-09-24T11:00:04Z</time><name>PT1527</name></trkpt>
<trkpt lat="53.539081" lon="-1.955436"><ele>464</ele><time>2020-09-24T11:00:08Z</time><name>PT1528</name></trkpt>
<trkpt lat="53.539064" lon="-1.955514"><ele>464</ele><time>2020-09-24T11:00:12Z</time><name>PT1529</name></trkpt>
<trkpt lat="53.539035" lon="-1.955566"><ele>463</ele><time>2020-09-24T11:00:16Z</time><name>PT1530</name></trkpt>
<trkpt lat="53.539001" lon="-1.955622"><ele>462</ele><time>2020-09-24T11:00:20Z</time><name>PT1531</name></trkpt>
<trkpt lat="53.538975" lon="-1.955669"><ele>462</ele><time>2020-09-24T11:00:24Z</time><name>PT1532</name></trkpt>
<trkpt lat="53.538959" lon="-1.955731"><ele>462</ele><time>2020-09-24T11:00:28Z</time><name>PT1533</name></trkpt>
<trkpt lat="53.538942" lon="-1.955802"><ele>461</ele><time>2020-09-24T11:00:32Z</time><name>PT1534</name></trkpt>
<trkpt lat="53.538930" lon="-1.955878"><ele>460</ele><time>2020-09-24T11:00:36Z</time><name>PT1535</name></trkpt>
<trkpt lat="53.538912" lon="-1.955961"><ele>460</ele><time>2020-09-24T11:00:40Z</time><name>PT1536</name></trkpt>
<trkpt lat="53.538897" lon="-1.956026"><ele>461</ele><time>2020-09-24T11:00:44Z</time><name>PT1537</name></trkpt>
<trkpt lat="53.538887" lon="-1.956089"><ele>461</ele><time>2020-09-24T11:00:48Z</time><name>PT1538</name></trkpt>
<trkpt lat="53.538866" lon="-1.956158"><ele>461</ele><time>2020-09-24T11:00:52Z</time><name>PT1539</name></trkpt>
<trkpt lat="53.538843" lon="-1.956218"><ele>461</ele><time>2020-09-24T11:00:56Z</time><name>PT1540</name></trkpt>
<trkpt lat="53.538815" lon="-1.956273"><ele>460</ele><time>2020-09-24T11:01:00Z</time><name>PT1541</name></trkpt>
<trkpt lat="53.538793" lon="-1.956322"><ele>460</ele><time>2020-09-24T11:01:04Z</time><name>PT1542</name></trkpt>
<trkpt lat="53.538788" lon="-1.956345"><ele>460</ele><time>2020-09-24T11:01:08Z</time><name>PT1543</name></trkpt>
<trkpt lat="53.538789" lon="-1.956344"><ele>459</ele><time>2020-09-24T11:01:12Z</time><name>PT1544</name></trkpt>
<trkpt lat="53.538782" lon="-1.956350"><ele>460</ele><time>2020-09-24T11:01:16Z</time><name>PT1545</name></trkpt>
<trkpt lat="53.538778" lon="-1.956358"><ele>460</ele><time>2020-09-24T11:01:17Z</time><name>PT1546</name></trkpt>
<trkpt lat="53.538775" lon="-1.956367"><ele>460</ele><time>2020-09-24T11:01:31Z</time><name>PT1547</name></trkpt>
<trkpt lat="53.538775" lon="-1.956370"><ele>460</ele><time>2020-09-24T11:01:32Z</time><name>PT1548</name></trkpt>
<trkpt lat="53.538776" lon="-1.956372"><ele>460</ele><time>2020-09-24T11:01:33Z</time><name>PT1549</name></trkpt>
<trkpt lat="53.538775" lon="-1.956377"><ele>460</ele><time>2020-09-24T11:01:34Z</time><name>PT1550</name></trkpt>
<trkpt lat="53.538776" lon="-1.956372"><ele>460</ele><time>2020-09-24T11:01:35Z</time><name>PT1551</name></trkpt>
<trkpt lat="53.538775" lon="-1.956372"><ele>460</ele><time>2020-09-24T11:01:36Z</time><name>PT1552</name></trkpt>
<trkpt lat="53.538776" lon="-1.956372"><ele>460</ele><time>2020-09-24T11:01:37Z</time><name>PT1553</name></trkpt>
<trkpt lat="53.538776" lon="-1.956371"><ele>460</ele><time>2020-09-24T11:01:38Z</time><name>PT1554</name></trkpt>
<trkpt lat="53.538776" lon="-1.956373"><ele>460</ele><time>2020-09-24T11:01:39Z</time><name>PT1555</name></trkpt>
<trkpt lat="53.538774" lon="-1.956378"><ele>460</ele><time>2020-09-24T11:01:40Z</time><name>PT1556</name></trkpt>
<trkpt lat="53.538772" lon="-1.956385"><ele>460</ele><time>2020-09-24T11:01:41Z</time><name>PT1557</name></trkpt>
<trkpt lat="53.538771" lon="-1.956392"><ele>460</ele><time>2020-09-24T11:01:42Z</time><name>PT1558</name></trkpt>
<trkpt lat="53.538766" lon="-1.956400"><ele>460</ele><time>2020-09-24T11:01:43Z</time><name>PT1559</name></trkpt>
<trkpt lat="53.538766" lon="-1.956405"><ele>460</ele><time>2020-09-24T11:01:44Z</time><name>PT1560</name></trkpt>
<trkpt lat="53.538766" lon="-1.956404"><ele>459</ele><time>2020-09-24T11:01:45Z</time><name>PT1561</name></trkpt>
<trkpt lat="53.538765" lon="-1.956406"><ele>459</ele><time>2020-09-24T11:01:46Z</time><name>PT1562</name></trkpt>
<trkpt lat="53.538764" lon="-1.956406"><ele>459</ele><time>2020-09-24T11:01:47Z</time><name>PT1563</name></trkpt>
<trkpt lat="53.538766" lon="-1.956404"><ele>459</ele><time>2020-09-24T11:01:51Z</time><name>PT1564</name></trkpt>
<trkpt lat="53.538764" lon="-1.956403"><ele>459</ele><time>2020-09-24T11:01:52Z</time><name>PT1565</name></trkpt>
<trkpt lat="53.538765" lon="-1.956403"><ele>459</ele><time>2020-09-24T11:01:53Z</time><name>PT1566</name></trkpt>
<trkpt lat="53.538765" lon="-1.956404"><ele>459</ele><time>2020-09-24T11:01:54Z</time><name>PT1567</name></trkpt>
<trkpt lat="53.538764" lon="-1.956407"><ele>459</ele><time>2020-09-24T11:02:14Z</time><name>PT1568</name></trkpt>
<trkpt lat="53.538761" lon="-1.956405"><ele>459</ele><time>2020-09-24T11:02:15Z</time><name>PT1569</name></trkpt>
<trkpt lat="53.538760" lon="-1.956401"><ele>459</ele><time>2020-09-24T11:02:16Z</time><name>PT1570</name></trkpt>
<trkpt lat="53.538757" lon="-1.956407"><ele>459</ele><time>2020-09-24T11:02:17Z</time><name>PT1571</name></trkpt>
<trkpt lat="53.538751" lon="-1.956421"><ele>459</ele><time>2020-09-24T11:02:18Z</time><name>PT1572</name></trkpt>
<trkpt lat="53.538746" lon="-1.956439"><ele>458</ele><time>2020-09-24T11:02:19Z</time><name>PT1573</name></trkpt>
<trkpt lat="53.538743" lon="-1.956451"><ele>458</ele><time>2020-09-24T11:02:20Z</time><name>PT1574</name></trkpt>
<trkpt lat="53.538736" lon="-1.956465"><ele>458</ele><time>2020-09-24T11:02:21Z</time><name>PT1575</name></trkpt>
<trkpt lat="53.538730" lon="-1.956478"><ele>458</ele><time>2020-09-24T11:02:22Z</time><name>PT1576</name></trkpt>
<trkpt lat="53.538722" lon="-1.956491"><ele>458</ele><time>2020-09-24T11:02:23Z</time><name>PT1577</name></trkpt>
<trkpt lat="53.538716" lon="-1.956505"><ele>458</ele><time>2020-09-24T11:02:24Z</time><name>PT1578</name></trkpt>
<trkpt lat="53.538716" lon="-1.956501"><ele>455</ele><time>2020-09-24T11:02:25Z</time><name>PT1579</name></trkpt>
<trkpt lat="53.538711" lon="-1.956504"><ele>454</ele><time>2020-09-24T11:02:26Z</time><name>PT1580</name></trkpt>
<trkpt lat="53.538702" lon="-1.956512"><ele>454</ele><time>2020-09-24T11:02:27Z</time><name>PT1581</name></trkpt>
<trkpt lat="53.538693" lon="-1.956521"><ele>454</ele><time>2020-09-24T11:02:28Z</time><name>PT1582</name></trkpt>
<trkpt lat="53.538686" lon="-1.956532"><ele>454</ele><time>2020-09-24T11:02:29Z</time><name>PT1583</name></trkpt>
<trkpt lat="53.538683" lon="-1.956538"><ele>454</ele><time>2020-09-24T11:02:30Z</time><name>PT1584</name></trkpt>
<trkpt lat="53.538677" lon="-1.956539"><ele>454</ele><time>2020-09-24T11:02:31Z</time><name>PT1585</name></trkpt>
<trkpt lat="53.538671" lon="-1.956541"><ele>454</ele><time>2020-09-24T11:02:32Z</time><name>PT1586</name></trkpt>
<trkpt lat="53.538667" lon="-1.956546"><ele>454</ele><time>2020-09-24T11:02:33Z</time><name>PT1587</name></trkpt>
<trkpt lat="53.538666" lon="-1.956547"><ele>454</ele><time>2020-09-24T11:02:34Z</time><name>PT1588</name></trkpt>
<trkpt lat="53.538665" lon="-1.956548"><ele>455</ele><time>2020-09-24T11:02:35Z</time><name>PT1589</name></trkpt>
<trkpt lat="53.538666" lon="-1.956547"><ele>455</ele><time>2020-09-24T11:02:36Z</time><name>PT1590</name></trkpt>
<trkpt lat="53.538664" lon="-1.956548"><ele>455</ele><time>2020-09-24T11:02:48Z</time><name>PT1591</name></trkpt>
<trkpt lat="53.538665" lon="-1.956546"><ele>455</ele><time>2020-09-24T11:02:49Z</time><name>PT1592</name></trkpt>
<trkpt lat="53.538665" lon="-1.956546"><ele>455</ele><time>2020-09-24T11:02:50Z</time><name>PT1593</name></trkpt>
<trkpt lat="53.538665" lon="-1.956546"><ele>455</ele><time>2020-09-24T11:02:51Z</time><name>PT1594</name></trkpt>
<trkpt lat="53.538664" lon="-1.956547"><ele>455</ele><time>2020-09-24T11:02:52Z</time><name>PT1595</name></trkpt>
<trkpt lat="53.538663" lon="-1.956553"><ele>455</ele><time>2020-09-24T11:02:53Z</time><name>PT1596</name></trkpt>
<trkpt lat="53.538664" lon="-1.956551"><ele>455</ele><time>2020-09-24T11:02:54Z</time><name>PT1597</name></trkpt>
<trkpt lat="53.538657" lon="-1.956550"><ele>456</ele><time>2020-09-24T11:03:02Z</time><name>PT1598</name></trkpt>
<trkpt lat="53.538646" lon="-1.956536"><ele>456</ele><time>2020-09-24T11:03:03Z</time><name>PT1599</name></trkpt>
<trkpt lat="53.538634" lon="-1.956522"><ele>456</ele><time>2020-09-24T11:03:04Z</time><name>PT1600</name></trkpt>
<trkpt lat="53.538627" lon="-1.956510"><ele>456</ele><time>2020-09-24T11:03:05Z</time><name>PT1601</name></trkpt>
<trkpt lat="53.538620" lon="-1.956495"><ele>456</ele><time>2020-09-24T11:03:06Z</time><name>PT1602</name></trkpt>
<trkpt lat="53.538612" lon="-1.956485"><ele>456</ele><time>2020-09-24T11:03:07Z</time><name>PT1603</name></trkpt>
<trkpt lat="53.538606" lon="-1.956472"><ele>456</ele><time>2020-09-24T11:03:08Z</time><name>PT1604</name></trkpt>
<trkpt lat="53.538597" lon="-1.956462"><ele>456</ele><time>2020-09-24T11:03:09Z</time><name>PT1605</name></trkpt>
<trkpt lat="53.538592" lon="-1.956458"><ele>456</ele><time>2020-09-24T11:03:10Z</time><name>PT1606</name></trkpt>
<trkpt lat="53.538587" lon="-1.956462"><ele>457</ele><time>2020-09-24T11:03:11Z</time><name>PT1607</name></trkpt>
<trkpt lat="53.538587" lon="-1.956457"><ele>457</ele><time>2020-09-24T11:03:12Z</time><name>PT1608</name></trkpt>
<trkpt lat="53.538586" lon="-1.956451"><ele>457</ele><time>2020-09-24T11:03:13Z</time><name>PT1609</name></trkpt>
<trkpt lat="53.538584" lon="-1.956445"><ele>457</ele><time>2020-09-24T11:03:14Z</time><name>PT1610</name></trkpt>
<trkpt lat="53.538580" lon="-1.956438"><ele>457</ele><time>2020-09-24T11:03:15Z</time><name>PT1611</name></trkpt>
<trkpt lat="53.538575" lon="-1.956430"><ele>457</ele><time>2020-09-24T11:03:16Z</time><name>PT1612</name></trkpt>
<trkpt lat="53.538568" lon="-1.956419"><ele>457</ele><time>2020-09-24T11:03:17Z</time><name>PT1613</name></trkpt>
<trkpt lat="53.538562" lon="-1.956409"><ele>457</ele><time>2020-09-24T11:03:18Z</time><name>PT1614</name></trkpt>
<trkpt lat="53.538557" lon="-1.956393"><ele>457</ele><time>2020-09-24T11:03:19Z</time><name>PT1615</name></trkpt>
<trkpt lat="53.538555" lon="-1.956380"><ele>458</ele><time>2020-09-24T11:03:20Z</time><name>PT1616</name></trkpt>
<trkpt lat="53.538553" lon="-1.956366"><ele>458</ele><time>2020-09-24T11:03:21Z</time><name>PT1617</name></trkpt>
<trkpt lat="53.538549" lon="-1.956352"><ele>459</ele><time>2020-09-24T11:03:22Z</time><name>PT1618</name></trkpt>
<trkpt lat="53.538547" lon="-1.956343"><ele>459</ele><time>2020-09-24T11:03:23Z</time><name>PT1619</name></trkpt>
<trkpt lat="53.538545" lon="-1.956330"><ele>459</ele><time>2020-09-24T11:03:24Z</time><name>PT1620</name></trkpt>
<trkpt lat="53.538543" lon="-1.956315"><ele>459</ele><time>2020-09-24T11:03:25Z</time><name>PT1621</name></trkpt>
<trkpt lat="53.538539" lon="-1.956303"><ele>459</ele><time>2020-09-24T11:03:26Z</time><name>PT1622</name></trkpt>
<trkpt lat="53.538534" lon="-1.956290"><ele>459</ele><time>2020-09-24T11:03:27Z</time><name>PT1623</name></trkpt>
<trkpt lat="53.538529" lon="-1.956280"><ele>459</ele><time>2020-09-24T11:03:28Z</time><name>PT1624</name></trkpt>
<trkpt lat="53.538524" lon="-1.956269"><ele>460</ele><time>2020-09-24T11:03:29Z</time><name>PT1625</name></trkpt>
<trkpt lat="53.538521" lon="-1.956258"><ele>460</ele><time>2020-09-24T11:03:30Z</time><name>PT1626</name></trkpt>
<trkpt lat="53.538517" lon="-1.956232"><ele>460</ele><time>2020-09-24T11:03:31Z</time><name>PT1627</name></trkpt>
<trkpt lat="53.538512" lon="-1.956211"><ele>461</ele><time>2020-09-24T11:03:32Z</time><name>PT1628</name></trkpt>
<trkpt lat="53.538509" lon="-1.956198"><ele>461</ele><time>2020-09-24T11:03:33Z</time><name>PT1629</name></trkpt>
<trkpt lat="53.538507" lon="-1.956185"><ele>461</ele><time>2020-09-24T11:03:34Z</time><name>PT1630</name></trkpt>
<trkpt lat="53.538505" lon="-1.956173"><ele>461</ele><time>2020-09-24T11:03:35Z</time><name>PT1631</name></trkpt>
<trkpt lat="53.538502" lon="-1.956163"><ele>461</ele><time>2020-09-24T11:03:36Z</time><name>PT1632</name></trkpt>
<trkpt lat="53.538497" lon="-1.956152"><ele>462</ele><time>2020-09-24T11:03:37Z</time><name>PT1633</name></trkpt>
<trkpt lat="53.538496" lon="-1.956141"><ele>462</ele><time>2020-09-24T11:03:38Z</time><name>PT1634</name></trkpt>
<trkpt lat="53.538492" lon="-1.956131"><ele>462</ele><time>2020-09-24T11:03:39Z</time><name>PT1635</name></trkpt>
<trkpt lat="53.538487" lon="-1.956120"><ele>462</ele><time>2020-09-24T11:03:40Z</time><name>PT1636</name></trkpt>
<trkpt lat="53.538482" lon="-1.956107"><ele>463</ele><time>2020-09-24T11:03:41Z</time><name>PT1637</name></trkpt>
<trkpt lat="53.538478" lon="-1.956100"><ele>463</ele><time>2020-09-24T11:03:42Z</time><name>PT1638</name></trkpt>
<trkpt lat="53.538475" lon="-1.956086"><ele>463</ele><time>2020-09-24T11:03:43Z</time><name>PT1639</name></trkpt>
<trkpt lat="53.538474" lon="-1.956078"><ele>463</ele><time>2020-09-24T11:03:44Z</time><name>PT1640</name></trkpt>
<trkpt lat="53.538472" lon="-1.956072"><ele>463</ele><time>2020-09-24T11:03:45Z</time><name>PT1641</name></trkpt>
<trkpt lat="53.538469" lon="-1.956064"><ele>464</ele><time>2020-09-24T11:03:46Z</time><name>PT1642</name></trkpt>
<trkpt lat="53.538466" lon="-1.956057"><ele>463</ele><time>2020-09-24T11:03:47Z</time><name>PT1643</name></trkpt>
<trkpt lat="53.538464" lon="-1.956048"><ele>463</ele><time>2020-09-24T11:03:48Z</time><name>PT1644</name></trkpt>
<trkpt lat="53.538461" lon="-1.956040"><ele>464</ele><time>2020-09-24T11:03:49Z</time><name>PT1645</name></trkpt>
<trkpt lat="53.538460" lon="-1.956030"><ele>464</ele><time>2020-09-24T11:03:50Z</time><name>PT1646</name></trkpt>
<trkpt lat="53.538459" lon="-1.956016"><ele>465</ele><time>2020-09-24T11:03:51Z</time><name>PT1647</name></trkpt>
<trkpt lat="53.538457" lon="-1.956009"><ele>465</ele><time>2020-09-24T11:03:52Z</time><name>PT1648</name></trkpt>
<trkpt lat="53.538454" lon="-1.956001"><ele>466</ele><time>2020-09-24T11:03:53Z</time><name>PT1649</name></trkpt>
<trkpt lat="53.538451" lon="-1.955990"><ele>466</ele><time>2020-09-24T11:03:54Z</time><name>PT1650</name></trkpt>
<trkpt lat="53.538448" lon="-1.955978"><ele>466</ele><time>2020-09-24T11:03:55Z</time><name>PT1651</name></trkpt>
<trkpt lat="53.538446" lon="-1.955966"><ele>466</ele><time>2020-09-24T11:03:56Z</time><name>PT1652</name></trkpt>
<trkpt lat="53.538441" lon="-1.955957"><ele>467</ele><time>2020-09-24T11:03:57Z</time><name>PT1653</name></trkpt>
<trkpt lat="53.538440" lon="-1.955953"><ele>466</ele><time>2020-09-24T11:03:58Z</time><name>PT1654</name></trkpt>
<trkpt lat="53.538437" lon="-1.955944"><ele>466</ele><time>2020-09-24T11:03:59Z</time><name>PT1655</name></trkpt>
<trkpt lat="53.538434" lon="-1.955936"><ele>467</ele><time>2020-09-24T11:04:00Z</time><name>PT1656</name></trkpt>
<trkpt lat="53.538431" lon="-1.955929"><ele>468</ele><time>2020-09-24T11:04:01Z</time><name>PT1657</name></trkpt>
<trkpt lat="53.538428" lon="-1.955918"><ele>468</ele><time>2020-09-24T11:04:02Z</time><name>PT1658</name></trkpt>
<trkpt lat="53.538428" lon="-1.955908"><ele>468</ele><time>2020-09-24T11:04:03Z</time><name>PT1659</name></trkpt>
<trkpt lat="53.538425" lon="-1.955898"><ele>469</ele><time>2020-09-24T11:04:04Z</time><name>PT1660</name></trkpt>
<trkpt lat="53.538421" lon="-1.955890"><ele>469</ele><time>2020-09-24T11:04:05Z</time><name>PT1661</name></trkpt>
<trkpt lat="53.538419" lon="-1.955883"><ele>469</ele><time>2020-09-24T11:04:06Z</time><name>PT1662</name></trkpt>
<trkpt lat="53.538417" lon="-1.955875"><ele>469</ele><time>2020-09-24T11:04:07Z</time><name>PT1663</name></trkpt>
<trkpt lat="53.538415" lon="-1.955868"><ele>469</ele><time>2020-09-24T11:04:08Z</time><name>PT1664</name></trkpt>
<trkpt lat="53.538413" lon="-1.955860"><ele>469</ele><time>2020-09-24T11:04:09Z</time><name>PT1665</name></trkpt>
<trkpt lat="53.538412" lon="-1.955829"><ele>471</ele><time>2020-09-24T11:04:18Z</time><name>PT1666</name></trkpt>
<trkpt lat="53.538407" lon="-1.955821"><ele>471</ele><time>2020-09-24T11:04:19Z</time><name>PT1667</name></trkpt>
<trkpt lat="53.538404" lon="-1.955811"><ele>472</ele><time>2020-09-24T11:04:22Z</time><name>PT1668</name></trkpt>
<trkpt lat="53.538402" lon="-1.955790"><ele>472</ele><time>2020-09-24T11:04:23Z</time><name>PT1669</name></trkpt>
<trkpt lat="53.538399" lon="-1.955775"><ele>471</ele><time>2020-09-24T11:04:24Z</time><name>PT1670</name></trkpt>
<trkpt lat="53.538393" lon="-1.955757"><ele>471</ele><time>2020-09-24T11:04:25Z</time><name>PT1671</name></trkpt>
<trkpt lat="53.538387" lon="-1.955739"><ele>471</ele><time>2020-09-24T11:04:26Z</time><name>PT1672</name></trkpt>
<trkpt lat="53.538382" lon="-1.955725"><ele>472</ele><time>2020-09-24T11:04:27Z</time><name>PT1673</name></trkpt>
<trkpt lat="53.538363" lon="-1.955689"><ele>471</ele><time>2020-09-24T11:04:30Z</time><name>PT1674</name></trkpt>
<trkpt lat="53.538338" lon="-1.955641"><ele>472</ele><time>2020-09-24T11:04:34Z</time><name>PT1675</name></trkpt>
<trkpt lat="53.538311" lon="-1.955581"><ele>472</ele><time>2020-09-24T11:04:38Z</time><name>PT1676</name></trkpt>
<trkpt lat="53.538280" lon="-1.955528"><ele>473</ele><time>2020-09-24T11:04:42Z</time><name>PT1677</name></trkpt>
<trkpt lat="53.538257" lon="-1.955496"><ele>475</ele><time>2020-09-24T11:04:46Z</time><name>PT1678</name></trkpt>
<trkpt lat="53.538228" lon="-1.955450"><ele>475</ele><time>2020-09-24T11:04:50Z</time><name>PT1679</name></trkpt>
<trkpt lat="53.538211" lon="-1.955421"><ele>475</ele><time>2020-09-24T11:04:54Z</time><name>PT1680</name></trkpt>
<trkpt lat="53.538199" lon="-1.955406"><ele>476</ele><time>2020-09-24T11:04:58Z</time><name>PT1681</name></trkpt>
<trkpt lat="53.538192" lon="-1.955401"><ele>476</ele><time>2020-09-24T11:05:02Z</time><name>PT1682</name></trkpt>
<trkpt lat="53.538184" lon="-1.955383"><ele>476</ele><time>2020-09-24T11:05:06Z</time><name>PT1683</name></trkpt>
<trkpt lat="53.538151" lon="-1.955349"><ele>476</ele><time>2020-09-24T11:05:10Z</time><name>PT1684</name></trkpt>
<trkpt lat="53.538117" lon="-1.955314"><ele>476</ele><time>2020-09-24T11:05:14Z</time><name>PT1685</name></trkpt>
<trkpt lat="53.538073" lon="-1.955296"><ele>474</ele><time>2020-09-24T11:05:18Z</time><name>PT1686</name></trkpt>
<trkpt lat="53.538031" lon="-1.955277"><ele>474</ele><time>2020-09-24T11:05:22Z</time><name>PT1687</name></trkpt>
<trkpt lat="53.537985" lon="-1.955248"><ele>475</ele><time>2020-09-24T11:05:26Z</time><name>PT1688</name></trkpt>
<trkpt lat="53.537941" lon="-1.955221"><ele>476</ele><time>2020-09-24T11:05:30Z</time><name>PT1689</name></trkpt>
<trkpt lat="53.537893" lon="-1.955193"><ele>477</ele><time>2020-09-24T11:05:34Z</time><name>PT1690</name></trkpt>
<trkpt lat="53.537861" lon="-1.955169"><ele>477</ele><time>2020-09-24T11:05:37Z</time><name>PT1691</name></trkpt>
<trkpt lat="53.537833" lon="-1.955151"><ele>476</ele><time>2020-09-24T11:05:41Z</time><name>PT1692</name></trkpt>
<trkpt lat="53.537800" lon="-1.955132"><ele>477</ele><time>2020-09-24T11:05:45Z</time><name>PT1693</name></trkpt>
<trkpt lat="53.537768" lon="-1.955134"><ele>477</ele><time>2020-09-24T11:05:49Z</time><name>PT1694</name></trkpt>
<trkpt lat="53.537730" lon="-1.955122"><ele>477</ele><time>2020-09-24T11:05:53Z</time><name>PT1695</name></trkpt>
<trkpt lat="53.537691" lon="-1.955104"><ele>476</ele><time>2020-09-24T11:05:57Z</time><name>PT1696</name></trkpt>
<trkpt lat="53.537655" lon="-1.955090"><ele>478</ele><time>2020-09-24T11:06:01Z</time><name>PT1697</name></trkpt>
<trkpt lat="53.537610" lon="-1.955065"><ele>478</ele><time>2020-09-24T11:06:05Z</time><name>PT1698</name></trkpt>
<trkpt lat="53.537563" lon="-1.955040"><ele>478</ele><time>2020-09-24T11:06:09Z</time><name>PT1699</name></trkpt>
<trkpt lat="53.537519" lon="-1.955029"><ele>478</ele><time>2020-09-24T11:06:13Z</time><name>PT1700</name></trkpt>
<trkpt lat="53.537482" lon="-1.954991"><ele>477</ele><time>2020-09-24T11:06:17Z</time><name>PT1701</name></trkpt>
<trkpt lat="53.537436" lon="-1.954980"><ele>478</ele><time>2020-09-24T11:06:21Z</time><name>PT1702</name></trkpt>
<trkpt lat="53.537394" lon="-1.954970"><ele>477</ele><time>2020-09-24T11:06:25Z</time><name>PT1703</name></trkpt>
<trkpt lat="53.537347" lon="-1.954963"><ele>477</ele><time>2020-09-24T11:06:29Z</time><name>PT1704</name></trkpt>
<trkpt lat="53.537299" lon="-1.954951"><ele>476</ele><time>2020-09-24T11:06:33Z</time><name>PT1705</name></trkpt>
<trkpt lat="53.537253" lon="-1.954926"><ele>476</ele><time>2020-09-24T11:06:37Z</time><name>PT1706</name></trkpt>
<trkpt lat="53.537206" lon="-1.954909"><ele>475</ele><time>2020-09-24T11:06:41Z</time><name>PT1707</name></trkpt>
<trkpt lat="53.537170" lon="-1.954897"><ele>475</ele><time>2020-09-24T11:06:45Z</time><name>PT1708</name></trkpt>
<trkpt lat="53.537130" lon="-1.954877"><ele>475</ele><time>2020-09-24T11:06:49Z</time><name>PT1709</name></trkpt>
<trkpt lat="53.537081" lon="-1.954877"><ele>476</ele><time>2020-09-24T11:06:53Z</time><name>PT1710</name></trkpt>
<trkpt lat="53.537035" lon="-1.954865"><ele>475</ele><time>2020-09-24T11:06:57Z</time><name>PT1711</name></trkpt>
<trkpt lat="53.536996" lon="-1.954846"><ele>475</ele><time>2020-09-24T11:07:01Z</time><name>PT1712</name></trkpt>
<trkpt lat="53.536951" lon="-1.954818"><ele>474</ele><time>2020-09-24T11:07:05Z</time><name>PT1713</name></trkpt>
<trkpt lat="53.536908" lon="-1.954790"><ele>474</ele><time>2020-09-24T11:07:09Z</time><name>PT1714</name></trkpt>
<trkpt lat="53.536869" lon="-1.954760"><ele>474</ele><time>2020-09-24T11:07:13Z</time><name>PT1715</name></trkpt>
<trkpt lat="53.536827" lon="-1.954735"><ele>474</ele><time>2020-09-24T11:07:17Z</time><name>PT1716</name></trkpt>
<trkpt lat="53.536788" lon="-1.954711"><ele>474</ele><time>2020-09-24T11:07:21Z</time><name>PT1717</name></trkpt>
<trkpt lat="53.536779" lon="-1.954711"><ele>475</ele><time>2020-09-24T11:07:25Z</time><name>PT1718</name></trkpt>
<trkpt lat="53.536764" lon="-1.954681"><ele>475</ele><time>2020-09-24T11:07:33Z</time><name>PT1719</name></trkpt>
<trkpt lat="53.536744" lon="-1.954676"><ele>474</ele><time>2020-09-24T11:07:37Z</time><name>PT1720</name></trkpt>
<trkpt lat="53.536735" lon="-1.954675"><ele>474</ele><time>2020-09-24T11:07:41Z</time><name>PT1721</name></trkpt>
<trkpt lat="53.536716" lon="-1.954666"><ele>475</ele><time>2020-09-24T11:07:53Z</time><name>PT1722</name></trkpt>
<trkpt lat="53.536706" lon="-1.954656"><ele>475</ele><time>2020-09-24T11:07:57Z</time><name>PT1723</name></trkpt>
<trkpt lat="53.536709" lon="-1.954639"><ele>476</ele><time>2020-09-24T11:08:17Z</time><name>PT1724</name></trkpt>
<trkpt lat="53.536701" lon="-1.954626"><ele>476</ele><time>2020-09-24T11:08:21Z</time><name>PT1725</name></trkpt>
<trkpt lat="53.536691" lon="-1.954621"><ele>475</ele><time>2020-09-24T11:08:25Z</time><name>PT1726</name></trkpt>
<trkpt lat="53.536664" lon="-1.954622"><ele>475</ele><time>2020-09-24T11:08:29Z</time><name>PT1727</name></trkpt>
<trkpt lat="53.536663" lon="-1.954622"><ele>475</ele><time>2020-09-24T11:08:33Z</time><name>PT1728</name></trkpt>
<trkpt lat="53.536622" lon="-1.954597"><ele>475</ele><time>2020-09-24T11:08:37Z</time><name>PT1729</name></trkpt>
<trkpt lat="53.536578" lon="-1.954578"><ele>475</ele><time>2020-09-24T11:08:41Z</time><name>PT1730</name></trkpt>
<trkpt lat="53.536538" lon="-1.954554"><ele>474</ele><time>2020-09-24T11:08:45Z</time><name>PT1731</name></trkpt>
<trkpt lat="53.536487" lon="-1.954526"><ele>474</ele><time>2020-09-24T11:08:49Z</time><name>PT1732</name></trkpt>
<trkpt lat="53.536454" lon="-1.954511"><ele>474</ele><time>2020-09-24T11:08:53Z</time><name>PT1733</name></trkpt>
<trkpt lat="53.536409" lon="-1.954494"><ele>473</ele><time>2020-09-24T11:08:57Z</time><name>PT1734</name></trkpt>
<trkpt lat="53.536367" lon="-1.954463"><ele>472</ele><time>2020-09-24T11:09:01Z</time><name>PT1735</name></trkpt>
<trkpt lat="53.536334" lon="-1.954448"><ele>473</ele><time>2020-09-24T11:09:05Z</time><name>PT1736</name></trkpt>
<trkpt lat="53.536319" lon="-1.954441"><ele>472</ele><time>2020-09-24T11:09:09Z</time><name>PT1737</name></trkpt>
<trkpt lat="53.536279" lon="-1.954420"><ele>471</ele><time>2020-09-24T11:09:13Z</time><name>PT1738</name></trkpt>
<trkpt lat="53.536242" lon="-1.954404"><ele>470</ele><time>2020-09-24T11:09:17Z</time><name>PT1739</name></trkpt>
<trkpt lat="53.536205" lon="-1.954402"><ele>470</ele><time>2020-09-24T11:09:21Z</time><name>PT1740</name></trkpt>
<trkpt lat="53.536165" lon="-1.954407"><ele>470</ele><time>2020-09-24T11:09:25Z</time><name>PT1741</name></trkpt>
<trkpt lat="53.536118" lon="-1.954408"><ele>468</ele><time>2020-09-24T11:09:29Z</time><name>PT1742</name></trkpt>
<trkpt lat="53.536082" lon="-1.954391"><ele>467</ele><time>2020-09-24T11:09:33Z</time><name>PT1743</name></trkpt>
<trkpt lat="53.536050" lon="-1.954365"><ele>467</ele><time>2020-09-24T11:09:37Z</time><name>PT1744</name></trkpt>
<trkpt lat="53.536010" lon="-1.954356"><ele>467</ele><time>2020-09-24T11:09:41Z</time><name>PT1745</name></trkpt>
<trkpt lat="53.535959" lon="-1.954341"><ele>466</ele><time>2020-09-24T11:09:45Z</time><name>PT1746</name></trkpt>
<trkpt lat="53.535919" lon="-1.954308"><ele>465</ele><time>2020-09-24T11:09:49Z</time><name>PT1747</name></trkpt>
<trkpt lat="53.535873" lon="-1.954302"><ele>466</ele><time>2020-09-24T11:09:53Z</time><name>PT1748</name></trkpt>
<trkpt lat="53.535836" lon="-1.954301"><ele>466</ele><time>2020-09-24T11:09:57Z</time><name>PT1749</name></trkpt>
<trkpt lat="53.535792" lon="-1.954274"><ele>465</ele><time>2020-09-24T11:10:01Z</time><name>PT1750</name></trkpt>
<trkpt lat="53.535747" lon="-1.954282"><ele>465</ele><time>2020-09-24T11:10:05Z</time><name>PT1751</name></trkpt>
<trkpt lat="53.535703" lon="-1.954294"><ele>464</ele><time>2020-09-24T11:10:09Z</time><name>PT1752</name></trkpt>
<trkpt lat="53.535664" lon="-1.954275"><ele>466</ele><time>2020-09-24T11:10:13Z</time><name>PT1753</name></trkpt>
<trkpt lat="53.535620" lon="-1.954261"><ele>466</ele><time>2020-09-24T11:10:17Z</time><name>PT1754</name></trkpt>
<trkpt lat="53.535579" lon="-1.954250"><ele>466</ele><time>2020-09-24T11:10:21Z</time><name>PT1755</name></trkpt>
<trkpt lat="53.535554" lon="-1.954241"><ele>466</ele><time>2020-09-24T11:10:25Z</time><name>PT1756</name></trkpt>
<trkpt lat="53.535543" lon="-1.954232"><ele>466</ele><time>2020-09-24T11:10:33Z</time><name>PT1757</name></trkpt>
<trkpt lat="53.535506" lon="-1.954222"><ele>466</ele><time>2020-09-24T11:10:37Z</time><name>PT1758</name></trkpt>
<trkpt lat="53.535463" lon="-1.954192"><ele>465</ele><time>2020-09-24T11:10:41Z</time><name>PT1759</name></trkpt>
<trkpt lat="53.535421" lon="-1.954184"><ele>465</ele><time>2020-09-24T11:10:45Z</time><name>PT1760</name></trkpt>
<trkpt lat="53.535383" lon="-1.954166"><ele>464</ele><time>2020-09-24T11:10:49Z</time><name>PT1761</name></trkpt>
<trkpt lat="53.535344" lon="-1.954146"><ele>464</ele><time>2020-09-24T11:10:53Z</time><name>PT1762</name></trkpt>
<trkpt lat="53.535302" lon="-1.954123"><ele>464</ele><time>2020-09-24T11:10:57Z</time><name>PT1763</name></trkpt>
<trkpt lat="53.535261" lon="-1.954103"><ele>463</ele><time>2020-09-24T11:11:01Z</time><name>PT1764</name></trkpt>
<trkpt lat="53.535210" lon="-1.954078"><ele>463</ele><time>2020-09-24T11:11:05Z</time><name>PT1765</name></trkpt>
<trkpt lat="53.535168" lon="-1.954058"><ele>462</ele><time>2020-09-24T11:11:09Z</time><name>PT1766</name></trkpt>
<trkpt lat="53.535119" lon="-1.954047"><ele>463</ele><time>2020-09-24T11:11:13Z</time><name>PT1767</name></trkpt>
<trkpt lat="53.535074" lon="-1.954036"><ele>464</ele><time>2020-09-24T11:11:17Z</time><name>PT1768</name></trkpt>
<trkpt lat="53.535023" lon="-1.954018"><ele>464</ele><time>2020-09-24T11:11:21Z</time><name>PT1769</name></trkpt>
<trkpt lat="53.534972" lon="-1.953997"><ele>464</ele><time>2020-09-24T11:11:25Z</time><name>PT1770</name></trkpt>
<trkpt lat="53.534930" lon="-1.953976"><ele>463</ele><time>2020-09-24T11:11:29Z</time><name>PT1771</name></trkpt>
<trkpt lat="53.534888" lon="-1.953958"><ele>463</ele><time>2020-09-24T11:11:33Z</time><name>PT1772</name></trkpt>
<trkpt lat="53.534857" lon="-1.953937"><ele>465</ele><time>2020-09-24T11:11:37Z</time><name>PT1773</name></trkpt>
<trkpt lat="53.534820" lon="-1.953923"><ele>465</ele><time>2020-09-24T11:11:41Z</time><name>PT1774</name></trkpt>
<trkpt lat="53.534798" lon="-1.953913"><ele>466</ele><time>2020-09-24T11:11:45Z</time><name>PT1775</name></trkpt>
<trkpt lat="53.534781" lon="-1.953901"><ele>465</ele><time>2020-09-24T11:11:49Z</time><name>PT1776</name></trkpt>
<trkpt lat="53.534749" lon="-1.953888"><ele>466</ele><time>2020-09-24T11:11:53Z</time><name>PT1777</name></trkpt>
<trkpt lat="53.534722" lon="-1.953864"><ele>465</ele><time>2020-09-24T11:11:57Z</time><name>PT1778</name></trkpt>
<trkpt lat="53.534693" lon="-1.953841"><ele>466</ele><time>2020-09-24T11:12:01Z</time><name>PT1779</name></trkpt>
<trkpt lat="53.534667" lon="-1.953815"><ele>466</ele><time>2020-09-24T11:12:05Z</time><name>PT1780</name></trkpt>
<trkpt lat="53.534638" lon="-1.953790"><ele>466</ele><time>2020-09-24T11:12:09Z</time><name>PT1781</name></trkpt>
<trkpt lat="53.534597" lon="-1.953762"><ele>467</ele><time>2020-09-24T11:12:13Z</time><name>PT1782</name></trkpt>
<trkpt lat="53.534563" lon="-1.953742"><ele>469</ele><time>2020-09-24T11:12:17Z</time><name>PT1783</name></trkpt>
<trkpt lat="53.534524" lon="-1.953724"><ele>470</ele><time>2020-09-24T11:12:21Z</time><name>PT1784</name></trkpt>
<trkpt lat="53.534487" lon="-1.953716"><ele>470</ele><time>2020-09-24T11:12:25Z</time><name>PT1785</name></trkpt>
<trkpt lat="53.534444" lon="-1.953692"><ele>469</ele><time>2020-09-24T11:12:29Z</time><name>PT1786</name></trkpt>
<trkpt lat="53.534404" lon="-1.953671"><ele>469</ele><time>2020-09-24T11:12:33Z</time><name>PT1787</name></trkpt>
<trkpt lat="53.534369" lon="-1.953663"><ele>469</ele><time>2020-09-24T11:12:37Z</time><name>PT1788</name></trkpt>
<trkpt lat="53.534331" lon="-1.953653"><ele>470</ele><time>2020-09-24T11:12:41Z</time><name>PT1789</name></trkpt>
<trkpt lat="53.534292" lon="-1.953653"><ele>469</ele><time>2020-09-24T11:12:45Z</time><name>PT1790</name></trkpt>
<trkpt lat="53.534244" lon="-1.953642"><ele>469</ele><time>2020-09-24T11:12:49Z</time><name>PT1791</name></trkpt>
<trkpt lat="53.534196" lon="-1.953656"><ele>468</ele><time>2020-09-24T11:12:53Z</time><name>PT1792</name></trkpt>
<trkpt lat="53.534155" lon="-1.953667"><ele>467</ele><time>2020-09-24T11:12:57Z</time><name>PT1793</name></trkpt>
<trkpt lat="53.534106" lon="-1.953668"><ele>468</ele><time>2020-09-24T11:13:01Z</time><name>PT1794</name></trkpt>
<trkpt lat="53.534056" lon="-1.953684"><ele>467</ele><time>2020-09-24T11:13:05Z</time><name>PT1795</name></trkpt>
<trkpt lat="53.534004" lon="-1.953698"><ele>468</ele><time>2020-09-24T11:13:09Z</time><name>PT1796</name></trkpt>
<trkpt lat="53.533961" lon="-1.953695"><ele>468</ele><time>2020-09-24T11:13:13Z</time><name>PT1797</name></trkpt>
<trkpt lat="53.533914" lon="-1.953688"><ele>466</ele><time>2020-09-24T11:13:17Z</time><name>PT1798</name></trkpt>
<trkpt lat="53.533868" lon="-1.953698"><ele>466</ele><time>2020-09-24T11:13:21Z</time><name>PT1799</name></trkpt>
<trkpt lat="53.533820" lon="-1.953676"><ele>466</ele><time>2020-09-24T11:13:25Z</time><name>PT1800</name></trkpt>
<trkpt lat="53.533774" lon="-1.953674"><ele>466</ele><time>2020-09-24T11:13:29Z</time><name>PT1801</name></trkpt>
<trkpt lat="53.533723" lon="-1.953689"><ele>467</ele><time>2020-09-24T11:13:33Z</time><name>PT1802</name></trkpt>
<trkpt lat="53.533671" lon="-1.953704"><ele>467</ele><time>2020-09-24T11:13:37Z</time><name>PT1803</name></trkpt>
<trkpt lat="53.533628" lon="-1.953702"><ele>467</ele><time>2020-09-24T11:13:41Z</time><name>PT1804</name></trkpt>
<trkpt lat="53.533578" lon="-1.953691"><ele>466</ele><time>2020-09-24T11:13:45Z</time><name>PT1805</name></trkpt>
<trkpt lat="53.533542" lon="-1.953661"><ele>465</ele><time>2020-09-24T11:13:49Z</time><name>PT1806</name></trkpt>
<trkpt lat="53.533506" lon="-1.953663"><ele>465</ele><time>2020-09-24T11:13:53Z</time><name>PT1807</name></trkpt>
<trkpt lat="53.533474" lon="-1.953660"><ele>464</ele><time>2020-09-24T11:13:57Z</time><name>PT1808</name></trkpt>
<trkpt lat="53.533446" lon="-1.953643"><ele>463</ele><time>2020-09-24T11:14:01Z</time><name>PT1809</name></trkpt>
<trkpt lat="53.533410" lon="-1.953654"><ele>463</ele><time>2020-09-24T11:14:05Z</time><name>PT1810</name></trkpt>
<trkpt lat="53.533365" lon="-1.953658"><ele>464</ele><time>2020-09-24T11:14:09Z</time><name>PT1811</name></trkpt>
<trkpt lat="53.533315" lon="-1.953665"><ele>465</ele><time>2020-09-24T11:14:13Z</time><name>PT1812</name></trkpt>
<trkpt lat="53.533266" lon="-1.953659"><ele>466</ele><time>2020-09-24T11:14:17Z</time><name>PT1813</name></trkpt>
<trkpt lat="53.533222" lon="-1.953650"><ele>466</ele><time>2020-09-24T11:14:21Z</time><name>PT1814</name></trkpt>
<trkpt lat="53.533180" lon="-1.953662"><ele>466</ele><time>2020-09-24T11:14:25Z</time><name>PT1815</name></trkpt>
<trkpt lat="53.533137" lon="-1.953696"><ele>468</ele><time>2020-09-24T11:14:29Z</time><name>PT1816</name></trkpt>
<trkpt lat="53.533101" lon="-1.953717"><ele>468</ele><time>2020-09-24T11:14:33Z</time><name>PT1817</name></trkpt>
<trkpt lat="53.533057" lon="-1.953691"><ele>468</ele><time>2020-09-24T11:14:37Z</time><name>PT1818</name></trkpt>
<trkpt lat="53.533015" lon="-1.953662"><ele>467</ele><time>2020-09-24T11:14:41Z</time><name>PT1819</name></trkpt>
<trkpt lat="53.532986" lon="-1.953628"><ele>467</ele><time>2020-09-24T11:14:45Z</time><name>PT1820</name></trkpt>
<trkpt lat="53.532969" lon="-1.953600"><ele>466</ele><time>2020-09-24T11:14:49Z</time><name>PT1821</name></trkpt>
<trkpt lat="53.532934" lon="-1.953640"><ele>467</ele><time>2020-09-24T11:14:53Z</time><name>PT1822</name></trkpt>
<trkpt lat="53.532894" lon="-1.953661"><ele>467</ele><time>2020-09-24T11:14:57Z</time><name>PT1823</name></trkpt>
<trkpt lat="53.532862" lon="-1.953659"><ele>466</ele><time>2020-09-24T11:15:01Z</time><name>PT1824</name></trkpt>
<trkpt lat="53.532834" lon="-1.953655"><ele>466</ele><time>2020-09-24T11:15:05Z</time><name>PT1825</name></trkpt>
<trkpt lat="53.532794" lon="-1.953668"><ele>467</ele><time>2020-09-24T11:15:09Z</time><name>PT1826</name></trkpt>
<trkpt lat="53.532755" lon="-1.953696"><ele>467</ele><time>2020-09-24T11:15:13Z</time><name>PT1827</name></trkpt>
<trkpt lat="53.532707" lon="-1.953698"><ele>467</ele><time>2020-09-24T11:15:17Z</time><name>PT1828</name></trkpt>
<trkpt lat="53.532668" lon="-1.953685"><ele>467</ele><time>2020-09-24T11:15:21Z</time><name>PT1829</name></trkpt>
<trkpt lat="53.532631" lon="-1.953685"><ele>467</ele><time>2020-09-24T11:15:25Z</time><name>PT1830</name></trkpt>
<trkpt lat="53.532595" lon="-1.953703"><ele>467</ele><time>2020-09-24T11:15:29Z</time><name>PT1831</name></trkpt>
<trkpt lat="53.532556" lon="-1.953684"><ele>468</ele><time>2020-09-24T11:15:33Z</time><name>PT1832</name></trkpt>
<trkpt lat="53.532519" lon="-1.953662"><ele>469</ele><time>2020-09-24T11:15:37Z</time><name>PT1833</name></trkpt>
<trkpt lat="53.532479" lon="-1.953661"><ele>467</ele><time>2020-09-24T11:15:41Z</time><name>PT1834</name></trkpt>
<trkpt lat="53.532437" lon="-1.953649"><ele>467</ele><time>2020-09-24T11:15:45Z</time><name>PT1835</name></trkpt>
<trkpt lat="53.532402" lon="-1.953609"><ele>466</ele><time>2020-09-24T11:15:49Z</time><name>PT1836</name></trkpt>
<trkpt lat="53.532384" lon="-1.953571"><ele>465</ele><time>2020-09-24T11:15:53Z</time><name>PT1837</name></trkpt>
<trkpt lat="53.532356" lon="-1.953565"><ele>465</ele><time>2020-09-24T11:15:57Z</time><name>PT1838</name></trkpt>
<trkpt lat="53.532337" lon="-1.953543"><ele>465</ele><time>2020-09-24T11:16:01Z</time><name>PT1839</name></trkpt>
<trkpt lat="53.532301" lon="-1.953535"><ele>465</ele><time>2020-09-24T11:16:05Z</time><name>PT1840</name></trkpt>
<trkpt lat="53.532273" lon="-1.953518"><ele>465</ele><time>2020-09-24T11:16:09Z</time><name>PT1841</name></trkpt>
<trkpt lat="53.532243" lon="-1.953518"><ele>466</ele><time>2020-09-24T11:16:13Z</time><name>PT1842</name></trkpt>
<trkpt lat="53.532215" lon="-1.953513"><ele>466</ele><time>2020-09-24T11:16:17Z</time><name>PT1843</name></trkpt>
<trkpt lat="53.532178" lon="-1.953509"><ele>466</ele><time>2020-09-24T11:16:21Z</time><name>PT1844</name></trkpt>
<trkpt lat="53.532136" lon="-1.953493"><ele>467</ele><time>2020-09-24T11:16:25Z</time><name>PT1845</name></trkpt>
<trkpt lat="53.532089" lon="-1.953476"><ele>467</ele><time>2020-09-24T11:16:29Z</time><name>PT1846</name></trkpt>
<trkpt lat="53.532046" lon="-1.953449"><ele>468</ele><time>2020-09-24T11:16:33Z</time><name>PT1847</name></trkpt>
<trkpt lat="53.532009" lon="-1.953416"><ele>468</ele><time>2020-09-24T11:16:37Z</time><name>PT1848</name></trkpt>
<trkpt lat="53.531974" lon="-1.953398"><ele>467</ele><time>2020-09-24T11:16:41Z</time><name>PT1849</name></trkpt>
<trkpt lat="53.531926" lon="-1.953382"><ele>467</ele><time>2020-09-24T11:16:45Z</time><name>PT1850</name></trkpt>
<trkpt lat="53.531889" lon="-1.953352"><ele>467</ele><time>2020-09-24T11:16:49Z</time><name>PT1851</name></trkpt>
<trkpt lat="53.531854" lon="-1.953312"><ele>467</ele><time>2020-09-24T11:16:53Z</time><name>PT1852</name></trkpt>
<trkpt lat="53.531818" lon="-1.953277"><ele>467</ele><time>2020-09-24T11:16:57Z</time><name>PT1853</name></trkpt>
<trkpt lat="53.531782" lon="-1.953246"><ele>468</ele><time>2020-09-24T11:17:01Z</time><name>PT1854</name></trkpt>
<trkpt lat="53.531744" lon="-1.953224"><ele>466</ele><time>2020-09-24T11:17:05Z</time><name>PT1855</name></trkpt>
<trkpt lat="53.531708" lon="-1.953213"><ele>466</ele><time>2020-09-24T11:17:09Z</time><name>PT1856</name></trkpt>
<trkpt lat="53.531670" lon="-1.953192"><ele>464</ele><time>2020-09-24T11:17:13Z</time><name>PT1857</name></trkpt>
<trkpt lat="53.531626" lon="-1.953158"><ele>465</ele><time>2020-09-24T11:17:17Z</time><name>PT1858</name></trkpt>
<trkpt lat="53.531585" lon="-1.953118"><ele>467</ele><time>2020-09-24T11:17:21Z</time><name>PT1859</name></trkpt>
<trkpt lat="53.531548" lon="-1.953072"><ele>468</ele><time>2020-09-24T11:17:25Z</time><name>PT1860</name></trkpt>
<trkpt lat="53.531511" lon="-1.953039"><ele>467</ele><time>2020-09-24T11:17:29Z</time><name>PT1861</name></trkpt>
<trkpt lat="53.531469" lon="-1.953017"><ele>467</ele><time>2020-09-24T11:17:33Z</time><name>PT1862</name></trkpt>
<trkpt lat="53.531432" lon="-1.953009"><ele>466</ele><time>2020-09-24T11:17:37Z</time><name>PT1863</name></trkpt>
<trkpt lat="53.531395" lon="-1.952995"><ele>465</ele><time>2020-09-24T11:17:41Z</time><name>PT1864</name></trkpt>
<trkpt lat="53.531360" lon="-1.952981"><ele>465</ele><time>2020-09-24T11:17:45Z</time><name>PT1865</name></trkpt>
<trkpt lat="53.531324" lon="-1.952959"><ele>464</ele><time>2020-09-24T11:17:49Z</time><name>PT1866</name></trkpt>
<trkpt lat="53.531294" lon="-1.952938"><ele>464</ele><time>2020-09-24T11:17:53Z</time><name>PT1867</name></trkpt>
<trkpt lat="53.531265" lon="-1.952946"><ele>465</ele><time>2020-09-24T11:17:57Z</time><name>PT1868</name></trkpt>
<trkpt lat="53.531240" lon="-1.952978"><ele>467</ele><time>2020-09-24T11:18:01Z</time><name>PT1869</name></trkpt>
<trkpt lat="53.531233" lon="-1.953033"><ele>468</ele><time>2020-09-24T11:18:05Z</time><name>PT1870</name></trkpt>
<trkpt lat="53.531227" lon="-1.953077"><ele>468</ele><time>2020-09-24T11:18:09Z</time><name>PT1871</name></trkpt>
<trkpt lat="53.531243" lon="-1.953110"><ele>467</ele><time>2020-09-24T11:18:13Z</time><name>PT1872</name></trkpt>
<trkpt lat="53.531248" lon="-1.953155"><ele>468</ele><time>2020-09-24T11:18:17Z</time><name>PT1873</name></trkpt>
<trkpt lat="53.531265" lon="-1.953210"><ele>467</ele><time>2020-09-24T11:18:21Z</time><name>PT1874</name></trkpt>
<trkpt lat="53.531287" lon="-1.953259"><ele>467</ele><time>2020-09-24T11:18:25Z</time><name>PT1875</name></trkpt>
<trkpt lat="53.531315" lon="-1.953300"><ele>466</ele><time>2020-09-24T11:18:29Z</time><name>PT1876</name></trkpt>
<trkpt lat="53.531324" lon="-1.953354"><ele>467</ele><time>2020-09-24T11:18:33Z</time><name>PT1877</name></trkpt>
<trkpt lat="53.531335" lon="-1.953429"><ele>467</ele><time>2020-09-24T11:18:37Z</time><name>PT1878</name></trkpt>
<trkpt lat="53.531345" lon="-1.953487"><ele>467</ele><time>2020-09-24T11:18:40Z</time><name>PT1879</name></trkpt>
<trkpt lat="53.531344" lon="-1.953563"><ele>468</ele><time>2020-09-24T11:18:44Z</time><name>PT1880</name></trkpt>
<trkpt lat="53.531340" lon="-1.953595"><ele>468</ele><time>2020-09-24T11:18:47Z</time><name>PT1881</name></trkpt>
<trkpt lat="53.531337" lon="-1.953655"><ele>468</ele><time>2020-09-24T11:18:51Z</time><name>PT1882</name></trkpt>
<trkpt lat="53.531348" lon="-1.953719"><ele>468</ele><time>2020-09-24T11:18:55Z</time><name>PT1883</name></trkpt>
<trkpt lat="53.531342" lon="-1.953775"><ele>469</ele><time>2020-09-24T11:18:59Z</time><name>PT1884</name></trkpt>
<trkpt lat="53.531326" lon="-1.953832"><ele>469</ele><time>2020-09-24T11:19:03Z</time><name>PT1885</name></trkpt>
<trkpt lat="53.531326" lon="-1.953879"><ele>469</ele><time>2020-09-24T11:19:06Z</time><name>PT1886</name></trkpt>
<trkpt lat="53.531316" lon="-1.953922"><ele>470</ele><time>2020-09-24T11:19:10Z</time><name>PT1887</name></trkpt>
<trkpt lat="53.531304" lon="-1.953943"><ele>470</ele><time>2020-09-24T11:19:14Z</time><name>PT1888</name></trkpt>
<trkpt lat="53.531289" lon="-1.953953"><ele>470</ele><time>2020-09-24T11:19:18Z</time><name>PT1889</name></trkpt>
<trkpt lat="53.531262" lon="-1.953955"><ele>471</ele><time>2020-09-24T11:19:22Z</time><name>PT1890</name></trkpt>
<trkpt lat="53.531241" lon="-1.953968"><ele>471</ele><time>2020-09-24T11:19:26Z</time><name>PT1891</name></trkpt>
<trkpt lat="53.531218" lon="-1.953995"><ele>472</ele><time>2020-09-24T11:19:30Z</time><name>PT1892</name></trkpt>
<trkpt lat="53.531191" lon="-1.953991"><ele>473</ele><time>2020-09-24T11:19:34Z</time><name>PT1893</name></trkpt>
<trkpt lat="53.531164" lon="-1.953994"><ele>473</ele><time>2020-09-24T11:19:38Z</time><name>PT1894</name></trkpt>
<trkpt lat="53.531150" lon="-1.954047"><ele>473</ele><time>2020-09-24T11:19:42Z</time><name>PT1895</name></trkpt>
<trkpt lat="53.531167" lon="-1.954069"><ele>471</ele><time>2020-09-24T11:19:46Z</time><name>PT1896</name></trkpt>
<trkpt lat="53.531185" lon="-1.954092"><ele>470</ele><time>2020-09-24T11:19:50Z</time><name>PT1897</name></trkpt>
<trkpt lat="53.531205" lon="-1.954108"><ele>469</ele><time>2020-09-24T11:19:54Z</time><name>PT1898</name></trkpt>
<trkpt lat="53.531239" lon="-1.954098"><ele>469</ele><time>2020-09-24T11:19:58Z</time><name>PT1899</name></trkpt>
<trkpt lat="53.531256" lon="-1.954089"><ele>468</ele><time>2020-09-24T11:20:02Z</time><name>PT1900</name></trkpt>
<trkpt lat="53.531264" lon="-1.954130"><ele>468</ele><time>2020-09-24T11:20:05Z</time><name>PT1901</name></trkpt>
<trkpt lat="53.531293" lon="-1.954166"><ele>468</ele><time>2020-09-24T11:20:09Z</time><name>PT1902</name></trkpt>
<trkpt lat="53.531322" lon="-1.954199"><ele>467</ele><time>2020-09-24T11:20:13Z</time><name>PT1903</name></trkpt>
<trkpt lat="53.531353" lon="-1.954219"><ele>467</ele><time>2020-09-24T11:20:17Z</time><name>PT1904</name></trkpt>
<trkpt lat="53.531363" lon="-1.954278"><ele>466</ele><time>2020-09-24T11:20:21Z</time><name>PT1905</name></trkpt>
<trkpt lat="53.531363" lon="-1.954342"><ele>466</ele><time>2020-09-24T11:20:25Z</time><name>PT1906</name></trkpt>
<trkpt lat="53.531369" lon="-1.954375"><ele>465</ele><time>2020-09-24T11:20:29Z</time><name>PT1907</name></trkpt>
<trkpt lat="53.531368" lon="-1.954428"><ele>465</ele><time>2020-09-24T11:20:33Z</time><name>PT1908</name></trkpt>
<trkpt lat="53.531384" lon="-1.954485"><ele>465</ele><time>2020-09-24T11:20:37Z</time><name>PT1909</name></trkpt>
<trkpt lat="53.531397" lon="-1.954510"><ele>464</ele><time>2020-09-24T11:20:41Z</time><name>PT1910</name></trkpt>
<trkpt lat="53.531412" lon="-1.954525"><ele>464</ele><time>2020-09-24T11:20:45Z</time><name>PT1911</name></trkpt>
<trkpt lat="53.531418" lon="-1.954554"><ele>464</ele><time>2020-09-24T11:20:49Z</time><name>PT1912</name></trkpt>
<trkpt lat="53.531418" lon="-1.954606"><ele>465</ele><time>2020-09-24T11:20:53Z</time><name>PT1913</name></trkpt>
<trkpt lat="53.531445" lon="-1.954647"><ele>465</ele><time>2020-09-24T11:20:57Z</time><name>PT1914</name></trkpt>
<trkpt lat="53.531461" lon="-1.954675"><ele>465</ele><time>2020-09-24T11:21:01Z</time><name>PT1915</name></trkpt>
<trkpt lat="53.531463" lon="-1.954676"><ele>465</ele><time>2020-09-24T11:21:04Z</time><name>PT1916</name></trkpt>
<trkpt lat="53.531469" lon="-1.954707"><ele>465</ele><time>2020-09-24T11:21:12Z</time><name>PT1917</name></trkpt>
<trkpt lat="53.531482" lon="-1.954739"><ele>465</ele><time>2020-09-24T11:21:16Z</time><name>PT1918</name></trkpt>
<trkpt lat="53.531500" lon="-1.954795"><ele>465</ele><time>2020-09-24T11:21:20Z</time><name>PT1919</name></trkpt>
<trkpt lat="53.531526" lon="-1.954852"><ele>464</ele><time>2020-09-24T11:21:24Z</time><name>PT1920</name></trkpt>
<trkpt lat="53.531554" lon="-1.954888"><ele>464</ele><time>2020-09-24T11:21:28Z</time><name>PT1921</name></trkpt>
<trkpt lat="53.531590" lon="-1.954940"><ele>463</ele><time>2020-09-24T11:21:32Z</time><name>PT1922</name></trkpt>
<trkpt lat="53.531618" lon="-1.954990"><ele>462</ele><time>2020-09-24T11:21:36Z</time><name>PT1923</name></trkpt>
<trkpt lat="53.531642" lon="-1.955030"><ele>462</ele><time>2020-09-24T11:21:40Z</time><name>PT1924</name></trkpt>
<trkpt lat="53.531659" lon="-1.955070"><ele>462</ele><time>2020-09-24T11:21:43Z</time><name>PT1925</name></trkpt>
<trkpt lat="53.531687" lon="-1.955124"><ele>461</ele><time>2020-09-24T11:21:47Z</time><name>PT1926</name></trkpt>
<trkpt lat="53.531689" lon="-1.955192"><ele>462</ele><time>2020-09-24T11:21:51Z</time><name>PT1927</name></trkpt>
<trkpt lat="53.531697" lon="-1.955244"><ele>462</ele><time>2020-09-24T11:21:55Z</time><name>PT1928</name></trkpt>
<trkpt lat="53.531698" lon="-1.955310"><ele>462</ele><time>2020-09-24T11:21:59Z</time><name>PT1929</name></trkpt>
<trkpt lat="53.531701" lon="-1.955367"><ele>462</ele><time>2020-09-24T11:22:03Z</time><name>PT1930</name></trkpt>
<trkpt lat="53.531712" lon="-1.955415"><ele>462</ele><time>2020-09-24T11:22:07Z</time><name>PT1931</name></trkpt>
<trkpt lat="53.531712" lon="-1.955436"><ele>462</ele><time>2020-09-24T11:22:11Z</time><name>PT1932</name></trkpt>
<trkpt lat="53.531716" lon="-1.955442"><ele>462</ele><time>2020-09-24T11:22:15Z</time><name>PT1933</name></trkpt>
<trkpt lat="53.531713" lon="-1.955467"><ele>462</ele><time>2020-09-24T11:22:19Z</time><name>PT1934</name></trkpt>
<trkpt lat="53.531708" lon="-1.955490"><ele>461</ele><time>2020-09-24T11:22:23Z</time><name>PT1935</name></trkpt>
<trkpt lat="53.531701" lon="-1.955512"><ele>461</ele><time>2020-09-24T11:22:27Z</time><name>PT1936</name></trkpt>
<trkpt lat="53.531700" lon="-1.955510"><ele>461</ele><time>2020-09-24T11:22:31Z</time><name>PT1937</name></trkpt>
<trkpt lat="53.531687" lon="-1.955527"><ele>460</ele><time>2020-09-24T11:22:35Z</time><name>PT1938</name></trkpt>
<trkpt lat="53.531674" lon="-1.955528"><ele>459</ele><time>2020-09-24T11:22:39Z</time><name>PT1939</name></trkpt>
<trkpt lat="53.531669" lon="-1.955532"><ele>458</ele><time>2020-09-24T11:22:43Z</time><name>PT1940</name></trkpt>
<trkpt lat="53.531670" lon="-1.955536"><ele>458</ele><time>2020-09-24T11:22:47Z</time><name>PT1941</name></trkpt>
<trkpt lat="53.531660" lon="-1.955569"><ele>458</ele><time>2020-09-24T11:22:51Z</time><name>PT1942</name></trkpt>
<trkpt lat="53.531646" lon="-1.955607"><ele>457</ele><time>2020-09-24T11:22:55Z</time><name>PT1943</name></trkpt>
<trkpt lat="53.531643" lon="-1.955629"><ele>457</ele><time>2020-09-24T11:22:59Z</time><name>PT1944</name></trkpt>
<trkpt lat="53.531658" lon="-1.955670"><ele>458</ele><time>2020-09-24T11:23:03Z</time><name>PT1945</name></trkpt>
<trkpt lat="53.531680" lon="-1.955698"><ele>460</ele><time>2020-09-24T11:23:07Z</time><name>PT1946</name></trkpt>
<trkpt lat="53.531705" lon="-1.955715"><ele>461</ele><time>2020-09-24T11:23:11Z</time><name>PT1947</name></trkpt>
<trkpt lat="53.531731" lon="-1.955764"><ele>460</ele><time>2020-09-24T11:23:15Z</time><name>PT1948</name></trkpt>
<trkpt lat="53.531751" lon="-1.955802"><ele>460</ele><time>2020-09-24T11:23:19Z</time><name>PT1949</name></trkpt>
<trkpt lat="53.531760" lon="-1.955836"><ele>460</ele><time>2020-09-24T11:23:23Z</time><name>PT1950</name></trkpt>
<trkpt lat="53.531780" lon="-1.955859"><ele>460</ele><time>2020-09-24T11:23:27Z</time><name>PT1951</name></trkpt>
<trkpt lat="53.531807" lon="-1.955898"><ele>460</ele><time>2020-09-24T11:23:31Z</time><name>PT1952</name></trkpt>
<trkpt lat="53.531840" lon="-1.955940"><ele>461</ele><time>2020-09-24T11:23:35Z</time><name>PT1953</name></trkpt>
<trkpt lat="53.531860" lon="-1.955982"><ele>461</ele><time>2020-09-24T11:23:39Z</time><name>PT1954</name></trkpt>
<trkpt lat="53.531890" lon="-1.956020"><ele>462</ele><time>2020-09-24T11:23:43Z</time><name>PT1955</name></trkpt>
<trkpt lat="53.531920" lon="-1.956029"><ele>461</ele><time>2020-09-24T11:23:47Z</time><name>PT1956</name></trkpt>
<trkpt lat="53.531958" lon="-1.956046"><ele>461</ele><time>2020-09-24T11:23:51Z</time><name>PT1957</name></trkpt>
<trkpt lat="53.531995" lon="-1.956066"><ele>463</ele><time>2020-09-24T11:23:55Z</time><name>PT1958</name></trkpt>
<trkpt lat="53.532032" lon="-1.956090"><ele>463</ele><time>2020-09-24T11:23:59Z</time><name>PT1959</name></trkpt>
<trkpt lat="53.532069" lon="-1.956122"><ele>462</ele><time>2020-09-24T11:24:03Z</time><name>PT1960</name></trkpt>
<trkpt lat="53.532105" lon="-1.956146"><ele>462</ele><time>2020-09-24T11:24:07Z</time><name>PT1961</name></trkpt>
<trkpt lat="53.532151" lon="-1.956177"><ele>462</ele><time>2020-09-24T11:24:11Z</time><name>PT1962</name></trkpt>
<trkpt lat="53.532189" lon="-1.956203"><ele>461</ele><time>2020-09-24T11:24:15Z</time><name>PT1963</name></trkpt>
<trkpt lat="53.532228" lon="-1.956234"><ele>462</ele><time>2020-09-24T11:24:19Z</time><name>PT1964</name></trkpt>
<trkpt lat="53.532262" lon="-1.956273"><ele>462</ele><time>2020-09-24T11:24:23Z</time><name>PT1965</name></trkpt>
<trkpt lat="53.532301" lon="-1.956309"><ele>463</ele><time>2020-09-24T11:24:27Z</time><name>PT1966</name></trkpt>
<trkpt lat="53.532338" lon="-1.956344"><ele>463</ele><time>2020-09-24T11:24:31Z</time><name>PT1967</name></trkpt>
<trkpt lat="53.532365" lon="-1.956382"><ele>463</ele><time>2020-09-24T11:24:35Z</time><name>PT1968</name></trkpt>
<trkpt lat="53.532403" lon="-1.956428"><ele>463</ele><time>2020-09-24T11:24:39Z</time><name>PT1969</name></trkpt>
<trkpt lat="53.532439" lon="-1.956459"><ele>462</ele><time>2020-09-24T11:24:43Z</time><name>PT1970</name></trkpt>
<trkpt lat="53.532476" lon="-1.956480"><ele>463</ele><time>2020-09-24T11:24:47Z</time><name>PT1971</name></trkpt>
<trkpt lat="53.532501" lon="-1.956528"><ele>462</ele><time>2020-09-24T11:24:51Z</time><name>PT1972</name></trkpt>
<trkpt lat="53.532526" lon="-1.956561"><ele>462</ele><time>2020-09-24T11:24:55Z</time><name>PT1973</name></trkpt>
<trkpt lat="53.532555" lon="-1.956593"><ele>463</ele><time>2020-09-24T11:24:59Z</time><name>PT1974</name></trkpt>
<trkpt lat="53.532589" lon="-1.956624"><ele>462</ele><time>2020-09-24T11:25:03Z</time><name>PT1975</name></trkpt>
<trkpt lat="53.532616" lon="-1.956640"><ele>461</ele><time>2020-09-24T11:25:07Z</time><name>PT1976</name></trkpt>
<trkpt lat="53.532652" lon="-1.956664"><ele>462</ele><time>2020-09-24T11:25:11Z</time><name>PT1977</name></trkpt>
<trkpt lat="53.532691" lon="-1.956698"><ele>461</ele><time>2020-09-24T11:25:15Z</time><name>PT1978</name></trkpt>
<trkpt lat="53.532725" lon="-1.956736"><ele>461</ele><time>2020-09-24T11:25:19Z</time><name>PT1979</name></trkpt>
<trkpt lat="53.532746" lon="-1.956790"><ele>462</ele><time>2020-09-24T11:25:23Z</time><name>PT1980</name></trkpt>
<trkpt lat="53.532768" lon="-1.956844"><ele>462</ele><time>2020-09-24T11:25:27Z</time><name>PT1981</name></trkpt>
<trkpt lat="53.532792" lon="-1.956897"><ele>462</ele><time>2020-09-24T11:25:31Z</time><name>PT1982</name></trkpt>
<trkpt lat="53.532822" lon="-1.956942"><ele>462</ele><time>2020-09-24T11:25:35Z</time><name>PT1983</name></trkpt>
<trkpt lat="53.532861" lon="-1.956993"><ele>462</ele><time>2020-09-24T11:25:39Z</time><name>PT1984</name></trkpt>
<trkpt lat="53.532898" lon="-1.957049"><ele>463</ele><time>2020-09-24T11:25:43Z</time><name>PT1985</name></trkpt>
<trkpt lat="53.532930" lon="-1.957109"><ele>463</ele><time>2020-09-24T11:25:47Z</time><name>PT1986</name></trkpt>
<trkpt lat="53.532956" lon="-1.957159"><ele>463</ele><time>2020-09-24T11:25:51Z</time><name>PT1987</name></trkpt>
<trkpt lat="53.532979" lon="-1.957210"><ele>463</ele><time>2020-09-24T11:25:55Z</time><name>PT1988</name></trkpt>
<trkpt lat="53.532993" lon="-1.957275"><ele>464</ele><time>2020-09-24T11:25:59Z</time><name>PT1989</name></trkpt>
<trkpt lat="53.533004" lon="-1.957336"><ele>464</ele><time>2020-09-24T11:26:03Z</time><name>PT1990</name></trkpt>
<trkpt lat="53.533016" lon="-1.957420"><ele>464</ele><time>2020-09-24T11:26:07Z</time><name>PT1991</name></trkpt>
<trkpt lat="53.533025" lon="-1.957497"><ele>464</ele><time>2020-09-24T11:26:11Z</time><name>PT1992</name></trkpt>
<trkpt lat="53.533049" lon="-1.957557"><ele>464</ele><time>2020-09-24T11:26:15Z</time><name>PT1993</name></trkpt>
<trkpt lat="53.533074" lon="-1.957614"><ele>463</ele><time>2020-09-24T11:26:19Z</time><name>PT1994</name></trkpt>
<trkpt lat="53.533088" lon="-1.957690"><ele>463</ele><time>2020-09-24T11:26:23Z</time><name>PT1995</name></trkpt>
<trkpt lat="53.533089" lon="-1.957755"><ele>463</ele><time>2020-09-24T11:26:27Z</time><name>PT1996</name></trkpt>
<trkpt lat="53.533074" lon="-1.957815"><ele>464</ele><time>2020-09-24T11:26:31Z</time><name>PT1997</name></trkpt>
<trkpt lat="53.533066" lon="-1.957876"><ele>464</ele><time>2020-09-24T11:26:35Z</time><name>PT1998</name></trkpt>
<trkpt lat="53.533057" lon="-1.957934"><ele>464</ele><time>2020-09-24T11:26:39Z</time><name>PT1999</name></trkpt>
<trkpt lat="53.533052" lon="-1.958010"><ele>465</ele><time>2020-09-24T11:26:43Z</time><name>PT2000</name></trkpt>
<trkpt lat="53.533051" lon="-1.958075"><ele>464</ele><time>2020-09-24T11:26:47Z</time><name>PT2001</name></trkpt>
<trkpt lat="53.533050" lon="-1.958144"><ele>464</ele><time>2020-09-24T11:26:51Z</time><name>PT2002</name></trkpt>
<trkpt lat="53.533049" lon="-1.958216"><ele>463</ele><time>2020-09-24T11:26:55Z</time><name>PT2003</name></trkpt>
<trkpt lat="53.533045" lon="-1.958297"><ele>463</ele><time>2020-09-24T11:26:59Z</time><name>PT2004</name></trkpt>
<trkpt lat="53.533045" lon="-1.958336"><ele>463</ele><time>2020-09-24T11:27:03Z</time><name>PT2005</name></trkpt>
<trkpt lat="53.533042" lon="-1.958353"><ele>463</ele><time>2020-09-24T11:27:07Z</time><name>PT2006</name></trkpt>
<trkpt lat="53.533038" lon="-1.958400"><ele>463</ele><time>2020-09-24T11:27:11Z</time><name>PT2007</name></trkpt>
<trkpt lat="53.533026" lon="-1.958465"><ele>462</ele><time>2020-09-24T11:27:15Z</time><name>PT2008</name></trkpt>
<trkpt lat="53.533005" lon="-1.958524"><ele>462</ele><time>2020-09-24T11:27:19Z</time><name>PT2009</name></trkpt>
<trkpt lat="53.532983" lon="-1.958588"><ele>463</ele><time>2020-09-24T11:27:23Z</time><name>PT2010</name></trkpt>
<trkpt lat="53.532962" lon="-1.958647"><ele>463</ele><time>2020-09-24T11:27:27Z</time><name>PT2011</name></trkpt>
<trkpt lat="53.532946" lon="-1.958708"><ele>464</ele><time>2020-09-24T11:27:31Z</time><name>PT2012</name></trkpt>
<trkpt lat="53.532930" lon="-1.958762"><ele>464</ele><time>2020-09-24T11:27:35Z</time><name>PT2013</name></trkpt>
<trkpt lat="53.532920" lon="-1.958807"><ele>464</ele><time>2020-09-24T11:27:39Z</time><name>PT2014</name></trkpt>
<trkpt lat="53.532910" lon="-1.958852"><ele>464</ele><time>2020-09-24T11:27:43Z</time><name>PT2015</name></trkpt>
<trkpt lat="53.532892" lon="-1.958908"><ele>464</ele><time>2020-09-24T11:27:47Z</time><name>PT2016</name></trkpt>
<trkpt lat="53.532866" lon="-1.958957"><ele>464</ele><time>2020-09-24T11:27:51Z</time><name>PT2017</name></trkpt>
<trkpt lat="53.532841" lon="-1.959032"><ele>464</ele><time>2020-09-24T11:27:55Z</time><name>PT2018</name></trkpt>
<trkpt lat="53.532818" lon="-1.959092"><ele>465</ele><time>2020-09-24T11:27:59Z</time><name>PT2019</name></trkpt>
<trkpt lat="53.532791" lon="-1.959143"><ele>465</ele><time>2020-09-24T11:28:03Z</time><name>PT2020</name></trkpt>
<trkpt lat="53.532770" lon="-1.959190"><ele>465</ele><time>2020-09-24T11:28:07Z</time><name>PT2021</name></trkpt>
<trkpt lat="53.532751" lon="-1.959248"><ele>464</ele><time>2020-09-24T11:28:11Z</time><name>PT2022</name></trkpt>
<trkpt lat="53.532736" lon="-1.959312"><ele>464</ele><time>2020-09-24T11:28:15Z</time><name>PT2023</name></trkpt>
<trkpt lat="53.532713" lon="-1.959379"><ele>463</ele><time>2020-09-24T11:28:19Z</time><name>PT2024</name></trkpt>
<trkpt lat="53.532689" lon="-1.959435"><ele>464</ele><time>2020-09-24T11:28:23Z</time><name>PT2025</name></trkpt>
<trkpt lat="53.532684" lon="-1.959454"><ele>464</ele><time>2020-09-24T11:28:27Z</time><name>PT2026</name></trkpt>
<trkpt lat="53.532668" lon="-1.959500"><ele>464</ele><time>2020-09-24T11:28:35Z</time><name>PT2027</name></trkpt>
<trkpt lat="53.532640" lon="-1.959566"><ele>463</ele><time>2020-09-24T11:28:39Z</time><name>PT2028</name></trkpt>
<trkpt lat="53.532614" lon="-1.959638"><ele>465</ele><time>2020-09-24T11:28:43Z</time><name>PT2029</name></trkpt>
<trkpt lat="53.532585" lon="-1.959701"><ele>465</ele><time>2020-09-24T11:28:47Z</time><name>PT2030</name></trkpt>
<trkpt lat="53.532558" lon="-1.959712"><ele>466</ele><time>2020-09-24T11:28:50Z</time><name>PT2031</name></trkpt>
<trkpt lat="53.532523" lon="-1.959746"><ele>466</ele><time>2020-09-24T11:28:54Z</time><name>PT2032</name></trkpt>
<trkpt lat="53.532483" lon="-1.959773"><ele>466</ele><time>2020-09-24T11:28:58Z</time><name>PT2033</name></trkpt>
<trkpt lat="53.532462" lon="-1.959819"><ele>466</ele><time>2020-09-24T11:29:02Z</time><name>PT2034</name></trkpt>
<trkpt lat="53.532440" lon="-1.959848"><ele>467</ele><time>2020-09-24T11:29:06Z</time><name>PT2035</name></trkpt>
<trkpt lat="53.532420" lon="-1.959880"><ele>467</ele><time>2020-09-24T11:29:10Z</time><name>PT2036</name></trkpt>
<trkpt lat="53.532399" lon="-1.959926"><ele>467</ele><time>2020-09-24T11:29:14Z</time><name>PT2037</name></trkpt>
<trkpt lat="53.532374" lon="-1.959972"><ele>467</ele><time>2020-09-24T11:29:18Z</time><name>PT2038</name></trkpt>
<trkpt lat="53.532359" lon="-1.960018"><ele>467</ele><time>2020-09-24T11:29:21Z</time><name>PT2039</name></trkpt>
<trkpt lat="53.532328" lon="-1.960067"><ele>467</ele><time>2020-09-24T11:29:25Z</time><name>PT2040</name></trkpt>
<trkpt lat="53.532296" lon="-1.960113"><ele>467</ele><time>2020-09-24T11:29:29Z</time><name>PT2041</name></trkpt>
<trkpt lat="53.532261" lon="-1.960142"><ele>466</ele><time>2020-09-24T11:29:33Z</time><name>PT2042</name></trkpt>
<trkpt lat="53.532224" lon="-1.960169"><ele>466</ele><time>2020-09-24T11:29:37Z</time><name>PT2043</name></trkpt>
<trkpt lat="53.532203" lon="-1.960228"><ele>466</ele><time>2020-09-24T11:29:41Z</time><name>PT2044</name></trkpt>
<trkpt lat="53.532181" lon="-1.960267"><ele>467</ele><time>2020-09-24T11:29:45Z</time><name>PT2045</name></trkpt>
<trkpt lat="53.532171" lon="-1.960315"><ele>466</ele><time>2020-09-24T11:29:49Z</time><name>PT2046</name></trkpt>
<trkpt lat="53.532186" lon="-1.960348"><ele>465</ele><time>2020-09-24T11:29:53Z</time><name>PT2047</name></trkpt>
<trkpt lat="53.532197" lon="-1.960393"><ele>464</ele><time>2020-09-24T11:29:57Z</time><name>PT2048</name></trkpt>
<trkpt lat="53.532195" lon="-1.960437"><ele>463</ele><time>2020-09-24T11:30:01Z</time><name>PT2049</name></trkpt>
<trkpt lat="53.532213" lon="-1.960492"><ele>462</ele><time>2020-09-24T11:30:05Z</time><name>PT2050</name></trkpt>
<trkpt lat="53.532228" lon="-1.960555"><ele>461</ele><time>2020-09-24T11:30:09Z</time><name>PT2051</name></trkpt>
<trkpt lat="53.532217" lon="-1.960629"><ele>461</ele><time>2020-09-24T11:30:13Z</time><name>PT2052</name></trkpt>
<trkpt lat="53.532210" lon="-1.960702"><ele>461</ele><time>2020-09-24T11:30:17Z</time><name>PT2053</name></trkpt>
<trkpt lat="53.532199" lon="-1.960793"><ele>463</ele><time>2020-09-24T11:30:21Z</time><name>PT2054</name></trkpt>
<trkpt lat="53.532194" lon="-1.960873"><ele>464</ele><time>2020-09-24T11:30:25Z</time><name>PT2055</name></trkpt>
<trkpt lat="53.532196" lon="-1.960938"><ele>463</ele><time>2020-09-24T11:30:29Z</time><name>PT2056</name></trkpt>
<trkpt lat="53.532198" lon="-1.961017"><ele>463</ele><time>2020-09-24T11:30:33Z</time><name>PT2057</name></trkpt>
<trkpt lat="53.532184" lon="-1.961089"><ele>464</ele><time>2020-09-24T11:30:37Z</time><name>PT2058</name></trkpt>
<trkpt lat="53.532175" lon="-1.961154"><ele>463</ele><time>2020-09-24T11:30:41Z</time><name>PT2059</name></trkpt>
<trkpt lat="53.532155" lon="-1.961211"><ele>464</ele><time>2020-09-24T11:30:45Z</time><name>PT2060</name></trkpt>
<trkpt lat="53.532125" lon="-1.961227"><ele>464</ele><time>2020-09-24T11:30:49Z</time><name>PT2061</name></trkpt>
<trkpt lat="53.532096" lon="-1.961234"><ele>463</ele><time>2020-09-24T11:30:53Z</time><name>PT2062</name></trkpt>
<trkpt lat="53.532075" lon="-1.961266"><ele>463</ele><time>2020-09-24T11:30:57Z</time><name>PT2063</name></trkpt>
<trkpt lat="53.532061" lon="-1.961295"><ele>463</ele><time>2020-09-24T11:31:01Z</time><name>PT2064</name></trkpt>
<trkpt lat="53.532059" lon="-1.961303"><ele>463</ele><time>2020-09-24T11:31:05Z</time><name>PT2065</name></trkpt>
<trkpt lat="53.532046" lon="-1.961307"><ele>463</ele><time>2020-09-24T11:31:13Z</time><name>PT2066</name></trkpt>
<trkpt lat="53.532038" lon="-1.961328"><ele>461</ele><time>2020-09-24T11:31:17Z</time><name>PT2067</name></trkpt>
<trkpt lat="53.532027" lon="-1.961375"><ele>460</ele><time>2020-09-24T11:31:21Z</time><name>PT2068</name></trkpt>
<trkpt lat="53.532018" lon="-1.961392"><ele>461</ele><time>2020-09-24T11:31:25Z</time><name>PT2069</name></trkpt>
<trkpt lat="53.532017" lon="-1.961394"><ele>461</ele><time>2020-09-24T11:31:29Z</time><name>PT2070</name></trkpt>
<trkpt lat="53.532001" lon="-1.961404"><ele>461</ele><time>2020-09-24T11:31:48Z</time><name>PT2071</name></trkpt>
<trkpt lat="53.531997" lon="-1.961408"><ele>461</ele><time>2020-09-24T11:31:52Z</time><name>PT2072</name></trkpt>
<trkpt lat="53.531992" lon="-1.961425"><ele>462</ele><time>2020-09-24T11:32:55Z</time><name>PT2073</name></trkpt>
<trkpt lat="53.531980" lon="-1.961465"><ele>461</ele><time>2020-09-24T11:32:59Z</time><name>PT2074</name></trkpt>
<trkpt lat="53.531970" lon="-1.961508"><ele>461</ele><time>2020-09-24T11:33:03Z</time><name>PT2075</name></trkpt>
<trkpt lat="53.531978" lon="-1.961539"><ele>461</ele><time>2020-09-24T11:33:07Z</time><name>PT2076</name></trkpt>
<trkpt lat="53.531970" lon="-1.961579"><ele>461</ele><time>2020-09-24T11:33:11Z</time><name>PT2077</name></trkpt>
<trkpt lat="53.531965" lon="-1.961622"><ele>463</ele><time>2020-09-24T11:33:15Z</time><name>PT2078</name></trkpt>
<trkpt lat="53.531967" lon="-1.961637"><ele>461</ele><time>2020-09-24T11:33:19Z</time><name>PT2079</name></trkpt>
<trkpt lat="53.531965" lon="-1.961642"><ele>462</ele><time>2020-09-24T11:33:23Z</time><name>PT2080</name></trkpt>
<trkpt lat="53.531962" lon="-1.961650"><ele>462</ele><time>2020-09-24T11:33:35Z</time><name>PT2081</name></trkpt>
<trkpt lat="53.531959" lon="-1.961647"><ele>462</ele><time>2020-09-24T11:33:39Z</time><name>PT2082</name></trkpt>
<trkpt lat="53.531955" lon="-1.961634"><ele>462</ele><time>2020-09-24T11:33:43Z</time><name>PT2083</name></trkpt>
<trkpt lat="53.531953" lon="-1.961631"><ele>462</ele><time>2020-09-24T11:33:47Z</time><name>PT2084</name></trkpt>
<trkpt lat="53.531952" lon="-1.961621"><ele>462</ele><time>2020-09-24T11:33:50Z</time><name>PT2085</name></trkpt>
<trkpt lat="53.531954" lon="-1.961598"><ele>461</ele><time>2020-09-24T11:33:54Z</time><name>PT2086</name></trkpt>
<trkpt lat="53.531953" lon="-1.961581"><ele>461</ele><time>2020-09-24T11:33:58Z</time><name>PT2087</name></trkpt>
<trkpt lat="53.531951" lon="-1.961577"><ele>461</ele><time>2020-09-24T11:34:01Z</time><name>PT2088</name></trkpt>
<trkpt lat="53.531953" lon="-1.961575"><ele>461</ele><time>2020-09-24T11:34:05Z</time><name>PT2089</name></trkpt>
<trkpt lat="53.531966" lon="-1.961573"><ele>461</ele><time>2020-09-24T11:34:09Z</time><name>PT2090</name></trkpt>
<trkpt lat="53.531977" lon="-1.961603"><ele>460</ele><time>2020-09-24T11:34:13Z</time><name>PT2091</name></trkpt>
<trkpt lat="53.531986" lon="-1.961618"><ele>460</ele><time>2020-09-24T11:34:17Z</time><name>PT2092</name></trkpt>
<trkpt lat="53.531988" lon="-1.961626"><ele>460</ele><time>2020-09-24T11:34:21Z</time><name>PT2093</name></trkpt>
<trkpt lat="53.531985" lon="-1.961626"><ele>460</ele><time>2020-09-24T11:34:25Z</time><name>PT2094</name></trkpt>
<trkpt lat="53.531993" lon="-1.961622"><ele>460</ele><time>2020-09-24T11:34:33Z</time><name>PT2095</name></trkpt>
<trkpt lat="53.532020" lon="-1.961618"><ele>460</ele><time>2020-09-24T11:34:37Z</time><name>PT2096</name></trkpt>
<trkpt lat="53.532036" lon="-1.961628"><ele>460</ele><time>2020-09-24T11:34:41Z</time><name>PT2097</name></trkpt>
<trkpt lat="53.532034" lon="-1.961634"><ele>459</ele><time>2020-09-24T11:34:45Z</time><name>PT2098</name></trkpt>
<trkpt lat="53.532033" lon="-1.961634"><ele>460</ele><time>2020-09-24T11:34:49Z</time><name>PT2099</name></trkpt>
<trkpt lat="53.532029" lon="-1.961638"><ele>460</ele><time>2020-09-24T11:37:20Z</time><name>PT2100</name></trkpt>
<trkpt lat="53.532027" lon="-1.961642"><ele>459</ele><time>2020-09-24T11:37:24Z</time><name>PT2101</name></trkpt>
<trkpt lat="53.532027" lon="-1.961643"><ele>460</ele><time>2020-09-24T11:38:36Z</time><name>PT2102</name></trkpt>
<trkpt lat="53.532025" lon="-1.961644"><ele>460</ele><time>2020-09-24T11:38:40Z</time><name>PT2103</name></trkpt>
<trkpt lat="53.532026" lon="-1.961643"><ele>460</ele><time>2020-09-24T11:39:08Z</time><name>PT2104</name></trkpt>
<trkpt lat="53.532023" lon="-1.961639"><ele>460</ele><time>2020-09-24T11:42:39Z</time><name>PT2105</name></trkpt>
<trkpt lat="53.532023" lon="-1.961638"><ele>460</ele><time>2020-09-24T11:42:43Z</time><name>PT2106</name></trkpt>
<trkpt lat="53.532026" lon="-1.961639"><ele>461</ele><time>2020-09-24T11:43:23Z</time><name>PT2107</name></trkpt>
<trkpt lat="53.532024" lon="-1.961632"><ele>461</ele><time>2020-09-24T11:49:25Z</time><name>PT2108</name></trkpt>
<trkpt lat="53.532025" lon="-1.961613"><ele>461</ele><time>2020-09-24T11:49:29Z</time><name>PT2109</name></trkpt>
<trkpt lat="53.532016" lon="-1.961599"><ele>462</ele><time>2020-09-24T11:49:37Z</time><name>PT2110</name></trkpt>
<trkpt lat="53.532011" lon="-1.961589"><ele>462</ele><time>2020-09-24T11:49:41Z</time><name>PT2111</name></trkpt>
<trkpt lat="53.532012" lon="-1.961591"><ele>461</ele><time>2020-09-24T11:49:45Z</time><name>PT2112</name></trkpt>
<trkpt lat="53.532013" lon="-1.961583"><ele>462</ele><time>2020-09-24T11:50:17Z</time><name>PT2113</name></trkpt>
<trkpt lat="53.532007" lon="-1.961580"><ele>462</ele><time>2020-09-24T11:50:21Z</time><name>PT2114</name></trkpt>
<trkpt lat="53.532001" lon="-1.961573"><ele>462</ele><time>2020-09-24T11:50:25Z</time><name>PT2115</name></trkpt>
<trkpt lat="53.531988" lon="-1.961543"><ele>460</ele><time>2020-09-24T11:50:29Z</time><name>PT2116</name></trkpt>
<trkpt lat="53.531985" lon="-1.961533"><ele>460</ele><time>2020-09-24T11:50:33Z</time><name>PT2117</name></trkpt>
<trkpt lat="53.531964" lon="-1.961508"><ele>461</ele><time>2020-09-24T11:50:37Z</time><name>PT2118</name></trkpt>
<trkpt lat="53.531955" lon="-1.961475"><ele>462</ele><time>2020-09-24T11:50:41Z</time><name>PT2119</name></trkpt>
<trkpt lat="53.531958" lon="-1.961429"><ele>463</ele><time>2020-09-24T11:50:45Z</time><name>PT2120</name></trkpt>
<trkpt lat="53.531949" lon="-1.961391"><ele>463</ele><time>2020-09-24T11:50:49Z</time><name>PT2121</name></trkpt>
<trkpt lat="53.531947" lon="-1.961375"><ele>464</ele><time>2020-09-24T11:50:53Z</time><name>PT2122</name></trkpt>
<trkpt lat="53.531935" lon="-1.961356"><ele>464</ele><time>2020-09-24T11:51:00Z</time><name>PT2123</name></trkpt>
<trkpt lat="53.531902" lon="-1.961350"><ele>463</ele><time>2020-09-24T11:51:04Z</time><name>PT2124</name></trkpt>
<trkpt lat="53.531867" lon="-1.961342"><ele>463</ele><time>2020-09-24T11:51:08Z</time><name>PT2125</name></trkpt>
<trkpt lat="53.531842" lon="-1.961365"><ele>462</ele><time>2020-09-24T11:51:11Z</time><name>PT2126</name></trkpt>
<trkpt lat="53.531809" lon="-1.961385"><ele>462</ele><time>2020-09-24T11:51:15Z</time><name>PT2127</name></trkpt>
<trkpt lat="53.531784" lon="-1.961396"><ele>462</ele><time>2020-09-24T11:51:19Z</time><name>PT2128</name></trkpt>
<trkpt lat="53.531782" lon="-1.961388"><ele>462</ele><time>2020-09-24T11:51:23Z</time><name>PT2129</name></trkpt>
<trkpt lat="53.531756" lon="-1.961399"><ele>461</ele><time>2020-09-24T11:51:27Z</time><name>PT2130</name></trkpt>
<trkpt lat="53.531726" lon="-1.961445"><ele>460</ele><time>2020-09-24T11:51:31Z</time><name>PT2131</name></trkpt>
<trkpt lat="53.531701" lon="-1.961494"><ele>461</ele><time>2020-09-24T11:51:35Z</time><name>PT2132</name></trkpt>
<trkpt lat="53.531676" lon="-1.961543"><ele>460</ele><time>2020-09-24T11:51:39Z</time><name>PT2133</name></trkpt>
<trkpt lat="53.531646" lon="-1.961595"><ele>460</ele><time>2020-09-24T11:51:43Z</time><name>PT2134</name></trkpt>
<trkpt lat="53.531631" lon="-1.961630"><ele>460</ele><time>2020-09-24T11:51:47Z</time><name>PT2135</name></trkpt>
<trkpt lat="53.531614" lon="-1.961683"><ele>460</ele><time>2020-09-24T11:51:51Z</time><name>PT2136</name></trkpt>
<trkpt lat="53.531599" lon="-1.961747"><ele>460</ele><time>2020-09-24T11:51:55Z</time><name>PT2137</name></trkpt>
<trkpt lat="53.531595" lon="-1.961803"><ele>459</ele><time>2020-09-24T11:51:59Z</time><name>PT2138</name></trkpt>
<trkpt lat="53.531574" lon="-1.961869"><ele>458</ele><time>2020-09-24T11:52:03Z</time><name>PT2139</name></trkpt>
<trkpt lat="53.531556" lon="-1.961937"><ele>458</ele><time>2020-09-24T11:52:07Z</time><name>PT2140</name></trkpt>
<trkpt lat="53.531531" lon="-1.961986"><ele>458</ele><time>2020-09-24T11:52:11Z</time><name>PT2141</name></trkpt>
<trkpt lat="53.531515" lon="-1.962052"><ele>457</ele><time>2020-09-24T11:52:15Z</time><name>PT2142</name></trkpt>
<trkpt lat="53.531488" lon="-1.962108"><ele>457</ele><time>2020-09-24T11:52:19Z</time><name>PT2143</name></trkpt>
<trkpt lat="53.531458" lon="-1.962174"><ele>457</ele><time>2020-09-24T11:52:23Z</time><name>PT2144</name></trkpt>
<trkpt lat="53.531425" lon="-1.962234"><ele>457</ele><time>2020-09-24T11:52:27Z</time><name>PT2145</name></trkpt>
<trkpt lat="53.531400" lon="-1.962277"><ele>456</ele><time>2020-09-24T11:52:31Z</time><name>PT2146</name></trkpt>
<trkpt lat="53.531372" lon="-1.962340"><ele>456</ele><time>2020-09-24T11:52:35Z</time><name>PT2147</name></trkpt>
<trkpt lat="53.531340" lon="-1.962390"><ele>456</ele><time>2020-09-24T11:52:39Z</time><name>PT2148</name></trkpt>
<trkpt lat="53.531301" lon="-1.962442"><ele>456</ele><time>2020-09-24T11:52:43Z</time><name>PT2149</name></trkpt>
<trkpt lat="53.531270" lon="-1.962488"><ele>455</ele><time>2020-09-24T11:52:47Z</time><name>PT2150</name></trkpt>
<trkpt lat="53.531234" lon="-1.962543"><ele>455</ele><time>2020-09-24T11:52:51Z</time><name>PT2151</name></trkpt>
<trkpt lat="53.531194" lon="-1.962576"><ele>454</ele><time>2020-09-24T11:52:55Z</time><name>PT2152</name></trkpt>
<trkpt lat="53.531155" lon="-1.962595"><ele>454</ele><time>2020-09-24T11:52:59Z</time><name>PT2153</name></trkpt>
<trkpt lat="53.531112" lon="-1.962611"><ele>454</ele><time>2020-09-24T11:53:03Z</time><name>PT2154</name></trkpt>
<trkpt lat="53.531069" lon="-1.962618"><ele>455</ele><time>2020-09-24T11:53:07Z</time><name>PT2155</name></trkpt>
<trkpt lat="53.531025" lon="-1.962620"><ele>456</ele><time>2020-09-24T11:53:11Z</time><name>PT2156</name></trkpt>
<trkpt lat="53.530989" lon="-1.962622"><ele>456</ele><time>2020-09-24T11:53:15Z</time><name>PT2157</name></trkpt>
<trkpt lat="53.530959" lon="-1.962624"><ele>456</ele><time>2020-09-24T11:53:19Z</time><name>PT2158</name></trkpt>
<trkpt lat="53.530915" lon="-1.962638"><ele>456</ele><time>2020-09-24T11:53:23Z</time><name>PT2159</name></trkpt>
<trkpt lat="53.530874" lon="-1.962659"><ele>456</ele><time>2020-09-24T11:53:27Z</time><name>PT2160</name></trkpt>
<trkpt lat="53.530837" lon="-1.962684"><ele>456</ele><time>2020-09-24T11:53:31Z</time><name>PT2161</name></trkpt>
<trkpt lat="53.530802" lon="-1.962707"><ele>456</ele><time>2020-09-24T11:53:35Z</time><name>PT2162</name></trkpt>
<trkpt lat="53.530764" lon="-1.962729"><ele>456</ele><time>2020-09-24T11:53:39Z</time><name>PT2163</name></trkpt>
<trkpt lat="53.530722" lon="-1.962762"><ele>456</ele><time>2020-09-24T11:53:43Z</time><name>PT2164</name></trkpt>
<trkpt lat="53.530685" lon="-1.962808"><ele>456</ele><time>2020-09-24T11:53:47Z</time><name>PT2165</name></trkpt>
<trkpt lat="53.530645" lon="-1.962848"><ele>457</ele><time>2020-09-24T11:53:51Z</time><name>PT2166</name></trkpt>
<trkpt lat="53.530607" lon="-1.962879"><ele>457</ele><time>2020-09-24T11:53:55Z</time><name>PT2167</name></trkpt>
<trkpt lat="53.530574" lon="-1.962903"><ele>457</ele><time>2020-09-24T11:53:59Z</time><name>PT2168</name></trkpt>
<trkpt lat="53.530541" lon="-1.962920"><ele>457</ele><time>2020-09-24T11:54:03Z</time><name>PT2169</name></trkpt>
<trkpt lat="53.530510" lon="-1.962922"><ele>457</ele><time>2020-09-24T11:54:07Z</time><name>PT2170</name></trkpt>
<trkpt lat="53.530473" lon="-1.962923"><ele>458</ele><time>2020-09-24T11:54:11Z</time><name>PT2171</name></trkpt>
<trkpt lat="53.530430" lon="-1.962934"><ele>459</ele><time>2020-09-24T11:54:15Z</time><name>PT2172</name></trkpt>
<trkpt lat="53.530390" lon="-1.962955"><ele>460</ele><time>2020-09-24T11:54:19Z</time><name>PT2173</name></trkpt>
<trkpt lat="53.530351" lon="-1.962986"><ele>460</ele><time>2020-09-24T11:54:23Z</time><name>PT2174</name></trkpt>
<trkpt lat="53.530313" lon="-1.963005"><ele>460</ele><time>2020-09-24T11:54:27Z</time><name>PT2175</name></trkpt>
<trkpt lat="53.530273" lon="-1.963025"><ele>461</ele><time>2020-09-24T11:54:31Z</time><name>PT2176</name></trkpt>
<trkpt lat="53.530233" lon="-1.963049"><ele>461</ele><time>2020-09-24T11:54:35Z</time><name>PT2177</name></trkpt>
<trkpt lat="53.530205" lon="-1.963062"><ele>461</ele><time>2020-09-24T11:54:38Z</time><name>PT2178</name></trkpt>
<trkpt lat="53.530174" lon="-1.963071"><ele>460</ele><time>2020-09-24T11:54:42Z</time><name>PT2179</name></trkpt>
<trkpt lat="53.530148" lon="-1.963082"><ele>461</ele><time>2020-09-24T11:54:46Z</time><name>PT2180</name></trkpt>
<trkpt lat="53.530117" lon="-1.963091"><ele>462</ele><time>2020-09-24T11:54:50Z</time><name>PT2181</name></trkpt>
<trkpt lat="53.530093" lon="-1.963102"><ele>462</ele><time>2020-09-24T11:54:54Z</time><name>PT2182</name></trkpt>
<trkpt lat="53.530080" lon="-1.963115"><ele>463</ele><time>2020-09-24T11:54:58Z</time><name>PT2183</name></trkpt>
<trkpt lat="53.530078" lon="-1.963110"><ele>463</ele><time>2020-09-24T11:55:10Z</time><name>PT2184</name></trkpt>
<trkpt lat="53.530079" lon="-1.963118"><ele>462</ele><time>2020-09-24T11:55:14Z</time><name>PT2185</name></trkpt>
<trkpt lat="53.530050" lon="-1.963137"><ele>463</ele><time>2020-09-24T11:55:18Z</time><name>PT2186</name></trkpt>
<trkpt lat="53.530021" lon="-1.963138"><ele>462</ele><time>2020-09-24T11:55:22Z</time><name>PT2187</name></trkpt>
<trkpt lat="53.530013" lon="-1.963113"><ele>461</ele><time>2020-09-24T11:55:26Z</time><name>PT2188</name></trkpt>
<trkpt lat="53.529983" lon="-1.963107"><ele>461</ele><time>2020-09-24T11:55:30Z</time><name>PT2189</name></trkpt>
<trkpt lat="53.529958" lon="-1.963102"><ele>461</ele><time>2020-09-24T11:55:33Z</time><name>PT2190</name></trkpt>
<trkpt lat="53.529929" lon="-1.963092"><ele>462</ele><time>2020-09-24T11:55:37Z</time><name>PT2191</name></trkpt>
<trkpt lat="53.529895" lon="-1.963089"><ele>465</ele><time>2020-09-24T11:55:41Z</time><name>PT2192</name></trkpt>
<trkpt lat="53.529870" lon="-1.963067"><ele>465</ele><time>2020-09-24T11:55:53Z</time><name>PT2193</name></trkpt>
<trkpt lat="53.529829" lon="-1.963045"><ele>465</ele><time>2020-09-24T11:55:57Z</time><name>PT2194</name></trkpt>
<trkpt lat="53.529790" lon="-1.963022"><ele>465</ele><time>2020-09-24T11:56:01Z</time><name>PT2195</name></trkpt>
<trkpt lat="53.529746" lon="-1.963002"><ele>465</ele><time>2020-09-24T11:56:05Z</time><name>PT2196</name></trkpt>
<trkpt lat="53.529712" lon="-1.962989"><ele>463</ele><time>2020-09-24T11:56:09Z</time><name>PT2197</name></trkpt>
<trkpt lat="53.529666" lon="-1.962983"><ele>462</ele><time>2020-09-24T11:56:13Z</time><name>PT2198</name></trkpt>
<trkpt lat="53.529632" lon="-1.962974"><ele>461</ele><time>2020-09-24T11:56:17Z</time><name>PT2199</name></trkpt>
<trkpt lat="53.529625" lon="-1.962964"><ele>461</ele><time>2020-09-24T11:56:21Z</time><name>PT2200</name></trkpt>
<trkpt lat="53.529589" lon="-1.962936"><ele>462</ele><time>2020-09-24T11:56:25Z</time><name>PT2201</name></trkpt>
<trkpt lat="53.529545" lon="-1.962931"><ele>462</ele><time>2020-09-24T11:56:29Z</time><name>PT2202</name></trkpt>
<trkpt lat="53.529498" lon="-1.962893"><ele>463</ele><time>2020-09-24T11:56:33Z</time><name>PT2203</name></trkpt>
<trkpt lat="53.529458" lon="-1.962862"><ele>463</ele><time>2020-09-24T11:56:37Z</time><name>PT2204</name></trkpt>
<trkpt lat="53.529420" lon="-1.962860"><ele>462</ele><time>2020-09-24T11:56:41Z</time><name>PT2205</name></trkpt>
<trkpt lat="53.529377" lon="-1.962867"><ele>463</ele><time>2020-09-24T11:56:45Z</time><name>PT2206</name></trkpt>
<trkpt lat="53.529340" lon="-1.962860"><ele>462</ele><time>2020-09-24T11:56:49Z</time><name>PT2207</name></trkpt>
<trkpt lat="53.529303" lon="-1.962865"><ele>462</ele><time>2020-09-24T11:56:53Z</time><name>PT2208</name></trkpt>
<trkpt lat="53.529258" lon="-1.962869"><ele>462</ele><time>2020-09-24T11:56:57Z</time><name>PT2209</name></trkpt>
<trkpt lat="53.529215" lon="-1.962854"><ele>462</ele><time>2020-09-24T11:57:01Z</time><name>PT2210</name></trkpt>
<trkpt lat="53.529159" lon="-1.962825"><ele>463</ele><time>2020-09-24T11:57:05Z</time><name>PT2211</name></trkpt>
<trkpt lat="53.529113" lon="-1.962796"><ele>463</ele><time>2020-09-24T11:57:09Z</time><name>PT2212</name></trkpt>
<trkpt lat="53.529073" lon="-1.962775"><ele>463</ele><time>2020-09-24T11:57:13Z</time><name>PT2213</name></trkpt>
<trkpt lat="53.529038" lon="-1.962753"><ele>464</ele><time>2020-09-24T11:57:17Z</time><name>PT2214</name></trkpt>
<trkpt lat="53.528991" lon="-1.962735"><ele>464</ele><time>2020-09-24T11:57:21Z</time><name>PT2215</name></trkpt>
<trkpt lat="53.528942" lon="-1.962705"><ele>464</ele><time>2020-09-24T11:57:25Z</time><name>PT2216</name></trkpt>
<trkpt lat="53.528892" lon="-1.962673"><ele>464</ele><time>2020-09-24T11:57:29Z</time><name>PT2217</name></trkpt>
<trkpt lat="53.528841" lon="-1.962666"><ele>464</ele><time>2020-09-24T11:57:33Z</time><name>PT2218</name></trkpt>
<trkpt lat="53.528794" lon="-1.962648"><ele>464</ele><time>2020-09-24T11:57:37Z</time><name>PT2219</name></trkpt>
<trkpt lat="53.528747" lon="-1.962613"><ele>464</ele><time>2020-09-24T11:57:41Z</time><name>PT2220</name></trkpt>
<trkpt lat="53.528698" lon="-1.962601"><ele>464</ele><time>2020-09-24T11:57:45Z</time><name>PT2221</name></trkpt>
<trkpt lat="53.528659" lon="-1.962585"><ele>464</ele><time>2020-09-24T11:57:49Z</time><name>PT2222</name></trkpt>
<trkpt lat="53.528615" lon="-1.962568"><ele>464</ele><time>2020-09-24T11:57:53Z</time><name>PT2223</name></trkpt>
<trkpt lat="53.528571" lon="-1.962549"><ele>464</ele><time>2020-09-24T11:57:57Z</time><name>PT2224</name></trkpt>
<trkpt lat="53.528527" lon="-1.962515"><ele>464</ele><time>2020-09-24T11:58:01Z</time><name>PT2225</name></trkpt>
<trkpt lat="53.528481" lon="-1.962474"><ele>463</ele><time>2020-09-24T11:58:05Z</time><name>PT2226</name></trkpt>
<trkpt lat="53.528446" lon="-1.962443"><ele>463</ele><time>2020-09-24T11:58:09Z</time><name>PT2227</name></trkpt>
<trkpt lat="53.528410" lon="-1.962411"><ele>462</ele><time>2020-09-24T11:58:13Z</time><name>PT2228</name></trkpt>
<trkpt lat="53.528373" lon="-1.962361"><ele>462</ele><time>2020-09-24T11:58:17Z</time><name>PT2229</name></trkpt>
<trkpt lat="53.528331" lon="-1.962328"><ele>462</ele><time>2020-09-24T11:58:21Z</time><name>PT2230</name></trkpt>
<trkpt lat="53.528297" lon="-1.962269"><ele>462</ele><time>2020-09-24T11:58:25Z</time><name>PT2231</name></trkpt>
<trkpt lat="53.528257" lon="-1.962229"><ele>462</ele><time>2020-09-24T11:58:29Z</time><name>PT2232</name></trkpt>
<trkpt lat="53.528216" lon="-1.962198"><ele>462</ele><time>2020-09-24T11:58:33Z</time><name>PT2233</name></trkpt>
<trkpt lat="53.528184" lon="-1.962147"><ele>462</ele><time>2020-09-24T11:58:37Z</time><name>PT2234</name></trkpt>
<trkpt lat="53.528165" lon="-1.962128"><ele>463</ele><time>2020-09-24T11:58:41Z</time><name>PT2235</name></trkpt>
<trkpt lat="53.528161" lon="-1.962122"><ele>463</ele><time>2020-09-24T11:58:45Z</time><name>PT2236</name></trkpt>
<trkpt lat="53.528139" lon="-1.962075"><ele>463</ele><time>2020-09-24T11:58:49Z</time><name>PT2237</name></trkpt>
<trkpt lat="53.528134" lon="-1.962014"><ele>464</ele><time>2020-09-24T11:58:53Z</time><name>PT2238</name></trkpt>
<trkpt lat="53.528108" lon="-1.961968"><ele>465</ele><time>2020-09-24T11:58:57Z</time><name>PT2239</name></trkpt>
<trkpt lat="53.528071" lon="-1.961941"><ele>465</ele><time>2020-09-24T11:59:01Z</time><name>PT2240</name></trkpt>
<trkpt lat="53.528046" lon="-1.961911"><ele>465</ele><time>2020-09-24T11:59:05Z</time><name>PT2241</name></trkpt>
<trkpt lat="53.528035" lon="-1.961878"><ele>465</ele><time>2020-09-24T11:59:09Z</time><name>PT2242</name></trkpt>
<trkpt lat="53.528035" lon="-1.961861"><ele>466</ele><time>2020-09-24T11:59:13Z</time><name>PT2243</name></trkpt>
<trkpt lat="53.528041" lon="-1.961823"><ele>467</ele><time>2020-09-24T11:59:17Z</time><name>PT2244</name></trkpt>
<trkpt lat="53.528036" lon="-1.961793"><ele>468</ele><time>2020-09-24T11:59:21Z</time><name>PT2245</name></trkpt>
<trkpt lat="53.528023" lon="-1.961770"><ele>469</ele><time>2020-09-24T11:59:25Z</time><name>PT2246</name></trkpt>
<trkpt lat="53.528003" lon="-1.961741"><ele>470</ele><time>2020-09-24T11:59:29Z</time><name>PT2247</name></trkpt>
<trkpt lat="53.527985" lon="-1.961724"><ele>469</ele><time>2020-09-24T11:59:33Z</time><name>PT2248</name></trkpt>
<trkpt lat="53.527972" lon="-1.961696"><ele>470</ele><time>2020-09-24T11:59:37Z</time><name>PT2249</name></trkpt>
<trkpt lat="53.527973" lon="-1.961675"><ele>469</ele><time>2020-09-24T11:59:41Z</time><name>PT2250</name></trkpt>
<trkpt lat="53.527979" lon="-1.961658"><ele>469</ele><time>2020-09-24T11:59:45Z</time><name>PT2251</name></trkpt>
<trkpt lat="53.527974" lon="-1.961700"><ele>468</ele><time>2020-09-24T11:59:49Z</time><name>PT2252</name></trkpt>
<trkpt lat="53.527969" lon="-1.961729"><ele>467</ele><time>2020-09-24T11:59:53Z</time><name>PT2253</name></trkpt>
<trkpt lat="53.527939" lon="-1.961749"><ele>466</ele><time>2020-09-24T11:59:57Z</time><name>PT2254</name></trkpt>
<trkpt lat="53.527916" lon="-1.961763"><ele>465</ele><time>2020-09-24T12:00:01Z</time><name>PT2255</name></trkpt>
<trkpt lat="53.527904" lon="-1.961761"><ele>465</ele><time>2020-09-24T12:00:05Z</time><name>PT2256</name></trkpt>
<trkpt lat="53.527878" lon="-1.961782"><ele>465</ele><time>2020-09-24T12:00:09Z</time><name>PT2257</name></trkpt>
<trkpt lat="53.527874" lon="-1.961803"><ele>467</ele><time>2020-09-24T12:00:13Z</time><name>PT2258</name></trkpt>
<trkpt lat="53.527857" lon="-1.961795"><ele>465</ele><time>2020-09-24T12:00:17Z</time><name>PT2259</name></trkpt>
<trkpt lat="53.527861" lon="-1.961798"><ele>464</ele><time>2020-09-24T12:00:21Z</time><name>PT2260</name></trkpt>
<trkpt lat="53.527865" lon="-1.961783"><ele>464</ele><time>2020-09-24T12:00:37Z</time><name>PT2261</name></trkpt>
<trkpt lat="53.527876" lon="-1.961758"><ele>464</ele><time>2020-09-24T12:00:41Z</time><name>PT2262</name></trkpt>
<trkpt lat="53.527864" lon="-1.961770"><ele>465</ele><time>2020-09-24T12:00:45Z</time><name>PT2263</name></trkpt>
<trkpt lat="53.527865" lon="-1.961774"><ele>464</ele><time>2020-09-24T12:00:49Z</time><name>PT2264</name></trkpt>
<trkpt lat="53.527867" lon="-1.961774"><ele>464</ele><time>2020-09-24T12:00:53Z</time><name>PT2265</name></trkpt>
<trkpt lat="53.527859" lon="-1.961824"><ele>465</ele><time>2020-09-24T12:00:57Z</time><name>PT2266</name></trkpt>
<trkpt lat="53.527866" lon="-1.961795"><ele>464</ele><time>2020-09-24T12:01:01Z</time><name>PT2267</name></trkpt>
<trkpt lat="53.527864" lon="-1.961779"><ele>464</ele><time>2020-09-24T12:01:25Z</time><name>PT2268</name></trkpt>
<trkpt lat="53.527864" lon="-1.961773"><ele>465</ele><time>2020-09-24T12:01:29Z</time><name>PT2269</name></trkpt>
<trkpt lat="53.527864" lon="-1.961772"><ele>467</ele><time>2020-09-24T12:01:33Z</time><name>PT2270</name></trkpt>
<trkpt lat="53.527869" lon="-1.961780"><ele>466</ele><time>2020-09-24T12:01:37Z</time><name>PT2271</name></trkpt>
<trkpt lat="53.527852" lon="-1.961778"><ele>466</ele><time>2020-09-24T12:01:41Z</time><name>PT2272</name></trkpt>
<trkpt lat="53.527848" lon="-1.961781"><ele>465</ele><time>2020-09-24T12:01:45Z</time><name>PT2273</name></trkpt>
<trkpt lat="53.527854" lon="-1.961778"><ele>466</ele><time>2020-09-24T12:01:49Z</time><name>PT2274</name></trkpt>
<trkpt lat="53.527857" lon="-1.961772"><ele>467</ele><time>2020-09-24T12:01:57Z</time><name>PT2275</name></trkpt>
<trkpt lat="53.527859" lon="-1.961779"><ele>467</ele><time>2020-09-24T12:02:01Z</time><name>PT2276</name></trkpt>
<trkpt lat="53.527856" lon="-1.961778"><ele>466</ele><time>2020-09-24T12:02:05Z</time><name>PT2277</name></trkpt>
<trkpt lat="53.527855" lon="-1.961775"><ele>466</ele><time>2020-09-24T12:02:09Z</time><name>PT2278</name></trkpt>
<trkpt lat="53.527849" lon="-1.961776"><ele>467</ele><time>2020-09-24T12:02:13Z</time><name>PT2279</name></trkpt>
<trkpt lat="53.527846" lon="-1.961763"><ele>467</ele><time>2020-09-24T12:02:17Z</time><name>PT2280</name></trkpt>
<trkpt lat="53.527845" lon="-1.961759"><ele>467</ele><time>2020-09-24T12:02:25Z</time><name>PT2281</name></trkpt>
<trkpt lat="53.527839" lon="-1.961770"><ele>467</ele><time>2020-09-24T12:02:29Z</time><name>PT2282</name></trkpt>
<trkpt lat="53.527853" lon="-1.961792"><ele>468</ele><time>2020-09-24T12:02:33Z</time><name>PT2283</name></trkpt>
<trkpt lat="53.527863" lon="-1.961802"><ele>468</ele><time>2020-09-24T12:02:57Z</time><name>PT2284</name></trkpt>
<trkpt lat="53.527873" lon="-1.961805"><ele>467</ele><time>2020-09-24T12:03:08Z</time><name>PT2285</name></trkpt>
<trkpt lat="53.527877" lon="-1.961806"><ele>467</ele><time>2020-09-24T12:03:12Z</time><name>PT2286</name></trkpt>
<trkpt lat="53.527880" lon="-1.961801"><ele>466</ele><time>2020-09-24T12:03:16Z</time><name>PT2287</name></trkpt>
<trkpt lat="53.527898" lon="-1.961805"><ele>467</ele><time>2020-09-24T12:03:28Z</time><name>PT2288</name></trkpt>
<trkpt lat="53.527900" lon="-1.961801"><ele>466</ele><time>2020-09-24T12:03:32Z</time><name>PT2289</name></trkpt>
<trkpt lat="53.527906" lon="-1.961779"><ele>466</ele><time>2020-09-24T12:03:36Z</time><name>PT2290</name></trkpt>
<trkpt lat="53.527908" lon="-1.961766"><ele>464</ele><time>2020-09-24T12:03:40Z</time><name>PT2291</name></trkpt>
<trkpt lat="53.527905" lon="-1.961758"><ele>463</ele><time>2020-09-24T12:03:48Z</time><name>PT2292</name></trkpt>
<trkpt lat="53.527911" lon="-1.961755"><ele>463</ele><time>2020-09-24T12:03:52Z</time><name>PT2293</name></trkpt>
<trkpt lat="53.527931" lon="-1.961751"><ele>465</ele><time>2020-09-24T12:03:56Z</time><name>PT2294</name></trkpt>
<trkpt lat="53.527932" lon="-1.961744"><ele>466</ele><time>2020-09-24T12:04:00Z</time><name>PT2295</name></trkpt>
<trkpt lat="53.527956" lon="-1.961737"><ele>465</ele><time>2020-09-24T12:04:04Z</time><name>PT2296</name></trkpt>
<trkpt lat="53.527966" lon="-1.961713"><ele>465</ele><time>2020-09-24T12:04:08Z</time><name>PT2297</name></trkpt>
<trkpt lat="53.527958" lon="-1.961691"><ele>468</ele><time>2020-09-24T12:04:12Z</time><name>PT2298</name></trkpt>
<trkpt lat="53.527959" lon="-1.961665"><ele>469</ele><time>2020-09-24T12:04:16Z</time><name>PT2299</name></trkpt>
<trkpt lat="53.527939" lon="-1.961647"><ele>469</ele><time>2020-09-24T12:04:20Z</time><name>PT2300</name></trkpt>
<trkpt lat="53.527919" lon="-1.961655"><ele>470</ele><time>2020-09-24T12:04:24Z</time><name>PT2301</name></trkpt>
<trkpt lat="53.527887" lon="-1.961673"><ele>470</ele><time>2020-09-24T12:04:28Z</time><name>PT2302</name></trkpt>
<trkpt lat="53.527856" lon="-1.961681"><ele>471</ele><time>2020-09-24T12:04:32Z</time><name>PT2303</name></trkpt>
<trkpt lat="53.527841" lon="-1.961682"><ele>471</ele><time>2020-09-24T12:04:36Z</time><name>PT2304</name></trkpt>
<trkpt lat="53.527797" lon="-1.961682"><ele>471</ele><time>2020-09-24T12:04:40Z</time><name>PT2305</name></trkpt>
<trkpt lat="53.527752" lon="-1.961695"><ele>472</ele><time>2020-09-24T12:04:44Z</time><name>PT2306</name></trkpt>
<trkpt lat="53.527709" lon="-1.961721"><ele>472</ele><time>2020-09-24T12:04:48Z</time><name>PT2307</name></trkpt>
<trkpt lat="53.527677" lon="-1.961757"><ele>472</ele><time>2020-09-24T12:04:52Z</time><name>PT2308</name></trkpt>
<trkpt lat="53.527642" lon="-1.961803"><ele>473</ele><time>2020-09-24T12:04:56Z</time><name>PT2309</name></trkpt>
<trkpt lat="53.527598" lon="-1.961829"><ele>473</ele><time>2020-09-24T12:05:00Z</time><name>PT2310</name></trkpt>
<trkpt lat="53.527550" lon="-1.961832"><ele>473</ele><time>2020-09-24T12:05:04Z</time><name>PT2311</name></trkpt>
<trkpt lat="53.527509" lon="-1.961829"><ele>472</ele><time>2020-09-24T12:05:08Z</time><name>PT2312</name></trkpt>
<trkpt lat="53.527460" lon="-1.961822"><ele>472</ele><time>2020-09-24T12:05:12Z</time><name>PT2313</name></trkpt>
<trkpt lat="53.527408" lon="-1.961807"><ele>472</ele><time>2020-09-24T12:05:16Z</time><name>PT2314</name></trkpt>
<trkpt lat="53.527359" lon="-1.961776"><ele>473</ele><time>2020-09-24T12:05:20Z</time><name>PT2315</name></trkpt>
<trkpt lat="53.527312" lon="-1.961751"><ele>473</ele><time>2020-09-24T12:05:24Z</time><name>PT2316</name></trkpt>
<trkpt lat="53.527262" lon="-1.961742"><ele>473</ele><time>2020-09-24T12:05:28Z</time><name>PT2317</name></trkpt>
<trkpt lat="53.527213" lon="-1.961744"><ele>474</ele><time>2020-09-24T12:05:32Z</time><name>PT2318</name></trkpt>
<trkpt lat="53.527168" lon="-1.961706"><ele>475</ele><time>2020-09-24T12:05:36Z</time><name>PT2319</name></trkpt>
<trkpt lat="53.527120" lon="-1.961664"><ele>475</ele><time>2020-09-24T12:05:40Z</time><name>PT2320</name></trkpt>
<trkpt lat="53.527076" lon="-1.961621"><ele>476</ele><time>2020-09-24T12:05:44Z</time><name>PT2321</name></trkpt>
<trkpt lat="53.527036" lon="-1.961585"><ele>476</ele><time>2020-09-24T12:05:48Z</time><name>PT2322</name></trkpt>
<trkpt lat="53.526994" lon="-1.961577"><ele>476</ele><time>2020-09-24T12:05:52Z</time><name>PT2323</name></trkpt>
<trkpt lat="53.526944" lon="-1.961572"><ele>475</ele><time>2020-09-24T12:05:56Z</time><name>PT2324</name></trkpt>
<trkpt lat="53.526893" lon="-1.961557"><ele>475</ele><time>2020-09-24T12:06:00Z</time><name>PT2325</name></trkpt>
<trkpt lat="53.526851" lon="-1.961528"><ele>476</ele><time>2020-09-24T12:06:04Z</time><name>PT2326</name></trkpt>
<trkpt lat="53.526809" lon="-1.961505"><ele>475</ele><time>2020-09-24T12:06:08Z</time><name>PT2327</name></trkpt>
<trkpt lat="53.526770" lon="-1.961474"><ele>475</ele><time>2020-09-24T12:06:12Z</time><name>PT2328</name></trkpt>
<trkpt lat="53.526735" lon="-1.961451"><ele>476</ele><time>2020-09-24T12:06:16Z</time><name>PT2329</name></trkpt>
<trkpt lat="53.526691" lon="-1.961415"><ele>477</ele><time>2020-09-24T12:06:20Z</time><name>PT2330</name></trkpt>
<trkpt lat="53.526665" lon="-1.961407"><ele>477</ele><time>2020-09-24T12:06:23Z</time><name>PT2331</name></trkpt>
<trkpt lat="53.526638" lon="-1.961393"><ele>477</ele><time>2020-09-24T12:06:27Z</time><name>PT2332</name></trkpt>
<trkpt lat="53.526610" lon="-1.961360"><ele>476</ele><time>2020-09-24T12:06:31Z</time><name>PT2333</name></trkpt>
<trkpt lat="53.526573" lon="-1.961326"><ele>477</ele><time>2020-09-24T12:06:35Z</time><name>PT2334</name></trkpt>
<trkpt lat="53.526556" lon="-1.961302"><ele>477</ele><time>2020-09-24T12:06:39Z</time><name>PT2335</name></trkpt>
<trkpt lat="53.526537" lon="-1.961285"><ele>477</ele><time>2020-09-24T12:06:43Z</time><name>PT2336</name></trkpt>
<trkpt lat="53.526510" lon="-1.961242"><ele>479</ele><time>2020-09-24T12:06:47Z</time><name>PT2337</name></trkpt>
<trkpt lat="53.526473" lon="-1.961211"><ele>478</ele><time>2020-09-24T12:06:51Z</time><name>PT2338</name></trkpt>
<trkpt lat="53.526435" lon="-1.961173"><ele>478</ele><time>2020-09-24T12:06:55Z</time><name>PT2339</name></trkpt>
<trkpt lat="53.526395" lon="-1.961138"><ele>478</ele><time>2020-09-24T12:06:59Z</time><name>PT2340</name></trkpt>
<trkpt lat="53.526371" lon="-1.961116"><ele>477</ele><time>2020-09-24T12:07:03Z</time><name>PT2341</name></trkpt>
<trkpt lat="53.526363" lon="-1.961118"><ele>478</ele><time>2020-09-24T12:07:07Z</time><name>PT2342</name></trkpt>
<trkpt lat="53.526363" lon="-1.961118"><ele>478</ele><time>2020-09-24T12:07:10Z</time><name>PT2343</name></trkpt>
<trkpt lat="53.526329" lon="-1.961097"><ele>477</ele><time>2020-09-24T12:07:18Z</time><name>PT2344</name></trkpt>
<trkpt lat="53.526279" lon="-1.961065"><ele>477</ele><time>2020-09-24T12:07:22Z</time><name>PT2345</name></trkpt>
<trkpt lat="53.526237" lon="-1.961052"><ele>478</ele><time>2020-09-24T12:07:26Z</time><name>PT2346</name></trkpt>
<trkpt lat="53.526196" lon="-1.961032"><ele>478</ele><time>2020-09-24T12:07:30Z</time><name>PT2347</name></trkpt>
<trkpt lat="53.526146" lon="-1.961024"><ele>478</ele><time>2020-09-24T12:07:34Z</time><name>PT2348</name></trkpt>
<trkpt lat="53.526097" lon="-1.961030"><ele>476</ele><time>2020-09-24T12:07:38Z</time><name>PT2349</name></trkpt>
<trkpt lat="53.526050" lon="-1.961041"><ele>476</ele><time>2020-09-24T12:07:42Z</time><name>PT2350</name></trkpt>
<trkpt lat="53.526002" lon="-1.961020"><ele>476</ele><time>2020-09-24T12:07:46Z</time><name>PT2351</name></trkpt>
<trkpt lat="53.525956" lon="-1.960986"><ele>477</ele><time>2020-09-24T12:07:50Z</time><name>PT2352</name></trkpt>
<trkpt lat="53.525911" lon="-1.960951"><ele>476</ele><time>2020-09-24T12:07:54Z</time><name>PT2353</name></trkpt>
<trkpt lat="53.525870" lon="-1.960914"><ele>477</ele><time>2020-09-24T12:07:58Z</time><name>PT2354</name></trkpt>
<trkpt lat="53.525823" lon="-1.960882"><ele>476</ele><time>2020-09-24T12:08:02Z</time><name>PT2355</name></trkpt>
<trkpt lat="53.525775" lon="-1.960868"><ele>476</ele><time>2020-09-24T12:08:06Z</time><name>PT2356</name></trkpt>
<trkpt lat="53.525736" lon="-1.960829"><ele>477</ele><time>2020-09-24T12:08:10Z</time><name>PT2357</name></trkpt>
<trkpt lat="53.525698" lon="-1.960788"><ele>477</ele><time>2020-09-24T12:08:14Z</time><name>PT2358</name></trkpt>
<trkpt lat="53.525667" lon="-1.960771"><ele>477</ele><time>2020-09-24T12:08:18Z</time><name>PT2359</name></trkpt>
<trkpt lat="53.525628" lon="-1.960749"><ele>477</ele><time>2020-09-24T12:08:22Z</time><name>PT2360</name></trkpt>
<trkpt lat="53.525584" lon="-1.960735"><ele>477</ele><time>2020-09-24T12:08:26Z</time><name>PT2361</name></trkpt>
<trkpt lat="53.525544" lon="-1.960708"><ele>477</ele><time>2020-09-24T12:08:30Z</time><name>PT2362</name></trkpt>
<trkpt lat="53.525496" lon="-1.960698"><ele>477</ele><time>2020-09-24T12:08:34Z</time><name>PT2363</name></trkpt>
<trkpt lat="53.525452" lon="-1.960682"><ele>476</ele><time>2020-09-24T12:08:38Z</time><name>PT2364</name></trkpt>
<trkpt lat="53.525418" lon="-1.960661"><ele>476</ele><time>2020-09-24T12:08:41Z</time><name>PT2365</name></trkpt>
<trkpt lat="53.525376" lon="-1.960630"><ele>476</ele><time>2020-09-24T12:08:45Z</time><name>PT2366</name></trkpt>
<trkpt lat="53.525333" lon="-1.960602"><ele>477</ele><time>2020-09-24T12:08:49Z</time><name>PT2367</name></trkpt>
<trkpt lat="53.525298" lon="-1.960572"><ele>477</ele><time>2020-09-24T12:08:53Z</time><name>PT2368</name></trkpt>
<trkpt lat="53.525259" lon="-1.960559"><ele>478</ele><time>2020-09-24T12:08:57Z</time><name>PT2369</name></trkpt>
<trkpt lat="53.525223" lon="-1.960578"><ele>477</ele><time>2020-09-24T12:09:01Z</time><name>PT2370</name></trkpt>
<trkpt lat="53.525179" lon="-1.960578"><ele>477</ele><time>2020-09-24T12:09:05Z</time><name>PT2371</name></trkpt>
<trkpt lat="53.525135" lon="-1.960571"><ele>477</ele><time>2020-09-24T12:09:09Z</time><name>PT2372</name></trkpt>
<trkpt lat="53.525096" lon="-1.960535"><ele>477</ele><time>2020-09-24T12:09:13Z</time><name>PT2373</name></trkpt>
<trkpt lat="53.525051" lon="-1.960547"><ele>476</ele><time>2020-09-24T12:09:17Z</time><name>PT2374</name></trkpt>
<trkpt lat="53.525007" lon="-1.960556"><ele>476</ele><time>2020-09-24T12:09:21Z</time><name>PT2375</name></trkpt>
<trkpt lat="53.524960" lon="-1.960563"><ele>477</ele><time>2020-09-24T12:09:25Z</time><name>PT2376</name></trkpt>
<trkpt lat="53.524917" lon="-1.960546"><ele>478</ele><time>2020-09-24T12:09:29Z</time><name>PT2377</name></trkpt>
<trkpt lat="53.524893" lon="-1.960535"><ele>478</ele><time>2020-09-24T12:09:33Z</time><name>PT2378</name></trkpt>
<trkpt lat="53.524865" lon="-1.960521"><ele>478</ele><time>2020-09-24T12:09:37Z</time><name>PT2379</name></trkpt>
<trkpt lat="53.524836" lon="-1.960497"><ele>479</ele><time>2020-09-24T12:09:41Z</time><name>PT2380</name></trkpt>
<trkpt lat="53.524806" lon="-1.960491"><ele>479</ele><time>2020-09-24T12:09:45Z</time><name>PT2381</name></trkpt>
<trkpt lat="53.524760" lon="-1.960498"><ele>479</ele><time>2020-09-24T12:09:49Z</time><name>PT2382</name></trkpt>
<trkpt lat="53.524723" lon="-1.960485"><ele>479</ele><time>2020-09-24T12:09:53Z</time><name>PT2383</name></trkpt>
<trkpt lat="53.524689" lon="-1.960471"><ele>479</ele><time>2020-09-24T12:09:56Z</time><name>PT2384</name></trkpt>
<trkpt lat="53.524647" lon="-1.960450"><ele>480</ele><time>2020-09-24T12:10:00Z</time><name>PT2385</name></trkpt>
<trkpt lat="53.524603" lon="-1.960441"><ele>480</ele><time>2020-09-24T12:10:04Z</time><name>PT2386</name></trkpt>
<trkpt lat="53.524569" lon="-1.960437"><ele>480</ele><time>2020-09-24T12:10:07Z</time><name>PT2387</name></trkpt>
<trkpt lat="53.524529" lon="-1.960460"><ele>480</ele><time>2020-09-24T12:10:11Z</time><name>PT2388</name></trkpt>
<trkpt lat="53.524506" lon="-1.960472"><ele>481</ele><time>2020-09-24T12:10:15Z</time><name>PT2389</name></trkpt>
<trkpt lat="53.524475" lon="-1.960459"><ele>480</ele><time>2020-09-24T12:10:18Z</time><name>PT2390</name></trkpt>
<trkpt lat="53.524430" lon="-1.960421"><ele>480</ele><time>2020-09-24T12:10:22Z</time><name>PT2391</name></trkpt>
<trkpt lat="53.524395" lon="-1.960395"><ele>480</ele><time>2020-09-24T12:10:25Z</time><name>PT2392</name></trkpt>
<trkpt lat="53.524350" lon="-1.960369"><ele>479</ele><time>2020-09-24T12:10:29Z</time><name>PT2393</name></trkpt>
<trkpt lat="53.524305" lon="-1.960348"><ele>479</ele><time>2020-09-24T12:10:33Z</time><name>PT2394</name></trkpt>
<trkpt lat="53.524255" lon="-1.960339"><ele>479</ele><time>2020-09-24T12:10:37Z</time><name>PT2395</name></trkpt>
<trkpt lat="53.524222" lon="-1.960346"><ele>479</ele><time>2020-09-24T12:10:40Z</time><name>PT2396</name></trkpt>
<trkpt lat="53.524177" lon="-1.960365"><ele>480</ele><time>2020-09-24T12:10:44Z</time><name>PT2397</name></trkpt>
<trkpt lat="53.524133" lon="-1.960354"><ele>480</ele><time>2020-09-24T12:10:48Z</time><name>PT2398</name></trkpt>
<trkpt lat="53.524096" lon="-1.960328"><ele>480</ele><time>2020-09-24T12:10:52Z</time><name>PT2399</name></trkpt>
<trkpt lat="53.524054" lon="-1.960315"><ele>480</ele><time>2020-09-24T12:10:56Z</time><name>PT2400</name></trkpt>
<trkpt lat="53.524012" lon="-1.960331"><ele>479</ele><time>2020-09-24T12:11:00Z</time><name>PT2401</name></trkpt>
<trkpt lat="53.523962" lon="-1.960323"><ele>479</ele><time>2020-09-24T12:11:04Z</time><name>PT2402</name></trkpt>
<trkpt lat="53.523921" lon="-1.960297"><ele>479</ele><time>2020-09-24T12:11:08Z</time><name>PT2403</name></trkpt>
<trkpt lat="53.523877" lon="-1.960285"><ele>480</ele><time>2020-09-24T12:11:12Z</time><name>PT2404</name></trkpt>
<trkpt lat="53.523832" lon="-1.960267"><ele>480</ele><time>2020-09-24T12:11:16Z</time><name>PT2405</name></trkpt>
<trkpt lat="53.523783" lon="-1.960255"><ele>480</ele><time>2020-09-24T12:11:20Z</time><name>PT2406</name></trkpt>
<trkpt lat="53.523739" lon="-1.960243"><ele>481</ele><time>2020-09-24T12:11:24Z</time><name>PT2407</name></trkpt>
<trkpt lat="53.523702" lon="-1.960221"><ele>481</ele><time>2020-09-24T12:11:28Z</time><name>PT2408</name></trkpt>
<trkpt lat="53.523667" lon="-1.960194"><ele>482</ele><time>2020-09-24T12:11:32Z</time><name>PT2409</name></trkpt>
<trkpt lat="53.523625" lon="-1.960165"><ele>482</ele><time>2020-09-24T12:11:36Z</time><name>PT2410</name></trkpt>
<trkpt lat="53.523593" lon="-1.960146"><ele>482</ele><time>2020-09-24T12:11:40Z</time><name>PT2411</name></trkpt>
<trkpt lat="53.523588" lon="-1.960141"><ele>482</ele><time>2020-09-24T12:11:43Z</time><name>PT2412</name></trkpt>
<trkpt lat="53.523543" lon="-1.960133"><ele>483</ele><time>2020-09-24T12:11:47Z</time><name>PT2413</name></trkpt>
<trkpt lat="53.523496" lon="-1.960125"><ele>483</ele><time>2020-09-24T12:11:51Z</time><name>PT2414</name></trkpt>
<trkpt lat="53.523461" lon="-1.960102"><ele>484</ele><time>2020-09-24T12:11:55Z</time><name>PT2415</name></trkpt>
<trkpt lat="53.523425" lon="-1.960067"><ele>484</ele><time>2020-09-24T12:11:59Z</time><name>PT2416</name></trkpt>
<trkpt lat="53.523389" lon="-1.960034"><ele>484</ele><time>2020-09-24T12:12:03Z</time><name>PT2417</name></trkpt>
<trkpt lat="53.523345" lon="-1.960013"><ele>484</ele><time>2020-09-24T12:12:07Z</time><name>PT2418</name></trkpt>
<trkpt lat="53.523302" lon="-1.959993"><ele>484</ele><time>2020-09-24T12:12:11Z</time><name>PT2419</name></trkpt>
<trkpt lat="53.523256" lon="-1.959979"><ele>482</ele><time>2020-09-24T12:12:15Z</time><name>PT2420</name></trkpt>
<trkpt lat="53.523211" lon="-1.959958"><ele>483</ele><time>2020-09-24T12:12:19Z</time><name>PT2421</name></trkpt>
<trkpt lat="53.523169" lon="-1.959935"><ele>482</ele><time>2020-09-24T12:12:23Z</time><name>PT2422</name></trkpt>
<trkpt lat="53.523128" lon="-1.959916"><ele>482</ele><time>2020-09-24T12:12:27Z</time><name>PT2423</name></trkpt>
<trkpt lat="53.523084" lon="-1.959889"><ele>483</ele><time>2020-09-24T12:12:31Z</time><name>PT2424</name></trkpt>
<trkpt lat="53.523047" lon="-1.959853"><ele>483</ele><time>2020-09-24T12:12:35Z</time><name>PT2425</name></trkpt>
<trkpt lat="53.523004" lon="-1.959824"><ele>482</ele><time>2020-09-24T12:12:39Z</time><name>PT2426</name></trkpt>
<trkpt lat="53.522965" lon="-1.959801"><ele>483</ele><time>2020-09-24T12:12:43Z</time><name>PT2427</name></trkpt>
<trkpt lat="53.522928" lon="-1.959803"><ele>483</ele><time>2020-09-24T12:12:47Z</time><name>PT2428</name></trkpt>
<trkpt lat="53.522891" lon="-1.959834"><ele>483</ele><time>2020-09-24T12:12:51Z</time><name>PT2429</name></trkpt>
<trkpt lat="53.522853" lon="-1.959869"><ele>484</ele><time>2020-09-24T12:12:55Z</time><name>PT2430</name></trkpt>
<trkpt lat="53.522816" lon="-1.959900"><ele>484</ele><time>2020-09-24T12:12:59Z</time><name>PT2431</name></trkpt>
<trkpt lat="53.522772" lon="-1.959921"><ele>483</ele><time>2020-09-24T12:13:03Z</time><name>PT2432</name></trkpt>
<trkpt lat="53.522725" lon="-1.959928"><ele>483</ele><time>2020-09-24T12:13:07Z</time><name>PT2433</name></trkpt>
<trkpt lat="53.522679" lon="-1.959936"><ele>484</ele><time>2020-09-24T12:13:11Z</time><name>PT2434</name></trkpt>
<trkpt lat="53.522636" lon="-1.959944"><ele>485</ele><time>2020-09-24T12:13:15Z</time><name>PT2435</name></trkpt>
<trkpt lat="53.522599" lon="-1.959957"><ele>485</ele><time>2020-09-24T12:13:19Z</time><name>PT2436</name></trkpt>
<trkpt lat="53.522558" lon="-1.959970"><ele>485</ele><time>2020-09-24T12:13:23Z</time><name>PT2437</name></trkpt>
<trkpt lat="53.522516" lon="-1.959970"><ele>485</ele><time>2020-09-24T12:13:27Z</time><name>PT2438</name></trkpt>
<trkpt lat="53.522470" lon="-1.959957"><ele>486</ele><time>2020-09-24T12:13:31Z</time><name>PT2439</name></trkpt>
<trkpt lat="53.522423" lon="-1.959952"><ele>486</ele><time>2020-09-24T12:13:35Z</time><name>PT2440</name></trkpt>
<trkpt lat="53.522385" lon="-1.959946"><ele>486</ele><time>2020-09-24T12:13:39Z</time><name>PT2441</name></trkpt>
<trkpt lat="53.522341" lon="-1.959959"><ele>485</ele><time>2020-09-24T12:13:43Z</time><name>PT2442</name></trkpt>
<trkpt lat="53.522294" lon="-1.959977"><ele>487</ele><time>2020-09-24T12:13:47Z</time><name>PT2443</name></trkpt>
<trkpt lat="53.522252" lon="-1.959988"><ele>487</ele><time>2020-09-24T12:13:51Z</time><name>PT2444</name></trkpt>
<trkpt lat="53.522210" lon="-1.959982"><ele>487</ele><time>2020-09-24T12:13:55Z</time><name>PT2445</name></trkpt>
<trkpt lat="53.522161" lon="-1.959988"><ele>487</ele><time>2020-09-24T12:13:59Z</time><name>PT2446</name></trkpt>
<trkpt lat="53.522120" lon="-1.959993"><ele>487</ele><time>2020-09-24T12:14:03Z</time><name>PT2447</name></trkpt>
<trkpt lat="53.522071" lon="-1.959985"><ele>487</ele><time>2020-09-24T12:14:07Z</time><name>PT2448</name></trkpt>
<trkpt lat="53.522023" lon="-1.959984"><ele>487</ele><time>2020-09-24T12:14:11Z</time><name>PT2449</name></trkpt>
<trkpt lat="53.521975" lon="-1.959968"><ele>487</ele><time>2020-09-24T12:14:15Z</time><name>PT2450</name></trkpt>
<trkpt lat="53.521930" lon="-1.959958"><ele>487</ele><time>2020-09-24T12:14:19Z</time><name>PT2451</name></trkpt>
<trkpt lat="53.521879" lon="-1.959947"><ele>487</ele><time>2020-09-24T12:14:23Z</time><name>PT2452</name></trkpt>
<trkpt lat="53.521830" lon="-1.959952"><ele>487</ele><time>2020-09-24T12:14:27Z</time><name>PT2453</name></trkpt>
<trkpt lat="53.521784" lon="-1.959951"><ele>487</ele><time>2020-09-24T12:14:31Z</time><name>PT2454</name></trkpt>
<trkpt lat="53.521735" lon="-1.959942"><ele>487</ele><time>2020-09-24T12:14:35Z</time><name>PT2455</name></trkpt>
<trkpt lat="53.521682" lon="-1.959939"><ele>487</ele><time>2020-09-24T12:14:39Z</time><name>PT2456</name></trkpt>
<trkpt lat="53.521631" lon="-1.959932"><ele>487</ele><time>2020-09-24T12:14:43Z</time><name>PT2457</name></trkpt>
<trkpt lat="53.521583" lon="-1.959929"><ele>487</ele><time>2020-09-24T12:14:47Z</time><name>PT2458</name></trkpt>
<trkpt lat="53.521537" lon="-1.959920"><ele>487</ele><time>2020-09-24T12:14:51Z</time><name>PT2459</name></trkpt>
<trkpt lat="53.521489" lon="-1.959908"><ele>487</ele><time>2020-09-24T12:14:55Z</time><name>PT2460</name></trkpt>
<trkpt lat="53.521440" lon="-1.959901"><ele>487</ele><time>2020-09-24T12:14:59Z</time><name>PT2461</name></trkpt>
<trkpt lat="53.521400" lon="-1.959892"><ele>488</ele><time>2020-09-24T12:15:03Z</time><name>PT2462</name></trkpt>
<trkpt lat="53.521359" lon="-1.959904"><ele>488</ele><time>2020-09-24T12:15:07Z</time><name>PT2463</name></trkpt>
<trkpt lat="53.521317" lon="-1.959916"><ele>489</ele><time>2020-09-24T12:15:11Z</time><name>PT2464</name></trkpt>
<trkpt lat="53.521271" lon="-1.959929"><ele>489</ele><time>2020-09-24T12:15:15Z</time><name>PT2465</name></trkpt>
<trkpt lat="53.521228" lon="-1.959940"><ele>488</ele><time>2020-09-24T12:15:19Z</time><name>PT2466</name></trkpt>
<trkpt lat="53.521178" lon="-1.959938"><ele>488</ele><time>2020-09-24T12:15:23Z</time><name>PT2467</name></trkpt>
<trkpt lat="53.521135" lon="-1.959939"><ele>488</ele><time>2020-09-24T12:15:27Z</time><name>PT2468</name></trkpt>
<trkpt lat="53.521092" lon="-1.959924"><ele>489</ele><time>2020-09-24T12:15:31Z</time><name>PT2469</name></trkpt>
<trkpt lat="53.521046" lon="-1.959900"><ele>489</ele><time>2020-09-24T12:15:35Z</time><name>PT2470</name></trkpt>
<trkpt lat="53.520998" lon="-1.959879"><ele>490</ele><time>2020-09-24T12:15:39Z</time><name>PT2471</name></trkpt>
<trkpt lat="53.520968" lon="-1.959874"><ele>490</ele><time>2020-09-24T12:15:42Z</time><name>PT2472</name></trkpt>
<trkpt lat="53.520922" lon="-1.959871"><ele>489</ele><time>2020-09-24T12:15:46Z</time><name>PT2473</name></trkpt>
<trkpt lat="53.520873" lon="-1.959872"><ele>488</ele><time>2020-09-24T12:15:50Z</time><name>PT2474</name></trkpt>
<trkpt lat="53.520831" lon="-1.959846"><ele>488</ele><time>2020-09-24T12:15:54Z</time><name>PT2475</name></trkpt>
<trkpt lat="53.520794" lon="-1.959804"><ele>488</ele><time>2020-09-24T12:15:58Z</time><name>PT2476</name></trkpt>
<trkpt lat="53.520766" lon="-1.959791"><ele>488</ele><time>2020-09-24T12:16:01Z</time><name>PT2477</name></trkpt>
<trkpt lat="53.520725" lon="-1.959769"><ele>488</ele><time>2020-09-24T12:16:05Z</time><name>PT2478</name></trkpt>
<trkpt lat="53.520680" lon="-1.959751"><ele>488</ele><time>2020-09-24T12:16:09Z</time><name>PT2479</name></trkpt>
<trkpt lat="53.520637" lon="-1.959726"><ele>487</ele><time>2020-09-24T12:16:13Z</time><name>PT2480</name></trkpt>
<trkpt lat="53.520599" lon="-1.959694"><ele>488</ele><time>2020-09-24T12:16:17Z</time><name>PT2481</name></trkpt>
<trkpt lat="53.520560" lon="-1.959688"><ele>487</ele><time>2020-09-24T12:16:21Z</time><name>PT2482</name></trkpt>
<trkpt lat="53.520526" lon="-1.959658"><ele>487</ele><time>2020-09-24T12:16:25Z</time><name>PT2483</name></trkpt>
<trkpt lat="53.520487" lon="-1.959632"><ele>486</ele><time>2020-09-24T12:16:29Z</time><name>PT2484</name></trkpt>
<trkpt lat="53.520458" lon="-1.959596"><ele>486</ele><time>2020-09-24T12:16:33Z</time><name>PT2485</name></trkpt>
<trkpt lat="53.520421" lon="-1.959559"><ele>486</ele><time>2020-09-24T12:16:37Z</time><name>PT2486</name></trkpt>
<trkpt lat="53.520388" lon="-1.959525"><ele>486</ele><time>2020-09-24T12:16:41Z</time><name>PT2487</name></trkpt>
<trkpt lat="53.520353" lon="-1.959481"><ele>485</ele><time>2020-09-24T12:16:45Z</time><name>PT2488</name></trkpt>
<trkpt lat="53.520325" lon="-1.959426"><ele>485</ele><time>2020-09-24T12:16:49Z</time><name>PT2489</name></trkpt>
<trkpt lat="53.520291" lon="-1.959370"><ele>485</ele><time>2020-09-24T12:16:53Z</time><name>PT2490</name></trkpt>
<trkpt lat="53.520265" lon="-1.959311"><ele>485</ele><time>2020-09-24T12:16:57Z</time><name>PT2491</name></trkpt>
<trkpt lat="53.520236" lon="-1.959255"><ele>484</ele><time>2020-09-24T12:17:01Z</time><name>PT2492</name></trkpt>
<trkpt lat="53.520205" lon="-1.959202"><ele>483</ele><time>2020-09-24T12:17:05Z</time><name>PT2493</name></trkpt>
<trkpt lat="53.520171" lon="-1.959148"><ele>483</ele><time>2020-09-24T12:17:09Z</time><name>PT2494</name></trkpt>
<trkpt lat="53.520138" lon="-1.959100"><ele>483</ele><time>2020-09-24T12:17:13Z</time><name>PT2495</name></trkpt>
<trkpt lat="53.520106" lon="-1.959043"><ele>483</ele><time>2020-09-24T12:17:17Z</time><name>PT2496</name></trkpt>
<trkpt lat="53.520076" lon="-1.958994"><ele>483</ele><time>2020-09-24T12:17:21Z</time><name>PT2497</name></trkpt>
<trkpt lat="53.520041" lon="-1.958937"><ele>483</ele><time>2020-09-24T12:17:25Z</time><name>PT2498</name></trkpt>
<trkpt lat="53.520000" lon="-1.958872"><ele>484</ele><time>2020-09-24T12:17:29Z</time><name>PT2499</name></trkpt>
<trkpt lat="53.519955" lon="-1.958838"><ele>483</ele><time>2020-09-24T12:17:33Z</time><name>PT2500</name></trkpt>
<trkpt lat="53.519913" lon="-1.958818"><ele>483</ele><time>2020-09-24T12:17:37Z</time><name>PT2501</name></trkpt>
<trkpt lat="53.519883" lon="-1.958767"><ele>482</ele><time>2020-09-24T12:17:41Z</time><name>PT2502</name></trkpt>
<trkpt lat="53.519859" lon="-1.958709"><ele>482</ele><time>2020-09-24T12:17:45Z</time><name>PT2503</name></trkpt>
<trkpt lat="53.519834" lon="-1.958675"><ele>481</ele><time>2020-09-24T12:17:49Z</time><name>PT2504</name></trkpt>
<trkpt lat="53.519809" lon="-1.958611"><ele>481</ele><time>2020-09-24T12:17:53Z</time><name>PT2505</name></trkpt>
<trkpt lat="53.519787" lon="-1.958538"><ele>481</ele><time>2020-09-24T12:17:57Z</time><name>PT2506</name></trkpt>
<trkpt lat="53.519767" lon="-1.958472"><ele>481</ele><time>2020-09-24T12:18:01Z</time><name>PT2507</name></trkpt>
<trkpt lat="53.519747" lon="-1.958421"><ele>480</ele><time>2020-09-24T12:18:05Z</time><name>PT2508</name></trkpt>
<trkpt lat="53.519723" lon="-1.958355"><ele>480</ele><time>2020-09-24T12:18:09Z</time><name>PT2509</name></trkpt>
<trkpt lat="53.519704" lon="-1.958275"><ele>480</ele><time>2020-09-24T12:18:13Z</time><name>PT2510</name></trkpt>
<trkpt lat="53.519689" lon="-1.958202"><ele>481</ele><time>2020-09-24T12:18:17Z</time><name>PT2511</name></trkpt>
<trkpt lat="53.519677" lon="-1.958138"><ele>481</ele><time>2020-09-24T12:18:21Z</time><name>PT2512</name></trkpt>
<trkpt lat="53.519660" lon="-1.958075"><ele>482</ele><time>2020-09-24T12:18:25Z</time><name>PT2513</name></trkpt>
<trkpt lat="53.519647" lon="-1.957997"><ele>482</ele><time>2020-09-24T12:18:29Z</time><name>PT2514</name></trkpt>
<trkpt lat="53.519630" lon="-1.957918"><ele>482</ele><time>2020-09-24T12:18:33Z</time><name>PT2515</name></trkpt>
<trkpt lat="53.519600" lon="-1.957841"><ele>483</ele><time>2020-09-24T12:18:37Z</time><name>PT2516</name></trkpt>
<trkpt lat="53.519579" lon="-1.957774"><ele>482</ele><time>2020-09-24T12:18:41Z</time><name>PT2517</name></trkpt>
<trkpt lat="53.519560" lon="-1.957721"><ele>482</ele><time>2020-09-24T12:18:45Z</time><name>PT2518</name></trkpt>
<trkpt lat="53.519539" lon="-1.957670"><ele>481</ele><time>2020-09-24T12:18:49Z</time><name>PT2519</name></trkpt>
<trkpt lat="53.519518" lon="-1.957637"><ele>481</ele><time>2020-09-24T12:18:53Z</time><name>PT2520</name></trkpt>
<trkpt lat="53.519501" lon="-1.957575"><ele>481</ele><time>2020-09-24T12:18:57Z</time><name>PT2521</name></trkpt>
<trkpt lat="53.519483" lon="-1.957525"><ele>481</ele><time>2020-09-24T12:19:01Z</time><name>PT2522</name></trkpt>
<trkpt lat="53.519450" lon="-1.957526"><ele>481</ele><time>2020-09-24T12:19:05Z</time><name>PT2523</name></trkpt>
<trkpt lat="53.519416" lon="-1.957550"><ele>482</ele><time>2020-09-24T12:19:09Z</time><name>PT2524</name></trkpt>
<trkpt lat="53.519386" lon="-1.957573"><ele>481</ele><time>2020-09-24T12:19:13Z</time><name>PT2525</name></trkpt>
<trkpt lat="53.519354" lon="-1.957593"><ele>481</ele><time>2020-09-24T12:19:17Z</time><name>PT2526</name></trkpt>
<trkpt lat="53.519321" lon="-1.957632"><ele>480</ele><time>2020-09-24T12:19:21Z</time><name>PT2527</name></trkpt>
<trkpt lat="53.519295" lon="-1.957668"><ele>480</ele><time>2020-09-24T12:19:24Z</time><name>PT2528</name></trkpt>
<trkpt lat="53.519269" lon="-1.957729"><ele>479</ele><time>2020-09-24T12:19:28Z</time><name>PT2529</name></trkpt>
<trkpt lat="53.519250" lon="-1.957780"><ele>479</ele><time>2020-09-24T12:19:32Z</time><name>PT2530</name></trkpt>
<trkpt lat="53.519228" lon="-1.957825"><ele>478</ele><time>2020-09-24T12:19:36Z</time><name>PT2531</name></trkpt>
<trkpt lat="53.519207" lon="-1.957876"><ele>478</ele><time>2020-09-24T12:19:40Z</time><name>PT2532</name></trkpt>
<trkpt lat="53.519188" lon="-1.957917"><ele>477</ele><time>2020-09-24T12:19:44Z</time><name>PT2533</name></trkpt>
<trkpt lat="53.519173" lon="-1.957962"><ele>476</ele><time>2020-09-24T12:19:48Z</time><name>PT2534</name></trkpt>
<trkpt lat="53.519143" lon="-1.958003"><ele>476</ele><time>2020-09-24T12:19:52Z</time><name>PT2535</name></trkpt>
<trkpt lat="53.519112" lon="-1.958037"><ele>476</ele><time>2020-09-24T12:19:56Z</time><name>PT2536</name></trkpt>
<trkpt lat="53.519075" lon="-1.958077"><ele>476</ele><time>2020-09-24T12:20:00Z</time><name>PT2537</name></trkpt>
<trkpt lat="53.519035" lon="-1.958091"><ele>476</ele><time>2020-09-24T12:20:04Z</time><name>PT2538</name></trkpt>
<trkpt lat="53.518990" lon="-1.958102"><ele>475</ele><time>2020-09-24T12:20:08Z</time><name>PT2539</name></trkpt>
<trkpt lat="53.518947" lon="-1.958102"><ele>474</ele><time>2020-09-24T12:20:12Z</time><name>PT2540</name></trkpt>
<trkpt lat="53.518906" lon="-1.958108"><ele>474</ele><time>2020-09-24T12:20:16Z</time><name>PT2541</name></trkpt>
<trkpt lat="53.518871" lon="-1.958127"><ele>474</ele><time>2020-09-24T12:20:20Z</time><name>PT2542</name></trkpt>
<trkpt lat="53.518829" lon="-1.958145"><ele>474</ele><time>2020-09-24T12:20:24Z</time><name>PT2543</name></trkpt>
<trkpt lat="53.518786" lon="-1.958146"><ele>474</ele><time>2020-09-24T12:20:28Z</time><name>PT2544</name></trkpt>
<trkpt lat="53.518738" lon="-1.958143"><ele>474</ele><time>2020-09-24T12:20:32Z</time><name>PT2545</name></trkpt>
<trkpt lat="53.518693" lon="-1.958133"><ele>474</ele><time>2020-09-24T12:20:36Z</time><name>PT2546</name></trkpt>
<trkpt lat="53.518653" lon="-1.958112"><ele>475</ele><time>2020-09-24T12:20:40Z</time><name>PT2547</name></trkpt>
<trkpt lat="53.518615" lon="-1.958082"><ele>475</ele><time>2020-09-24T12:20:44Z</time><name>PT2548</name></trkpt>
<trkpt lat="53.518580" lon="-1.958084"><ele>476</ele><time>2020-09-24T12:20:48Z</time><name>PT2549</name></trkpt>
<trkpt lat="53.518540" lon="-1.958089"><ele>475</ele><time>2020-09-24T12:20:52Z</time><name>PT2550</name></trkpt>
<trkpt lat="53.518500" lon="-1.958102"><ele>474</ele><time>2020-09-24T12:20:56Z</time><name>PT2551</name></trkpt>
<trkpt lat="53.518458" lon="-1.958129"><ele>474</ele><time>2020-09-24T12:21:00Z</time><name>PT2552</name></trkpt>
<trkpt lat="53.518422" lon="-1.958163"><ele>474</ele><time>2020-09-24T12:21:04Z</time><name>PT2553</name></trkpt>
<trkpt lat="53.518388" lon="-1.958208"><ele>473</ele><time>2020-09-24T12:21:08Z</time><name>PT2554</name></trkpt>
<trkpt lat="53.518353" lon="-1.958260"><ele>473</ele><time>2020-09-24T12:21:12Z</time><name>PT2555</name></trkpt>
<trkpt lat="53.518310" lon="-1.958283"><ele>473</ele><time>2020-09-24T12:21:16Z</time><name>PT2556</name></trkpt>
<trkpt lat="53.518265" lon="-1.958283"><ele>473</ele><time>2020-09-24T12:21:20Z</time><name>PT2557</name></trkpt>
<trkpt lat="53.518221" lon="-1.958287"><ele>472</ele><time>2020-09-24T12:21:24Z</time><name>PT2558</name></trkpt>
<trkpt lat="53.518172" lon="-1.958296"><ele>471</ele><time>2020-09-24T12:21:28Z</time><name>PT2559</name></trkpt>
<trkpt lat="53.518129" lon="-1.958290"><ele>470</ele><time>2020-09-24T12:21:32Z</time><name>PT2560</name></trkpt>
<trkpt lat="53.518083" lon="-1.958265"><ele>470</ele><time>2020-09-24T12:21:36Z</time><name>PT2561</name></trkpt>
<trkpt lat="53.518043" lon="-1.958251"><ele>471</ele><time>2020-09-24T12:21:40Z</time><name>PT2562</name></trkpt>
<trkpt lat="53.518002" lon="-1.958253"><ele>471</ele><time>2020-09-24T12:21:44Z</time><name>PT2563</name></trkpt>
<trkpt lat="53.517958" lon="-1.958243"><ele>471</ele><time>2020-09-24T12:21:48Z</time><name>PT2564</name></trkpt>
<trkpt lat="53.517913" lon="-1.958232"><ele>471</ele><time>2020-09-24T12:21:52Z</time><name>PT2565</name></trkpt>
<trkpt lat="53.517873" lon="-1.958222"><ele>471</ele><time>2020-09-24T12:21:56Z</time><name>PT2566</name></trkpt>
<trkpt lat="53.517840" lon="-1.958211"><ele>472</ele><time>2020-09-24T12:22:00Z</time><name>PT2567</name></trkpt>
<trkpt lat="53.517802" lon="-1.958206"><ele>473</ele><time>2020-09-24T12:22:04Z</time><name>PT2568</name></trkpt>
<trkpt lat="53.517762" lon="-1.958198"><ele>473</ele><time>2020-09-24T12:22:08Z</time><name>PT2569</name></trkpt>
<trkpt lat="53.517717" lon="-1.958168"><ele>473</ele><time>2020-09-24T12:22:12Z</time><name>PT2570</name></trkpt>
<trkpt lat="53.517677" lon="-1.958149"><ele>472</ele><time>2020-09-24T12:22:16Z</time><name>PT2571</name></trkpt>
<trkpt lat="53.517638" lon="-1.958136"><ele>472</ele><time>2020-09-24T12:22:20Z</time><name>PT2572</name></trkpt>
<trkpt lat="53.517593" lon="-1.958131"><ele>472</ele><time>2020-09-24T12:22:24Z</time><name>PT2573</name></trkpt>
<trkpt lat="53.517551" lon="-1.958121"><ele>471</ele><time>2020-09-24T12:22:28Z</time><name>PT2574</name></trkpt>
<trkpt lat="53.517534" lon="-1.958103"><ele>471</ele><time>2020-09-24T12:22:31Z</time><name>PT2575</name></trkpt>
<trkpt lat="53.517498" lon="-1.958078"><ele>472</ele><time>2020-09-24T12:22:35Z</time><name>PT2576</name></trkpt>
<trkpt lat="53.517462" lon="-1.958072"><ele>473</ele><time>2020-09-24T12:22:39Z</time><name>PT2577</name></trkpt>
<trkpt lat="53.517418" lon="-1.958067"><ele>473</ele><time>2020-09-24T12:22:43Z</time><name>PT2578</name></trkpt>
<trkpt lat="53.517379" lon="-1.958059"><ele>473</ele><time>2020-09-24T12:22:47Z</time><name>PT2579</name></trkpt>
<trkpt lat="53.517344" lon="-1.958058"><ele>474</ele><time>2020-09-24T12:22:51Z</time><name>PT2580</name></trkpt>
<trkpt lat="53.517301" lon="-1.958061"><ele>475</ele><time>2020-09-24T12:22:55Z</time><name>PT2581</name></trkpt>
<trkpt lat="53.517264" lon="-1.958087"><ele>474</ele><time>2020-09-24T12:22:59Z</time><name>PT2582</name></trkpt>
<trkpt lat="53.517219" lon="-1.958097"><ele>474</ele><time>2020-09-24T12:23:03Z</time><name>PT2583</name></trkpt>
<trkpt lat="53.517182" lon="-1.958088"><ele>474</ele><time>2020-09-24T12:23:07Z</time><name>PT2584</name></trkpt>
<trkpt lat="53.517144" lon="-1.958068"><ele>474</ele><time>2020-09-24T12:23:11Z</time><name>PT2585</name></trkpt>
<trkpt lat="53.517107" lon="-1.958062"><ele>475</ele><time>2020-09-24T12:23:15Z</time><name>PT2586</name></trkpt>
<trkpt lat="53.517060" lon="-1.958072"><ele>475</ele><time>2020-09-24T12:23:19Z</time><name>PT2587</name></trkpt>
<trkpt lat="53.517015" lon="-1.958076"><ele>475</ele><time>2020-09-24T12:23:23Z</time><name>PT2588</name></trkpt>
<trkpt lat="53.516968" lon="-1.958075"><ele>476</ele><time>2020-09-24T12:23:27Z</time><name>PT2589</name></trkpt>
<trkpt lat="53.516928" lon="-1.958078"><ele>477</ele><time>2020-09-24T12:23:31Z</time><name>PT2590</name></trkpt>
<trkpt lat="53.516882" lon="-1.958071"><ele>477</ele><time>2020-09-24T12:23:35Z</time><name>PT2591</name></trkpt>
<trkpt lat="53.516840" lon="-1.958099"><ele>477</ele><time>2020-09-24T12:23:39Z</time><name>PT2592</name></trkpt>
<trkpt lat="53.516802" lon="-1.958116"><ele>477</ele><time>2020-09-24T12:23:43Z</time><name>PT2593</name></trkpt>
<trkpt lat="53.516752" lon="-1.958116"><ele>477</ele><time>2020-09-24T12:23:47Z</time><name>PT2594</name></trkpt>
<trkpt lat="53.516708" lon="-1.958108"><ele>477</ele><time>2020-09-24T12:23:51Z</time><name>PT2595</name></trkpt>
<trkpt lat="53.516665" lon="-1.958105"><ele>477</ele><time>2020-09-24T12:23:55Z</time><name>PT2596</name></trkpt>
<trkpt lat="53.516617" lon="-1.958085"><ele>478</ele><time>2020-09-24T12:23:59Z</time><name>PT2597</name></trkpt>
<trkpt lat="53.516573" lon="-1.958049"><ele>478</ele><time>2020-09-24T12:24:03Z</time><name>PT2598</name></trkpt>
<trkpt lat="53.516528" lon="-1.958026"><ele>478</ele><time>2020-09-24T12:24:07Z</time><name>PT2599</name></trkpt>
<trkpt lat="53.516483" lon="-1.958025"><ele>478</ele><time>2020-09-24T12:24:11Z</time><name>PT2600</name></trkpt>
<trkpt lat="53.516445" lon="-1.958003"><ele>478</ele><time>2020-09-24T12:24:15Z</time><name>PT2601</name></trkpt>
<trkpt lat="53.516406" lon="-1.957995"><ele>479</ele><time>2020-09-24T12:24:19Z</time><name>PT2602</name></trkpt>
<trkpt lat="53.516373" lon="-1.957971"><ele>479</ele><time>2020-09-24T12:24:23Z</time><name>PT2603</name></trkpt>
<trkpt lat="53.516330" lon="-1.957933"><ele>479</ele><time>2020-09-24T12:24:27Z</time><name>PT2604</name></trkpt>
<trkpt lat="53.516289" lon="-1.957935"><ele>479</ele><time>2020-09-24T12:24:31Z</time><name>PT2605</name></trkpt>
<trkpt lat="53.516249" lon="-1.957916"><ele>480</ele><time>2020-09-24T12:24:35Z</time><name>PT2606</name></trkpt>
<trkpt lat="53.516201" lon="-1.957905"><ele>480</ele><time>2020-09-24T12:24:39Z</time><name>PT2607</name></trkpt>
<trkpt lat="53.516157" lon="-1.957908"><ele>480</ele><time>2020-09-24T12:24:43Z</time><name>PT2608</name></trkpt>
<trkpt lat="53.516114" lon="-1.957898"><ele>480</ele><time>2020-09-24T12:24:47Z</time><name>PT2609</name></trkpt>
<trkpt lat="53.516073" lon="-1.957869"><ele>481</ele><time>2020-09-24T12:24:51Z</time><name>PT2610</name></trkpt>
<trkpt lat="53.516034" lon="-1.957835"><ele>480</ele><time>2020-09-24T12:24:55Z</time><name>PT2611</name></trkpt>
<trkpt lat="53.515989" lon="-1.957824"><ele>481</ele><time>2020-09-24T12:24:59Z</time><name>PT2612</name></trkpt>
<trkpt lat="53.515942" lon="-1.957809"><ele>482</ele><time>2020-09-24T12:25:03Z</time><name>PT2613</name></trkpt>
<trkpt lat="53.515892" lon="-1.957790"><ele>482</ele><time>2020-09-24T12:25:07Z</time><name>PT2614</name></trkpt>
<trkpt lat="53.515849" lon="-1.957782"><ele>482</ele><time>2020-09-24T12:25:11Z</time><name>PT2615</name></trkpt>
<trkpt lat="53.515805" lon="-1.957782"><ele>481</ele><time>2020-09-24T12:25:15Z</time><name>PT2616</name></trkpt>
<trkpt lat="53.515768" lon="-1.957783"><ele>482</ele><time>2020-09-24T12:25:19Z</time><name>PT2617</name></trkpt>
<trkpt lat="53.515731" lon="-1.957760"><ele>482</ele><time>2020-09-24T12:25:23Z</time><name>PT2618</name></trkpt>
<trkpt lat="53.515686" lon="-1.957733"><ele>483</ele><time>2020-09-24T12:25:27Z</time><name>PT2619</name></trkpt>
<trkpt lat="53.515638" lon="-1.957722"><ele>483</ele><time>2020-09-24T12:25:31Z</time><name>PT2620</name></trkpt>
<trkpt lat="53.515594" lon="-1.957720"><ele>482</ele><time>2020-09-24T12:25:35Z</time><name>PT2621</name></trkpt>
<trkpt lat="53.515545" lon="-1.957728"><ele>482</ele><time>2020-09-24T12:25:39Z</time><name>PT2622</name></trkpt>
<trkpt lat="53.515493" lon="-1.957726"><ele>484</ele><time>2020-09-24T12:25:43Z</time><name>PT2623</name></trkpt>
<trkpt lat="53.515450" lon="-1.957707"><ele>483</ele><time>2020-09-24T12:25:47Z</time><name>PT2624</name></trkpt>
<trkpt lat="53.515411" lon="-1.957688"><ele>484</ele><time>2020-09-24T12:25:51Z</time><name>PT2625</name></trkpt>
<trkpt lat="53.515379" lon="-1.957687"><ele>482</ele><time>2020-09-24T12:25:55Z</time><name>PT2626</name></trkpt>
<trkpt lat="53.515342" lon="-1.957672"><ele>482</ele><time>2020-09-24T12:25:59Z</time><name>PT2627</name></trkpt>
<trkpt lat="53.515293" lon="-1.957664"><ele>481</ele><time>2020-09-24T12:26:03Z</time><name>PT2628</name></trkpt>
<trkpt lat="53.515252" lon="-1.957654"><ele>481</ele><time>2020-09-24T12:26:07Z</time><name>PT2629</name></trkpt>
<trkpt lat="53.515206" lon="-1.957645"><ele>481</ele><time>2020-09-24T12:26:11Z</time><name>PT2630</name></trkpt>
<trkpt lat="53.515164" lon="-1.957660"><ele>482</ele><time>2020-09-24T12:26:15Z</time><name>PT2631</name></trkpt>
<trkpt lat="53.515124" lon="-1.957675"><ele>482</ele><time>2020-09-24T12:26:19Z</time><name>PT2632</name></trkpt>
<trkpt lat="53.515087" lon="-1.957670"><ele>481</ele><time>2020-09-24T12:26:23Z</time><name>PT2633</name></trkpt>
<trkpt lat="53.515044" lon="-1.957651"><ele>480</ele><time>2020-09-24T12:26:27Z</time><name>PT2634</name></trkpt>
<trkpt lat="53.514999" lon="-1.957630"><ele>480</ele><time>2020-09-24T12:26:31Z</time><name>PT2635</name></trkpt>
<trkpt lat="53.514959" lon="-1.957608"><ele>481</ele><time>2020-09-24T12:26:35Z</time><name>PT2636</name></trkpt>
<trkpt lat="53.514913" lon="-1.957581"><ele>481</ele><time>2020-09-24T12:26:39Z</time><name>PT2637</name></trkpt>
<trkpt lat="53.514871" lon="-1.957558"><ele>482</ele><time>2020-09-24T12:26:43Z</time><name>PT2638</name></trkpt>
<trkpt lat="53.514829" lon="-1.957525"><ele>483</ele><time>2020-09-24T12:26:47Z</time><name>PT2639</name></trkpt>
<trkpt lat="53.514792" lon="-1.957506"><ele>482</ele><time>2020-09-24T12:26:51Z</time><name>PT2640</name></trkpt>
<trkpt lat="53.514749" lon="-1.957482"><ele>482</ele><time>2020-09-24T12:26:55Z</time><name>PT2641</name></trkpt>
<trkpt lat="53.514706" lon="-1.957462"><ele>482</ele><time>2020-09-24T12:26:59Z</time><name>PT2642</name></trkpt>
<trkpt lat="53.514662" lon="-1.957428"><ele>482</ele><time>2020-09-24T12:27:03Z</time><name>PT2643</name></trkpt>
<trkpt lat="53.514624" lon="-1.957398"><ele>483</ele><time>2020-09-24T12:27:07Z</time><name>PT2644</name></trkpt>
<trkpt lat="53.514580" lon="-1.957367"><ele>482</ele><time>2020-09-24T12:27:11Z</time><name>PT2645</name></trkpt>
<trkpt lat="53.514543" lon="-1.957332"><ele>482</ele><time>2020-09-24T12:27:15Z</time><name>PT2646</name></trkpt>
<trkpt lat="53.514503" lon="-1.957304"><ele>482</ele><time>2020-09-24T12:27:19Z</time><name>PT2647</name></trkpt>
<trkpt lat="53.514459" lon="-1.957288"><ele>482</ele><time>2020-09-24T12:27:23Z</time><name>PT2648</name></trkpt>
<trkpt lat="53.514427" lon="-1.957260"><ele>482</ele><time>2020-09-24T12:27:27Z</time><name>PT2649</name></trkpt>
<trkpt lat="53.514386" lon="-1.957246"><ele>481</ele><time>2020-09-24T12:27:31Z</time><name>PT2650</name></trkpt>
<trkpt lat="53.514344" lon="-1.957219"><ele>481</ele><time>2020-09-24T12:27:35Z</time><name>PT2651</name></trkpt>
<trkpt lat="53.514311" lon="-1.957204"><ele>481</ele><time>2020-09-24T12:27:39Z</time><name>PT2652</name></trkpt>
<trkpt lat="53.514290" lon="-1.957183"><ele>481</ele><time>2020-09-24T12:27:43Z</time><name>PT2653</name></trkpt>
<trkpt lat="53.514273" lon="-1.957162"><ele>480</ele><time>2020-09-24T12:27:47Z</time><name>PT2654</name></trkpt>
<trkpt lat="53.514270" lon="-1.957158"><ele>481</ele><time>2020-09-24T12:27:51Z</time><name>PT2655</name></trkpt>
<trkpt lat="53.514242" lon="-1.957131"><ele>481</ele><time>2020-09-24T12:27:55Z</time><name>PT2656</name></trkpt>
<trkpt lat="53.514196" lon="-1.957105"><ele>481</ele><time>2020-09-24T12:27:59Z</time><name>PT2657</name></trkpt>
<trkpt lat="53.514157" lon="-1.957069"><ele>482</ele><time>2020-09-24T12:28:03Z</time><name>PT2658</name></trkpt>
<trkpt lat="53.514115" lon="-1.957036"><ele>482</ele><time>2020-09-24T12:28:07Z</time><name>PT2659</name></trkpt>
<trkpt lat="53.514079" lon="-1.956987"><ele>482</ele><time>2020-09-24T12:28:11Z</time><name>PT2660</name></trkpt>
<trkpt lat="53.514051" lon="-1.956942"><ele>482</ele><time>2020-09-24T12:28:15Z</time><name>PT2661</name></trkpt>
<trkpt lat="53.514019" lon="-1.956901"><ele>482</ele><time>2020-09-24T12:28:19Z</time><name>PT2662</name></trkpt>
<trkpt lat="53.513985" lon="-1.956866"><ele>482</ele><time>2020-09-24T12:28:23Z</time><name>PT2663</name></trkpt>
<trkpt lat="53.513942" lon="-1.956835"><ele>482</ele><time>2020-09-24T12:28:27Z</time><name>PT2664</name></trkpt>
<trkpt lat="53.513910" lon="-1.956793"><ele>483</ele><time>2020-09-24T12:28:31Z</time><name>PT2665</name></trkpt>
<trkpt lat="53.513871" lon="-1.956758"><ele>483</ele><time>2020-09-24T12:28:35Z</time><name>PT2666</name></trkpt>
<trkpt lat="53.513832" lon="-1.956720"><ele>483</ele><time>2020-09-24T12:28:39Z</time><name>PT2667</name></trkpt>
<trkpt lat="53.513791" lon="-1.956685"><ele>483</ele><time>2020-09-24T12:28:43Z</time><name>PT2668</name></trkpt>
<trkpt lat="53.513757" lon="-1.956636"><ele>482</ele><time>2020-09-24T12:28:47Z</time><name>PT2669</name></trkpt>
<trkpt lat="53.513729" lon="-1.956585"><ele>482</ele><time>2020-09-24T12:28:51Z</time><name>PT2670</name></trkpt>
<trkpt lat="53.513704" lon="-1.956529"><ele>482</ele><time>2020-09-24T12:28:55Z</time><name>PT2671</name></trkpt>
<trkpt lat="53.513683" lon="-1.956472"><ele>482</ele><time>2020-09-24T12:28:59Z</time><name>PT2672</name></trkpt>
<trkpt lat="53.513654" lon="-1.956417"><ele>482</ele><time>2020-09-24T12:29:03Z</time><name>PT2673</name></trkpt>
<trkpt lat="53.513631" lon="-1.956362"><ele>482</ele><time>2020-09-24T12:29:07Z</time><name>PT2674</name></trkpt>
<trkpt lat="53.513601" lon="-1.956304"><ele>482</ele><time>2020-09-24T12:29:11Z</time><name>PT2675</name></trkpt>
<trkpt lat="53.513565" lon="-1.956260"><ele>483</ele><time>2020-09-24T12:29:15Z</time><name>PT2676</name></trkpt>
<trkpt lat="53.513529" lon="-1.956222"><ele>483</ele><time>2020-09-24T12:29:19Z</time><name>PT2677</name></trkpt>
<trkpt lat="53.513495" lon="-1.956175"><ele>484</ele><time>2020-09-24T12:29:23Z</time><name>PT2678</name></trkpt>
<trkpt lat="53.513456" lon="-1.956125"><ele>483</ele><time>2020-09-24T12:29:27Z</time><name>PT2679</name></trkpt>
<trkpt lat="53.513423" lon="-1.956078"><ele>483</ele><time>2020-09-24T12:29:31Z</time><name>PT2680</name></trkpt>
<trkpt lat="53.513388" lon="-1.956032"><ele>484</ele><time>2020-09-24T12:29:35Z</time><name>PT2681</name></trkpt>
<trkpt lat="53.513350" lon="-1.955986"><ele>483</ele><time>2020-09-24T12:29:39Z</time><name>PT2682</name></trkpt>
<trkpt lat="53.513308" lon="-1.955944"><ele>484</ele><time>2020-09-24T12:29:43Z</time><name>PT2683</name></trkpt>
<trkpt lat="53.513273" lon="-1.955907"><ele>484</ele><time>2020-09-24T12:29:47Z</time><name>PT2684</name></trkpt>
<trkpt lat="53.513226" lon="-1.955868"><ele>484</ele><time>2020-09-24T12:29:51Z</time><name>PT2685</name></trkpt>
<trkpt lat="53.513182" lon="-1.955837"><ele>484</ele><time>2020-09-24T12:29:55Z</time><name>PT2686</name></trkpt>
<trkpt lat="53.513145" lon="-1.955798"><ele>484</ele><time>2020-09-24T12:29:59Z</time><name>PT2687</name></trkpt>
<trkpt lat="53.513108" lon="-1.955773"><ele>485</ele><time>2020-09-24T12:30:03Z</time><name>PT2688</name></trkpt>
<trkpt lat="53.513069" lon="-1.955730"><ele>485</ele><time>2020-09-24T12:30:07Z</time><name>PT2689</name></trkpt>
<trkpt lat="53.513035" lon="-1.955698"><ele>485</ele><time>2020-09-24T12:30:11Z</time><name>PT2690</name></trkpt>
<trkpt lat="53.513002" lon="-1.955677"><ele>485</ele><time>2020-09-24T12:30:15Z</time><name>PT2691</name></trkpt>
<trkpt lat="53.512988" lon="-1.955660"><ele>484</ele><time>2020-09-24T12:30:19Z</time><name>PT2692</name></trkpt>
<trkpt lat="53.512962" lon="-1.955644"><ele>484</ele><time>2020-09-24T12:30:23Z</time><name>PT2693</name></trkpt>
<trkpt lat="53.512927" lon="-1.955605"><ele>484</ele><time>2020-09-24T12:30:27Z</time><name>PT2694</name></trkpt>
<trkpt lat="53.512900" lon="-1.955566"><ele>485</ele><time>2020-09-24T12:30:31Z</time><name>PT2695</name></trkpt>
<trkpt lat="53.512870" lon="-1.955546"><ele>485</ele><time>2020-09-24T12:30:35Z</time><name>PT2696</name></trkpt>
<trkpt lat="53.512836" lon="-1.955523"><ele>485</ele><time>2020-09-24T12:30:39Z</time><name>PT2697</name></trkpt>
<trkpt lat="53.512795" lon="-1.955479"><ele>484</ele><time>2020-09-24T12:30:43Z</time><name>PT2698</name></trkpt>
<trkpt lat="53.512762" lon="-1.955439"><ele>484</ele><time>2020-09-24T12:30:47Z</time><name>PT2699</name></trkpt>
<trkpt lat="53.512724" lon="-1.955402"><ele>484</ele><time>2020-09-24T12:30:51Z</time><name>PT2700</name></trkpt>
<trkpt lat="53.512682" lon="-1.955368"><ele>483</ele><time>2020-09-24T12:30:55Z</time><name>PT2701</name></trkpt>
<trkpt lat="53.512641" lon="-1.955336"><ele>484</ele><time>2020-09-24T12:30:59Z</time><name>PT2702</name></trkpt>
<trkpt lat="53.512610" lon="-1.955283"><ele>483</ele><time>2020-09-24T12:31:03Z</time><name>PT2703</name></trkpt>
<trkpt lat="53.512577" lon="-1.955234"><ele>482</ele><time>2020-09-24T12:31:07Z</time><name>PT2704</name></trkpt>
<trkpt lat="53.512551" lon="-1.955209"><ele>482</ele><time>2020-09-24T12:31:11Z</time><name>PT2705</name></trkpt>
<trkpt lat="53.512549" lon="-1.955188"><ele>481</ele><time>2020-09-24T12:31:15Z</time><name>PT2706</name></trkpt>
<trkpt lat="53.512552" lon="-1.955119"><ele>480</ele><time>2020-09-24T12:31:19Z</time><name>PT2707</name></trkpt>
<trkpt lat="53.512543" lon="-1.955035"><ele>480</ele><time>2020-09-24T12:31:23Z</time><name>PT2708</name></trkpt>
<trkpt lat="53.512528" lon="-1.954964"><ele>480</ele><time>2020-09-24T12:31:27Z</time><name>PT2709</name></trkpt>
<trkpt lat="53.512517" lon="-1.954909"><ele>479</ele><time>2020-09-24T12:31:31Z</time><name>PT2710</name></trkpt>
<trkpt lat="53.512512" lon="-1.954845"><ele>478</ele><time>2020-09-24T12:31:35Z</time><name>PT2711</name></trkpt>
<trkpt lat="53.512511" lon="-1.954775"><ele>478</ele><time>2020-09-24T12:31:39Z</time><name>PT2712</name></trkpt>
<trkpt lat="53.512514" lon="-1.954711"><ele>478</ele><time>2020-09-24T12:31:43Z</time><name>PT2713</name></trkpt>
<trkpt lat="53.512512" lon="-1.954641"><ele>477</ele><time>2020-09-24T12:31:47Z</time><name>PT2714</name></trkpt>
<trkpt lat="53.512523" lon="-1.954566"><ele>477</ele><time>2020-09-24T12:31:51Z</time><name>PT2715</name></trkpt>
<trkpt lat="53.512534" lon="-1.954498"><ele>477</ele><time>2020-09-24T12:31:55Z</time><name>PT2716</name></trkpt>
<trkpt lat="53.512536" lon="-1.954421"><ele>478</ele><time>2020-09-24T12:31:59Z</time><name>PT2717</name></trkpt>
<trkpt lat="53.512532" lon="-1.954357"><ele>479</ele><time>2020-09-24T12:32:02Z</time><name>PT2718</name></trkpt>
<trkpt lat="53.512533" lon="-1.954280"><ele>479</ele><time>2020-09-24T12:32:06Z</time><name>PT2719</name></trkpt>
<trkpt lat="53.512525" lon="-1.954208"><ele>479</ele><time>2020-09-24T12:32:10Z</time><name>PT2720</name></trkpt>
<trkpt lat="53.512519" lon="-1.954123"><ele>479</ele><time>2020-09-24T12:32:14Z</time><name>PT2721</name></trkpt>
<trkpt lat="53.512517" lon="-1.954041"><ele>479</ele><time>2020-09-24T12:32:18Z</time><name>PT2722</name></trkpt>
<trkpt lat="53.512519" lon="-1.953965"><ele>480</ele><time>2020-09-24T12:32:22Z</time><name>PT2723</name></trkpt>
<trkpt lat="53.512525" lon="-1.953907"><ele>480</ele><time>2020-09-24T12:32:25Z</time><name>PT2724</name></trkpt>
<trkpt lat="53.512528" lon="-1.953853"><ele>481</ele><time>2020-09-24T12:32:29Z</time><name>PT2725</name></trkpt>
<trkpt lat="53.512533" lon="-1.953785"><ele>481</ele><time>2020-09-24T12:32:33Z</time><name>PT2726</name></trkpt>
<trkpt lat="53.512541" lon="-1.953723"><ele>481</ele><time>2020-09-24T12:32:37Z</time><name>PT2727</name></trkpt>
<trkpt lat="53.512555" lon="-1.953665"><ele>481</ele><time>2020-09-24T12:32:41Z</time><name>PT2728</name></trkpt>
<trkpt lat="53.512562" lon="-1.953594"><ele>481</ele><time>2020-09-24T12:32:45Z</time><name>PT2729</name></trkpt>
<trkpt lat="53.512564" lon="-1.953526"><ele>482</ele><time>2020-09-24T12:32:49Z</time><name>PT2730</name></trkpt>
<trkpt lat="53.512569" lon="-1.953470"><ele>481</ele><time>2020-09-24T12:32:52Z</time><name>PT2731</name></trkpt>
<trkpt lat="53.512580" lon="-1.953399"><ele>482</ele><time>2020-09-24T12:32:56Z</time><name>PT2732</name></trkpt>
<trkpt lat="53.512582" lon="-1.953327"><ele>482</ele><time>2020-09-24T12:33:00Z</time><name>PT2733</name></trkpt>
<trkpt lat="53.512592" lon="-1.953265"><ele>482</ele><time>2020-09-24T12:33:03Z</time><name>PT2734</name></trkpt>
<trkpt lat="53.512605" lon="-1.953187"><ele>482</ele><time>2020-09-24T12:33:07Z</time><name>PT2735</name></trkpt>
<trkpt lat="53.512633" lon="-1.953107"><ele>483</ele><time>2020-09-24T12:33:11Z</time><name>PT2736</name></trkpt>
<trkpt lat="53.512649" lon="-1.953039"><ele>482</ele><time>2020-09-24T12:33:15Z</time><name>PT2737</name></trkpt>
<trkpt lat="53.512668" lon="-1.952964"><ele>483</ele><time>2020-09-24T12:33:19Z</time><name>PT2738</name></trkpt>
<trkpt lat="53.512695" lon="-1.952904"><ele>482</ele><time>2020-09-24T12:33:23Z</time><name>PT2739</name></trkpt>
<trkpt lat="53.512722" lon="-1.952845"><ele>482</ele><time>2020-09-24T12:33:27Z</time><name>PT2740</name></trkpt>
<trkpt lat="53.512753" lon="-1.952796"><ele>482</ele><time>2020-09-24T12:33:31Z</time><name>PT2741</name></trkpt>
<trkpt lat="53.512780" lon="-1.952779"><ele>481</ele><time>2020-09-24T12:33:35Z</time><name>PT2742</name></trkpt>
<trkpt lat="53.512802" lon="-1.952772"><ele>481</ele><time>2020-09-24T12:33:39Z</time><name>PT2743</name></trkpt>
<trkpt lat="53.512807" lon="-1.952769"><ele>481</ele><time>2020-09-24T12:33:43Z</time><name>PT2744</name></trkpt>
<trkpt lat="53.512823" lon="-1.952743"><ele>479</ele><time>2020-09-24T12:33:47Z</time><name>PT2745</name></trkpt>
<trkpt lat="53.512830" lon="-1.952744"><ele>479</ele><time>2020-09-24T12:33:55Z</time><name>PT2746</name></trkpt>
<trkpt lat="53.512857" lon="-1.952713"><ele>478</ele><time>2020-09-24T12:33:59Z</time><name>PT2747</name></trkpt>
<trkpt lat="53.512878" lon="-1.952668"><ele>477</ele><time>2020-09-24T12:34:03Z</time><name>PT2748</name></trkpt>
<trkpt lat="53.512901" lon="-1.952637"><ele>476</ele><time>2020-09-24T12:34:07Z</time><name>PT2749</name></trkpt>
<trkpt lat="53.512928" lon="-1.952576"><ele>476</ele><time>2020-09-24T12:34:11Z</time><name>PT2750</name></trkpt>
<trkpt lat="53.512951" lon="-1.952516"><ele>477</ele><time>2020-09-24T12:34:15Z</time><name>PT2751</name></trkpt>
<trkpt lat="53.512966" lon="-1.952458"><ele>477</ele><time>2020-09-24T12:34:19Z</time><name>PT2752</name></trkpt>
<trkpt lat="53.512966" lon="-1.952394"><ele>478</ele><time>2020-09-24T12:34:23Z</time><name>PT2753</name></trkpt>
<trkpt lat="53.512947" lon="-1.952324"><ele>478</ele><time>2020-09-24T12:34:27Z</time><name>PT2754</name></trkpt>
<trkpt lat="53.512927" lon="-1.952251"><ele>479</ele><time>2020-09-24T12:34:31Z</time><name>PT2755</name></trkpt>
<trkpt lat="53.512918" lon="-1.952171"><ele>479</ele><time>2020-09-24T12:34:35Z</time><name>PT2756</name></trkpt>
<trkpt lat="53.512898" lon="-1.952099"><ele>478</ele><time>2020-09-24T12:34:39Z</time><name>PT2757</name></trkpt>
<trkpt lat="53.512859" lon="-1.952062"><ele>478</ele><time>2020-09-24T12:34:43Z</time><name>PT2758</name></trkpt>
<trkpt lat="53.512815" lon="-1.952031"><ele>478</ele><time>2020-09-24T12:34:47Z</time><name>PT2759</name></trkpt>
<trkpt lat="53.512784" lon="-1.952027"><ele>478</ele><time>2020-09-24T12:34:51Z</time><name>PT2760</name></trkpt>
<trkpt lat="53.512764" lon="-1.952007"><ele>475</ele><time>2020-09-24T12:34:55Z</time><name>PT2761</name></trkpt>
<trkpt lat="53.512744" lon="-1.951978"><ele>474</ele><time>2020-09-24T12:34:59Z</time><name>PT2762</name></trkpt>
<trkpt lat="53.512734" lon="-1.951946"><ele>474</ele><time>2020-09-24T12:35:03Z</time><name>PT2763</name></trkpt>
<trkpt lat="53.512718" lon="-1.951941"><ele>473</ele><time>2020-09-24T12:35:07Z</time><name>PT2764</name></trkpt>
<trkpt lat="53.512701" lon="-1.951942"><ele>472</ele><time>2020-09-24T12:35:11Z</time><name>PT2765</name></trkpt>
<trkpt lat="53.512680" lon="-1.951914"><ele>471</ele><time>2020-09-24T12:35:15Z</time><name>PT2766</name></trkpt>
<trkpt lat="53.512669" lon="-1.951897"><ele>469</ele><time>2020-09-24T12:35:19Z</time><name>PT2767</name></trkpt>
<trkpt lat="53.512667" lon="-1.951892"><ele>468</ele><time>2020-09-24T12:35:23Z</time><name>PT2768</name></trkpt>
<trkpt lat="53.512659" lon="-1.951896"><ele>468</ele><time>2020-09-24T12:35:27Z</time><name>PT2769</name></trkpt>
<trkpt lat="53.512663" lon="-1.951902"><ele>468</ele><time>2020-09-24T12:35:31Z</time><name>PT2770</name></trkpt>
<trkpt lat="53.512669" lon="-1.951905"><ele>469</ele><time>2020-09-24T12:35:35Z</time><name>PT2771</name></trkpt>
<trkpt lat="53.512670" lon="-1.951910"><ele>469</ele><time>2020-09-24T12:35:39Z</time><name>PT2772</name></trkpt>
<trkpt lat="53.512673" lon="-1.951917"><ele>469</ele><time>2020-09-24T12:36:11Z</time><name>PT2773</name></trkpt>
<trkpt lat="53.512671" lon="-1.951917"><ele>468</ele><time>2020-09-24T12:36:15Z</time><name>PT2774</name></trkpt>
<trkpt lat="53.512671" lon="-1.951918"><ele>468</ele><time>2020-09-24T12:36:19Z</time><name>PT2775</name></trkpt>
<trkpt lat="53.512663" lon="-1.951905"><ele>467</ele><time>2020-09-24T12:36:47Z</time><name>PT2776</name></trkpt>
<trkpt lat="53.512659" lon="-1.951899"><ele>466</ele><time>2020-09-24T12:36:51Z</time><name>PT2777</name></trkpt>
<trkpt lat="53.512662" lon="-1.951896"><ele>465</ele><time>2020-09-24T12:37:43Z</time><name>PT2778</name></trkpt>
<trkpt lat="53.512664" lon="-1.951901"><ele>464</ele><time>2020-09-24T12:37:47Z</time><name>PT2779</name></trkpt>
<trkpt lat="53.512665" lon="-1.951902"><ele>464</ele><time>2020-09-24T12:37:51Z</time><name>PT2780</name></trkpt>
<trkpt lat="53.512653" lon="-1.951947"><ele>464</ele><time>2020-09-24T12:38:07Z</time><name>PT2781</name></trkpt>
<trkpt lat="53.512643" lon="-1.952040"><ele>462</ele><time>2020-09-24T12:38:11Z</time><name>PT2782</name></trkpt>
<trkpt lat="53.512628" lon="-1.952115"><ele>461</ele><time>2020-09-24T12:38:15Z</time><name>PT2783</name></trkpt>
<trkpt lat="53.512612" lon="-1.952190"><ele>460</ele><time>2020-09-24T12:38:19Z</time><name>PT2784</name></trkpt>
<trkpt lat="53.512598" lon="-1.952257"><ele>460</ele><time>2020-09-24T12:38:23Z</time><name>PT2785</name></trkpt>
<trkpt lat="53.512585" lon="-1.952320"><ele>459</ele><time>2020-09-24T12:38:27Z</time><name>PT2786</name></trkpt>
<trkpt lat="53.512567" lon="-1.952386"><ele>458</ele><time>2020-09-24T12:38:31Z</time><name>PT2787</name></trkpt>
<trkpt lat="53.512549" lon="-1.952444"><ele>458</ele><time>2020-09-24T12:38:35Z</time><name>PT2788</name></trkpt>
<trkpt lat="53.512529" lon="-1.952507"><ele>458</ele><time>2020-09-24T12:38:39Z</time><name>PT2789</name></trkpt>
<trkpt lat="53.512507" lon="-1.952569"><ele>457</ele><time>2020-09-24T12:38:43Z</time><name>PT2790</name></trkpt>
<trkpt lat="53.512483" lon="-1.952633"><ele>456</ele><time>2020-09-24T12:38:47Z</time><name>PT2791</name></trkpt>
<trkpt lat="53.512456" lon="-1.952700"><ele>457</ele><time>2020-09-24T12:38:51Z</time><name>PT2792</name></trkpt>
<trkpt lat="53.512437" lon="-1.952759"><ele>456</ele><time>2020-09-24T12:38:55Z</time><name>PT2793</name></trkpt>
<trkpt lat="53.512414" lon="-1.952823"><ele>456</ele><time>2020-09-24T12:38:59Z</time><name>PT2794</name></trkpt>
<trkpt lat="53.512390" lon="-1.952894"><ele>456</ele><time>2020-09-24T12:39:03Z</time><name>PT2795</name></trkpt>
<trkpt lat="53.512373" lon="-1.952963"><ele>456</ele><time>2020-09-24T12:39:07Z</time><name>PT2796</name></trkpt>
<trkpt lat="53.512356" lon="-1.953026"><ele>455</ele><time>2020-09-24T12:39:11Z</time><name>PT2797</name></trkpt>
<trkpt lat="53.512333" lon="-1.953094"><ele>455</ele><time>2020-09-24T12:39:15Z</time><name>PT2798</name></trkpt>
<trkpt lat="53.512320" lon="-1.953162"><ele>454</ele><time>2020-09-24T12:39:19Z</time><name>PT2799</name></trkpt>
<trkpt lat="53.512308" lon="-1.953224"><ele>453</ele><time>2020-09-24T12:39:23Z</time><name>PT2800</name></trkpt>
<trkpt lat="53.512294" lon="-1.953279"><ele>452</ele><time>2020-09-24T12:39:27Z</time><name>PT2801</name></trkpt>
<trkpt lat="53.512283" lon="-1.953341"><ele>451</ele><time>2020-09-24T12:39:31Z</time><name>PT2802</name></trkpt>
<trkpt lat="53.512267" lon="-1.953409"><ele>450</ele><time>2020-09-24T12:39:35Z</time><name>PT2803</name></trkpt>
<trkpt lat="53.512251" lon="-1.953472"><ele>449</ele><time>2020-09-24T12:39:39Z</time><name>PT2804</name></trkpt>
<trkpt lat="53.512229" lon="-1.953559"><ele>451</ele><time>2020-09-24T12:39:43Z</time><name>PT2805</name></trkpt>
<trkpt lat="53.512211" lon="-1.953604"><ele>452</ele><time>2020-09-24T12:39:45Z</time><name>PT2806</name></trkpt>
<trkpt lat="53.512207" lon="-1.953622"><ele>453</ele><time>2020-09-24T12:39:45Z</time><name>PT2807</name></trkpt>
<trkpt lat="53.512201" lon="-1.953637"><ele>452</ele><time>2020-09-24T12:39:47Z</time><name>PT2808</name></trkpt>
<trkpt lat="53.512196" lon="-1.953653"><ele>452</ele><time>2020-09-24T12:39:47Z</time><name>PT2809</name></trkpt>
<trkpt lat="53.512192" lon="-1.953669"><ele>452</ele><time>2020-09-24T12:39:49Z</time><name>PT2810</name></trkpt>
<trkpt lat="53.512190" lon="-1.953687"><ele>452</ele><time>2020-09-24T12:39:49Z</time><name>PT2811</name></trkpt>
<trkpt lat="53.512186" lon="-1.953707"><ele>452</ele><time>2020-09-24T12:39:51Z</time><name>PT2812</name></trkpt>
<trkpt lat="53.512182" lon="-1.953725"><ele>452</ele><time>2020-09-24T12:39:51Z</time><name>PT2813</name></trkpt>
<trkpt lat="53.512178" lon="-1.953743"><ele>452</ele><time>2020-09-24T12:39:53Z</time><name>PT2814</name></trkpt>
<trkpt lat="53.512176" lon="-1.953757"><ele>451</ele><time>2020-09-24T12:39:53Z</time><name>PT2815</name></trkpt>
<trkpt lat="53.512174" lon="-1.953770"><ele>451</ele><time>2020-09-24T12:39:55Z</time><name>PT2816</name></trkpt>
<trkpt lat="53.512173" lon="-1.953782"><ele>451</ele><time>2020-09-24T12:39:56Z</time><name>PT2817</name></trkpt>
<trkpt lat="53.512171" lon="-1.953796"><ele>451</ele><time>2020-09-24T12:39:57Z</time><name>PT2818</name></trkpt>
<trkpt lat="53.512169" lon="-1.953812"><ele>450</ele><time>2020-09-24T12:39:58Z</time><name>PT2819</name></trkpt>
<trkpt lat="53.512166" lon="-1.953830"><ele>451</ele><time>2020-09-24T12:39:59Z</time><name>PT2820</name></trkpt>
<trkpt lat="53.512163" lon="-1.953848"><ele>450</ele><time>2020-09-24T12:39:59Z</time><name>PT2821</name></trkpt>
<trkpt lat="53.512160" lon="-1.953864"><ele>450</ele><time>2020-09-24T12:40:01Z</time><name>PT2822</name></trkpt>
<trkpt lat="53.512159" lon="-1.953881"><ele>450</ele><time>2020-09-24T12:40:01Z</time><name>PT2823</name></trkpt>
<trkpt lat="53.512157" lon="-1.953896"><ele>450</ele><time>2020-09-24T12:40:03Z</time><name>PT2824</name></trkpt>
<trkpt lat="53.512155" lon="-1.953914"><ele>450</ele><time>2020-09-24T12:40:03Z</time><name>PT2825</name></trkpt>
<trkpt lat="53.512154" lon="-1.953931"><ele>449</ele><time>2020-09-24T12:40:05Z</time><name>PT2826</name></trkpt>
<trkpt lat="53.512151" lon="-1.953954"><ele>450</ele><time>2020-09-24T12:40:05Z</time><name>PT2827</name></trkpt>
<trkpt lat="53.512148" lon="-1.953974"><ele>450</ele><time>2020-09-24T12:40:07Z</time><name>PT2828</name></trkpt>
<trkpt lat="53.512145" lon="-1.953993"><ele>449</ele><time>2020-09-24T12:40:08Z</time><name>PT2829</name></trkpt>
<trkpt lat="53.512141" lon="-1.954013"><ele>449</ele><time>2020-09-24T12:40:09Z</time><name>PT2830</name></trkpt>
<trkpt lat="53.512139" lon="-1.954029"><ele>449</ele><time>2020-09-24T12:40:09Z</time><name>PT2831</name></trkpt>
<trkpt lat="53.512138" lon="-1.954045"><ele>449</ele><time>2020-09-24T12:40:11Z</time><name>PT2832</name></trkpt>
<trkpt lat="53.512137" lon="-1.954060"><ele>448</ele><time>2020-09-24T12:40:11Z</time><name>PT2833</name></trkpt>
<trkpt lat="53.512135" lon="-1.954079"><ele>448</ele><time>2020-09-24T12:40:13Z</time><name>PT2834</name></trkpt>
<trkpt lat="53.512132" lon="-1.954097"><ele>448</ele><time>2020-09-24T12:40:13Z</time><name>PT2835</name></trkpt>
<trkpt lat="53.512129" lon="-1.954116"><ele>448</ele><time>2020-09-24T12:40:15Z</time><name>PT2836</name></trkpt>
<trkpt lat="53.512125" lon="-1.954134"><ele>447</ele><time>2020-09-24T12:40:15Z</time><name>PT2837</name></trkpt>
<trkpt lat="53.512122" lon="-1.954151"><ele>447</ele><time>2020-09-24T12:40:17Z</time><name>PT2838</name></trkpt>
<trkpt lat="53.512119" lon="-1.954168"><ele>447</ele><time>2020-09-24T12:40:17Z</time><name>PT2839</name></trkpt>
<trkpt lat="53.512116" lon="-1.954186"><ele>446</ele><time>2020-09-24T12:40:19Z</time><name>PT2840</name></trkpt>
<trkpt lat="53.512113" lon="-1.954206"><ele>446</ele><time>2020-09-24T12:40:19Z</time><name>PT2841</name></trkpt>
<trkpt lat="53.512113" lon="-1.954222"><ele>446</ele><time>2020-09-24T12:40:21Z</time><name>PT2842</name></trkpt>
<trkpt lat="53.512111" lon="-1.954241"><ele>446</ele><time>2020-09-24T12:40:21Z</time><name>PT2843</name></trkpt>
<trkpt lat="53.512108" lon="-1.954261"><ele>446</ele><time>2020-09-24T12:40:23Z</time><name>PT2844</name></trkpt>
<trkpt lat="53.512104" lon="-1.954278"><ele>446</ele><time>2020-09-24T12:40:23Z</time><name>PT2845</name></trkpt>
<trkpt lat="53.512102" lon="-1.954296"><ele>446</ele><time>2020-09-24T12:40:25Z</time><name>PT2846</name></trkpt>
<trkpt lat="53.512099" lon="-1.954316"><ele>446</ele><time>2020-09-24T12:40:25Z</time><name>PT2847</name></trkpt>
<trkpt lat="53.512098" lon="-1.954333"><ele>446</ele><time>2020-09-24T12:40:27Z</time><name>PT2848</name></trkpt>
<trkpt lat="53.512096" lon="-1.954353"><ele>446</ele><time>2020-09-24T12:40:27Z</time><name>PT2849</name></trkpt>
<trkpt lat="53.512094" lon="-1.954373"><ele>446</ele><time>2020-09-24T12:40:29Z</time><name>PT2850</name></trkpt>
<trkpt lat="53.512092" lon="-1.954392"><ele>445</ele><time>2020-09-24T12:40:29Z</time><name>PT2851</name></trkpt>
<trkpt lat="53.512091" lon="-1.954413"><ele>445</ele><time>2020-09-24T12:40:31Z</time><name>PT2852</name></trkpt>
<trkpt lat="53.512091" lon="-1.954432"><ele>445</ele><time>2020-09-24T12:40:31Z</time><name>PT2853</name></trkpt>
<trkpt lat="53.512091" lon="-1.954450"><ele>445</ele><time>2020-09-24T12:40:33Z</time><name>PT2854</name></trkpt>
<trkpt lat="53.512091" lon="-1.954469"><ele>445</ele><time>2020-09-24T12:40:33Z</time><name>PT2855</name></trkpt>
<trkpt lat="53.512091" lon="-1.954489"><ele>445</ele><time>2020-09-24T12:40:35Z</time><name>PT2856</name></trkpt>
<trkpt lat="53.512092" lon="-1.954506"><ele>444</ele><time>2020-09-24T12:40:35Z</time><name>PT2857</name></trkpt>
<trkpt lat="53.512091" lon="-1.954523"><ele>444</ele><time>2020-09-24T12:40:37Z</time><name>PT2858</name></trkpt>
<trkpt lat="53.512089" lon="-1.954542"><ele>444</ele><time>2020-09-24T12:40:37Z</time><name>PT2859</name></trkpt>
<trkpt lat="53.512088" lon="-1.954562"><ele>444</ele><time>2020-09-24T12:40:39Z</time><name>PT2860</name></trkpt>
<trkpt lat="53.512087" lon="-1.954580"><ele>444</ele><time>2020-09-24T12:40:39Z</time><name>PT2861</name></trkpt>
<trkpt lat="53.512087" lon="-1.954598"><ele>443</ele><time>2020-09-24T12:40:41Z</time><name>PT2862</name></trkpt>
<trkpt lat="53.512088" lon="-1.954616"><ele>443</ele><time>2020-09-24T12:40:41Z</time><name>PT2863</name></trkpt>
<trkpt lat="53.512089" lon="-1.954635"><ele>443</ele><time>2020-09-24T12:40:43Z</time><name>PT2864</name></trkpt>
<trkpt lat="53.512089" lon="-1.954654"><ele>442</ele><time>2020-09-24T12:40:43Z</time><name>PT2865</name></trkpt>
<trkpt lat="53.512090" lon="-1.954672"><ele>442</ele><time>2020-09-24T12:40:45Z</time><name>PT2866</name></trkpt>
<trkpt lat="53.512088" lon="-1.954691"><ele>442</ele><time>2020-09-24T12:40:45Z</time><name>PT2867</name></trkpt>
<trkpt lat="53.512088" lon="-1.954709"><ele>442</ele><time>2020-09-24T12:40:47Z</time><name>PT2868</name></trkpt>
<trkpt lat="53.512087" lon="-1.954728"><ele>441</ele><time>2020-09-24T12:40:48Z</time><name>PT2869</name></trkpt>
<trkpt lat="53.512087" lon="-1.954747"><ele>441</ele><time>2020-09-24T12:40:49Z</time><name>PT2870</name></trkpt>
<trkpt lat="53.512089" lon="-1.954764"><ele>440</ele><time>2020-09-24T12:40:49Z</time><name>PT2871</name></trkpt>
<trkpt lat="53.512091" lon="-1.954782"><ele>441</ele><time>2020-09-24T12:40:51Z</time><name>PT2872</name></trkpt>
<trkpt lat="53.512091" lon="-1.954795"><ele>441</ele><time>2020-09-24T12:40:51Z</time><name>PT2873</name></trkpt>
<trkpt lat="53.512091" lon="-1.954814"><ele>440</ele><time>2020-09-24T12:40:53Z</time><name>PT2874</name></trkpt>
<trkpt lat="53.512089" lon="-1.954835"><ele>440</ele><time>2020-09-24T12:40:53Z</time><name>PT2875</name></trkpt>
<trkpt lat="53.512091" lon="-1.954852"><ele>440</ele><time>2020-09-24T12:40:55Z</time><name>PT2876</name></trkpt>
<trkpt lat="53.512092" lon="-1.954869"><ele>439</ele><time>2020-09-24T12:40:55Z</time><name>PT2877</name></trkpt>
<trkpt lat="53.512093" lon="-1.954887"><ele>439</ele><time>2020-09-24T12:40:57Z</time><name>PT2878</name></trkpt>
<trkpt lat="53.512095" lon="-1.954904"><ele>439</ele><time>2020-09-24T12:40:58Z</time><name>PT2879</name></trkpt>
<trkpt lat="53.512098" lon="-1.954923"><ele>439</ele><time>2020-09-24T12:40:59Z</time><name>PT2880</name></trkpt>
<trkpt lat="53.512100" lon="-1.954939"><ele>439</ele><time>2020-09-24T12:40:59Z</time><name>PT2881</name></trkpt>
<trkpt lat="53.512101" lon="-1.954960"><ele>439</ele><time>2020-09-24T12:41:01Z</time><name>PT2882</name></trkpt>
<trkpt lat="53.512101" lon="-1.954980"><ele>438</ele><time>2020-09-24T12:41:01Z</time><name>PT2883</name></trkpt>
<trkpt lat="53.512100" lon="-1.954998"><ele>438</ele><time>2020-09-24T12:41:03Z</time><name>PT2884</name></trkpt>
<trkpt lat="53.512101" lon="-1.955015"><ele>438</ele><time>2020-09-24T12:41:04Z</time><name>PT2885</name></trkpt>
<trkpt lat="53.512101" lon="-1.955032"><ele>437</ele><time>2020-09-24T12:41:05Z</time><name>PT2886</name></trkpt>
<trkpt lat="53.512103" lon="-1.955049"><ele>437</ele><time>2020-09-24T12:41:06Z</time><name>PT2887</name></trkpt>
<trkpt lat="53.512104" lon="-1.955067"><ele>437</ele><time>2020-09-24T12:41:07Z</time><name>PT2888</name></trkpt>
<trkpt lat="53.512104" lon="-1.955082"><ele>437</ele><time>2020-09-24T12:41:08Z</time><name>PT2889</name></trkpt>
<trkpt lat="53.512103" lon="-1.955100"><ele>436</ele><time>2020-09-24T12:41:09Z</time><name>PT2890</name></trkpt>
<trkpt lat="53.512104" lon="-1.955112"><ele>436</ele><time>2020-09-24T12:41:10Z</time><name>PT2891</name></trkpt>
<trkpt lat="53.512105" lon="-1.955127"><ele>435</ele><time>2020-09-24T12:41:11Z</time><name>PT2892</name></trkpt>
<trkpt lat="53.512108" lon="-1.955141"><ele>435</ele><time>2020-09-24T12:41:12Z</time><name>PT2893</name></trkpt>
<trkpt lat="53.512110" lon="-1.955158"><ele>435</ele><time>2020-09-24T12:41:13Z</time><name>PT2894</name></trkpt>
<trkpt lat="53.512113" lon="-1.955175"><ele>435</ele><time>2020-09-24T12:41:14Z</time><name>PT2895</name></trkpt>
<trkpt lat="53.512113" lon="-1.955191"><ele>435</ele><time>2020-09-24T12:41:15Z</time><name>PT2896</name></trkpt>
<trkpt lat="53.512114" lon="-1.955207"><ele>434</ele><time>2020-09-24T12:41:16Z</time><name>PT2897</name></trkpt>
<trkpt lat="53.512113" lon="-1.955233"><ele>434</ele><time>2020-09-24T12:41:17Z</time><name>PT2898</name></trkpt>
<trkpt lat="53.512113" lon="-1.955252"><ele>434</ele><time>2020-09-24T12:41:18Z</time><name>PT2899</name></trkpt>
<trkpt lat="53.512115" lon="-1.955265"><ele>433</ele><time>2020-09-24T12:41:19Z</time><name>PT2900</name></trkpt>
<trkpt lat="53.512117" lon="-1.955281"><ele>433</ele><time>2020-09-24T12:41:20Z</time><name>PT2901</name></trkpt>
<trkpt lat="53.512120" lon="-1.955301"><ele>433</ele><time>2020-09-24T12:41:21Z</time><name>PT2902</name></trkpt>
<trkpt lat="53.512125" lon="-1.955307"><ele>432</ele><time>2020-09-24T12:41:22Z</time><name>PT2903</name></trkpt>
<trkpt lat="53.512129" lon="-1.955324"><ele>432</ele><time>2020-09-24T12:41:23Z</time><name>PT2904</name></trkpt>
<trkpt lat="53.512131" lon="-1.955346"><ele>432</ele><time>2020-09-24T12:41:24Z</time><name>PT2905</name></trkpt>
<trkpt lat="53.512135" lon="-1.955367"><ele>431</ele><time>2020-09-24T12:41:25Z</time><name>PT2906</name></trkpt>
<trkpt lat="53.512138" lon="-1.955386"><ele>431</ele><time>2020-09-24T12:41:25Z</time><name>PT2907</name></trkpt>
<trkpt lat="53.512143" lon="-1.955410"><ele>431</ele><time>2020-09-24T12:41:27Z</time><name>PT2908</name></trkpt>
<trkpt lat="53.512148" lon="-1.955430"><ele>430</ele><time>2020-09-24T12:41:27Z</time><name>PT2909</name></trkpt>
<trkpt lat="53.512153" lon="-1.955445"><ele>430</ele><time>2020-09-24T12:41:29Z</time><name>PT2910</name></trkpt>
<trkpt lat="53.512157" lon="-1.955461"><ele>430</ele><time>2020-09-24T12:41:29Z</time><name>PT2911</name></trkpt>
<trkpt lat="53.512160" lon="-1.955479"><ele>430</ele><time>2020-09-24T12:41:31Z</time><name>PT2912</name></trkpt>
<trkpt lat="53.512164" lon="-1.955491"><ele>430</ele><time>2020-09-24T12:41:31Z</time><name>PT2913</name></trkpt>
<trkpt lat="53.512166" lon="-1.955512"><ele>430</ele><time>2020-09-24T12:41:33Z</time><name>PT2914</name></trkpt>
<trkpt lat="53.512169" lon="-1.955527"><ele>430</ele><time>2020-09-24T12:41:33Z</time><name>PT2915</name></trkpt>
<trkpt lat="53.512173" lon="-1.955547"><ele>430</ele><time>2020-09-24T12:41:35Z</time><name>PT2916</name></trkpt>
<trkpt lat="53.512177" lon="-1.955571"><ele>430</ele><time>2020-09-24T12:41:35Z</time><name>PT2917</name></trkpt>
<trkpt lat="53.512181" lon="-1.955580"><ele>430</ele><time>2020-09-24T12:41:37Z</time><name>PT2918</name></trkpt>
<trkpt lat="53.512183" lon="-1.955609"><ele>431</ele><time>2020-09-24T12:41:37Z</time><name>PT2919</name></trkpt>
<trkpt lat="53.512187" lon="-1.955625"><ele>431</ele><time>2020-09-24T12:41:39Z</time><name>PT2920</name></trkpt>
<trkpt lat="53.512190" lon="-1.955639"><ele>431</ele><time>2020-09-24T12:41:39Z</time><name>PT2921</name></trkpt>
<trkpt lat="53.512190" lon="-1.955661"><ele>430</ele><time>2020-09-24T12:41:41Z</time><name>PT2922</name></trkpt>
<trkpt lat="53.512194" lon="-1.955679"><ele>430</ele><time>2020-09-24T12:41:41Z</time><name>PT2923</name></trkpt>
<trkpt lat="53.512199" lon="-1.955695"><ele>429</ele><time>2020-09-24T12:41:43Z</time><name>PT2924</name></trkpt>
<trkpt lat="53.512204" lon="-1.955713"><ele>429</ele><time>2020-09-24T12:41:43Z</time><name>PT2925</name></trkpt>
<trkpt lat="53.512211" lon="-1.955725"><ele>428</ele><time>2020-09-24T12:41:45Z</time><name>PT2926</name></trkpt>
<trkpt lat="53.512222" lon="-1.955738"><ele>428</ele><time>2020-09-24T12:41:45Z</time><name>PT2927</name></trkpt>
<trkpt lat="53.512232" lon="-1.955747"><ele>427</ele><time>2020-09-24T12:41:47Z</time><name>PT2928</name></trkpt>
<trkpt lat="53.512239" lon="-1.955761"><ele>427</ele><time>2020-09-24T12:41:47Z</time><name>PT2929</name></trkpt>
<trkpt lat="53.512246" lon="-1.955779"><ele>426</ele><time>2020-09-24T12:41:49Z</time><name>PT2930</name></trkpt>
<trkpt lat="53.512254" lon="-1.955796"><ele>426</ele><time>2020-09-24T12:41:49Z</time><name>PT2931</name></trkpt>
<trkpt lat="53.512261" lon="-1.955816"><ele>426</ele><time>2020-09-24T12:41:51Z</time><name>PT2932</name></trkpt>
<trkpt lat="53.512267" lon="-1.955835"><ele>426</ele><time>2020-09-24T12:41:51Z</time><name>PT2933</name></trkpt>
<trkpt lat="53.512273" lon="-1.955850"><ele>425</ele><time>2020-09-24T12:41:53Z</time><name>PT2934</name></trkpt>
<trkpt lat="53.512280" lon="-1.955862"><ele>425</ele><time>2020-09-24T12:41:53Z</time><name>PT2935</name></trkpt>
<trkpt lat="53.512286" lon="-1.955881"><ele>425</ele><time>2020-09-24T12:41:55Z</time><name>PT2936</name></trkpt>
<trkpt lat="53.512294" lon="-1.955893"><ele>425</ele><time>2020-09-24T12:41:55Z</time><name>PT2937</name></trkpt>
<trkpt lat="53.512302" lon="-1.955903"><ele>424</ele><time>2020-09-24T12:41:57Z</time><name>PT2938</name></trkpt>
<trkpt lat="53.512309" lon="-1.955915"><ele>424</ele><time>2020-09-24T12:41:57Z</time><name>PT2939</name></trkpt>
<trkpt lat="53.512315" lon="-1.955929"><ele>424</ele><time>2020-09-24T12:41:59Z</time><name>PT2940</name></trkpt>
<trkpt lat="53.512323" lon="-1.955940"><ele>423</ele><time>2020-09-24T12:41:59Z</time><name>PT2941</name></trkpt>
<trkpt lat="53.512329" lon="-1.955957"><ele>423</ele><time>2020-09-24T12:42:01Z</time><name>PT2942</name></trkpt>
<trkpt lat="53.512336" lon="-1.955978"><ele>423</ele><time>2020-09-24T12:42:02Z</time><name>PT2943</name></trkpt>
<trkpt lat="53.512343" lon="-1.955991"><ele>423</ele><time>2020-09-24T12:42:03Z</time><name>PT2944</name></trkpt>
<trkpt lat="53.512350" lon="-1.956008"><ele>423</ele><time>2020-09-24T12:42:04Z</time><name>PT2945</name></trkpt>
<trkpt lat="53.512355" lon="-1.956027"><ele>423</ele><time>2020-09-24T12:42:05Z</time><name>PT2946</name></trkpt>
<trkpt lat="53.512360" lon="-1.956046"><ele>423</ele><time>2020-09-24T12:42:05Z</time><name>PT2947</name></trkpt>
<trkpt lat="53.512364" lon="-1.956065"><ele>423</ele><time>2020-09-24T12:42:07Z</time><name>PT2948</name></trkpt>
<trkpt lat="53.512370" lon="-1.956086"><ele>423</ele><time>2020-09-24T12:42:08Z</time><name>PT2949</name></trkpt>
<trkpt lat="53.512376" lon="-1.956102"><ele>423</ele><time>2020-09-24T12:42:09Z</time><name>PT2950</name></trkpt>
<trkpt lat="53.512382" lon="-1.956125"><ele>423</ele><time>2020-09-24T12:42:10Z</time><name>PT2951</name></trkpt>
<trkpt lat="53.512391" lon="-1.956135"><ele>422</ele><time>2020-09-24T12:42:11Z</time><name>PT2952</name></trkpt>
<trkpt lat="53.512395" lon="-1.956154"><ele>422</ele><time>2020-09-24T12:42:12Z</time><name>PT2953</name></trkpt>
<trkpt lat="53.512398" lon="-1.956179"><ele>422</ele><time>2020-09-24T12:42:13Z</time><name>PT2954</name></trkpt>
<trkpt lat="53.512404" lon="-1.956198"><ele>422</ele><time>2020-09-24T12:42:14Z</time><name>PT2955</name></trkpt>
<trkpt lat="53.512409" lon="-1.956218"><ele>422</ele><time>2020-09-24T12:42:15Z</time><name>PT2956</name></trkpt>
<trkpt lat="53.512414" lon="-1.956235"><ele>423</ele><time>2020-09-24T12:42:16Z</time><name>PT2957</name></trkpt>
<trkpt lat="53.512419" lon="-1.956253"><ele>423</ele><time>2020-09-24T12:42:17Z</time><name>PT2958</name></trkpt>
<trkpt lat="53.512426" lon="-1.956262"><ele>422</ele><time>2020-09-24T12:42:18Z</time><name>PT2959</name></trkpt>
<trkpt lat="53.512431" lon="-1.956278"><ele>421</ele><time>2020-09-24T12:42:19Z</time><name>PT2960</name></trkpt>
<trkpt lat="53.512437" lon="-1.956295"><ele>421</ele><time>2020-09-24T12:42:20Z</time><name>PT2961</name></trkpt>
<trkpt lat="53.512440" lon="-1.956315"><ele>421</ele><time>2020-09-24T12:42:21Z</time><name>PT2962</name></trkpt>
<trkpt lat="53.512444" lon="-1.956334"><ele>420</ele><time>2020-09-24T12:42:22Z</time><name>PT2963</name></trkpt>
<trkpt lat="53.512448" lon="-1.956350"><ele>420</ele><time>2020-09-24T12:42:23Z</time><name>PT2964</name></trkpt>
<trkpt lat="53.512454" lon="-1.956363"><ele>420</ele><time>2020-09-24T12:42:24Z</time><name>PT2965</name></trkpt>
<trkpt lat="53.512461" lon="-1.956374"><ele>420</ele><time>2020-09-24T12:42:25Z</time><name>PT2966</name></trkpt>
<trkpt lat="53.512466" lon="-1.956391"><ele>420</ele><time>2020-09-24T12:42:26Z</time><name>PT2967</name></trkpt>
<trkpt lat="53.512470" lon="-1.956412"><ele>420</ele><time>2020-09-24T12:42:27Z</time><name>PT2968</name></trkpt>
<trkpt lat="53.512474" lon="-1.956432"><ele>420</ele><time>2020-09-24T12:42:28Z</time><name>PT2969</name></trkpt>
<trkpt lat="53.512477" lon="-1.956457"><ele>420</ele><time>2020-09-24T12:42:29Z</time><name>PT2970</name></trkpt>
<trkpt lat="53.512481" lon="-1.956478"><ele>420</ele><time>2020-09-24T12:42:30Z</time><name>PT2971</name></trkpt>
<trkpt lat="53.512485" lon="-1.956497"><ele>420</ele><time>2020-09-24T12:42:31Z</time><name>PT2972</name></trkpt>
<trkpt lat="53.512490" lon="-1.956515"><ele>419</ele><time>2020-09-24T12:42:31Z</time><name>PT2973</name></trkpt>
<trkpt lat="53.512496" lon="-1.956526"><ele>418</ele><time>2020-09-24T12:42:33Z</time><name>PT2974</name></trkpt>
<trkpt lat="53.512501" lon="-1.956544"><ele>418</ele><time>2020-09-24T12:42:33Z</time><name>PT2975</name></trkpt>
<trkpt lat="53.512505" lon="-1.956561"><ele>418</ele><time>2020-09-24T12:42:35Z</time><name>PT2976</name></trkpt>
<trkpt lat="53.512510" lon="-1.956580"><ele>418</ele><time>2020-09-24T12:42:35Z</time><name>PT2977</name></trkpt>
<trkpt lat="53.512514" lon="-1.956595"><ele>417</ele><time>2020-09-24T12:42:37Z</time><name>PT2978</name></trkpt>
<trkpt lat="53.512517" lon="-1.956615"><ele>417</ele><time>2020-09-24T12:42:37Z</time><name>PT2979</name></trkpt>
<trkpt lat="53.512521" lon="-1.956634"><ele>417</ele><time>2020-09-24T12:42:39Z</time><name>PT2980</name></trkpt>
<trkpt lat="53.512525" lon="-1.956654"><ele>417</ele><time>2020-09-24T12:42:39Z</time><name>PT2981</name></trkpt>
<trkpt lat="53.512529" lon="-1.956676"><ele>417</ele><time>2020-09-24T12:42:41Z</time><name>PT2982</name></trkpt>
<trkpt lat="53.512531" lon="-1.956703"><ele>417</ele><time>2020-09-24T12:42:42Z</time><name>PT2983</name></trkpt>
<trkpt lat="53.512535" lon="-1.956722"><ele>417</ele><time>2020-09-24T12:42:43Z</time><name>PT2984</name></trkpt>
<trkpt lat="53.512539" lon="-1.956742"><ele>417</ele><time>2020-09-24T12:42:43Z</time><name>PT2985</name></trkpt>
<trkpt lat="53.512544" lon="-1.956759"><ele>416</ele><time>2020-09-24T12:42:45Z</time><name>PT2986</name></trkpt>
<trkpt lat="53.512549" lon="-1.956776"><ele>416</ele><time>2020-09-24T12:42:45Z</time><name>PT2987</name></trkpt>
<trkpt lat="53.512555" lon="-1.956791"><ele>416</ele><time>2020-09-24T12:42:47Z</time><name>PT2988</name></trkpt>
<trkpt lat="53.512561" lon="-1.956807"><ele>416</ele><time>2020-09-24T12:42:47Z</time><name>PT2989</name></trkpt>
<trkpt lat="53.512567" lon="-1.956824"><ele>416</ele><time>2020-09-24T12:42:49Z</time><name>PT2990</name></trkpt>
<trkpt lat="53.512571" lon="-1.956845"><ele>416</ele><time>2020-09-24T12:42:49Z</time><name>PT2991</name></trkpt>
<trkpt lat="53.512575" lon="-1.956877"><ele>417</ele><time>2020-09-24T12:42:51Z</time><name>PT2992</name></trkpt>
<trkpt lat="53.512579" lon="-1.956901"><ele>417</ele><time>2020-09-24T12:42:51Z</time><name>PT2993</name></trkpt>
<trkpt lat="53.512583" lon="-1.956912"><ele>417</ele><time>2020-09-24T12:42:53Z</time><name>PT2994</name></trkpt>
<trkpt lat="53.512590" lon="-1.956921"><ele>416</ele><time>2020-09-24T12:42:53Z</time><name>PT2995</name></trkpt>
<trkpt lat="53.512596" lon="-1.956936"><ele>416</ele><time>2020-09-24T12:42:55Z</time><name>PT2996</name></trkpt>
<trkpt lat="53.512601" lon="-1.956954"><ele>416</ele><time>2020-09-24T12:42:55Z</time><name>PT2997</name></trkpt>
<trkpt lat="53.512613" lon="-1.957022"><ele>416</ele><time>2020-09-24T12:42:59Z</time><name>PT2998</name></trkpt>
<trkpt lat="53.512633" lon="-1.957091"><ele>416</ele><time>2020-09-24T12:43:03Z</time><name>PT2999</name></trkpt>
<trkpt lat="53.512653" lon="-1.957168"><ele>415</ele><time>2020-09-24T12:43:07Z</time><name>PT3000</name></trkpt>
<trkpt lat="53.512673" lon="-1.957231"><ele>414</ele><time>2020-09-24T12:43:11Z</time><name>PT3001</name></trkpt>
<trkpt lat="53.512691" lon="-1.957313"><ele>413</ele><time>2020-09-24T12:43:15Z</time><name>PT3002</name></trkpt>
<trkpt lat="53.512712" lon="-1.957399"><ele>413</ele><time>2020-09-24T12:43:19Z</time><name>PT3003</name></trkpt>
<trkpt lat="53.512737" lon="-1.957470"><ele>413</ele><time>2020-09-24T12:43:23Z</time><name>PT3004</name></trkpt>
<trkpt lat="53.512765" lon="-1.957536"><ele>413</ele><time>2020-09-24T12:43:27Z</time><name>PT3005</name></trkpt>
<trkpt lat="53.512793" lon="-1.957602"><ele>412</ele><time>2020-09-24T12:43:31Z</time><name>PT3006</name></trkpt>
<trkpt lat="53.512825" lon="-1.957660"><ele>411</ele><time>2020-09-24T12:43:35Z</time><name>PT3007</name></trkpt>
<trkpt lat="53.512858" lon="-1.957724"><ele>410</ele><time>2020-09-24T12:43:39Z</time><name>PT3008</name></trkpt>
<trkpt lat="53.512888" lon="-1.957778"><ele>409</ele><time>2020-09-24T12:43:43Z</time><name>PT3009</name></trkpt>
<trkpt lat="53.512917" lon="-1.957843"><ele>409</ele><time>2020-09-24T12:43:47Z</time><name>PT3010</name></trkpt>
<trkpt lat="53.512951" lon="-1.957883"><ele>407</ele><time>2020-09-24T12:43:51Z</time><name>PT3011</name></trkpt>
<trkpt lat="53.512991" lon="-1.957954"><ele>408</ele><time>2020-09-24T12:43:55Z</time><name>PT3012</name></trkpt>
<trkpt lat="53.513023" lon="-1.957999"><ele>407</ele><time>2020-09-24T12:43:59Z</time><name>PT3013</name></trkpt>
<trkpt lat="53.513064" lon="-1.958056"><ele>406</ele><time>2020-09-24T12:44:03Z</time><name>PT3014</name></trkpt>
<trkpt lat="53.513099" lon="-1.958101"><ele>405</ele><time>2020-09-24T12:44:07Z</time><name>PT3015</name></trkpt>
<trkpt lat="53.513138" lon="-1.958146"><ele>405</ele><time>2020-09-24T12:44:11Z</time><name>PT3016</name></trkpt>
<trkpt lat="53.513179" lon="-1.958197"><ele>403</ele><time>2020-09-24T12:44:15Z</time><name>PT3017</name></trkpt>
<trkpt lat="53.513217" lon="-1.958246"><ele>402</ele><time>2020-09-24T12:44:19Z</time><name>PT3018</name></trkpt>
<trkpt lat="53.513251" lon="-1.958316"><ele>402</ele><time>2020-09-24T12:44:23Z</time><name>PT3019</name></trkpt>
<trkpt lat="53.513290" lon="-1.958371"><ele>402</ele><time>2020-09-24T12:44:27Z</time><name>PT3020</name></trkpt>
<trkpt lat="53.513318" lon="-1.958434"><ele>401</ele><time>2020-09-24T12:44:31Z</time><name>PT3021</name></trkpt>
<trkpt lat="53.513347" lon="-1.958498"><ele>401</ele><time>2020-09-24T12:44:35Z</time><name>PT3022</name></trkpt>
<trkpt lat="53.513377" lon="-1.958573"><ele>401</ele><time>2020-09-24T12:44:39Z</time><name>PT3023</name></trkpt>
<trkpt lat="53.513397" lon="-1.958643"><ele>400</ele><time>2020-09-24T12:44:43Z</time><name>PT3024</name></trkpt>
<trkpt lat="53.513413" lon="-1.958714"><ele>400</ele><time>2020-09-24T12:44:47Z</time><name>PT3025</name></trkpt>
<trkpt lat="53.513434" lon="-1.958786"><ele>399</ele><time>2020-09-24T12:44:51Z</time><name>PT3026</name></trkpt>
<trkpt lat="53.513456" lon="-1.958855"><ele>398</ele><time>2020-09-24T12:44:55Z</time><name>PT3027</name></trkpt>
<trkpt lat="53.513482" lon="-1.958920"><ele>398</ele><time>2020-09-24T12:44:59Z</time><name>PT3028</name></trkpt>
<trkpt lat="53.513509" lon="-1.958991"><ele>398</ele><time>2020-09-24T12:45:03Z</time><name>PT3029</name></trkpt>
<trkpt lat="53.513534" lon="-1.959052"><ele>397</ele><time>2020-09-24T12:45:07Z</time><name>PT3030</name></trkpt>
<trkpt lat="53.513560" lon="-1.959119"><ele>397</ele><time>2020-09-24T12:45:11Z</time><name>PT3031</name></trkpt>
<trkpt lat="53.513590" lon="-1.959175"><ele>396</ele><time>2020-09-24T12:45:15Z</time><name>PT3032</name></trkpt>
<trkpt lat="53.513621" lon="-1.959228"><ele>396</ele><time>2020-09-24T12:45:19Z</time><name>PT3033</name></trkpt>
<trkpt lat="53.513661" lon="-1.959279"><ele>395</ele><time>2020-09-24T12:45:23Z</time><name>PT3034</name></trkpt>
<trkpt lat="53.513696" lon="-1.959321"><ele>394</ele><time>2020-09-24T12:45:27Z</time><name>PT3035</name></trkpt>
<trkpt lat="53.513731" lon="-1.959360"><ele>393</ele><time>2020-09-24T12:45:31Z</time><name>PT3036</name></trkpt>
<trkpt lat="53.513777" lon="-1.959400"><ele>391</ele><time>2020-09-24T12:45:35Z</time><name>PT3037</name></trkpt>
<trkpt lat="53.513818" lon="-1.959451"><ele>390</ele><time>2020-09-24T12:45:39Z</time><name>PT3038</name></trkpt>
<trkpt lat="53.513857" lon="-1.959499"><ele>391</ele><time>2020-09-24T12:45:43Z</time><name>PT3039</name></trkpt>
<trkpt lat="53.513884" lon="-1.959562"><ele>389</ele><time>2020-09-24T12:45:47Z</time><name>PT3040</name></trkpt>
<trkpt lat="53.513915" lon="-1.959620"><ele>388</ele><time>2020-09-24T12:45:51Z</time><name>PT3041</name></trkpt>
<trkpt lat="53.513934" lon="-1.959692"><ele>387</ele><time>2020-09-24T12:45:55Z</time><name>PT3042</name></trkpt>
<trkpt lat="53.513948" lon="-1.959764"><ele>386</ele><time>2020-09-24T12:45:59Z</time><name>PT3043</name></trkpt>
<trkpt lat="53.513960" lon="-1.959834"><ele>385</ele><time>2020-09-24T12:46:03Z</time><name>PT3044</name></trkpt>
<trkpt lat="53.513976" lon="-1.959909"><ele>384</ele><time>2020-09-24T12:46:07Z</time><name>PT3045</name></trkpt>
<trkpt lat="53.513988" lon="-1.959984"><ele>384</ele><time>2020-09-24T12:46:11Z</time><name>PT3046</name></trkpt>
<trkpt lat="53.514003" lon="-1.960051"><ele>383</ele><time>2020-09-24T12:46:15Z</time><name>PT3047</name></trkpt>
<trkpt lat="53.514023" lon="-1.960114"><ele>382</ele><time>2020-09-24T12:46:19Z</time><name>PT3048</name></trkpt>
<trkpt lat="53.514045" lon="-1.960181"><ele>381</ele><time>2020-09-24T12:46:23Z</time><name>PT3049</name></trkpt>
<trkpt lat="53.514069" lon="-1.960246"><ele>380</ele><time>2020-09-24T12:46:27Z</time><name>PT3050</name></trkpt>
<trkpt lat="53.514093" lon="-1.960311"><ele>379</ele><time>2020-09-24T12:46:31Z</time><name>PT3051</name></trkpt>
<trkpt lat="53.514106" lon="-1.960356"><ele>378</ele><time>2020-09-24T12:46:35Z</time><name>PT3052</name></trkpt>
<trkpt lat="53.514102" lon="-1.960372"><ele>379</ele><time>2020-09-24T12:46:39Z</time><name>PT3053</name></trkpt>
<trkpt lat="53.514123" lon="-1.960429"><ele>378</ele><time>2020-09-24T12:46:43Z</time><name>PT3054</name></trkpt>
<trkpt lat="53.514157" lon="-1.960506"><ele>376</ele><time>2020-09-24T12:46:47Z</time><name>PT3055</name></trkpt>
<trkpt lat="53.514183" lon="-1.960558"><ele>374</ele><time>2020-09-24T12:46:51Z</time><name>PT3056</name></trkpt>
<trkpt lat="53.514210" lon="-1.960631"><ele>373</ele><time>2020-09-24T12:46:55Z</time><name>PT3057</name></trkpt>
<trkpt lat="53.514235" lon="-1.960690"><ele>372</ele><time>2020-09-24T12:46:59Z</time><name>PT3058</name></trkpt>
<trkpt lat="53.514254" lon="-1.960768"><ele>372</ele><time>2020-09-24T12:47:03Z</time><name>PT3059</name></trkpt>
<trkpt lat="53.514279" lon="-1.960818"><ele>369</ele><time>2020-09-24T12:47:07Z</time><name>PT3060</name></trkpt>
<trkpt lat="53.514302" lon="-1.960881"><ele>369</ele><time>2020-09-24T12:47:11Z</time><name>PT3061</name></trkpt>
<trkpt lat="53.514324" lon="-1.960936"><ele>368</ele><time>2020-09-24T12:47:15Z</time><name>PT3062</name></trkpt>
<trkpt lat="53.514342" lon="-1.961016"><ele>368</ele><time>2020-09-24T12:47:19Z</time><name>PT3063</name></trkpt>
<trkpt lat="53.514363" lon="-1.961089"><ele>368</ele><time>2020-09-24T12:47:23Z</time><name>PT3064</name></trkpt>
<trkpt lat="53.514382" lon="-1.961172"><ele>368</ele><time>2020-09-24T12:47:27Z</time><name>PT3065</name></trkpt>
<trkpt lat="53.514410" lon="-1.961235"><ele>367</ele><time>2020-09-24T12:47:31Z</time><name>PT3066</name></trkpt>
<trkpt lat="53.514432" lon="-1.961293"><ele>367</ele><time>2020-09-24T12:47:35Z</time><name>PT3067</name></trkpt>
<trkpt lat="53.514456" lon="-1.961365"><ele>367</ele><time>2020-09-24T12:47:39Z</time><name>PT3068</name></trkpt>
<trkpt lat="53.514483" lon="-1.961414"><ele>365</ele><time>2020-09-24T12:47:43Z</time><name>PT3069</name></trkpt>
<trkpt lat="53.514509" lon="-1.961460"><ele>364</ele><time>2020-09-24T12:47:47Z</time><name>PT3070</name></trkpt>
<trkpt lat="53.514536" lon="-1.961512"><ele>363</ele><time>2020-09-24T12:47:51Z</time><name>PT3071</name></trkpt>
<trkpt lat="53.514557" lon="-1.961571"><ele>361</ele><time>2020-09-24T12:47:55Z</time><name>PT3072</name></trkpt>
<trkpt lat="53.514581" lon="-1.961621"><ele>361</ele><time>2020-09-24T12:47:59Z</time><name>PT3073</name></trkpt>
<trkpt lat="53.514602" lon="-1.961686"><ele>361</ele><time>2020-09-24T12:48:03Z</time><name>PT3074</name></trkpt>
<trkpt lat="53.514621" lon="-1.961754"><ele>361</ele><time>2020-09-24T12:48:07Z</time><name>PT3075</name></trkpt>
<trkpt lat="53.514643" lon="-1.961833"><ele>362</ele><time>2020-09-24T12:48:11Z</time><name>PT3076</name></trkpt>
<trkpt lat="53.514670" lon="-1.961887"><ele>361</ele><time>2020-09-24T12:48:15Z</time><name>PT3077</name></trkpt>
<trkpt lat="53.514695" lon="-1.961937"><ele>361</ele><time>2020-09-24T12:48:19Z</time><name>PT3078</name></trkpt>
<trkpt lat="53.514720" lon="-1.962013"><ele>363</ele><time>2020-09-24T12:48:23Z</time><name>PT3079</name></trkpt>
<trkpt lat="53.514750" lon="-1.962065"><ele>363</ele><time>2020-09-24T12:48:27Z</time><name>PT3080</name></trkpt>
<trkpt lat="53.514780" lon="-1.962123"><ele>363</ele><time>2020-09-24T12:48:31Z</time><name>PT3081</name></trkpt>
<trkpt lat="53.514810" lon="-1.962177"><ele>363</ele><time>2020-09-24T12:48:35Z</time><name>PT3082</name></trkpt>
<trkpt lat="53.514839" lon="-1.962232"><ele>362</ele><time>2020-09-24T12:48:39Z</time><name>PT3083</name></trkpt>
<trkpt lat="53.514866" lon="-1.962282"><ele>362</ele><time>2020-09-24T12:48:43Z</time><name>PT3084</name></trkpt>
<trkpt lat="53.514894" lon="-1.962337"><ele>362</ele><time>2020-09-24T12:48:47Z</time><name>PT3085</name></trkpt>
<trkpt lat="53.514923" lon="-1.962392"><ele>361</ele><time>2020-09-24T12:48:51Z</time><name>PT3086</name></trkpt>
<trkpt lat="53.514951" lon="-1.962439"><ele>360</ele><time>2020-09-24T12:48:55Z</time><name>PT3087</name></trkpt>
<trkpt lat="53.514982" lon="-1.962490"><ele>360</ele><time>2020-09-24T12:48:59Z</time><name>PT3088</name></trkpt>
<trkpt lat="53.515013" lon="-1.962535"><ele>359</ele><time>2020-09-24T12:49:03Z</time><name>PT3089</name></trkpt>
<trkpt lat="53.515050" lon="-1.962582"><ele>358</ele><time>2020-09-24T12:49:07Z</time><name>PT3090</name></trkpt>
<trkpt lat="53.515086" lon="-1.962622"><ele>358</ele><time>2020-09-24T12:49:11Z</time><name>PT3091</name></trkpt>
<trkpt lat="53.515127" lon="-1.962663"><ele>357</ele><time>2020-09-24T12:49:15Z</time><name>PT3092</name></trkpt>
<trkpt lat="53.515168" lon="-1.962694"><ele>356</ele><time>2020-09-24T12:49:19Z</time><name>PT3093</name></trkpt>
<trkpt lat="53.515210" lon="-1.962731"><ele>356</ele><time>2020-09-24T12:49:23Z</time><name>PT3094</name></trkpt>
<trkpt lat="53.515250" lon="-1.962756"><ele>355</ele><time>2020-09-24T12:49:27Z</time><name>PT3095</name></trkpt>
<trkpt lat="53.515291" lon="-1.962786"><ele>354</ele><time>2020-09-24T12:49:31Z</time><name>PT3096</name></trkpt>
<trkpt lat="53.515330" lon="-1.962811"><ele>353</ele><time>2020-09-24T12:49:35Z</time><name>PT3097</name></trkpt>
<trkpt lat="53.515372" lon="-1.962840"><ele>352</ele><time>2020-09-24T12:49:39Z</time><name>PT3098</name></trkpt>
<trkpt lat="53.515414" lon="-1.962859"><ele>352</ele><time>2020-09-24T12:49:43Z</time><name>PT3099</name></trkpt>
<trkpt lat="53.515459" lon="-1.962885"><ele>351</ele><time>2020-09-24T12:49:47Z</time><name>PT3100</name></trkpt>
<trkpt lat="53.515503" lon="-1.962918"><ele>351</ele><time>2020-09-24T12:49:51Z</time><name>PT3101</name></trkpt>
<trkpt lat="53.515548" lon="-1.962947"><ele>350</ele><time>2020-09-24T12:49:55Z</time><name>PT3102</name></trkpt>
<trkpt lat="53.515592" lon="-1.962972"><ele>350</ele><time>2020-09-24T12:49:59Z</time><name>PT3103</name></trkpt>
<trkpt lat="53.515635" lon="-1.963000"><ele>349</ele><time>2020-09-24T12:50:03Z</time><name>PT3104</name></trkpt>
<trkpt lat="53.515667" lon="-1.963014"><ele>349</ele><time>2020-09-24T12:50:06Z</time><name>PT3105</name></trkpt>
<trkpt lat="53.515699" lon="-1.963026"><ele>348</ele><time>2020-09-24T12:50:09Z</time><name>PT3106</name></trkpt>
<trkpt lat="53.515734" lon="-1.963049"><ele>349</ele><time>2020-09-24T12:50:13Z</time><name>PT3107</name></trkpt>
<trkpt lat="53.515735" lon="-1.963071"><ele>349</ele><time>2020-09-24T12:50:17Z</time><name>PT3108</name></trkpt>
<trkpt lat="53.515732" lon="-1.963071"><ele>349</ele><time>2020-09-24T12:50:21Z</time><name>PT3109</name></trkpt>
<trkpt lat="53.515755" lon="-1.963071"><ele>348</ele><time>2020-09-24T12:50:25Z</time><name>PT3110</name></trkpt>
<trkpt lat="53.515787" lon="-1.963070"><ele>347</ele><time>2020-09-24T12:50:29Z</time><name>PT3111</name></trkpt>
<trkpt lat="53.515831" lon="-1.963071"><ele>346</ele><time>2020-09-24T12:50:33Z</time><name>PT3112</name></trkpt>
<trkpt lat="53.515877" lon="-1.963083"><ele>347</ele><time>2020-09-24T12:50:37Z</time><name>PT3113</name></trkpt>
<trkpt lat="53.515926" lon="-1.963094"><ele>346</ele><time>2020-09-24T12:50:41Z</time><name>PT3114</name></trkpt>
<trkpt lat="53.515972" lon="-1.963109"><ele>346</ele><time>2020-09-24T12:50:45Z</time><name>PT3115</name></trkpt>
<trkpt lat="53.516013" lon="-1.963123"><ele>345</ele><time>2020-09-24T12:50:49Z</time><name>PT3116</name></trkpt>
<trkpt lat="53.516051" lon="-1.963129"><ele>344</ele><time>2020-09-24T12:50:53Z</time><name>PT3117</name></trkpt>
<trkpt lat="53.516086" lon="-1.963130"><ele>342</ele><time>2020-09-24T12:50:57Z</time><name>PT3118</name></trkpt>
<trkpt lat="53.516130" lon="-1.963142"><ele>342</ele><time>2020-09-24T12:51:01Z</time><name>PT3119</name></trkpt>
<trkpt lat="53.516169" lon="-1.963138"><ele>340</ele><time>2020-09-24T12:51:05Z</time><name>PT3120</name></trkpt>
<trkpt lat="53.516215" lon="-1.963134"><ele>339</ele><time>2020-09-24T12:51:09Z</time><name>PT3121</name></trkpt>
<trkpt lat="53.516262" lon="-1.963135"><ele>339</ele><time>2020-09-24T12:51:13Z</time><name>PT3122</name></trkpt>
<trkpt lat="53.516310" lon="-1.963138"><ele>338</ele><time>2020-09-24T12:51:17Z</time><name>PT3123</name></trkpt>
<trkpt lat="53.516351" lon="-1.963149"><ele>337</ele><time>2020-09-24T12:51:21Z</time><name>PT3124</name></trkpt>
<trkpt lat="53.516384" lon="-1.963158"><ele>336</ele><time>2020-09-24T12:51:25Z</time><name>PT3125</name></trkpt>
<trkpt lat="53.516426" lon="-1.963164"><ele>336</ele><time>2020-09-24T12:51:29Z</time><name>PT3126</name></trkpt>
<trkpt lat="53.516467" lon="-1.963166"><ele>336</ele><time>2020-09-24T12:51:33Z</time><name>PT3127</name></trkpt>
<trkpt lat="53.516505" lon="-1.963165"><ele>335</ele><time>2020-09-24T12:51:37Z</time><name>PT3128</name></trkpt>
<trkpt lat="53.516546" lon="-1.963158"><ele>334</ele><time>2020-09-24T12:51:41Z</time><name>PT3129</name></trkpt>
<trkpt lat="53.516588" lon="-1.963158"><ele>334</ele><time>2020-09-24T12:51:45Z</time><name>PT3130</name></trkpt>
<trkpt lat="53.516632" lon="-1.963164"><ele>333</ele><time>2020-09-24T12:51:49Z</time><name>PT3131</name></trkpt>
<trkpt lat="53.516678" lon="-1.963164"><ele>333</ele><time>2020-09-24T12:51:53Z</time><name>PT3132</name></trkpt>
<trkpt lat="53.516724" lon="-1.963157"><ele>333</ele><time>2020-09-24T12:51:57Z</time><name>PT3133</name></trkpt>
<trkpt lat="53.516764" lon="-1.963157"><ele>333</ele><time>2020-09-24T12:52:01Z</time><name>PT3134</name></trkpt>
<trkpt lat="53.516807" lon="-1.963165"><ele>334</ele><time>2020-09-24T12:52:05Z</time><name>PT3135</name></trkpt>
<trkpt lat="53.516847" lon="-1.963165"><ele>333</ele><time>2020-09-24T12:52:09Z</time><name>PT3136</name></trkpt>
<trkpt lat="53.516882" lon="-1.963151"><ele>332</ele><time>2020-09-24T12:52:13Z</time><name>PT3137</name></trkpt>
<trkpt lat="53.516922" lon="-1.963150"><ele>332</ele><time>2020-09-24T12:52:17Z</time><name>PT3138</name></trkpt>
<trkpt lat="53.516964" lon="-1.963140"><ele>331</ele><time>2020-09-24T12:52:21Z</time><name>PT3139</name></trkpt>
<trkpt lat="53.517005" lon="-1.963133"><ele>330</ele><time>2020-09-24T12:52:25Z</time><name>PT3140</name></trkpt>
<trkpt lat="53.517053" lon="-1.963123"><ele>329</ele><time>2020-09-24T12:52:29Z</time><name>PT3141</name></trkpt>
<trkpt lat="53.517101" lon="-1.963113"><ele>329</ele><time>2020-09-24T12:52:33Z</time><name>PT3142</name></trkpt>
<trkpt lat="53.517150" lon="-1.963110"><ele>327</ele><time>2020-09-24T12:52:37Z</time><name>PT3143</name></trkpt>
<trkpt lat="53.517199" lon="-1.963110"><ele>327</ele><time>2020-09-24T12:52:41Z</time><name>PT3144</name></trkpt>
<trkpt lat="53.517244" lon="-1.963120"><ele>327</ele><time>2020-09-24T12:52:45Z</time><name>PT3145</name></trkpt>
<trkpt lat="53.517294" lon="-1.963131"><ele>327</ele><time>2020-09-24T12:52:49Z</time><name>PT3146</name></trkpt>
<trkpt lat="53.517337" lon="-1.963135"><ele>326</ele><time>2020-09-24T12:52:53Z</time><name>PT3147</name></trkpt>
<trkpt lat="53.517384" lon="-1.963129"><ele>326</ele><time>2020-09-24T12:52:57Z</time><name>PT3148</name></trkpt>
<trkpt lat="53.517428" lon="-1.963127"><ele>325</ele><time>2020-09-24T12:53:01Z</time><name>PT3149</name></trkpt>
<trkpt lat="53.517468" lon="-1.963120"><ele>325</ele><time>2020-09-24T12:53:05Z</time><name>PT3150</name></trkpt>
<trkpt lat="53.517506" lon="-1.963117"><ele>324</ele><time>2020-09-24T12:53:09Z</time><name>PT3151</name></trkpt>
<trkpt lat="53.517549" lon="-1.963105"><ele>324</ele><time>2020-09-24T12:53:13Z</time><name>PT3152</name></trkpt>
<trkpt lat="53.517596" lon="-1.963094"><ele>323</ele><time>2020-09-24T12:53:17Z</time><name>PT3153</name></trkpt>
<trkpt lat="53.517640" lon="-1.963098"><ele>323</ele><time>2020-09-24T12:53:21Z</time><name>PT3154</name></trkpt>
<trkpt lat="53.517687" lon="-1.963097"><ele>323</ele><time>2020-09-24T12:53:25Z</time><name>PT3155</name></trkpt>
<trkpt lat="53.517738" lon="-1.963104"><ele>323</ele><time>2020-09-24T12:53:29Z</time><name>PT3156</name></trkpt>
<trkpt lat="53.517789" lon="-1.963105"><ele>324</ele><time>2020-09-24T12:53:33Z</time><name>PT3157</name></trkpt>
<trkpt lat="53.517839" lon="-1.963108"><ele>324</ele><time>2020-09-24T12:53:37Z</time><name>PT3158</name></trkpt>
<trkpt lat="53.517881" lon="-1.963102"><ele>323</ele><time>2020-09-24T12:53:41Z</time><name>PT3159</name></trkpt>
<trkpt lat="53.517930" lon="-1.963091"><ele>322</ele><time>2020-09-24T12:53:45Z</time><name>PT3160</name></trkpt>
<trkpt lat="53.517975" lon="-1.963087"><ele>322</ele><time>2020-09-24T12:53:49Z</time><name>PT3161</name></trkpt>
<trkpt lat="53.518016" lon="-1.963079"><ele>320</ele><time>2020-09-24T12:53:53Z</time><name>PT3162</name></trkpt>
<trkpt lat="53.518059" lon="-1.963079"><ele>318</ele><time>2020-09-24T12:53:57Z</time><name>PT3163</name></trkpt>
<trkpt lat="53.518106" lon="-1.963093"><ele>318</ele><time>2020-09-24T12:54:01Z</time><name>PT3164</name></trkpt>
<trkpt lat="53.518151" lon="-1.963105"><ele>318</ele><time>2020-09-24T12:54:05Z</time><name>PT3165</name></trkpt>
<trkpt lat="53.518196" lon="-1.963126"><ele>316</ele><time>2020-09-24T12:54:09Z</time><name>PT3166</name></trkpt>
<trkpt lat="53.518239" lon="-1.963138"><ele>316</ele><time>2020-09-24T12:54:13Z</time><name>PT3167</name></trkpt>
<trkpt lat="53.518280" lon="-1.963154"><ele>315</ele><time>2020-09-24T12:54:17Z</time><name>PT3168</name></trkpt>
<trkpt lat="53.518314" lon="-1.963156"><ele>315</ele><time>2020-09-24T12:54:21Z</time><name>PT3169</name></trkpt>
<trkpt lat="53.518325" lon="-1.963191"><ele>316</ele><time>2020-09-24T12:54:25Z</time><name>PT3170</name></trkpt>
<trkpt lat="53.518330" lon="-1.963195"><ele>315</ele><time>2020-09-24T12:54:29Z</time><name>PT3171</name></trkpt>
<trkpt lat="53.518342" lon="-1.963201"><ele>315</ele><time>2020-09-24T12:54:33Z</time><name>PT3172</name></trkpt>
<trkpt lat="53.518358" lon="-1.963226"><ele>315</ele><time>2020-09-24T12:54:37Z</time><name>PT3173</name></trkpt>
<trkpt lat="53.518370" lon="-1.963226"><ele>316</ele><time>2020-09-24T12:54:45Z</time><name>PT3174</name></trkpt>
<trkpt lat="53.518430" lon="-1.963246"><ele>316</ele><time>2020-09-24T12:54:49Z</time><name>PT3175</name></trkpt>
<trkpt lat="53.518479" lon="-1.963291"><ele>314</ele><time>2020-09-24T12:54:53Z</time><name>PT3176</name></trkpt>
<trkpt lat="53.518527" lon="-1.963336"><ele>313</ele><time>2020-09-24T12:54:57Z</time><name>PT3177</name></trkpt>
<trkpt lat="53.518573" lon="-1.963377"><ele>311</ele><time>2020-09-24T12:55:01Z</time><name>PT3178</name></trkpt>
<trkpt lat="53.518616" lon="-1.963429"><ele>310</ele><time>2020-09-24T12:55:05Z</time><name>PT3179</name></trkpt>
<trkpt lat="53.518656" lon="-1.963486"><ele>310</ele><time>2020-09-24T12:55:09Z</time><name>PT3180</name></trkpt>
<trkpt lat="53.518684" lon="-1.963554"><ele>311</ele><time>2020-09-24T12:55:13Z</time><name>PT3181</name></trkpt>
<trkpt lat="53.518725" lon="-1.963620"><ele>310</ele><time>2020-09-24T12:55:17Z</time><name>PT3182</name></trkpt>
<trkpt lat="53.518762" lon="-1.963668"><ele>310</ele><time>2020-09-24T12:55:21Z</time><name>PT3183</name></trkpt>
<trkpt lat="53.518799" lon="-1.963735"><ele>309</ele><time>2020-09-24T12:55:25Z</time><name>PT3184</name></trkpt>
<trkpt lat="53.518833" lon="-1.963796"><ele>311</ele><time>2020-09-24T12:55:29Z</time><name>PT3185</name></trkpt>
<trkpt lat="53.518870" lon="-1.963849"><ele>311</ele><time>2020-09-24T12:55:33Z</time><name>PT3186</name></trkpt>
<trkpt lat="53.518907" lon="-1.963895"><ele>310</ele><time>2020-09-24T12:55:37Z</time><name>PT3187</name></trkpt>
<trkpt lat="53.518952" lon="-1.963945"><ele>311</ele><time>2020-09-24T12:55:41Z</time><name>PT3188</name></trkpt>
<trkpt lat="53.518999" lon="-1.963977"><ele>309</ele><time>2020-09-24T12:55:45Z</time><name>PT3189</name></trkpt>
<trkpt lat="53.519041" lon="-1.964012"><ele>309</ele><time>2020-09-24T12:55:49Z</time><name>PT3190</name></trkpt>
<trkpt lat="53.519080" lon="-1.964048"><ele>308</ele><time>2020-09-24T12:55:53Z</time><name>PT3191</name></trkpt>
<trkpt lat="53.519121" lon="-1.964086"><ele>308</ele><time>2020-09-24T12:55:57Z</time><name>PT3192</name></trkpt>
<trkpt lat="53.519165" lon="-1.964136"><ele>308</ele><time>2020-09-24T12:56:01Z</time><name>PT3193</name></trkpt>
<trkpt lat="53.519216" lon="-1.964181"><ele>308</ele><time>2020-09-24T12:56:05Z</time><name>PT3194</name></trkpt>
<trkpt lat="53.519258" lon="-1.964231"><ele>308</ele><time>2020-09-24T12:56:09Z</time><name>PT3195</name></trkpt>
<trkpt lat="53.519304" lon="-1.964274"><ele>308</ele><time>2020-09-24T12:56:13Z</time><name>PT3196</name></trkpt>
<trkpt lat="53.519347" lon="-1.964306"><ele>307</ele><time>2020-09-24T12:56:17Z</time><name>PT3197</name></trkpt>
<trkpt lat="53.519392" lon="-1.964354"><ele>306</ele><time>2020-09-24T12:56:21Z</time><name>PT3198</name></trkpt>
<trkpt lat="53.519430" lon="-1.964393"><ele>305</ele><time>2020-09-24T12:56:25Z</time><name>PT3199</name></trkpt>
<trkpt lat="53.519479" lon="-1.964431"><ele>304</ele><time>2020-09-24T12:56:29Z</time><name>PT3200</name></trkpt>
<trkpt lat="53.519522" lon="-1.964464"><ele>303</ele><time>2020-09-24T12:56:33Z</time><name>PT3201</name></trkpt>
<trkpt lat="53.519565" lon="-1.964510"><ele>303</ele><time>2020-09-24T12:56:37Z</time><name>PT3202</name></trkpt>
<trkpt lat="53.519609" lon="-1.964563"><ele>303</ele><time>2020-09-24T12:56:41Z</time><name>PT3203</name></trkpt>
<trkpt lat="53.519646" lon="-1.964603"><ele>303</ele><time>2020-09-24T12:56:45Z</time><name>PT3204</name></trkpt>
<trkpt lat="53.519685" lon="-1.964652"><ele>303</ele><time>2020-09-24T12:56:49Z</time><name>PT3205</name></trkpt>
<trkpt lat="53.519722" lon="-1.964701"><ele>304</ele><time>2020-09-24T12:56:53Z</time><name>PT3206</name></trkpt>
<trkpt lat="53.519758" lon="-1.964750"><ele>303</ele><time>2020-09-24T12:56:57Z</time><name>PT3207</name></trkpt>
<trkpt lat="53.519801" lon="-1.964799"><ele>303</ele><time>2020-09-24T12:57:01Z</time><name>PT3208</name></trkpt>
<trkpt lat="53.519840" lon="-1.964847"><ele>302</ele><time>2020-09-24T12:57:05Z</time><name>PT3209</name></trkpt>
<trkpt lat="53.519873" lon="-1.964884"><ele>303</ele><time>2020-09-24T12:57:08Z</time><name>PT3210</name></trkpt>
<trkpt lat="53.519905" lon="-1.964909"><ele>302</ele><time>2020-09-24T12:57:11Z</time><name>PT3211</name></trkpt>
<trkpt lat="53.519947" lon="-1.964964"><ele>301</ele><time>2020-09-24T12:57:15Z</time><name>PT3212</name></trkpt>
<trkpt lat="53.519990" lon="-1.964999"><ele>301</ele><time>2020-09-24T12:57:19Z</time><name>PT3213</name></trkpt>
<trkpt lat="53.520032" lon="-1.965049"><ele>301</ele><time>2020-09-24T12:57:23Z</time><name>PT3214</name></trkpt>
<trkpt lat="53.520078" lon="-1.965104"><ele>301</ele><time>2020-09-24T12:57:27Z</time><name>PT3215</name></trkpt>
<trkpt lat="53.520115" lon="-1.965161"><ele>301</ele><time>2020-09-24T12:57:31Z</time><name>PT3216</name></trkpt>
<trkpt lat="53.520159" lon="-1.965203"><ele>300</ele><time>2020-09-24T12:57:35Z</time><name>PT3217</name></trkpt>
<trkpt lat="53.520204" lon="-1.965247"><ele>300</ele><time>2020-09-24T12:57:39Z</time><name>PT3218</name></trkpt>
<trkpt lat="53.520248" lon="-1.965296"><ele>301</ele><time>2020-09-24T12:57:43Z</time><name>PT3219</name></trkpt>
<trkpt lat="53.520289" lon="-1.965342"><ele>301</ele><time>2020-09-24T12:57:47Z</time><name>PT3220</name></trkpt>
<trkpt lat="53.520332" lon="-1.965402"><ele>301</ele><time>2020-09-24T12:57:51Z</time><name>PT3221</name></trkpt>
<trkpt lat="53.520371" lon="-1.965458"><ele>301</ele><time>2020-09-24T12:57:55Z</time><name>PT3222</name></trkpt>
<trkpt lat="53.520410" lon="-1.965527"><ele>301</ele><time>2020-09-24T12:57:59Z</time><name>PT3223</name></trkpt>
<trkpt lat="53.520451" lon="-1.965582"><ele>301</ele><time>2020-09-24T12:58:03Z</time><name>PT3224</name></trkpt>
<trkpt lat="53.520491" lon="-1.965643"><ele>300</ele><time>2020-09-24T12:58:07Z</time><name>PT3225</name></trkpt>
<trkpt lat="53.520525" lon="-1.965703"><ele>299</ele><time>2020-09-24T12:58:11Z</time><name>PT3226</name></trkpt>
<trkpt lat="53.520560" lon="-1.965746"><ele>298</ele><time>2020-09-24T12:58:15Z</time><name>PT3227</name></trkpt>
<trkpt lat="53.520598" lon="-1.965802"><ele>297</ele><time>2020-09-24T12:58:19Z</time><name>PT3228</name></trkpt>
<trkpt lat="53.520644" lon="-1.965847"><ele>298</ele><time>2020-09-24T12:58:23Z</time><name>PT3229</name></trkpt>
<trkpt lat="53.520690" lon="-1.965914"><ele>300</ele><time>2020-09-24T12:58:27Z</time><name>PT3230</name></trkpt>
<trkpt lat="53.520729" lon="-1.965973"><ele>299</ele><time>2020-09-24T12:58:31Z</time><name>PT3231</name></trkpt>
<trkpt lat="53.520771" lon="-1.966030"><ele>299</ele><time>2020-09-24T12:58:35Z</time><name>PT3232</name></trkpt>
<trkpt lat="53.520813" lon="-1.966091"><ele>299</ele><time>2020-09-24T12:58:39Z</time><name>PT3233</name></trkpt>
<trkpt lat="53.520857" lon="-1.966137"><ele>298</ele><time>2020-09-24T12:58:43Z</time><name>PT3234</name></trkpt>
<trkpt lat="53.520902" lon="-1.966183"><ele>298</ele><time>2020-09-24T12:58:47Z</time><name>PT3235</name></trkpt>
<trkpt lat="53.520945" lon="-1.966224"><ele>298</ele><time>2020-09-24T12:58:51Z</time><name>PT3236</name></trkpt>
<trkpt lat="53.520989" lon="-1.966264"><ele>297</ele><time>2020-09-24T12:58:55Z</time><name>PT3237</name></trkpt>
<trkpt lat="53.521041" lon="-1.966302"><ele>297</ele><time>2020-09-24T12:58:59Z</time><name>PT3238</name></trkpt>
<trkpt lat="53.521088" lon="-1.966327"><ele>297</ele><time>2020-09-24T12:59:03Z</time><name>PT3239</name></trkpt>
<trkpt lat="53.521135" lon="-1.966347"><ele>297</ele><time>2020-09-24T12:59:07Z</time><name>PT3240</name></trkpt>
<trkpt lat="53.521185" lon="-1.966366"><ele>296</ele><time>2020-09-24T12:59:11Z</time><name>PT3241</name></trkpt>
<trkpt lat="53.521235" lon="-1.966390"><ele>296</ele><time>2020-09-24T12:59:15Z</time><name>PT3242</name></trkpt>
<trkpt lat="53.521287" lon="-1.966418"><ele>296</ele><time>2020-09-24T12:59:19Z</time><name>PT3243</name></trkpt>
<trkpt lat="53.521340" lon="-1.966451"><ele>297</ele><time>2020-09-24T12:59:23Z</time><name>PT3244</name></trkpt>
<trkpt lat="53.521395" lon="-1.966492"><ele>298</ele><time>2020-09-24T12:59:27Z</time><name>PT3245</name></trkpt>
<trkpt lat="53.521444" lon="-1.966529"><ele>298</ele><time>2020-09-24T12:59:31Z</time><name>PT3246</name></trkpt>
<trkpt lat="53.521489" lon="-1.966564"><ele>297</ele><time>2020-09-24T12:59:35Z</time><name>PT3247</name></trkpt>
<trkpt lat="53.521534" lon="-1.966616"><ele>298</ele><time>2020-09-24T12:59:39Z</time><name>PT3248</name></trkpt>
<trkpt lat="53.521570" lon="-1.966659"><ele>296</ele><time>2020-09-24T12:59:43Z</time><name>PT3249</name></trkpt>
<trkpt lat="53.521610" lon="-1.966717"><ele>296</ele><time>2020-09-24T12:59:47Z</time><name>PT3250</name></trkpt>
<trkpt lat="53.521648" lon="-1.966775"><ele>296</ele><time>2020-09-24T12:59:51Z</time><name>PT3251</name></trkpt>
<trkpt lat="53.521683" lon="-1.966842"><ele>295</ele><time>2020-09-24T12:59:55Z</time><name>PT3252</name></trkpt>
<trkpt lat="53.521719" lon="-1.966900"><ele>294</ele><time>2020-09-24T12:59:59Z</time><name>PT3253</name></trkpt>
<trkpt lat="53.521749" lon="-1.966955"><ele>294</ele><time>2020-09-24T13:00:03Z</time><name>PT3254</name></trkpt>
<trkpt lat="53.521777" lon="-1.967016"><ele>293</ele><time>2020-09-24T13:00:07Z</time><name>PT3255</name></trkpt>
<trkpt lat="53.521813" lon="-1.967070"><ele>294</ele><time>2020-09-24T13:00:11Z</time><name>PT3256</name></trkpt>
<trkpt lat="53.521848" lon="-1.967121"><ele>293</ele><time>2020-09-24T13:00:15Z</time><name>PT3257</name></trkpt>
<trkpt lat="53.521889" lon="-1.967183"><ele>294</ele><time>2020-09-24T13:00:19Z</time><name>PT3258</name></trkpt>
<trkpt lat="53.521926" lon="-1.967253"><ele>293</ele><time>2020-09-24T13:00:23Z</time><name>PT3259</name></trkpt>
<trkpt lat="53.521965" lon="-1.967317"><ele>292</ele><time>2020-09-24T13:00:27Z</time><name>PT3260</name></trkpt>
<trkpt lat="53.521998" lon="-1.967380"><ele>292</ele><time>2020-09-24T13:00:31Z</time><name>PT3261</name></trkpt>
<trkpt lat="53.522035" lon="-1.967448"><ele>292</ele><time>2020-09-24T13:00:35Z</time><name>PT3262</name></trkpt>
<trkpt lat="53.522074" lon="-1.967512"><ele>291</ele><time>2020-09-24T13:00:39Z</time><name>PT3263</name></trkpt>
<trkpt lat="53.522117" lon="-1.967572"><ele>290</ele><time>2020-09-24T13:00:43Z</time><name>PT3264</name></trkpt>
<trkpt lat="53.522154" lon="-1.967631"><ele>290</ele><time>2020-09-24T13:00:47Z</time><name>PT3265</name></trkpt>
<trkpt lat="53.522188" lon="-1.967692"><ele>290</ele><time>2020-09-24T13:00:51Z</time><name>PT3266</name></trkpt>
<trkpt lat="53.522219" lon="-1.967758"><ele>289</ele><time>2020-09-24T13:00:55Z</time><name>PT3267</name></trkpt>
<trkpt lat="53.522245" lon="-1.967826"><ele>288</ele><time>2020-09-24T13:00:59Z</time><name>PT3268</name></trkpt>
<trkpt lat="53.522257" lon="-1.967916"><ele>286</ele><time>2020-09-24T13:01:03Z</time><name>PT3269</name></trkpt>
<trkpt lat="53.522275" lon="-1.967983"><ele>285</ele><time>2020-09-24T13:01:07Z</time><name>PT3270</name></trkpt>
<trkpt lat="53.522286" lon="-1.968063"><ele>283</ele><time>2020-09-24T13:01:11Z</time><name>PT3271</name></trkpt>
<trkpt lat="53.522306" lon="-1.968140"><ele>283</ele><time>2020-09-24T13:01:15Z</time><name>PT3272</name></trkpt>
<trkpt lat="53.522314" lon="-1.968222"><ele>282</ele><time>2020-09-24T13:01:19Z</time><name>PT3273</name></trkpt>
<trkpt lat="53.522321" lon="-1.968313"><ele>282</ele><time>2020-09-24T13:01:23Z</time><name>PT3274</name></trkpt>
<trkpt lat="53.522320" lon="-1.968409"><ele>282</ele><time>2020-09-24T13:01:27Z</time><name>PT3275</name></trkpt>
<trkpt lat="53.522322" lon="-1.968499"><ele>282</ele><time>2020-09-24T13:01:31Z</time><name>PT3276</name></trkpt>
<trkpt lat="53.522321" lon="-1.968576"><ele>282</ele><time>2020-09-24T13:01:35Z</time><name>PT3277</name></trkpt>
<trkpt lat="53.522325" lon="-1.968655"><ele>280</ele><time>2020-09-24T13:01:39Z</time><name>PT3278</name></trkpt>
<trkpt lat="53.522323" lon="-1.968731"><ele>280</ele><time>2020-09-24T13:01:43Z</time><name>PT3279</name></trkpt>
<trkpt lat="53.522325" lon="-1.968816"><ele>279</ele><time>2020-09-24T13:01:47Z</time><name>PT3280</name></trkpt>
<trkpt lat="53.522329" lon="-1.968891"><ele>278</ele><time>2020-09-24T13:01:51Z</time><name>PT3281</name></trkpt>
<trkpt lat="53.522340" lon="-1.968973"><ele>277</ele><time>2020-09-24T13:01:55Z</time><name>PT3282</name></trkpt>
<trkpt lat="53.522350" lon="-1.969053"><ele>276</ele><time>2020-09-24T13:01:59Z</time><name>PT3283</name></trkpt>
<trkpt lat="53.522360" lon="-1.969133"><ele>276</ele><time>2020-09-24T13:02:03Z</time><name>PT3284</name></trkpt>
<trkpt lat="53.522379" lon="-1.969213"><ele>276</ele><time>2020-09-24T13:02:07Z</time><name>PT3285</name></trkpt>
<trkpt lat="53.522394" lon="-1.969303"><ele>276</ele><time>2020-09-24T13:02:11Z</time><name>PT3286</name></trkpt>
<trkpt lat="53.522415" lon="-1.969385"><ele>277</ele><time>2020-09-24T13:02:15Z</time><name>PT3287</name></trkpt>
<trkpt lat="53.522437" lon="-1.969466"><ele>278</ele><time>2020-09-24T13:02:19Z</time><name>PT3288</name></trkpt>
<trkpt lat="53.522464" lon="-1.969540"><ele>279</ele><time>2020-09-24T13:02:23Z</time><name>PT3289</name></trkpt>
<trkpt lat="53.522499" lon="-1.969606"><ele>280</ele><time>2020-09-24T13:02:27Z</time><name>PT3290</name></trkpt>
<trkpt lat="53.522535" lon="-1.969668"><ele>279</ele><time>2020-09-24T13:02:31Z</time><name>PT3291</name></trkpt>
<trkpt lat="53.522568" lon="-1.969723"><ele>278</ele><time>2020-09-24T13:02:35Z</time><name>PT3292</name></trkpt>
<trkpt lat="53.522609" lon="-1.969765"><ele>278</ele><time>2020-09-24T13:02:39Z</time><name>PT3293</name></trkpt>
<trkpt lat="53.522648" lon="-1.969815"><ele>278</ele><time>2020-09-24T13:02:43Z</time><name>PT3294</name></trkpt>
<trkpt lat="53.522679" lon="-1.969872"><ele>276</ele><time>2020-09-24T13:02:47Z</time><name>PT3295</name></trkpt>
<trkpt lat="53.522714" lon="-1.969938"><ele>276</ele><time>2020-09-24T13:02:51Z</time><name>PT3296</name></trkpt>
<trkpt lat="53.522743" lon="-1.970007"><ele>276</ele><time>2020-09-24T13:02:55Z</time><name>PT3297</name></trkpt>
<trkpt lat="53.522760" lon="-1.970059"><ele>276</ele><time>2020-09-24T13:02:58Z</time><name>PT3298</name></trkpt>
<trkpt lat="53.522778" lon="-1.970147"><ele>276</ele><time>2020-09-24T13:03:02Z</time><name>PT3299</name></trkpt>
<trkpt lat="53.522797" lon="-1.970226"><ele>275</ele><time>2020-09-24T13:03:06Z</time><name>PT3300</name></trkpt>
<trkpt lat="53.522814" lon="-1.970306"><ele>275</ele><time>2020-09-24T13:03:10Z</time><name>PT3301</name></trkpt>
<trkpt lat="53.522837" lon="-1.970382"><ele>275</ele><time>2020-09-24T13:03:14Z</time><name>PT3302</name></trkpt>
<trkpt lat="53.522859" lon="-1.970459"><ele>274</ele><time>2020-09-24T13:03:18Z</time><name>PT3303</name></trkpt>
<trkpt lat="53.522885" lon="-1.970532"><ele>273</ele><time>2020-09-24T13:03:22Z</time><name>PT3304</name></trkpt>
<trkpt lat="53.522916" lon="-1.970603"><ele>273</ele><time>2020-09-24T13:03:26Z</time><name>PT3305</name></trkpt>
<trkpt lat="53.522943" lon="-1.970675"><ele>272</ele><time>2020-09-24T13:03:30Z</time><name>PT3306</name></trkpt>
<trkpt lat="53.522979" lon="-1.970740"><ele>272</ele><time>2020-09-24T13:03:34Z</time><name>PT3307</name></trkpt>
<trkpt lat="53.523012" lon="-1.970807"><ele>272</ele><time>2020-09-24T13:03:38Z</time><name>PT3308</name></trkpt>
<trkpt lat="53.523048" lon="-1.970855"><ele>271</ele><time>2020-09-24T13:03:42Z</time><name>PT3309</name></trkpt>
<trkpt lat="53.523087" lon="-1.970903"><ele>270</ele><time>2020-09-24T13:03:46Z</time><name>PT3310</name></trkpt>
<trkpt lat="53.523121" lon="-1.970958"><ele>269</ele><time>2020-09-24T13:03:50Z</time><name>PT3311</name></trkpt>
<trkpt lat="53.523160" lon="-1.971015"><ele>269</ele><time>2020-09-24T13:03:54Z</time><name>PT3312</name></trkpt>
<trkpt lat="53.523199" lon="-1.971076"><ele>268</ele><time>2020-09-24T13:03:58Z</time><name>PT3313</name></trkpt>
<trkpt lat="53.523237" lon="-1.971130"><ele>268</ele><time>2020-09-24T13:04:02Z</time><name>PT3314</name></trkpt>
<trkpt lat="53.523269" lon="-1.971195"><ele>268</ele><time>2020-09-24T13:04:06Z</time><name>PT3315</name></trkpt>
<trkpt lat="53.523305" lon="-1.971254"><ele>268</ele><time>2020-09-24T13:04:10Z</time><name>PT3316</name></trkpt>
<trkpt lat="53.523333" lon="-1.971321"><ele>268</ele><time>2020-09-24T13:04:14Z</time><name>PT3317</name></trkpt>
<trkpt lat="53.523367" lon="-1.971387"><ele>268</ele><time>2020-09-24T13:04:18Z</time><name>PT3318</name></trkpt>
<trkpt lat="53.523405" lon="-1.971451"><ele>268</ele><time>2020-09-24T13:04:22Z</time><name>PT3319</name></trkpt>
<trkpt lat="53.523441" lon="-1.971519"><ele>268</ele><time>2020-09-24T13:04:26Z</time><name>PT3320</name></trkpt>
<trkpt lat="53.523450" lon="-1.971543"><ele>267</ele><time>2020-09-24T13:04:30Z</time><name>PT3321</name></trkpt>
<trkpt lat="53.523475" lon="-1.971586"><ele>266</ele><time>2020-09-24T13:04:34Z</time><name>PT3322</name></trkpt>
<trkpt lat="53.523506" lon="-1.971642"><ele>265</ele><time>2020-09-24T13:04:38Z</time><name>PT3323</name></trkpt>
<trkpt lat="53.523537" lon="-1.971705"><ele>265</ele><time>2020-09-24T13:04:42Z</time><name>PT3324</name></trkpt>
<trkpt lat="53.523568" lon="-1.971761"><ele>264</ele><time>2020-09-24T13:04:46Z</time><name>PT3325</name></trkpt>
<trkpt lat="53.523601" lon="-1.971824"><ele>263</ele><time>2020-09-24T13:04:50Z</time><name>PT3326</name></trkpt>
<trkpt lat="53.523636" lon="-1.971880"><ele>263</ele><time>2020-09-24T13:04:54Z</time><name>PT3327</name></trkpt>
<trkpt lat="53.523677" lon="-1.971926"><ele>262</ele><time>2020-09-24T13:04:58Z</time><name>PT3328</name></trkpt>
<trkpt lat="53.523714" lon="-1.971962"><ele>261</ele><time>2020-09-24T13:05:02Z</time><name>PT3329</name></trkpt>
<trkpt lat="53.523758" lon="-1.971995"><ele>260</ele><time>2020-09-24T13:05:06Z</time><name>PT3330</name></trkpt>
<trkpt lat="53.523800" lon="-1.972022"><ele>258</ele><time>2020-09-24T13:05:10Z</time><name>PT3331</name></trkpt>
<trkpt lat="53.523838" lon="-1.972040"><ele>258</ele><time>2020-09-24T13:05:14Z</time><name>PT3332</name></trkpt>
<trkpt lat="53.523885" lon="-1.972061"><ele>257</ele><time>2020-09-24T13:05:18Z</time><name>PT3333</name></trkpt>
<trkpt lat="53.523921" lon="-1.972067"><ele>255</ele><time>2020-09-24T13:05:22Z</time><name>PT3334</name></trkpt>
<trkpt lat="53.523961" lon="-1.972069"><ele>253</ele><time>2020-09-24T13:05:26Z</time><name>PT3335</name></trkpt>
<trkpt lat="53.524003" lon="-1.972061"><ele>253</ele><time>2020-09-24T13:05:30Z</time><name>PT3336</name></trkpt>
<trkpt lat="53.524044" lon="-1.972037"><ele>251</ele><time>2020-09-24T13:05:34Z</time><name>PT3337</name></trkpt>
<trkpt lat="53.524088" lon="-1.972029"><ele>250</ele><time>2020-09-24T13:05:38Z</time><name>PT3338</name></trkpt>
<trkpt lat="53.524138" lon="-1.972014"><ele>249</ele><time>2020-09-24T13:05:42Z</time><name>PT3339</name></trkpt>
<trkpt lat="53.524182" lon="-1.971998"><ele>249</ele><time>2020-09-24T13:05:46Z</time><name>PT3340</name></trkpt>
<trkpt lat="53.524228" lon="-1.971977"><ele>249</ele><time>2020-09-24T13:05:50Z</time><name>PT3341</name></trkpt>
<trkpt lat="53.524266" lon="-1.971963"><ele>248</ele><time>2020-09-24T13:05:54Z</time><name>PT3342</name></trkpt>
<trkpt lat="53.524305" lon="-1.971935"><ele>247</ele><time>2020-09-24T13:05:58Z</time><name>PT3343</name></trkpt>
<trkpt lat="53.524345" lon="-1.971908"><ele>246</ele><time>2020-09-24T13:06:02Z</time><name>PT3344</name></trkpt>
<trkpt lat="53.524385" lon="-1.971890"><ele>244</ele><time>2020-09-24T13:06:06Z</time><name>PT3345</name></trkpt>
<trkpt lat="53.524422" lon="-1.971864"><ele>243</ele><time>2020-09-24T13:06:10Z</time><name>PT3346</name></trkpt>
<trkpt lat="53.524468" lon="-1.971841"><ele>243</ele><time>2020-09-24T13:06:14Z</time><name>PT3347</name></trkpt>
<trkpt lat="53.524512" lon="-1.971810"><ele>242</ele><time>2020-09-24T13:06:18Z</time><name>PT3348</name></trkpt>
<trkpt lat="53.524548" lon="-1.971787"><ele>240</ele><time>2020-09-24T13:06:22Z</time><name>PT3349</name></trkpt>
<trkpt lat="53.524586" lon="-1.971746"><ele>239</ele><time>2020-09-24T13:06:26Z</time><name>PT3350</name></trkpt>
<trkpt lat="53.524623" lon="-1.971701"><ele>238</ele><time>2020-09-24T13:06:30Z</time><name>PT3351</name></trkpt>
<trkpt lat="53.524662" lon="-1.971631"><ele>238</ele><time>2020-09-24T13:06:34Z</time><name>PT3352</name></trkpt>
<trkpt lat="53.524694" lon="-1.971567"><ele>238</ele><time>2020-09-24T13:06:38Z</time><name>PT3353</name></trkpt>
<trkpt lat="53.524733" lon="-1.971495"><ele>239</ele><time>2020-09-24T13:06:42Z</time><name>PT3354</name></trkpt>
<trkpt lat="53.524766" lon="-1.971432"><ele>240</ele><time>2020-09-24T13:06:46Z</time><name>PT3355</name></trkpt>
<trkpt lat="53.524795" lon="-1.971374"><ele>239</ele><time>2020-09-24T13:06:50Z</time><name>PT3356</name></trkpt>
<trkpt lat="53.524824" lon="-1.971325"><ele>238</ele><time>2020-09-24T13:06:54Z</time><name>PT3357</name></trkpt>
<trkpt lat="53.524860" lon="-1.971261"><ele>239</ele><time>2020-09-24T13:06:58Z</time><name>PT3358</name></trkpt>
<trkpt lat="53.524887" lon="-1.971207"><ele>238</ele><time>2020-09-24T13:07:02Z</time><name>PT3359</name></trkpt>
<trkpt lat="53.524917" lon="-1.971144"><ele>237</ele><time>2020-09-24T13:07:06Z</time><name>PT3360</name></trkpt>
<trkpt lat="53.524949" lon="-1.971078"><ele>237</ele><time>2020-09-24T13:07:10Z</time><name>PT3361</name></trkpt>
<trkpt lat="53.524982" lon="-1.971020"><ele>237</ele><time>2020-09-24T13:07:14Z</time><name>PT3362</name></trkpt>
<trkpt lat="53.525023" lon="-1.971007"><ele>238</ele><time>2020-09-24T13:07:18Z</time><name>PT3363</name></trkpt>
<trkpt lat="53.525053" lon="-1.970995"><ele>237</ele><time>2020-09-24T13:07:22Z</time><name>PT3364</name></trkpt>
<trkpt lat="53.525107" lon="-1.970975"><ele>237</ele><time>2020-09-24T13:07:26Z</time><name>PT3365</name></trkpt>
<trkpt lat="53.525162" lon="-1.970978"><ele>237</ele><time>2020-09-24T13:07:30Z</time><name>PT3366</name></trkpt>
<trkpt lat="53.525217" lon="-1.970974"><ele>238</ele><time>2020-09-24T13:07:34Z</time><name>PT3367</name></trkpt>
<trkpt lat="53.525269" lon="-1.970981"><ele>238</ele><time>2020-09-24T13:07:38Z</time><name>PT3368</name></trkpt>
<trkpt lat="53.525312" lon="-1.970973"><ele>238</ele><time>2020-09-24T13:07:42Z</time><name>PT3369</name></trkpt>
<trkpt lat="53.525352" lon="-1.970968"><ele>239</ele><time>2020-09-24T13:07:46Z</time><name>PT3370</name></trkpt>
<trkpt lat="53.525384" lon="-1.970963"><ele>239</ele><time>2020-09-24T13:07:50Z</time><name>PT3371</name></trkpt>
<trkpt lat="53.525432" lon="-1.970958"><ele>238</ele><time>2020-09-24T13:07:54Z</time><name>PT3372</name></trkpt>
<trkpt lat="53.525484" lon="-1.970976"><ele>239</ele><time>2020-09-24T13:07:58Z</time><name>PT3373</name></trkpt>
<trkpt lat="53.525521" lon="-1.970989"><ele>239</ele><time>2020-09-24T13:08:02Z</time><name>PT3374</name></trkpt>
<trkpt lat="53.525569" lon="-1.971034"><ele>240</ele><time>2020-09-24T13:08:06Z</time><name>PT3375</name></trkpt>
<trkpt lat="53.525615" lon="-1.971090"><ele>241</ele><time>2020-09-24T13:08:10Z</time><name>PT3376</name></trkpt>
<trkpt lat="53.525662" lon="-1.971127"><ele>242</ele><time>2020-09-24T13:08:14Z</time><name>PT3377</name></trkpt>
<trkpt lat="53.525704" lon="-1.971158"><ele>243</ele><time>2020-09-24T13:08:18Z</time><name>PT3378</name></trkpt>
<trkpt lat="53.525749" lon="-1.971199"><ele>243</ele><time>2020-09-24T13:08:22Z</time><name>PT3379</name></trkpt>
<trkpt lat="53.525788" lon="-1.971245"><ele>243</ele><time>2020-09-24T13:08:26Z</time><name>PT3380</name></trkpt>
<trkpt lat="53.525835" lon="-1.971297"><ele>243</ele><time>2020-09-24T13:08:30Z</time><name>PT3381</name></trkpt>
<trkpt lat="53.525870" lon="-1.971348"><ele>242</ele><time>2020-09-24T13:08:34Z</time><name>PT3382</name></trkpt>
<trkpt lat="53.525907" lon="-1.971396"><ele>241</ele><time>2020-09-24T13:08:38Z</time><name>PT3383</name></trkpt>
<trkpt lat="53.525957" lon="-1.971444"><ele>243</ele><time>2020-09-24T13:08:42Z</time><name>PT3384</name></trkpt>
<trkpt lat="53.525997" lon="-1.971493"><ele>243</ele><time>2020-09-24T13:08:46Z</time><name>PT3385</name></trkpt>
<trkpt lat="53.526033" lon="-1.971540"><ele>242</ele><time>2020-09-24T13:08:50Z</time><name>PT3386</name></trkpt>
<trkpt lat="53.526072" lon="-1.971580"><ele>242</ele><time>2020-09-24T13:08:54Z</time><name>PT3387</name></trkpt>
<trkpt lat="53.526108" lon="-1.971622"><ele>242</ele><time>2020-09-24T13:08:58Z</time><name>PT3388</name></trkpt>
<trkpt lat="53.526150" lon="-1.971674"><ele>243</ele><time>2020-09-24T13:09:02Z</time><name>PT3389</name></trkpt>
<trkpt lat="53.526188" lon="-1.971721"><ele>243</ele><time>2020-09-24T13:09:06Z</time><name>PT3390</name></trkpt>
<trkpt lat="53.526221" lon="-1.971761"><ele>242</ele><time>2020-09-24T13:09:10Z</time><name>PT3391</name></trkpt>
<trkpt lat="53.526251" lon="-1.971819"><ele>240</ele><time>2020-09-24T13:09:14Z</time><name>PT3392</name></trkpt>
<trkpt lat="53.526294" lon="-1.971874"><ele>241</ele><time>2020-09-24T13:09:18Z</time><name>PT3393</name></trkpt>
<trkpt lat="53.526334" lon="-1.971933"><ele>241</ele><time>2020-09-24T13:09:22Z</time><name>PT3394</name></trkpt>
<trkpt lat="53.526372" lon="-1.971962"><ele>240</ele><time>2020-09-24T13:09:26Z</time><name>PT3395</name></trkpt>
<trkpt lat="53.526404" lon="-1.972001"><ele>238</ele><time>2020-09-24T13:09:30Z</time><name>PT3396</name></trkpt>
<trkpt lat="53.526440" lon="-1.972035"><ele>237</ele><time>2020-09-24T13:09:34Z</time><name>PT3397</name></trkpt>
<trkpt lat="53.526481" lon="-1.972076"><ele>236</ele><time>2020-09-24T13:09:38Z</time><name>PT3398</name></trkpt>
<trkpt lat="53.526520" lon="-1.972137"><ele>237</ele><time>2020-09-24T13:09:42Z</time><name>PT3399</name></trkpt>
<trkpt lat="53.526564" lon="-1.972184"><ele>237</ele><time>2020-09-24T13:09:46Z</time><name>PT3400</name></trkpt>
<trkpt lat="53.526606" lon="-1.972223"><ele>236</ele><time>2020-09-24T13:09:50Z</time><name>PT3401</name></trkpt>
<trkpt lat="53.526642" lon="-1.972272"><ele>236</ele><time>2020-09-24T13:09:54Z</time><name>PT3402</name></trkpt>
<trkpt lat="53.526677" lon="-1.972326"><ele>237</ele><time>2020-09-24T13:09:58Z</time><name>PT3403</name></trkpt>
<trkpt lat="53.526724" lon="-1.972396"><ele>238</ele><time>2020-09-24T13:10:02Z</time><name>PT3404</name></trkpt>
<trkpt lat="53.526752" lon="-1.972461"><ele>238</ele><time>2020-09-24T13:10:06Z</time><name>PT3405</name></trkpt>
<trkpt lat="53.526783" lon="-1.972531"><ele>239</ele><time>2020-09-24T13:10:10Z</time><name>PT3406</name></trkpt>
<trkpt lat="53.526816" lon="-1.972614"><ele>240</ele><time>2020-09-24T13:10:14Z</time><name>PT3407</name></trkpt>
<trkpt lat="53.526831" lon="-1.972704"><ele>241</ele><time>2020-09-24T13:10:18Z</time><name>PT3408</name></trkpt>
<trkpt lat="53.526842" lon="-1.972788"><ele>241</ele><time>2020-09-24T13:10:22Z</time><name>PT3409</name></trkpt>
<trkpt lat="53.526852" lon="-1.972866"><ele>240</ele><time>2020-09-24T13:10:26Z</time><name>PT3410</name></trkpt>
<trkpt lat="53.526868" lon="-1.972950"><ele>239</ele><time>2020-09-24T13:10:30Z</time><name>PT3411</name></trkpt>
<trkpt lat="53.526885" lon="-1.973030"><ele>240</ele><time>2020-09-24T13:10:34Z</time><name>PT3412</name></trkpt>
<trkpt lat="53.526910" lon="-1.973102"><ele>240</ele><time>2020-09-24T13:10:38Z</time><name>PT3413</name></trkpt>
<trkpt lat="53.526947" lon="-1.973160"><ele>241</ele><time>2020-09-24T13:10:42Z</time><name>PT3414</name></trkpt>
<trkpt lat="53.526971" lon="-1.973232"><ele>241</ele><time>2020-09-24T13:10:46Z</time><name>PT3415</name></trkpt>
<trkpt lat="53.527002" lon="-1.973306"><ele>241</ele><time>2020-09-24T13:10:50Z</time><name>PT3416</name></trkpt>
<trkpt lat="53.527036" lon="-1.973375"><ele>240</ele><time>2020-09-24T13:10:54Z</time><name>PT3417</name></trkpt>
<trkpt lat="53.527071" lon="-1.973438"><ele>240</ele><time>2020-09-24T13:10:58Z</time><name>PT3418</name></trkpt>
<trkpt lat="53.527107" lon="-1.973492"><ele>239</ele><time>2020-09-24T13:11:02Z</time><name>PT3419</name></trkpt>
<trkpt lat="53.527148" lon="-1.973550"><ele>240</ele><time>2020-09-24T13:11:06Z</time><name>PT3420</name></trkpt>
<trkpt lat="53.527192" lon="-1.973593"><ele>239</ele><time>2020-09-24T13:11:10Z</time><name>PT3421</name></trkpt>
<trkpt lat="53.527193" lon="-1.973616"><ele>237</ele><time>2020-09-24T13:11:14Z</time><name>PT3422</name></trkpt>
<trkpt lat="53.527193" lon="-1.973615"><ele>237</ele><time>2020-09-24T13:11:18Z</time><name>PT3423</name></trkpt>
<trkpt lat="53.527198" lon="-1.973623"><ele>237</ele><time>2020-09-24T13:11:22Z</time><name>PT3424</name></trkpt>
<trkpt lat="53.527207" lon="-1.973635"><ele>237</ele><time>2020-09-24T13:11:26Z</time><name>PT3425</name></trkpt>
<trkpt lat="53.527230" lon="-1.973662"><ele>236</ele><time>2020-09-24T13:11:30Z</time><name>PT3426</name></trkpt>
<trkpt lat="53.527237" lon="-1.973664"><ele>236</ele><time>2020-09-24T13:11:34Z</time><name>PT3427</name></trkpt>
<trkpt lat="53.527261" lon="-1.973699"><ele>236</ele><time>2020-09-24T13:11:38Z</time><name>PT3428</name></trkpt>
<trkpt lat="53.527292" lon="-1.973733"><ele>235</ele><time>2020-09-24T13:11:42Z</time><name>PT3429</name></trkpt>
<trkpt lat="53.527332" lon="-1.973758"><ele>234</ele><time>2020-09-24T13:11:46Z</time><name>PT3430</name></trkpt>
<trkpt lat="53.527366" lon="-1.973785"><ele>232</ele><time>2020-09-24T13:11:50Z</time><name>PT3431</name></trkpt>
<trkpt lat="53.527401" lon="-1.973804"><ele>230</ele><time>2020-09-24T13:11:54Z</time><name>PT3432</name></trkpt>
<trkpt lat="53.527447" lon="-1.973823"><ele>230</ele><time>2020-09-24T13:11:58Z</time><name>PT3433</name></trkpt>
<trkpt lat="53.527499" lon="-1.973847"><ele>231</ele><time>2020-09-24T13:12:02Z</time><name>PT3434</name></trkpt>
<trkpt lat="53.527547" lon="-1.973870"><ele>231</ele><time>2020-09-24T13:12:06Z</time><name>PT3435</name></trkpt>
<trkpt lat="53.527600" lon="-1.973899"><ele>230</ele><time>2020-09-24T13:12:10Z</time><name>PT3436</name></trkpt>
<trkpt lat="53.527647" lon="-1.973950"><ele>230</ele><time>2020-09-24T13:12:14Z</time><name>PT3437</name></trkpt>
<trkpt lat="53.527696" lon="-1.974006"><ele>230</ele><time>2020-09-24T13:12:18Z</time><name>PT3438</name></trkpt>
<trkpt lat="53.527747" lon="-1.974067"><ele>233</ele><time>2020-09-24T13:12:22Z</time><name>PT3439</name></trkpt>
<trkpt lat="53.527793" lon="-1.974125"><ele>234</ele><time>2020-09-24T13:12:26Z</time><name>PT3440</name></trkpt>
<trkpt lat="53.527837" lon="-1.974193"><ele>235</ele><time>2020-09-24T13:12:30Z</time><name>PT3441</name></trkpt>
<trkpt lat="53.527876" lon="-1.974252"><ele>236</ele><time>2020-09-24T13:12:34Z</time><name>PT3442</name></trkpt>
<trkpt lat="53.527919" lon="-1.974314"><ele>236</ele><time>2020-09-24T13:12:38Z</time><name>PT3443</name></trkpt>
<trkpt lat="53.527962" lon="-1.974376"><ele>237</ele><time>2020-09-24T13:12:42Z</time><name>PT3444</name></trkpt>
<trkpt lat="53.528002" lon="-1.974424"><ele>237</ele><time>2020-09-24T13:12:46Z</time><name>PT3445</name></trkpt>
<trkpt lat="53.528046" lon="-1.974482"><ele>237</ele><time>2020-09-24T13:12:50Z</time><name>PT3446</name></trkpt>
<trkpt lat="53.528081" lon="-1.974529"><ele>236</ele><time>2020-09-24T13:12:54Z</time><name>PT3447</name></trkpt>
<trkpt lat="53.528120" lon="-1.974579"><ele>237</ele><time>2020-09-24T13:12:58Z</time><name>PT3448</name></trkpt>
<trkpt lat="53.528166" lon="-1.974619"><ele>237</ele><time>2020-09-24T13:13:02Z</time><name>PT3449</name></trkpt>
<trkpt lat="53.528219" lon="-1.974666"><ele>237</ele><time>2020-09-24T13:13:06Z</time><name>PT3450</name></trkpt>
<trkpt lat="53.528270" lon="-1.974701"><ele>237</ele><time>2020-09-24T13:13:10Z</time><name>PT3451</name></trkpt>
<trkpt lat="53.528289" lon="-1.974710"><ele>238</ele><time>2020-09-24T13:13:14Z</time><name>PT3452</name></trkpt>
<trkpt lat="53.528295" lon="-1.974712"><ele>238</ele><time>2020-09-24T13:13:18Z</time><name>PT3453</name></trkpt>
<trkpt lat="53.528321" lon="-1.974729"><ele>238</ele><time>2020-09-24T13:13:22Z</time><name>PT3454</name></trkpt>
<trkpt lat="53.528381" lon="-1.974776"><ele>238</ele><time>2020-09-24T13:13:26Z</time><name>PT3455</name></trkpt>
<trkpt lat="53.528427" lon="-1.974802"><ele>238</ele><time>2020-09-24T13:13:30Z</time><name>PT3456</name></trkpt>
<trkpt lat="53.528472" lon="-1.974830"><ele>239</ele><time>2020-09-24T13:13:34Z</time><name>PT3457</name></trkpt>
<trkpt lat="53.528508" lon="-1.974861"><ele>238</ele><time>2020-09-24T13:13:38Z</time><name>PT3458</name></trkpt>
<trkpt lat="53.528566" lon="-1.974877"><ele>239</ele><time>2020-09-24T13:13:42Z</time><name>PT3459</name></trkpt>
<trkpt lat="53.528606" lon="-1.974885"><ele>239</ele><time>2020-09-24T13:13:46Z</time><name>PT3460</name></trkpt>
<trkpt lat="53.528660" lon="-1.974883"><ele>240</ele><time>2020-09-24T13:13:50Z</time><name>PT3461</name></trkpt>
<trkpt lat="53.528709" lon="-1.974875"><ele>239</ele><time>2020-09-24T13:13:54Z</time><name>PT3462</name></trkpt>
<trkpt lat="53.528767" lon="-1.974876"><ele>240</ele><time>2020-09-24T13:13:57Z</time><name>PT3463</name></trkpt>
<trkpt lat="53.528805" lon="-1.974871"><ele>240</ele><time>2020-09-24T13:14:01Z</time><name>PT3464</name></trkpt>
<trkpt lat="53.528856" lon="-1.974861"><ele>240</ele><time>2020-09-24T13:14:05Z</time><name>PT3465</name></trkpt>
<trkpt lat="53.528907" lon="-1.974843"><ele>240</ele><time>2020-09-24T13:14:09Z</time><name>PT3466</name></trkpt>
<trkpt lat="53.528946" lon="-1.974825"><ele>239</ele><time>2020-09-24T13:14:13Z</time><name>PT3467</name></trkpt>
<trkpt lat="53.528993" lon="-1.974803"><ele>238</ele><time>2020-09-24T13:14:17Z</time><name>PT3468</name></trkpt>
<trkpt lat="53.529034" lon="-1.974765"><ele>238</ele><time>2020-09-24T13:14:21Z</time><name>PT3469</name></trkpt>
<trkpt lat="53.529065" lon="-1.974720"><ele>237</ele><time>2020-09-24T13:14:25Z</time><name>PT3470</name></trkpt>
<trkpt lat="53.529101" lon="-1.974685"><ele>236</ele><time>2020-09-24T13:14:29Z</time><name>PT3471</name></trkpt>
<trkpt lat="53.529137" lon="-1.974639"><ele>236</ele><time>2020-09-24T13:14:33Z</time><name>PT3472</name></trkpt>
<trkpt lat="53.529184" lon="-1.974592"><ele>236</ele><time>2020-09-24T13:14:37Z</time><name>PT3473</name></trkpt>
<trkpt lat="53.529215" lon="-1.974551"><ele>235</ele><time>2020-09-24T13:14:41Z</time><name>PT3474</name></trkpt>
<trkpt lat="53.529251" lon="-1.974491"><ele>235</ele><time>2020-09-24T13:14:45Z</time><name>PT3475</name></trkpt>
<trkpt lat="53.529286" lon="-1.974447"><ele>235</ele><time>2020-09-24T13:14:49Z</time><name>PT3476</name></trkpt>
<trkpt lat="53.529321" lon="-1.974391"><ele>236</ele><time>2020-09-24T13:14:53Z</time><name>PT3477</name></trkpt>
<trkpt lat="53.529352" lon="-1.974329"><ele>236</ele><time>2020-09-24T13:14:57Z</time><name>PT3478</name></trkpt>
<trkpt lat="53.529390" lon="-1.974269"><ele>237</ele><time>2020-09-24T13:15:01Z</time><name>PT3479</name></trkpt>
<trkpt lat="53.529417" lon="-1.974213"><ele>236</ele><time>2020-09-24T13:15:05Z</time><name>PT3480</name></trkpt>
<trkpt lat="53.529449" lon="-1.974149"><ele>236</ele><time>2020-09-24T13:15:09Z</time><name>PT3481</name></trkpt>
<trkpt lat="53.529481" lon="-1.974088"><ele>236</ele><time>2020-09-24T13:15:13Z</time><name>PT3482</name></trkpt>
<trkpt lat="53.529512" lon="-1.974019"><ele>235</ele><time>2020-09-24T13:15:17Z</time><name>PT3483</name></trkpt>
<trkpt lat="53.529541" lon="-1.973948"><ele>235</ele><time>2020-09-24T13:15:21Z</time><name>PT3484</name></trkpt>
<trkpt lat="53.529571" lon="-1.973875"><ele>235</ele><time>2020-09-24T13:15:25Z</time><name>PT3485</name></trkpt>
<trkpt lat="53.529598" lon="-1.973809"><ele>235</ele><time>2020-09-24T13:15:29Z</time><name>PT3486</name></trkpt>
<trkpt lat="53.529630" lon="-1.973741"><ele>235</ele><time>2020-09-24T13:15:33Z</time><name>PT3487</name></trkpt>
<trkpt lat="53.529655" lon="-1.973664"><ele>236</ele><time>2020-09-24T13:15:37Z</time><name>PT3488</name></trkpt>
<trkpt lat="53.529687" lon="-1.973594"><ele>236</ele><time>2020-09-24T13:15:41Z</time><name>PT3489</name></trkpt>
<trkpt lat="53.529722" lon="-1.973534"><ele>236</ele><time>2020-09-24T13:15:45Z</time><name>PT3490</name></trkpt>
<trkpt lat="53.529740" lon="-1.973504"><ele>236</ele><time>2020-09-24T13:15:49Z</time><name>PT3491</name></trkpt>
<trkpt lat="53.529742" lon="-1.973503"><ele>236</ele><time>2020-09-24T13:15:53Z</time><name>PT3492</name></trkpt>
<trkpt lat="53.529765" lon="-1.973463"><ele>235</ele><time>2020-09-24T13:15:57Z</time><name>PT3493</name></trkpt>
<trkpt lat="53.529790" lon="-1.973414"><ele>235</ele><time>2020-09-24T13:16:01Z</time><name>PT3494</name></trkpt>
<trkpt lat="53.529813" lon="-1.973357"><ele>234</ele><time>2020-09-24T13:16:05Z</time><name>PT3495</name></trkpt>
<trkpt lat="53.529841" lon="-1.973300"><ele>234</ele><time>2020-09-24T13:16:09Z</time><name>PT3496</name></trkpt>
<trkpt lat="53.529870" lon="-1.973255"><ele>235</ele><time>2020-09-24T13:16:13Z</time><name>PT3497</name></trkpt>
<trkpt lat="53.529898" lon="-1.973211"><ele>234</ele><time>2020-09-24T13:16:17Z</time><name>PT3498</name></trkpt>
<trkpt lat="53.529928" lon="-1.973156"><ele>235</ele><time>2020-09-24T13:16:21Z</time><name>PT3499</name></trkpt>
<trkpt lat="53.529960" lon="-1.973103"><ele>235</ele><time>2020-09-24T13:16:25Z</time><name>PT3500</name></trkpt>
<trkpt lat="53.529993" lon="-1.973046"><ele>235</ele><time>2020-09-24T13:16:29Z</time><name>PT3501</name></trkpt>
<trkpt lat="53.530032" lon="-1.972991"><ele>236</ele><time>2020-09-24T13:16:33Z</time><name>PT3502</name></trkpt>
<trkpt lat="53.530063" lon="-1.972928"><ele>236</ele><time>2020-09-24T13:16:37Z</time><name>PT3503</name></trkpt>
<trkpt lat="53.530091" lon="-1.972876"><ele>235</ele><time>2020-09-24T13:16:41Z</time><name>PT3504</name></trkpt>
<trkpt lat="53.530124" lon="-1.972810"><ele>236</ele><time>2020-09-24T13:16:45Z</time><name>PT3505</name></trkpt>
<trkpt lat="53.530157" lon="-1.972742"><ele>236</ele><time>2020-09-24T13:16:49Z</time><name>PT3506</name></trkpt>
<trkpt lat="53.530187" lon="-1.972679"><ele>236</ele><time>2020-09-24T13:16:53Z</time><name>PT3507</name></trkpt>
<trkpt lat="53.530227" lon="-1.972616"><ele>236</ele><time>2020-09-24T13:16:57Z</time><name>PT3508</name></trkpt>
<trkpt lat="53.530260" lon="-1.972554"><ele>236</ele><time>2020-09-24T13:17:01Z</time><name>PT3509</name></trkpt>
<trkpt lat="53.530299" lon="-1.972492"><ele>236</ele><time>2020-09-24T13:17:05Z</time><name>PT3510</name></trkpt>
<trkpt lat="53.530332" lon="-1.972430"><ele>236</ele><time>2020-09-24T13:17:09Z</time><name>PT3511</name></trkpt>
<trkpt lat="53.530363" lon="-1.972363"><ele>236</ele><time>2020-09-24T13:17:13Z</time><name>PT3512</name></trkpt>
<trkpt lat="53.530395" lon="-1.972290"><ele>236</ele><time>2020-09-24T13:17:17Z</time><name>PT3513</name></trkpt>
<trkpt lat="53.530433" lon="-1.972235"><ele>236</ele><time>2020-09-24T13:17:21Z</time><name>PT3514</name></trkpt>
<trkpt lat="53.530465" lon="-1.972179"><ele>236</ele><time>2020-09-24T13:17:25Z</time><name>PT3515</name></trkpt>
<trkpt lat="53.530502" lon="-1.972120"><ele>236</ele><time>2020-09-24T13:17:29Z</time><name>PT3516</name></trkpt>
<trkpt lat="53.530537" lon="-1.972068"><ele>235</ele><time>2020-09-24T13:17:33Z</time><name>PT3517</name></trkpt>
<trkpt lat="53.530571" lon="-1.972008"><ele>235</ele><time>2020-09-24T13:17:37Z</time><name>PT3518</name></trkpt>
<trkpt lat="53.530605" lon="-1.971955"><ele>234</ele><time>2020-09-24T13:17:41Z</time><name>PT3519</name></trkpt>
<trkpt lat="53.530641" lon="-1.971903"><ele>234</ele><time>2020-09-24T13:17:45Z</time><name>PT3520</name></trkpt>
<trkpt lat="53.530679" lon="-1.971853"><ele>234</ele><time>2020-09-24T13:17:49Z</time><name>PT3521</name></trkpt>
<trkpt lat="53.530716" lon="-1.971797"><ele>234</ele><time>2020-09-24T13:17:53Z</time><name>PT3522</name></trkpt>
<trkpt lat="53.530754" lon="-1.971748"><ele>234</ele><time>2020-09-24T13:17:57Z</time><name>PT3523</name></trkpt>
<trkpt lat="53.530800" lon="-1.971705"><ele>234</ele><time>2020-09-24T13:18:01Z</time><name>PT3524</name></trkpt>
<trkpt lat="53.530849" lon="-1.971663"><ele>235</ele><time>2020-09-24T13:18:05Z</time><name>PT3525</name></trkpt>
<trkpt lat="53.530885" lon="-1.971632"><ele>234</ele><time>2020-09-24T13:18:09Z</time><name>PT3526</name></trkpt>
<trkpt lat="53.530913" lon="-1.971601"><ele>232</ele><time>2020-09-24T13:18:13Z</time><name>PT3527</name></trkpt>
<trkpt lat="53.530965" lon="-1.971566"><ele>232</ele><time>2020-09-24T13:18:17Z</time><name>PT3528</name></trkpt>
<trkpt lat="53.531007" lon="-1.971527"><ele>231</ele><time>2020-09-24T13:18:21Z</time><name>PT3529</name></trkpt>
<trkpt lat="53.531056" lon="-1.971501"><ele>232</ele><time>2020-09-24T13:18:25Z</time><name>PT3530</name></trkpt>
<trkpt lat="53.531097" lon="-1.971465"><ele>231</ele><time>2020-09-24T13:18:29Z</time><name>PT3531</name></trkpt>
<trkpt lat="53.531145" lon="-1.971426"><ele>232</ele><time>2020-09-24T13:18:33Z</time><name>PT3532</name></trkpt>
<trkpt lat="53.531187" lon="-1.971413"><ele>231</ele><time>2020-09-24T13:18:37Z</time><name>PT3533</name></trkpt>
<trkpt lat="53.531225" lon="-1.971386"><ele>230</ele><time>2020-09-24T13:18:41Z</time><name>PT3534</name></trkpt>
<trkpt lat="53.531258" lon="-1.971348"><ele>229</ele><time>2020-09-24T13:18:45Z</time><name>PT3535</name></trkpt>
<trkpt lat="53.531300" lon="-1.971306"><ele>229</ele><time>2020-09-24T13:18:49Z</time><name>PT3536</name></trkpt>
<trkpt lat="53.531332" lon="-1.971283"><ele>227</ele><time>2020-09-24T13:18:53Z</time><name>PT3537</name></trkpt>
<trkpt lat="53.531368" lon="-1.971253"><ele>226</ele><time>2020-09-24T13:18:57Z</time><name>PT3538</name></trkpt>
<trkpt lat="53.531415" lon="-1.971226"><ele>225</ele><time>2020-09-24T13:19:01Z</time><name>PT3539</name></trkpt>
<trkpt lat="53.531455" lon="-1.971195"><ele>225</ele><time>2020-09-24T13:19:05Z</time><name>PT3540</name></trkpt>
<trkpt lat="53.531497" lon="-1.971170"><ele>224</ele><time>2020-09-24T13:19:09Z</time><name>PT3541</name></trkpt>
<trkpt lat="53.531537" lon="-1.971137"><ele>223</ele><time>2020-09-24T13:19:13Z</time><name>PT3542</name></trkpt>
<trkpt lat="53.531572" lon="-1.971100"><ele>222</ele><time>2020-09-24T13:19:17Z</time><name>PT3543</name></trkpt>
<trkpt lat="53.531631" lon="-1.971055"><ele>223</ele><time>2020-09-24T13:19:21Z</time><name>PT3544</name></trkpt>
<trkpt lat="53.531682" lon="-1.971021"><ele>223</ele><time>2020-09-24T13:19:25Z</time><name>PT3545</name></trkpt>
<trkpt lat="53.531740" lon="-1.970980"><ele>225</ele><time>2020-09-24T13:19:29Z</time><name>PT3546</name></trkpt>
<trkpt lat="53.531800" lon="-1.970955"><ele>227</ele><time>2020-09-24T13:19:33Z</time><name>PT3547</name></trkpt>
<trkpt lat="53.531847" lon="-1.970914"><ele>227</ele><time>2020-09-24T13:19:37Z</time><name>PT3548</name></trkpt>
<trkpt lat="53.531893" lon="-1.970877"><ele>228</ele><time>2020-09-24T13:19:41Z</time><name>PT3549</name></trkpt>
<trkpt lat="53.531947" lon="-1.970854"><ele>228</ele><time>2020-09-24T13:19:45Z</time><name>PT3550</name></trkpt>
<trkpt lat="53.532001" lon="-1.970825"><ele>229</ele><time>2020-09-24T13:19:49Z</time><name>PT3551</name></trkpt>
<trkpt lat="53.532043" lon="-1.970793"><ele>229</ele><time>2020-09-24T13:19:53Z</time><name>PT3552</name></trkpt>
<trkpt lat="53.532077" lon="-1.970779"><ele>227</ele><time>2020-09-24T13:19:57Z</time><name>PT3553</name></trkpt>
<trkpt lat="53.532115" lon="-1.970754"><ele>226</ele><time>2020-09-24T13:20:01Z</time><name>PT3554</name></trkpt>
<trkpt lat="53.532157" lon="-1.970735"><ele>224</ele><time>2020-09-24T13:20:05Z</time><name>PT3555</name></trkpt>
<trkpt lat="53.532190" lon="-1.970722"><ele>221</ele><time>2020-09-24T13:20:09Z</time><name>PT3556</name></trkpt>
<trkpt lat="53.532233" lon="-1.970695"><ele>222</ele><time>2020-09-24T13:20:13Z</time><name>PT3557</name></trkpt>
<trkpt lat="53.532266" lon="-1.970643"><ele>222</ele><time>2020-09-24T13:20:17Z</time><name>PT3558</name></trkpt>
<trkpt lat="53.532306" lon="-1.970612"><ele>220</ele><time>2020-09-24T13:20:21Z</time><name>PT3559</name></trkpt>
<trkpt lat="53.532340" lon="-1.970568"><ele>218</ele><time>2020-09-24T13:20:25Z</time><name>PT3560</name></trkpt>
<trkpt lat="53.532391" lon="-1.970501"><ele>221</ele><time>2020-09-24T13:20:29Z</time><name>PT3561</name></trkpt>
<trkpt lat="53.532437" lon="-1.970446"><ele>222</ele><time>2020-09-24T13:20:33Z</time><name>PT3562</name></trkpt>
<trkpt lat="53.532509" lon="-1.970383"><ele>226</ele><time>2020-09-24T13:20:37Z</time><name>PT3563</name></trkpt>
<trkpt lat="53.532566" lon="-1.970344"><ele>227</ele><time>2020-09-24T13:20:41Z</time><name>PT3564</name></trkpt>
<trkpt lat="53.532613" lon="-1.970295"><ele>228</ele><time>2020-09-24T13:20:45Z</time><name>PT3565</name></trkpt>
<trkpt lat="53.532667" lon="-1.970251"><ele>229</ele><time>2020-09-24T13:20:49Z</time><name>PT3566</name></trkpt>
<trkpt lat="53.532707" lon="-1.970201"><ele>228</ele><time>2020-09-24T13:20:53Z</time><name>PT3567</name></trkpt>
<trkpt lat="53.532746" lon="-1.970157"><ele>227</ele><time>2020-09-24T13:20:57Z</time><name>PT3568</name></trkpt>
<trkpt lat="53.532795" lon="-1.970107"><ele>227</ele><time>2020-09-24T13:21:01Z</time><name>PT3569</name></trkpt>
<trkpt lat="53.532841" lon="-1.970065"><ele>228</ele><time>2020-09-24T13:21:05Z</time><name>PT3570</name></trkpt>
<trkpt lat="53.532898" lon="-1.970022"><ele>229</ele><time>2020-09-24T13:21:09Z</time><name>PT3571</name></trkpt>
<trkpt lat="53.532947" lon="-1.969989"><ele>230</ele><time>2020-09-24T13:21:13Z</time><name>PT3572</name></trkpt>
<trkpt lat="53.532998" lon="-1.969936"><ele>230</ele><time>2020-09-24T13:21:17Z</time><name>PT3573</name></trkpt>
<trkpt lat="53.533048" lon="-1.969898"><ele>231</ele><time>2020-09-24T13:21:21Z</time><name>PT3574</name></trkpt>
<trkpt lat="53.533083" lon="-1.969869"><ele>228</ele><time>2020-09-24T13:21:25Z</time><name>PT3575</name></trkpt>
<trkpt lat="53.533119" lon="-1.969826"><ele>227</ele><time>2020-09-24T13:21:29Z</time><name>PT3576</name></trkpt>
<trkpt lat="53.533148" lon="-1.969802"><ele>225</ele><time>2020-09-24T13:21:33Z</time><name>PT3577</name></trkpt>
<trkpt lat="53.533193" lon="-1.969762"><ele>225</ele><time>2020-09-24T13:21:37Z</time><name>PT3578</name></trkpt>
<trkpt lat="53.533232" lon="-1.969727"><ele>224</ele><time>2020-09-24T13:21:41Z</time><name>PT3579</name></trkpt>
<trkpt lat="53.533265" lon="-1.969701"><ele>223</ele><time>2020-09-24T13:21:45Z</time><name>PT3580</name></trkpt>
<trkpt lat="53.533309" lon="-1.969657"><ele>222</ele><time>2020-09-24T13:21:49Z</time><name>PT3581</name></trkpt>
<trkpt lat="53.533365" lon="-1.969607"><ele>223</ele><time>2020-09-24T13:21:53Z</time><name>PT3582</name></trkpt>
<trkpt lat="53.533432" lon="-1.969564"><ele>226</ele><time>2020-09-24T13:21:57Z</time><name>PT3583</name></trkpt>
<trkpt lat="53.533485" lon="-1.969509"><ele>227</ele><time>2020-09-24T13:22:01Z</time><name>PT3584</name></trkpt>
<trkpt lat="53.533528" lon="-1.969474"><ele>227</ele><time>2020-09-24T13:22:05Z</time><name>PT3585</name></trkpt>
<trkpt lat="53.533584" lon="-1.969426"><ele>229</ele><time>2020-09-24T13:22:09Z</time><name>PT3586</name></trkpt>
<trkpt lat="53.533630" lon="-1.969381"><ele>230</ele><time>2020-09-24T13:22:13Z</time><name>PT3587</name></trkpt>
<trkpt lat="53.533666" lon="-1.969337"><ele>229</ele><time>2020-09-24T13:22:17Z</time><name>PT3588</name></trkpt>
<trkpt lat="53.533714" lon="-1.969298"><ele>228</ele><time>2020-09-24T13:22:21Z</time><name>PT3589</name></trkpt>
<trkpt lat="53.533763" lon="-1.969244"><ele>229</ele><time>2020-09-24T13:22:25Z</time><name>PT3590</name></trkpt>
<trkpt lat="53.533804" lon="-1.969198"><ele>229</ele><time>2020-09-24T13:22:29Z</time><name>PT3591</name></trkpt>
<trkpt lat="53.533854" lon="-1.969155"><ele>230</ele><time>2020-09-24T13:22:33Z</time><name>PT3592</name></trkpt>
<trkpt lat="53.533889" lon="-1.969106"><ele>230</ele><time>2020-09-24T13:22:37Z</time><name>PT3593</name></trkpt>
<trkpt lat="53.533928" lon="-1.969061"><ele>231</ele><time>2020-09-24T13:22:41Z</time><name>PT3594</name></trkpt>
<trkpt lat="53.533972" lon="-1.969025"><ele>230</ele><time>2020-09-24T13:22:45Z</time><name>PT3595</name></trkpt>
<trkpt lat="53.534010" lon="-1.968976"><ele>229</ele><time>2020-09-24T13:22:49Z</time><name>PT3596</name></trkpt>
<trkpt lat="53.534045" lon="-1.968930"><ele>228</ele><time>2020-09-24T13:22:53Z</time><name>PT3597</name></trkpt>
<trkpt lat="53.534076" lon="-1.968885"><ele>227</ele><time>2020-09-24T13:22:57Z</time><name>PT3598</name></trkpt>
<trkpt lat="53.534113" lon="-1.968833"><ele>226</ele><time>2020-09-24T13:23:01Z</time><name>PT3599</name></trkpt>
<trkpt lat="53.534145" lon="-1.968796"><ele>224</ele><time>2020-09-24T13:23:05Z</time><name>PT3600</name></trkpt>
<trkpt lat="53.534178" lon="-1.968741"><ele>224</ele><time>2020-09-24T13:23:09Z</time><name>PT3601</name></trkpt>
<trkpt lat="53.534219" lon="-1.968686"><ele>224</ele><time>2020-09-24T13:23:13Z</time><name>PT3602</name></trkpt>
<trkpt lat="53.534272" lon="-1.968620"><ele>226</ele><time>2020-09-24T13:23:17Z</time><name>PT3603</name></trkpt>
<trkpt lat="53.534304" lon="-1.968567"><ele>225</ele><time>2020-09-24T13:23:21Z</time><name>PT3604</name></trkpt>
<trkpt lat="53.534342" lon="-1.968505"><ele>226</ele><time>2020-09-24T13:23:25Z</time><name>PT3605</name></trkpt>
<trkpt lat="53.534377" lon="-1.968453"><ele>225</ele><time>2020-09-24T13:23:29Z</time><name>PT3606</name></trkpt>
<trkpt lat="53.534416" lon="-1.968397"><ele>223</ele><time>2020-09-24T13:23:33Z</time><name>PT3607</name></trkpt>
<trkpt lat="53.534448" lon="-1.968349"><ele>222</ele><time>2020-09-24T13:23:37Z</time><name>PT3608</name></trkpt>
<trkpt lat="53.534496" lon="-1.968299"><ele>222</ele><time>2020-09-24T13:23:41Z</time><name>PT3609</name></trkpt>
<trkpt lat="53.534545" lon="-1.968239"><ele>224</ele><time>2020-09-24T13:23:45Z</time><name>PT3610</name></trkpt>
<trkpt lat="53.534573" lon="-1.968141"><ele>226</ele><time>2020-09-24T13:23:49Z</time><name>PT3611</name></trkpt>
<trkpt lat="53.534606" lon="-1.968040"><ele>227</ele><time>2020-09-24T13:23:53Z</time><name>PT3612</name></trkpt>
<trkpt lat="53.534634" lon="-1.967934"><ele>229</ele><time>2020-09-24T13:23:57Z</time><name>PT3613</name></trkpt>
<trkpt lat="53.534655" lon="-1.967822"><ele>230</ele><time>2020-09-24T13:24:01Z</time><name>PT3614</name></trkpt>
<trkpt lat="53.534677" lon="-1.967751"><ele>230</ele><time>2020-09-24T13:24:05Z</time><name>PT3615</name></trkpt>
<trkpt lat="53.534703" lon="-1.967678"><ele>230</ele><time>2020-09-24T13:24:09Z</time><name>PT3616</name></trkpt>
<trkpt lat="53.534726" lon="-1.967599"><ele>230</ele><time>2020-09-24T13:24:13Z</time><name>PT3617</name></trkpt>
<trkpt lat="53.534752" lon="-1.967521"><ele>231</ele><time>2020-09-24T13:24:17Z</time><name>PT3618</name></trkpt>
<trkpt lat="53.534774" lon="-1.967440"><ele>231</ele><time>2020-09-24T13:24:21Z</time><name>PT3619</name></trkpt>
<trkpt lat="53.534802" lon="-1.967361"><ele>233</ele><time>2020-09-24T13:24:25Z</time><name>PT3620</name></trkpt>
<trkpt lat="53.534838" lon="-1.967307"><ele>234</ele><time>2020-09-24T13:24:29Z</time><name>PT3621</name></trkpt>
<trkpt lat="53.534885" lon="-1.967284"><ele>234</ele><time>2020-09-24T13:24:33Z</time><name>PT3622</name></trkpt>
<trkpt lat="53.534934" lon="-1.967266"><ele>234</ele><time>2020-09-24T13:24:37Z</time><name>PT3623</name></trkpt>
<trkpt lat="53.534982" lon="-1.967261"><ele>234</ele><time>2020-09-24T13:24:41Z</time><name>PT3624</name></trkpt>
<trkpt lat="53.535034" lon="-1.967250"><ele>236</ele><time>2020-09-24T13:24:45Z</time><name>PT3625</name></trkpt>
<trkpt lat="53.535082" lon="-1.967243"><ele>236</ele><time>2020-09-24T13:24:49Z</time><name>PT3626</name></trkpt>
<trkpt lat="53.535134" lon="-1.967246"><ele>235</ele><time>2020-09-24T13:24:53Z</time><name>PT3627</name></trkpt>
<trkpt lat="53.535185" lon="-1.967233"><ele>235</ele><time>2020-09-24T13:24:57Z</time><name>PT3628</name></trkpt>
<trkpt lat="53.535236" lon="-1.967226"><ele>236</ele><time>2020-09-24T13:25:01Z</time><name>PT3629</name></trkpt>
<trkpt lat="53.535270" lon="-1.967201"><ele>235</ele><time>2020-09-24T13:25:05Z</time><name>PT3630</name></trkpt>
<trkpt lat="53.535307" lon="-1.967175"><ele>236</ele><time>2020-09-24T13:25:09Z</time><name>PT3631</name></trkpt>
<trkpt lat="53.535315" lon="-1.967143"><ele>236</ele><time>2020-09-24T13:25:13Z</time><name>PT3632</name></trkpt>
<trkpt lat="53.535327" lon="-1.967129"><ele>236</ele><time>2020-09-24T13:25:17Z</time><name>PT3633</name></trkpt>
<trkpt lat="53.535329" lon="-1.967127"><ele>236</ele><time>2020-09-24T13:25:21Z</time><name>PT3634</name></trkpt>
<trkpt lat="53.535330" lon="-1.967121"><ele>237</ele><time>2020-09-24T13:25:25Z</time><name>PT3635</name></trkpt>
<trkpt lat="53.535331" lon="-1.967114"><ele>237</ele><time>2020-09-24T13:25:29Z</time><name>PT3636</name></trkpt>
<trkpt lat="53.535340" lon="-1.967115"><ele>235</ele><time>2020-09-24T13:25:37Z</time><name>PT3637</name></trkpt>
<trkpt lat="53.535344" lon="-1.967127"><ele>235</ele><time>2020-09-24T13:25:41Z</time><name>PT3638</name></trkpt>
<trkpt lat="53.535345" lon="-1.967138"><ele>235</ele><time>2020-09-24T13:25:45Z</time><name>PT3639</name></trkpt>
<trkpt lat="53.535350" lon="-1.967144"><ele>235</ele><time>2020-09-24T13:25:49Z</time><name>PT3640</name></trkpt>
<trkpt lat="53.535369" lon="-1.967112"><ele>236</ele><time>2020-09-24T13:26:13Z</time><name>PT3641</name></trkpt>
<trkpt lat="53.535407" lon="-1.967076"><ele>236</ele><time>2020-09-24T13:26:17Z</time><name>PT3642</name></trkpt>
<trkpt lat="53.535434" lon="-1.967063"><ele>237</ele><time>2020-09-24T13:26:21Z</time><name>PT3643</name></trkpt>
<trkpt lat="53.535481" lon="-1.967074"><ele>237</ele><time>2020-09-24T13:26:25Z</time><name>PT3644</name></trkpt>
<trkpt lat="53.535528" lon="-1.967095"><ele>237</ele><time>2020-09-24T13:26:29Z</time><name>PT3645</name></trkpt>
<trkpt lat="53.535566" lon="-1.967133"><ele>238</ele><time>2020-09-24T13:26:33Z</time><name>PT3646</name></trkpt>
<trkpt lat="53.535609" lon="-1.967164"><ele>238</ele><time>2020-09-24T13:26:37Z</time><name>PT3647</name></trkpt>
<trkpt lat="53.535652" lon="-1.967193"><ele>236</ele><time>2020-09-24T13:26:41Z</time><name>PT3648</name></trkpt>
<trkpt lat="53.535695" lon="-1.967222"><ele>235</ele><time>2020-09-24T13:26:45Z</time><name>PT3649</name></trkpt>
<trkpt lat="53.535739" lon="-1.967251"><ele>234</ele><time>2020-09-24T13:26:49Z</time><name>PT3650</name></trkpt>
<trkpt lat="53.535786" lon="-1.967276"><ele>235</ele><time>2020-09-24T13:26:53Z</time><name>PT3651</name></trkpt>
<trkpt lat="53.535837" lon="-1.967317"><ele>235</ele><time>2020-09-24T13:26:57Z</time><name>PT3652</name></trkpt>
<trkpt lat="53.535883" lon="-1.967324"><ele>235</ele><time>2020-09-24T13:27:01Z</time><name>PT3653</name></trkpt>
<trkpt lat="53.535924" lon="-1.967339"><ele>235</ele><time>2020-09-24T13:27:05Z</time><name>PT3654</name></trkpt>
<trkpt lat="53.535969" lon="-1.967353"><ele>236</ele><time>2020-09-24T13:27:09Z</time><name>PT3655</name></trkpt>
<trkpt lat="53.536008" lon="-1.967362"><ele>236</ele><time>2020-09-24T13:27:13Z</time><name>PT3656</name></trkpt>
<trkpt lat="53.536058" lon="-1.967365"><ele>236</ele><time>2020-09-24T13:27:17Z</time><name>PT3657</name></trkpt>
<trkpt lat="53.536109" lon="-1.967377"><ele>236</ele><time>2020-09-24T13:27:21Z</time><name>PT3658</name></trkpt>
<trkpt lat="53.536151" lon="-1.967374"><ele>236</ele><time>2020-09-24T13:27:25Z</time><name>PT3659</name></trkpt>
<trkpt lat="53.536193" lon="-1.967362"><ele>235</ele><time>2020-09-24T13:27:29Z</time><name>PT3660</name></trkpt>
<trkpt lat="53.536241" lon="-1.967355"><ele>235</ele><time>2020-09-24T13:27:33Z</time><name>PT3661</name></trkpt>
<trkpt lat="53.536291" lon="-1.967343"><ele>235</ele><time>2020-09-24T13:27:37Z</time><name>PT3662</name></trkpt>
<trkpt lat="53.536335" lon="-1.967342"><ele>235</ele><time>2020-09-24T13:27:41Z</time><name>PT3663</name></trkpt>
<trkpt lat="53.536384" lon="-1.967340"><ele>235</ele><time>2020-09-24T13:27:45Z</time><name>PT3664</name></trkpt>
<trkpt lat="53.536435" lon="-1.967337"><ele>235</ele><time>2020-09-24T13:27:49Z</time><name>PT3665</name></trkpt>
<trkpt lat="53.536484" lon="-1.967346"><ele>235</ele><time>2020-09-24T13:27:53Z</time><name>PT3666</name></trkpt>
<trkpt lat="53.536533" lon="-1.967338"><ele>235</ele><time>2020-09-24T13:27:57Z</time><name>PT3667</name></trkpt>
<trkpt lat="53.536577" lon="-1.967334"><ele>234</ele><time>2020-09-24T13:28:01Z</time><name>PT3668</name></trkpt>
<trkpt lat="53.536623" lon="-1.967331"><ele>235</ele><time>2020-09-24T13:28:05Z</time><name>PT3669</name></trkpt>
<trkpt lat="53.536673" lon="-1.967333"><ele>235</ele><time>2020-09-24T13:28:09Z</time><name>PT3670</name></trkpt>
<trkpt lat="53.536718" lon="-1.967333"><ele>236</ele><time>2020-09-24T13:28:13Z</time><name>PT3671</name></trkpt>
<trkpt lat="53.536773" lon="-1.967342"><ele>236</ele><time>2020-09-24T13:28:17Z</time><name>PT3672</name></trkpt>
<trkpt lat="53.536820" lon="-1.967340"><ele>236</ele><time>2020-09-24T13:28:21Z</time><name>PT3673</name></trkpt>
<trkpt lat="53.536877" lon="-1.967345"><ele>237</ele><time>2020-09-24T13:28:25Z</time><name>PT3674</name></trkpt>
<trkpt lat="53.536930" lon="-1.967354"><ele>238</ele><time>2020-09-24T13:28:29Z</time><name>PT3675</name></trkpt>
<trkpt lat="53.536975" lon="-1.967360"><ele>238</ele><time>2020-09-24T13:28:33Z</time><name>PT3676</name></trkpt>
<trkpt lat="53.537032" lon="-1.967377"><ele>237</ele><time>2020-09-24T13:28:37Z</time><name>PT3677</name></trkpt>
<trkpt lat="53.537078" lon="-1.967394"><ele>238</ele><time>2020-09-24T13:28:41Z</time><name>PT3678</name></trkpt>
<trkpt lat="53.537125" lon="-1.967431"><ele>237</ele><time>2020-09-24T13:28:45Z</time><name>PT3679</name></trkpt>
<trkpt lat="53.537171" lon="-1.967460"><ele>236</ele><time>2020-09-24T13:28:49Z</time><name>PT3680</name></trkpt>
<trkpt lat="53.537222" lon="-1.967491"><ele>237</ele><time>2020-09-24T13:28:53Z</time><name>PT3681</name></trkpt>
<trkpt lat="53.537263" lon="-1.967510"><ele>236</ele><time>2020-09-24T13:28:57Z</time><name>PT3682</name></trkpt>
<trkpt lat="53.537304" lon="-1.967534"><ele>236</ele><time>2020-09-24T13:29:01Z</time><name>PT3683</name></trkpt>
<trkpt lat="53.537345" lon="-1.967561"><ele>236</ele><time>2020-09-24T13:29:05Z</time><name>PT3684</name></trkpt>
<trkpt lat="53.537387" lon="-1.967580"><ele>235</ele><time>2020-09-24T13:29:09Z</time><name>PT3685</name></trkpt>
<trkpt lat="53.537434" lon="-1.967621"><ele>235</ele><time>2020-09-24T13:29:13Z</time><name>PT3686</name></trkpt>
<trkpt lat="53.537476" lon="-1.967650"><ele>235</ele><time>2020-09-24T13:29:17Z</time><name>PT3687</name></trkpt>
<trkpt lat="53.537522" lon="-1.967676"><ele>234</ele><time>2020-09-24T13:29:21Z</time><name>PT3688</name></trkpt>
<trkpt lat="53.537567" lon="-1.967713"><ele>234</ele><time>2020-09-24T13:29:25Z</time><name>PT3689</name></trkpt>
<trkpt lat="53.537622" lon="-1.967748"><ele>235</ele><time>2020-09-24T13:29:29Z</time><name>PT3690</name></trkpt>
<trkpt lat="53.537670" lon="-1.967802"><ele>236</ele><time>2020-09-24T13:29:33Z</time><name>PT3691</name></trkpt>
<trkpt lat="53.537720" lon="-1.967857"><ele>237</ele><time>2020-09-24T13:29:37Z</time><name>PT3692</name></trkpt>
<trkpt lat="53.537754" lon="-1.967918"><ele>237</ele><time>2020-09-24T13:29:41Z</time><name>PT3693</name></trkpt>
<trkpt lat="53.537794" lon="-1.967978"><ele>237</ele><time>2020-09-24T13:29:45Z</time><name>PT3694</name></trkpt>
<trkpt lat="53.537828" lon="-1.968042"><ele>236</ele><time>2020-09-24T13:29:49Z</time><name>PT3695</name></trkpt>
<trkpt lat="53.537858" lon="-1.968106"><ele>237</ele><time>2020-09-24T13:29:53Z</time><name>PT3696</name></trkpt>
<trkpt lat="53.537872" lon="-1.968187"><ele>236</ele><time>2020-09-24T13:29:57Z</time><name>PT3697</name></trkpt>
<trkpt lat="53.537865" lon="-1.968264"><ele>235</ele><time>2020-09-24T13:30:01Z</time><name>PT3698</name></trkpt>
<trkpt lat="53.537866" lon="-1.968339"><ele>236</ele><time>2020-09-24T13:30:05Z</time><name>PT3699</name></trkpt>
<trkpt lat="53.537875" lon="-1.968415"><ele>236</ele><time>2020-09-24T13:30:09Z</time><name>PT3700</name></trkpt>
<trkpt lat="53.537874" lon="-1.968489"><ele>236</ele><time>2020-09-24T13:30:13Z</time><name>PT3701</name></trkpt>
<trkpt lat="53.537861" lon="-1.968523"><ele>236</ele><time>2020-09-24T13:30:17Z</time><name>PT3702</name></trkpt>
<trkpt lat="53.537851" lon="-1.968547"><ele>236</ele><time>2020-09-24T13:30:21Z</time><name>PT3703</name></trkpt>
<trkpt lat="53.537857" lon="-1.968565"><ele>235</ele><time>2020-09-24T13:30:29Z</time><name>PT3704</name></trkpt>
<trkpt lat="53.537858" lon="-1.968575"><ele>236</ele><time>2020-09-24T13:30:33Z</time><name>PT3705</name></trkpt>
<trkpt lat="53.537867" lon="-1.968670"><ele>236</ele><time>2020-09-24T13:30:37Z</time><name>PT3706</name></trkpt>
<trkpt lat="53.537869" lon="-1.968761"><ele>235</ele><time>2020-09-24T13:30:41Z</time><name>PT3707</name></trkpt>
<trkpt lat="53.537875" lon="-1.968850"><ele>235</ele><time>2020-09-24T13:30:45Z</time><name>PT3708</name></trkpt>
<trkpt lat="53.537866" lon="-1.968950"><ele>236</ele><time>2020-09-24T13:30:49Z</time><name>PT3709</name></trkpt>
<trkpt lat="53.537860" lon="-1.969041"><ele>236</ele><time>2020-09-24T13:30:53Z</time><name>PT3710</name></trkpt>
<trkpt lat="53.537863" lon="-1.969135"><ele>236</ele><time>2020-09-24T13:30:57Z</time><name>PT3711</name></trkpt>
<trkpt lat="53.537872" lon="-1.969225"><ele>238</ele><time>2020-09-24T13:31:01Z</time><name>PT3712</name></trkpt>
<trkpt lat="53.537879" lon="-1.969320"><ele>237</ele><time>2020-09-24T13:31:05Z</time><name>PT3713</name></trkpt>
<trkpt lat="53.537884" lon="-1.969415"><ele>237</ele><time>2020-09-24T13:31:09Z</time><name>PT3714</name></trkpt>
<trkpt lat="53.537886" lon="-1.969510"><ele>236</ele><time>2020-09-24T13:31:13Z</time><name>PT3715</name></trkpt>
<trkpt lat="53.537897" lon="-1.969574"><ele>235</ele><time>2020-09-24T13:31:17Z</time><name>PT3716</name></trkpt>
<trkpt lat="53.537898" lon="-1.969579"><ele>235</ele><time>2020-09-24T13:31:21Z</time><name>PT3717</name></trkpt>
<trkpt lat="53.537899" lon="-1.969612"><ele>235</ele><time>2020-09-24T13:31:29Z</time><name>PT3718</name></trkpt>
<trkpt lat="53.537887" lon="-1.969702"><ele>235</ele><time>2020-09-24T13:31:33Z</time><name>PT3719</name></trkpt>
<trkpt lat="53.537879" lon="-1.969807"><ele>235</ele><time>2020-09-24T13:31:37Z</time><name>PT3720</name></trkpt>
<trkpt lat="53.537877" lon="-1.969910"><ele>236</ele><time>2020-09-24T13:31:41Z</time><name>PT3721</name></trkpt>
<trkpt lat="53.537871" lon="-1.969996"><ele>234</ele><time>2020-09-24T13:31:45Z</time><name>PT3722</name></trkpt>
<trkpt lat="53.537872" lon="-1.970096"><ele>235</ele><time>2020-09-24T13:31:49Z</time><name>PT3723</name></trkpt>
<trkpt lat="53.537868" lon="-1.970183"><ele>235</ele><time>2020-09-24T13:31:53Z</time><name>PT3724</name></trkpt>
<trkpt lat="53.537867" lon="-1.970275"><ele>234</ele><time>2020-09-24T13:31:57Z</time><name>PT3725</name></trkpt>
<trkpt lat="53.537874" lon="-1.970378"><ele>234</ele><time>2020-09-24T13:32:01Z</time><name>PT3726</name></trkpt>
<trkpt lat="53.537877" lon="-1.970451"><ele>234</ele><time>2020-09-24T13:32:05Z</time><name>PT3727</name></trkpt>
<trkpt lat="53.537870" lon="-1.970533"><ele>233</ele><time>2020-09-24T13:32:09Z</time><name>PT3728</name></trkpt>
<trkpt lat="53.537870" lon="-1.970620"><ele>233</ele><time>2020-09-24T13:32:13Z</time><name>PT3729</name></trkpt>
<trkpt lat="53.537868" lon="-1.970715"><ele>232</ele><time>2020-09-24T13:32:17Z</time><name>PT3730</name></trkpt>
<trkpt lat="53.537873" lon="-1.970799"><ele>232</ele><time>2020-09-24T13:32:21Z</time><name>PT3731</name></trkpt>
<trkpt lat="53.537869" lon="-1.970883"><ele>231</ele><time>2020-09-24T13:32:25Z</time><name>PT3732</name></trkpt>
<trkpt lat="53.537873" lon="-1.970955"><ele>232</ele><time>2020-09-24T13:32:29Z</time><name>PT3733</name></trkpt>
<trkpt lat="53.537880" lon="-1.971034"><ele>233</ele><time>2020-09-24T13:32:33Z</time><name>PT3734</name></trkpt>
<trkpt lat="53.537867" lon="-1.971110"><ele>233</ele><time>2020-09-24T13:32:37Z</time><name>PT3735</name></trkpt>
<trkpt lat="53.537832" lon="-1.971161"><ele>233</ele><time>2020-09-24T13:32:41Z</time><name>PT3736</name></trkpt>
<trkpt lat="53.537798" lon="-1.971182"><ele>234</ele><time>2020-09-24T13:32:44Z</time><name>PT3737</name></trkpt>
<trkpt lat="53.537764" lon="-1.971189"><ele>233</ele><time>2020-09-24T13:32:47Z</time><name>PT3738</name></trkpt>
<trkpt lat="53.537716" lon="-1.971198"><ele>234</ele><time>2020-09-24T13:32:51Z</time><name>PT3739</name></trkpt>
<trkpt lat="53.537665" lon="-1.971196"><ele>235</ele><time>2020-09-24T13:32:55Z</time><name>PT3740</name></trkpt>
<trkpt lat="53.537616" lon="-1.971199"><ele>235</ele><time>2020-09-24T13:32:59Z</time><name>PT3741</name></trkpt>
<trkpt lat="53.537578" lon="-1.971213"><ele>236</ele><time>2020-09-24T13:33:02Z</time><name>PT3742</name></trkpt>
<trkpt lat="53.537529" lon="-1.971213"><ele>236</ele><time>2020-09-24T13:33:06Z</time><name>PT3743</name></trkpt>
<trkpt lat="53.537479" lon="-1.971208"><ele>236</ele><time>2020-09-24T13:33:10Z</time><name>PT3744</name></trkpt>
<trkpt lat="53.537423" lon="-1.971205"><ele>237</ele><time>2020-09-24T13:33:14Z</time><name>PT3745</name></trkpt>
<trkpt lat="53.537375" lon="-1.971220"><ele>238</ele><time>2020-09-24T13:33:18Z</time><name>PT3746</name></trkpt>
<trkpt lat="53.537329" lon="-1.971239"><ele>239</ele><time>2020-09-24T13:33:22Z</time><name>PT3747</name></trkpt>
<trkpt lat="53.537281" lon="-1.971258"><ele>239</ele><time>2020-09-24T13:33:26Z</time><name>PT3748</name></trkpt>
<trkpt lat="53.537233" lon="-1.971295"><ele>240</ele><time>2020-09-24T13:33:30Z</time><name>PT3749</name></trkpt>
<trkpt lat="53.537188" lon="-1.971326"><ele>241</ele><time>2020-09-24T13:33:34Z</time><name>PT3750</name></trkpt>
<trkpt lat="53.537150" lon="-1.971362"><ele>241</ele><time>2020-09-24T13:33:38Z</time><name>PT3751</name></trkpt>
<trkpt lat="53.537116" lon="-1.971401"><ele>239</ele><time>2020-09-24T13:33:42Z</time><name>PT3752</name></trkpt>
<trkpt lat="53.537079" lon="-1.971451"><ele>239</ele><time>2020-09-24T13:33:46Z</time><name>PT3753</name></trkpt>
<trkpt lat="53.537043" lon="-1.971490"><ele>239</ele><time>2020-09-24T13:33:50Z</time><name>PT3754</name></trkpt>
<trkpt lat="53.537008" lon="-1.971536"><ele>238</ele><time>2020-09-24T13:33:54Z</time><name>PT3755</name></trkpt>
<trkpt lat="53.536976" lon="-1.971576"><ele>236</ele><time>2020-09-24T13:33:58Z</time><name>PT3756</name></trkpt>
<trkpt lat="53.536943" lon="-1.971616"><ele>236</ele><time>2020-09-24T13:34:02Z</time><name>PT3757</name></trkpt>
<trkpt lat="53.536910" lon="-1.971659"><ele>237</ele><time>2020-09-24T13:34:06Z</time><name>PT3758</name></trkpt>
<trkpt lat="53.536872" lon="-1.971707"><ele>238</ele><time>2020-09-24T13:34:10Z</time><name>PT3759</name></trkpt>
<trkpt lat="53.536829" lon="-1.971740"><ele>237</ele><time>2020-09-24T13:34:14Z</time><name>PT3760</name></trkpt>
<trkpt lat="53.536801" lon="-1.971779"><ele>237</ele><time>2020-09-24T13:34:18Z</time><name>PT3761</name></trkpt>
<trkpt lat="53.536768" lon="-1.971829"><ele>236</ele><time>2020-09-24T13:34:22Z</time><name>PT3762</name></trkpt>
<trkpt lat="53.536729" lon="-1.971875"><ele>236</ele><time>2020-09-24T13:34:26Z</time><name>PT3763</name></trkpt>
<trkpt lat="53.536694" lon="-1.971921"><ele>236</ele><time>2020-09-24T13:34:30Z</time><name>PT3764</name></trkpt>
<trkpt lat="53.536670" lon="-1.971966"><ele>235</ele><time>2020-09-24T13:34:34Z</time><name>PT3765</name></trkpt>
<trkpt lat="53.536631" lon="-1.972010"><ele>236</ele><time>2020-09-24T13:34:38Z</time><name>PT3766</name></trkpt>
<trkpt lat="53.536596" lon="-1.972055"><ele>237</ele><time>2020-09-24T13:34:42Z</time><name>PT3767</name></trkpt>
<trkpt lat="53.536567" lon="-1.972095"><ele>236</ele><time>2020-09-24T13:34:46Z</time><name>PT3768</name></trkpt>
<trkpt lat="53.536549" lon="-1.972131"><ele>235</ele><time>2020-09-24T13:34:50Z</time><name>PT3769</name></trkpt>
<trkpt lat="53.536530" lon="-1.972151"><ele>236</ele><time>2020-09-24T13:34:54Z</time><name>PT3770</name></trkpt>
<trkpt lat="53.536497" lon="-1.972172"><ele>237</ele><time>2020-09-24T13:34:58Z</time><name>PT3771</name></trkpt>
<trkpt lat="53.536458" lon="-1.972213"><ele>238</ele><time>2020-09-24T13:35:02Z</time><name>PT3772</name></trkpt>
<trkpt lat="53.536421" lon="-1.972234"><ele>239</ele><time>2020-09-24T13:35:06Z</time><name>PT3773</name></trkpt>
<trkpt lat="53.536381" lon="-1.972282"><ele>241</ele><time>2020-09-24T13:35:10Z</time><name>PT3774</name></trkpt>
<trkpt lat="53.536346" lon="-1.972331"><ele>238</ele><time>2020-09-24T13:35:14Z</time><name>PT3775</name></trkpt>
<trkpt lat="53.536313" lon="-1.972379"><ele>238</ele><time>2020-09-24T13:35:18Z</time><name>PT3776</name></trkpt>
<trkpt lat="53.536277" lon="-1.972418"><ele>237</ele><time>2020-09-24T13:35:22Z</time><name>PT3777</name></trkpt>
<trkpt lat="53.536238" lon="-1.972448"><ele>240</ele><time>2020-09-24T13:35:26Z</time><name>PT3778</name></trkpt>
<trkpt lat="53.536200" lon="-1.972494"><ele>241</ele><time>2020-09-24T13:35:30Z</time><name>PT3779</name></trkpt>
<trkpt lat="53.536166" lon="-1.972538"><ele>244</ele><time>2020-09-24T13:35:34Z</time><name>PT3780</name></trkpt>
<trkpt lat="53.536127" lon="-1.972587"><ele>245</ele><time>2020-09-24T13:35:38Z</time><name>PT3781</name></trkpt>
<trkpt lat="53.536097" lon="-1.972635"><ele>247</ele><time>2020-09-24T13:35:42Z</time><name>PT3782</name></trkpt>
<trkpt lat="53.536055" lon="-1.972692"><ele>247</ele><time>2020-09-24T13:35:46Z</time><name>PT3783</name></trkpt>
<trkpt lat="53.536030" lon="-1.972732"><ele>249</ele><time>2020-09-24T13:35:50Z</time><name>PT3784</name></trkpt>
<trkpt lat="53.535989" lon="-1.972783"><ele>248</ele><time>2020-09-24T13:35:54Z</time><name>PT3785</name></trkpt>
<trkpt lat="53.535954" lon="-1.972833"><ele>247</ele><time>2020-09-24T13:35:58Z</time><name>PT3786</name></trkpt>
<trkpt lat="53.535926" lon="-1.972885"><ele>248</ele><time>2020-09-24T13:36:02Z</time><name>PT3787</name></trkpt>
<trkpt lat="53.535906" lon="-1.972933"><ele>247</ele><time>2020-09-24T13:36:06Z</time><name>PT3788</name></trkpt>
<trkpt lat="53.535880" lon="-1.973005"><ele>247</ele><time>2020-09-24T13:36:10Z</time><name>PT3789</name></trkpt>
<trkpt lat="53.535853" lon="-1.973056"><ele>246</ele><time>2020-09-24T13:36:14Z</time><name>PT3790</name></trkpt>
<trkpt lat="53.535814" lon="-1.973117"><ele>245</ele><time>2020-09-24T13:36:18Z</time><name>PT3791</name></trkpt>
<trkpt lat="53.535785" lon="-1.973176"><ele>244</ele><time>2020-09-24T13:36:22Z</time><name>PT3792</name></trkpt>
<trkpt lat="53.535760" lon="-1.973242"><ele>244</ele><time>2020-09-24T13:36:26Z</time><name>PT3793</name></trkpt>
<trkpt lat="53.535743" lon="-1.973317"><ele>244</ele><time>2020-09-24T13:36:30Z</time><name>PT3794</name></trkpt>
<trkpt lat="53.535714" lon="-1.973389"><ele>243</ele><time>2020-09-24T13:36:34Z</time><name>PT3795</name></trkpt>
<trkpt lat="53.535684" lon="-1.973473"><ele>246</ele><time>2020-09-24T13:36:38Z</time><name>PT3796</name></trkpt>
<trkpt lat="53.535655" lon="-1.973560"><ele>246</ele><time>2020-09-24T13:36:42Z</time><name>PT3797</name></trkpt>
<trkpt lat="53.535619" lon="-1.973653"><ele>248</ele><time>2020-09-24T13:36:46Z</time><name>PT3798</name></trkpt>
<trkpt lat="53.535597" lon="-1.973728"><ele>249</ele><time>2020-09-24T13:36:50Z</time><name>PT3799</name></trkpt>
<trkpt lat="53.535556" lon="-1.973817"><ele>253</ele><time>2020-09-24T13:36:54Z</time><name>PT3800</name></trkpt>
<trkpt lat="53.535516" lon="-1.973896"><ele>254</ele><time>2020-09-24T13:36:58Z</time><name>PT3801</name></trkpt>
<trkpt lat="53.535489" lon="-1.973968"><ele>255</ele><time>2020-09-24T13:37:02Z</time><name>PT3802</name></trkpt>
<trkpt lat="53.535467" lon="-1.974035"><ele>256</ele><time>2020-09-24T13:37:06Z</time><name>PT3803</name></trkpt>
<trkpt lat="53.535443" lon="-1.974106"><ele>258</ele><time>2020-09-24T13:37:10Z</time><name>PT3804</name></trkpt>
<trkpt lat="53.535420" lon="-1.974168"><ele>257</ele><time>2020-09-24T13:37:14Z</time><name>PT3805</name></trkpt>
<trkpt lat="53.535407" lon="-1.974243"><ele>256</ele><time>2020-09-24T13:37:18Z</time><name>PT3806</name></trkpt>
<trkpt lat="53.535380" lon="-1.974307"><ele>257</ele><time>2020-09-24T13:37:22Z</time><name>PT3807</name></trkpt>
<trkpt lat="53.535366" lon="-1.974385"><ele>256</ele><time>2020-09-24T13:37:26Z</time><name>PT3808</name></trkpt>
<trkpt lat="53.535344" lon="-1.974472"><ele>255</ele><time>2020-09-24T13:37:30Z</time><name>PT3809</name></trkpt>
<trkpt lat="53.535325" lon="-1.974546"><ele>253</ele><time>2020-09-24T13:37:34Z</time><name>PT3810</name></trkpt>
<trkpt lat="53.535319" lon="-1.974627"><ele>253</ele><time>2020-09-24T13:37:38Z</time><name>PT3811</name></trkpt>
<trkpt lat="53.535317" lon="-1.974711"><ele>253</ele><time>2020-09-24T13:37:42Z</time><name>PT3812</name></trkpt>
<trkpt lat="53.535321" lon="-1.974787"><ele>254</ele><time>2020-09-24T13:37:46Z</time><name>PT3813</name></trkpt>
<trkpt lat="53.535335" lon="-1.974816"><ele>254</ele><time>2020-09-24T13:37:50Z</time><name>PT3814</name></trkpt>
<trkpt lat="53.535360" lon="-1.974836"><ele>257</ele><time>2020-09-24T13:37:54Z</time><name>PT3815</name></trkpt>
<trkpt lat="53.535363" lon="-1.974845"><ele>256</ele><time>2020-09-24T13:37:58Z</time><name>PT3816</name></trkpt>
<trkpt lat="53.535373" lon="-1.974875"><ele>257</ele><time>2020-09-24T13:38:02Z</time><name>PT3817</name></trkpt>
<trkpt lat="53.535392" lon="-1.974883"><ele>257</ele><time>2020-09-24T13:38:06Z</time><name>PT3818</name></trkpt>
<trkpt lat="53.535421" lon="-1.974853"><ele>258</ele><time>2020-09-24T13:38:10Z</time><name>PT3819</name></trkpt>
<trkpt lat="53.535439" lon="-1.974817"><ele>259</ele><time>2020-09-24T13:38:14Z</time><name>PT3820</name></trkpt>
<trkpt lat="53.535464" lon="-1.974798"><ele>261</ele><time>2020-09-24T13:38:18Z</time><name>PT3821</name></trkpt>
<trkpt lat="53.535477" lon="-1.974785"><ele>261</ele><time>2020-09-24T13:38:22Z</time><name>PT3822</name></trkpt>
<trkpt lat="53.535511" lon="-1.974756"><ele>261</ele><time>2020-09-24T13:38:26Z</time><name>PT3823</name></trkpt>
<trkpt lat="53.535541" lon="-1.974746"><ele>262</ele><time>2020-09-24T13:38:30Z</time><name>PT3824</name></trkpt>
<trkpt lat="53.535575" lon="-1.974711"><ele>265</ele><time>2020-09-24T13:38:34Z</time><name>PT3825</name></trkpt>
<trkpt lat="53.535609" lon="-1.974684"><ele>268</ele><time>2020-09-24T13:38:38Z</time><name>PT3826</name></trkpt>
<trkpt lat="53.535634" lon="-1.974645"><ele>271</ele><time>2020-09-24T13:38:42Z</time><name>PT3827</name></trkpt>
<trkpt lat="53.535652" lon="-1.974603"><ele>273</ele><time>2020-09-24T13:38:46Z</time><name>PT3828</name></trkpt>
<trkpt lat="53.535669" lon="-1.974570"><ele>275</ele><time>2020-09-24T13:38:50Z</time><name>PT3829</name></trkpt>
<trkpt lat="53.535687" lon="-1.974551"><ele>274</ele><time>2020-09-24T13:38:54Z</time><name>PT3830</name></trkpt>
<trkpt lat="53.535707" lon="-1.974520"><ele>276</ele><time>2020-09-24T13:38:58Z</time><name>PT3831</name></trkpt>
<trkpt lat="53.535722" lon="-1.974476"><ele>275</ele><time>2020-09-24T13:39:02Z</time><name>PT3832</name></trkpt>
<trkpt lat="53.535754" lon="-1.974448"><ele>276</ele><time>2020-09-24T13:39:06Z</time><name>PT3833</name></trkpt>
<trkpt lat="53.535783" lon="-1.974461"><ele>274</ele><time>2020-09-24T13:39:10Z</time><name>PT3834</name></trkpt>
<trkpt lat="53.535788" lon="-1.974468"><ele>275</ele><time>2020-09-24T13:39:14Z</time><name>PT3835</name></trkpt>
<trkpt lat="53.535818" lon="-1.974450"><ele>276</ele><time>2020-09-24T13:39:18Z</time><name>PT3836</name></trkpt>
<trkpt lat="53.535859" lon="-1.974416"><ele>278</ele><time>2020-09-24T13:39:22Z</time><name>PT3837</name></trkpt>
<trkpt lat="53.535886" lon="-1.974404"><ele>277</ele><time>2020-09-24T13:39:26Z</time><name>PT3838</name></trkpt>
<trkpt lat="53.535917" lon="-1.974407"><ele>276</ele><time>2020-09-24T13:39:30Z</time><name>PT3839</name></trkpt>
<trkpt lat="53.535951" lon="-1.974416"><ele>276</ele><time>2020-09-24T13:39:34Z</time><name>PT3840</name></trkpt>
<trkpt lat="53.535987" lon="-1.974406"><ele>277</ele><time>2020-09-24T13:39:38Z</time><name>PT3841</name></trkpt>
<trkpt lat="53.536017" lon="-1.974444"><ele>276</ele><time>2020-09-24T13:39:42Z</time><name>PT3842</name></trkpt>
<trkpt lat="53.536046" lon="-1.974454"><ele>277</ele><time>2020-09-24T13:39:46Z</time><name>PT3843</name></trkpt>
<trkpt lat="53.536061" lon="-1.974471"><ele>277</ele><time>2020-09-24T13:39:50Z</time><name>PT3844</name></trkpt>
<trkpt lat="53.536078" lon="-1.974472"><ele>279</ele><time>2020-09-24T13:39:52Z</time><name>PT3845</name></trkpt>
<trkpt lat="53.536086" lon="-1.974485"><ele>280</ele><time>2020-09-24T13:39:52Z</time><name>PT3846</name></trkpt>
<trkpt lat="53.536099" lon="-1.974487"><ele>281</ele><time>2020-09-24T13:39:54Z</time><name>PT3847</name></trkpt>
<trkpt lat="53.536111" lon="-1.974485"><ele>281</ele><time>2020-09-24T13:39:54Z</time><name>PT3848</name></trkpt>
<trkpt lat="53.536125" lon="-1.974490"><ele>282</ele><time>2020-09-24T13:39:56Z</time><name>PT3849</name></trkpt>
<trkpt lat="53.536142" lon="-1.974508"><ele>282</ele><time>2020-09-24T13:39:56Z</time><name>PT3850</name></trkpt>
<trkpt lat="53.536153" lon="-1.974514"><ele>282</ele><time>2020-09-24T13:39:58Z</time><name>PT3851</name></trkpt>
<trkpt lat="53.536169" lon="-1.974522"><ele>282</ele><time>2020-09-24T13:39:58Z</time><name>PT3852</name></trkpt>
<trkpt lat="53.536190" lon="-1.974531"><ele>283</ele><time>2020-09-24T13:40:00Z</time><name>PT3853</name></trkpt>
<trkpt lat="53.536200" lon="-1.974538"><ele>284</ele><time>2020-09-24T13:40:01Z</time><name>PT3854</name></trkpt>
<trkpt lat="53.536209" lon="-1.974546"><ele>285</ele><time>2020-09-24T13:40:02Z</time><name>PT3855</name></trkpt>
<trkpt lat="53.536217" lon="-1.974543"><ele>284</ele><time>2020-09-24T13:40:02Z</time><name>PT3856</name></trkpt>
<trkpt lat="53.536229" lon="-1.974544"><ele>285</ele><time>2020-09-24T13:40:04Z</time><name>PT3857</name></trkpt>
<trkpt lat="53.536239" lon="-1.974542"><ele>285</ele><time>2020-09-24T13:40:04Z</time><name>PT3858</name></trkpt>
<trkpt lat="53.536247" lon="-1.974537"><ele>285</ele><time>2020-09-24T13:40:06Z</time><name>PT3859</name></trkpt></trkseg></trk></gpx>